<?xml version="1.0" encoding="UTF-8" standalone="no" ?>
<gpx xmlns="http://www.topografix.com/GPX/1/1" xmlns:xsi="http://www.w3.org/2001/XMLSchema-instance" xsi:schemaLocation="http://www.topografix.com/GPX/1/1 http://www.topografix.com/GPX/1/1/gpx.xsd" version="1.1" creator="VisuGPX - https://www.visugpx.com">
  <metadata>
    <name>VTT du mercredi 5 décembre 2018</name>
    <desc><![CDATA[On était 4 comme d'habitude.
Température voisine de 8° et pas de pluie aujourd'hui. Christian (qui avait exploré les 4 forêts = boueux et débardé) a donc raisonnablement choisi un parcours avec routes et chemins blancs. Pique nique aux étangs de Fleurey. A l'aller et surtout au retour on a vu les travaux du contournement de Port. 
Pas de difficulté pour moi puisque j'avais mon VTT électrique ! Fin de matinée classique avec bières. Nettoyage des vélos indispensable.]]></desc>
  </metadata>
  <wpt lat="47.68627" lon="6.04548">
    <ele>229</ele>
    <name><![CDATA[0000083]]></name>
  </wpt>
  <wpt lat="47.68629" lon="6.04569">
    <ele>230</ele>
    <name><![CDATA[0000084]]></name>
  </wpt>
  <trk>
    <name><![CDATA[2018-12-05 09:37]]></name>
    <trkseg>
      <trkpt lat="47.68627" lon="6.04548">
        <ele>229</ele>
        <time>2018-12-05T08:37:01Z</time>
      </trkpt>
      <trkpt lat="47.68627" lon="6.0454">
        <ele>229</ele>
        <time>2018-12-05T08:38:31Z</time>
      </trkpt>
      <trkpt lat="47.68627" lon="6.04534">
        <ele>229</ele>
        <time>2018-12-05T08:39:47Z</time>
      </trkpt>
      <trkpt lat="47.68632" lon="6.04529">
        <ele>229</ele>
        <time>2018-12-05T08:40:14Z</time>
      </trkpt>
      <trkpt lat="47.68636" lon="6.04531">
        <ele>229</ele>
        <time>2018-12-05T08:40:16Z</time>
      </trkpt>
      <trkpt lat="47.68641" lon="6.04535">
        <ele>230</ele>
        <time>2018-12-05T08:40:18Z</time>
      </trkpt>
      <trkpt lat="47.68646" lon="6.0454">
        <ele>230</ele>
        <time>2018-12-05T08:40:20Z</time>
      </trkpt>
      <trkpt lat="47.68651" lon="6.04544">
        <ele>230</ele>
        <time>2018-12-05T08:40:22Z</time>
      </trkpt>
      <trkpt lat="47.68658" lon="6.0455">
        <ele>231</ele>
        <time>2018-12-05T08:40:24Z</time>
      </trkpt>
      <trkpt lat="47.68662" lon="6.04555">
        <ele>231</ele>
        <time>2018-12-05T08:40:26Z</time>
      </trkpt>
      <trkpt lat="47.68666" lon="6.0456">
        <ele>231</ele>
        <time>2018-12-05T08:40:28Z</time>
      </trkpt>
      <trkpt lat="47.68669" lon="6.04565">
        <ele>233</ele>
        <time>2018-12-05T08:40:30Z</time>
      </trkpt>
      <trkpt lat="47.68672" lon="6.04572">
        <ele>233</ele>
        <time>2018-12-05T08:40:32Z</time>
      </trkpt>
      <trkpt lat="47.68674" lon="6.04578">
        <ele>233</ele>
        <time>2018-12-05T08:40:34Z</time>
      </trkpt>
      <trkpt lat="47.68677" lon="6.04584">
        <ele>234</ele>
        <time>2018-12-05T08:40:36Z</time>
      </trkpt>
      <trkpt lat="47.6868" lon="6.04591">
        <ele>234</ele>
        <time>2018-12-05T08:40:39Z</time>
      </trkpt>
      <trkpt lat="47.68683" lon="6.046">
        <ele>233</ele>
        <time>2018-12-05T08:40:42Z</time>
      </trkpt>
      <trkpt lat="47.68686" lon="6.04608">
        <ele>233</ele>
        <time>2018-12-05T08:40:45Z</time>
      </trkpt>
      <trkpt lat="47.68689" lon="6.04617">
        <ele>233</ele>
        <time>2018-12-05T08:40:48Z</time>
      </trkpt>
      <trkpt lat="47.68691" lon="6.04622">
        <ele>233</ele>
        <time>2018-12-05T08:40:50Z</time>
      </trkpt>
      <trkpt lat="47.68694" lon="6.04628">
        <ele>233</ele>
        <time>2018-12-05T08:40:52Z</time>
      </trkpt>
      <trkpt lat="47.68697" lon="6.04634">
        <ele>233</ele>
        <time>2018-12-05T08:40:54Z</time>
      </trkpt>
      <trkpt lat="47.687" lon="6.0464">
        <ele>233</ele>
        <time>2018-12-05T08:40:56Z</time>
      </trkpt>
      <trkpt lat="47.68703" lon="6.04647">
        <ele>233</ele>
        <time>2018-12-05T08:40:58Z</time>
      </trkpt>
      <trkpt lat="47.68706" lon="6.04654">
        <ele>233</ele>
        <time>2018-12-05T08:41:00Z</time>
      </trkpt>
      <trkpt lat="47.6871" lon="6.04661">
        <ele>233</ele>
        <time>2018-12-05T08:41:02Z</time>
      </trkpt>
      <trkpt lat="47.68713" lon="6.04668">
        <ele>234</ele>
        <time>2018-12-05T08:41:04Z</time>
      </trkpt>
      <trkpt lat="47.68717" lon="6.04675">
        <ele>233</ele>
        <time>2018-12-05T08:41:06Z</time>
      </trkpt>
      <trkpt lat="47.6872" lon="6.04684">
        <ele>233</ele>
        <time>2018-12-05T08:41:08Z</time>
      </trkpt>
      <trkpt lat="47.68724" lon="6.04693">
        <ele>233</ele>
        <time>2018-12-05T08:41:10Z</time>
      </trkpt>
      <trkpt lat="47.68728" lon="6.04701">
        <ele>233</ele>
        <time>2018-12-05T08:41:12Z</time>
      </trkpt>
      <trkpt lat="47.68732" lon="6.04712">
        <ele>233</ele>
        <time>2018-12-05T08:41:14Z</time>
      </trkpt>
      <trkpt lat="47.68735" lon="6.04719">
        <ele>233</ele>
        <time>2018-12-05T08:41:16Z</time>
      </trkpt>
      <trkpt lat="47.68737" lon="6.04726">
        <ele>233</ele>
        <time>2018-12-05T08:41:18Z</time>
      </trkpt>
      <trkpt lat="47.68739" lon="6.04734">
        <ele>233</ele>
        <time>2018-12-05T08:41:20Z</time>
      </trkpt>
      <trkpt lat="47.68742" lon="6.04745">
        <ele>232</ele>
        <time>2018-12-05T08:41:22Z</time>
      </trkpt>
      <trkpt lat="47.68744" lon="6.04754">
        <ele>232</ele>
        <time>2018-12-05T08:41:24Z</time>
      </trkpt>
      <trkpt lat="47.68746" lon="6.04761">
        <ele>232</ele>
        <time>2018-12-05T08:41:26Z</time>
      </trkpt>
      <trkpt lat="47.68748" lon="6.04768">
        <ele>232</ele>
        <time>2018-12-05T08:41:28Z</time>
      </trkpt>
      <trkpt lat="47.6875" lon="6.04777">
        <ele>230</ele>
        <time>2018-12-05T08:41:30Z</time>
      </trkpt>
      <trkpt lat="47.68753" lon="6.04787">
        <ele>230</ele>
        <time>2018-12-05T08:41:32Z</time>
      </trkpt>
      <trkpt lat="47.68755" lon="6.04796">
        <ele>230</ele>
        <time>2018-12-05T08:41:34Z</time>
      </trkpt>
      <trkpt lat="47.68758" lon="6.04806">
        <ele>230</ele>
        <time>2018-12-05T08:41:36Z</time>
      </trkpt>
      <trkpt lat="47.6876" lon="6.04816">
        <ele>230</ele>
        <time>2018-12-05T08:41:38Z</time>
      </trkpt>
      <trkpt lat="47.68763" lon="6.04826">
        <ele>230</ele>
        <time>2018-12-05T08:41:40Z</time>
      </trkpt>
      <trkpt lat="47.68766" lon="6.04836">
        <ele>230</ele>
        <time>2018-12-05T08:41:42Z</time>
      </trkpt>
      <trkpt lat="47.68768" lon="6.04845">
        <ele>230</ele>
        <time>2018-12-05T08:41:43Z</time>
      </trkpt>
      <trkpt lat="47.68771" lon="6.04856">
        <ele>230</ele>
        <time>2018-12-05T08:41:45Z</time>
      </trkpt>
      <trkpt lat="47.68774" lon="6.04867">
        <ele>230</ele>
        <time>2018-12-05T08:41:47Z</time>
      </trkpt>
      <trkpt lat="47.68777" lon="6.04877">
        <ele>230</ele>
        <time>2018-12-05T08:41:49Z</time>
      </trkpt>
      <trkpt lat="47.68779" lon="6.04884">
        <ele>230</ele>
        <time>2018-12-05T08:41:51Z</time>
      </trkpt>
      <trkpt lat="47.68781" lon="6.04891">
        <ele>230</ele>
        <time>2018-12-05T08:41:53Z</time>
      </trkpt>
      <trkpt lat="47.68783" lon="6.04898">
        <ele>230</ele>
        <time>2018-12-05T08:41:55Z</time>
      </trkpt>
      <trkpt lat="47.68786" lon="6.04905">
        <ele>229</ele>
        <time>2018-12-05T08:41:57Z</time>
      </trkpt>
      <trkpt lat="47.68789" lon="6.04914">
        <ele>229</ele>
        <time>2018-12-05T08:41:59Z</time>
      </trkpt>
      <trkpt lat="47.68793" lon="6.04922">
        <ele>230</ele>
        <time>2018-12-05T08:42:01Z</time>
      </trkpt>
      <trkpt lat="47.68796" lon="6.04927">
        <ele>230</ele>
        <time>2018-12-05T08:42:03Z</time>
      </trkpt>
      <trkpt lat="47.68802" lon="6.04929">
        <ele>229</ele>
        <time>2018-12-05T08:42:05Z</time>
      </trkpt>
      <trkpt lat="47.68807" lon="6.04925">
        <ele>229</ele>
        <time>2018-12-05T08:42:07Z</time>
      </trkpt>
      <trkpt lat="47.68812" lon="6.04917">
        <ele>229</ele>
        <time>2018-12-05T08:42:09Z</time>
      </trkpt>
      <trkpt lat="47.68817" lon="6.04907">
        <ele>229</ele>
        <time>2018-12-05T08:42:11Z</time>
      </trkpt>
      <trkpt lat="47.6883" lon="6.04902">
        <ele>229</ele>
        <time>2018-12-05T08:42:13Z</time>
      </trkpt>
      <trkpt lat="47.68835" lon="6.04904">
        <ele>229</ele>
        <time>2018-12-05T08:42:14Z</time>
      </trkpt>
      <trkpt lat="47.6884" lon="6.04908">
        <ele>229</ele>
        <time>2018-12-05T08:42:15Z</time>
      </trkpt>
      <trkpt lat="47.68844" lon="6.04911">
        <ele>229</ele>
        <time>2018-12-05T08:42:16Z</time>
      </trkpt>
      <trkpt lat="47.6885" lon="6.0492">
        <ele>229</ele>
        <time>2018-12-05T08:42:18Z</time>
      </trkpt>
      <trkpt lat="47.68855" lon="6.0493">
        <ele>229</ele>
        <time>2018-12-05T08:42:20Z</time>
      </trkpt>
      <trkpt lat="47.6886" lon="6.0494">
        <ele>230</ele>
        <time>2018-12-05T08:42:22Z</time>
      </trkpt>
      <trkpt lat="47.68864" lon="6.04949">
        <ele>230</ele>
        <time>2018-12-05T08:42:24Z</time>
      </trkpt>
      <trkpt lat="47.68868" lon="6.04956">
        <ele>230</ele>
        <time>2018-12-05T08:42:26Z</time>
      </trkpt>
      <trkpt lat="47.68871" lon="6.04963">
        <ele>230</ele>
        <time>2018-12-05T08:42:28Z</time>
      </trkpt>
      <trkpt lat="47.68874" lon="6.04969">
        <ele>230</ele>
        <time>2018-12-05T08:42:30Z</time>
      </trkpt>
      <trkpt lat="47.68877" lon="6.04976">
        <ele>230</ele>
        <time>2018-12-05T08:42:32Z</time>
      </trkpt>
      <trkpt lat="47.6888" lon="6.04983">
        <ele>230</ele>
        <time>2018-12-05T08:42:34Z</time>
      </trkpt>
      <trkpt lat="47.68883" lon="6.0499">
        <ele>230</ele>
        <time>2018-12-05T08:42:36Z</time>
      </trkpt>
      <trkpt lat="47.68887" lon="6.04996">
        <ele>230</ele>
        <time>2018-12-05T08:42:38Z</time>
      </trkpt>
      <trkpt lat="47.68891" lon="6.05">
        <ele>231</ele>
        <time>2018-12-05T08:42:40Z</time>
      </trkpt>
      <trkpt lat="47.68896" lon="6.05004">
        <ele>231</ele>
        <time>2018-12-05T08:42:42Z</time>
      </trkpt>
      <trkpt lat="47.689" lon="6.05008">
        <ele>231</ele>
        <time>2018-12-05T08:42:44Z</time>
      </trkpt>
      <trkpt lat="47.68905" lon="6.05013">
        <ele>231</ele>
        <time>2018-12-05T08:42:47Z</time>
      </trkpt>
      <trkpt lat="47.68911" lon="6.05018">
        <ele>231</ele>
        <time>2018-12-05T08:42:50Z</time>
      </trkpt>
      <trkpt lat="47.68914" lon="6.05022">
        <ele>231</ele>
        <time>2018-12-05T08:42:52Z</time>
      </trkpt>
      <trkpt lat="47.68919" lon="6.05026">
        <ele>234</ele>
        <time>2018-12-05T08:42:54Z</time>
      </trkpt>
      <trkpt lat="47.68924" lon="6.0503">
        <ele>234</ele>
        <time>2018-12-05T08:42:56Z</time>
      </trkpt>
      <trkpt lat="47.68928" lon="6.05035">
        <ele>234</ele>
        <time>2018-12-05T08:42:58Z</time>
      </trkpt>
      <trkpt lat="47.68933" lon="6.0504">
        <ele>234</ele>
        <time>2018-12-05T08:43:01Z</time>
      </trkpt>
      <trkpt lat="47.68938" lon="6.05043">
        <ele>235</ele>
        <time>2018-12-05T08:43:03Z</time>
      </trkpt>
      <trkpt lat="47.68942" lon="6.05046">
        <ele>235</ele>
        <time>2018-12-05T08:43:05Z</time>
      </trkpt>
      <trkpt lat="47.68948" lon="6.0505">
        <ele>235</ele>
        <time>2018-12-05T08:43:07Z</time>
      </trkpt>
      <trkpt lat="47.68952" lon="6.05054">
        <ele>235</ele>
        <time>2018-12-05T08:43:09Z</time>
      </trkpt>
      <trkpt lat="47.68957" lon="6.05056">
        <ele>235</ele>
        <time>2018-12-05T08:43:11Z</time>
      </trkpt>
      <trkpt lat="47.68961" lon="6.05059">
        <ele>236</ele>
        <time>2018-12-05T08:43:13Z</time>
      </trkpt>
      <trkpt lat="47.68965" lon="6.05061">
        <ele>236</ele>
        <time>2018-12-05T08:43:15Z</time>
      </trkpt>
      <trkpt lat="47.68971" lon="6.05065">
        <ele>236</ele>
        <time>2018-12-05T08:43:18Z</time>
      </trkpt>
      <trkpt lat="47.68977" lon="6.05068">
        <ele>237</ele>
        <time>2018-12-05T08:43:21Z</time>
      </trkpt>
      <trkpt lat="47.68981" lon="6.05072">
        <ele>237</ele>
        <time>2018-12-05T08:43:24Z</time>
      </trkpt>
      <trkpt lat="47.68987" lon="6.05075">
        <ele>237</ele>
        <time>2018-12-05T08:43:27Z</time>
      </trkpt>
      <trkpt lat="47.68992" lon="6.05078">
        <ele>238</ele>
        <time>2018-12-05T08:43:30Z</time>
      </trkpt>
      <trkpt lat="47.68997" lon="6.05081">
        <ele>239</ele>
        <time>2018-12-05T08:43:33Z</time>
      </trkpt>
      <trkpt lat="47.69002" lon="6.05085">
        <ele>239</ele>
        <time>2018-12-05T08:43:36Z</time>
      </trkpt>
      <trkpt lat="47.69007" lon="6.05089">
        <ele>240</ele>
        <time>2018-12-05T08:43:39Z</time>
      </trkpt>
      <trkpt lat="47.69013" lon="6.05092">
        <ele>240</ele>
        <time>2018-12-05T08:43:42Z</time>
      </trkpt>
      <trkpt lat="47.69018" lon="6.05094">
        <ele>241</ele>
        <time>2018-12-05T08:43:45Z</time>
      </trkpt>
      <trkpt lat="47.69023" lon="6.05098">
        <ele>241</ele>
        <time>2018-12-05T08:43:48Z</time>
      </trkpt>
      <trkpt lat="47.69028" lon="6.05101">
        <ele>241</ele>
        <time>2018-12-05T08:43:51Z</time>
      </trkpt>
      <trkpt lat="47.69033" lon="6.05105">
        <ele>242</ele>
        <time>2018-12-05T08:43:55Z</time>
      </trkpt>
      <trkpt lat="47.69038" lon="6.05109">
        <ele>242</ele>
        <time>2018-12-05T08:43:58Z</time>
      </trkpt>
      <trkpt lat="47.69043" lon="6.05112">
        <ele>242</ele>
        <time>2018-12-05T08:44:01Z</time>
      </trkpt>
      <trkpt lat="47.69048" lon="6.05116">
        <ele>242</ele>
        <time>2018-12-05T08:44:04Z</time>
      </trkpt>
      <trkpt lat="47.69053" lon="6.0512">
        <ele>242</ele>
        <time>2018-12-05T08:44:07Z</time>
      </trkpt>
      <trkpt lat="47.69058" lon="6.05123">
        <ele>243</ele>
        <time>2018-12-05T08:44:10Z</time>
      </trkpt>
      <trkpt lat="47.69064" lon="6.05126">
        <ele>243</ele>
        <time>2018-12-05T08:44:13Z</time>
      </trkpt>
      <trkpt lat="47.69069" lon="6.0513">
        <ele>243</ele>
        <time>2018-12-05T08:44:16Z</time>
      </trkpt>
      <trkpt lat="47.69075" lon="6.05136">
        <ele>243</ele>
        <time>2018-12-05T08:44:19Z</time>
      </trkpt>
      <trkpt lat="47.6908" lon="6.05141">
        <ele>243</ele>
        <time>2018-12-05T08:44:22Z</time>
      </trkpt>
      <trkpt lat="47.69084" lon="6.05145">
        <ele>245</ele>
        <time>2018-12-05T08:44:25Z</time>
      </trkpt>
      <trkpt lat="47.69088" lon="6.05149">
        <ele>245</ele>
        <time>2018-12-05T08:44:28Z</time>
      </trkpt>
      <trkpt lat="47.69094" lon="6.05153">
        <ele>245</ele>
        <time>2018-12-05T08:44:31Z</time>
      </trkpt>
      <trkpt lat="47.69099" lon="6.05156">
        <ele>245</ele>
        <time>2018-12-05T08:44:33Z</time>
      </trkpt>
      <trkpt lat="47.69104" lon="6.05159">
        <ele>245</ele>
        <time>2018-12-05T08:44:35Z</time>
      </trkpt>
      <trkpt lat="47.69108" lon="6.05162">
        <ele>245</ele>
        <time>2018-12-05T08:44:37Z</time>
      </trkpt>
      <trkpt lat="47.69113" lon="6.05166">
        <ele>245</ele>
        <time>2018-12-05T08:44:39Z</time>
      </trkpt>
      <trkpt lat="47.69118" lon="6.05169">
        <ele>245</ele>
        <time>2018-12-05T08:44:41Z</time>
      </trkpt>
      <trkpt lat="47.69123" lon="6.05174">
        <ele>246</ele>
        <time>2018-12-05T08:44:43Z</time>
      </trkpt>
      <trkpt lat="47.69129" lon="6.05178">
        <ele>246</ele>
        <time>2018-12-05T08:44:45Z</time>
      </trkpt>
      <trkpt lat="47.69134" lon="6.05182">
        <ele>246</ele>
        <time>2018-12-05T08:44:47Z</time>
      </trkpt>
      <trkpt lat="47.6914" lon="6.05187">
        <ele>246</ele>
        <time>2018-12-05T08:44:49Z</time>
      </trkpt>
      <trkpt lat="47.69146" lon="6.05192">
        <ele>246</ele>
        <time>2018-12-05T08:44:51Z</time>
      </trkpt>
      <trkpt lat="47.69151" lon="6.05197">
        <ele>246</ele>
        <time>2018-12-05T08:44:53Z</time>
      </trkpt>
      <trkpt lat="47.69156" lon="6.05202">
        <ele>246</ele>
        <time>2018-12-05T08:44:55Z</time>
      </trkpt>
      <trkpt lat="47.69162" lon="6.05209">
        <ele>246</ele>
        <time>2018-12-05T08:44:57Z</time>
      </trkpt>
      <trkpt lat="47.69168" lon="6.05216">
        <ele>246</ele>
        <time>2018-12-05T08:44:59Z</time>
      </trkpt>
      <trkpt lat="47.69174" lon="6.05223">
        <ele>246</ele>
        <time>2018-12-05T08:45:01Z</time>
      </trkpt>
      <trkpt lat="47.6918" lon="6.0523">
        <ele>246</ele>
        <time>2018-12-05T08:45:03Z</time>
      </trkpt>
      <trkpt lat="47.69186" lon="6.05236">
        <ele>246</ele>
        <time>2018-12-05T08:45:05Z</time>
      </trkpt>
      <trkpt lat="47.69193" lon="6.05243">
        <ele>245</ele>
        <time>2018-12-05T08:45:07Z</time>
      </trkpt>
      <trkpt lat="47.69199" lon="6.0525">
        <ele>245</ele>
        <time>2018-12-05T08:45:09Z</time>
      </trkpt>
      <trkpt lat="47.69204" lon="6.05256">
        <ele>246</ele>
        <time>2018-12-05T08:45:11Z</time>
      </trkpt>
      <trkpt lat="47.6921" lon="6.05261">
        <ele>246</ele>
        <time>2018-12-05T08:45:13Z</time>
      </trkpt>
      <trkpt lat="47.69215" lon="6.05268">
        <ele>246</ele>
        <time>2018-12-05T08:45:15Z</time>
      </trkpt>
      <trkpt lat="47.69222" lon="6.05274">
        <ele>246</ele>
        <time>2018-12-05T08:45:17Z</time>
      </trkpt>
      <trkpt lat="47.69232" lon="6.05287">
        <ele>246</ele>
        <time>2018-12-05T08:45:19Z</time>
      </trkpt>
      <trkpt lat="47.69235" lon="6.05291">
        <ele>246</ele>
        <time>2018-12-05T08:45:20Z</time>
      </trkpt>
      <trkpt lat="47.69242" lon="6.05299">
        <ele>246</ele>
        <time>2018-12-05T08:45:22Z</time>
      </trkpt>
      <trkpt lat="47.69249" lon="6.05306">
        <ele>246</ele>
        <time>2018-12-05T08:45:24Z</time>
      </trkpt>
      <trkpt lat="47.69255" lon="6.05313">
        <ele>245</ele>
        <time>2018-12-05T08:45:26Z</time>
      </trkpt>
      <trkpt lat="47.69263" lon="6.0532">
        <ele>245</ele>
        <time>2018-12-05T08:45:28Z</time>
      </trkpt>
      <trkpt lat="47.69267" lon="6.05324">
        <ele>245</ele>
        <time>2018-12-05T08:45:29Z</time>
      </trkpt>
      <trkpt lat="47.69271" lon="6.05328">
        <ele>245</ele>
        <time>2018-12-05T08:45:30Z</time>
      </trkpt>
      <trkpt lat="47.69278" lon="6.05335">
        <ele>246</ele>
        <time>2018-12-05T08:45:32Z</time>
      </trkpt>
      <trkpt lat="47.69282" lon="6.05338">
        <ele>247</ele>
        <time>2018-12-05T08:45:33Z</time>
      </trkpt>
      <trkpt lat="47.69286" lon="6.05342">
        <ele>247</ele>
        <time>2018-12-05T08:45:34Z</time>
      </trkpt>
      <trkpt lat="47.6929" lon="6.05345">
        <ele>247</ele>
        <time>2018-12-05T08:45:35Z</time>
      </trkpt>
      <trkpt lat="47.69294" lon="6.05349">
        <ele>247</ele>
        <time>2018-12-05T08:45:36Z</time>
      </trkpt>
      <trkpt lat="47.69299" lon="6.05352">
        <ele>247</ele>
        <time>2018-12-05T08:45:37Z</time>
      </trkpt>
      <trkpt lat="47.69303" lon="6.05355">
        <ele>247</ele>
        <time>2018-12-05T08:45:38Z</time>
      </trkpt>
      <trkpt lat="47.6931" lon="6.05361">
        <ele>247</ele>
        <time>2018-12-05T08:45:40Z</time>
      </trkpt>
      <trkpt lat="47.69318" lon="6.05367">
        <ele>247</ele>
        <time>2018-12-05T08:45:42Z</time>
      </trkpt>
      <trkpt lat="47.69325" lon="6.05373">
        <ele>247</ele>
        <time>2018-12-05T08:45:44Z</time>
      </trkpt>
      <trkpt lat="47.69332" lon="6.05378">
        <ele>247</ele>
        <time>2018-12-05T08:45:46Z</time>
      </trkpt>
      <trkpt lat="47.6934" lon="6.05384">
        <ele>246</ele>
        <time>2018-12-05T08:45:48Z</time>
      </trkpt>
      <trkpt lat="47.69345" lon="6.05388">
        <ele>246</ele>
        <time>2018-12-05T08:45:49Z</time>
      </trkpt>
      <trkpt lat="47.69349" lon="6.05391">
        <ele>247</ele>
        <time>2018-12-05T08:45:50Z</time>
      </trkpt>
      <trkpt lat="47.69354" lon="6.05396">
        <ele>247</ele>
        <time>2018-12-05T08:45:51Z</time>
      </trkpt>
      <trkpt lat="47.69359" lon="6.05398">
        <ele>247</ele>
        <time>2018-12-05T08:45:52Z</time>
      </trkpt>
      <trkpt lat="47.69367" lon="6.05404">
        <ele>246</ele>
        <time>2018-12-05T08:45:54Z</time>
      </trkpt>
      <trkpt lat="47.69374" lon="6.05409">
        <ele>246</ele>
        <time>2018-12-05T08:45:56Z</time>
      </trkpt>
      <trkpt lat="47.69379" lon="6.05413">
        <ele>246</ele>
        <time>2018-12-05T08:45:58Z</time>
      </trkpt>
      <trkpt lat="47.69385" lon="6.05418">
        <ele>248</ele>
        <time>2018-12-05T08:46:00Z</time>
      </trkpt>
      <trkpt lat="47.69391" lon="6.05421">
        <ele>248</ele>
        <time>2018-12-05T08:46:02Z</time>
      </trkpt>
      <trkpt lat="47.69397" lon="6.05427">
        <ele>247</ele>
        <time>2018-12-05T08:46:04Z</time>
      </trkpt>
      <trkpt lat="47.69402" lon="6.05432">
        <ele>247</ele>
        <time>2018-12-05T08:46:06Z</time>
      </trkpt>
      <trkpt lat="47.69406" lon="6.05435">
        <ele>248</ele>
        <time>2018-12-05T08:46:08Z</time>
      </trkpt>
      <trkpt lat="47.6941" lon="6.0544">
        <ele>248</ele>
        <time>2018-12-05T08:46:10Z</time>
      </trkpt>
      <trkpt lat="47.69416" lon="6.05445">
        <ele>248</ele>
        <time>2018-12-05T08:46:12Z</time>
      </trkpt>
      <trkpt lat="47.6942" lon="6.05449">
        <ele>249</ele>
        <time>2018-12-05T08:46:14Z</time>
      </trkpt>
      <trkpt lat="47.69424" lon="6.05453">
        <ele>249</ele>
        <time>2018-12-05T08:46:16Z</time>
      </trkpt>
      <trkpt lat="47.69429" lon="6.05458">
        <ele>249</ele>
        <time>2018-12-05T08:46:19Z</time>
      </trkpt>
      <trkpt lat="47.69433" lon="6.05461">
        <ele>249</ele>
        <time>2018-12-05T08:46:23Z</time>
      </trkpt>
      <trkpt lat="47.69438" lon="6.05462">
        <ele>249</ele>
        <time>2018-12-05T08:47:14Z</time>
      </trkpt>
      <trkpt lat="47.69444" lon="6.05464">
        <ele>249</ele>
        <time>2018-12-05T08:48:05Z</time>
      </trkpt>
      <trkpt lat="47.69449" lon="6.05469">
        <ele>250</ele>
        <time>2018-12-05T08:48:07Z</time>
      </trkpt>
      <trkpt lat="47.69455" lon="6.05475">
        <ele>250</ele>
        <time>2018-12-05T08:48:09Z</time>
      </trkpt>
      <trkpt lat="47.69461" lon="6.05481">
        <ele>250</ele>
        <time>2018-12-05T08:48:11Z</time>
      </trkpt>
      <trkpt lat="47.69468" lon="6.05486">
        <ele>250</ele>
        <time>2018-12-05T08:48:13Z</time>
      </trkpt>
      <trkpt lat="47.69473" lon="6.0549">
        <ele>250</ele>
        <time>2018-12-05T08:48:15Z</time>
      </trkpt>
      <trkpt lat="47.69478" lon="6.05494">
        <ele>251</ele>
        <time>2018-12-05T08:48:17Z</time>
      </trkpt>
      <trkpt lat="47.69484" lon="6.05498">
        <ele>251</ele>
        <time>2018-12-05T08:48:19Z</time>
      </trkpt>
      <trkpt lat="47.69488" lon="6.05503">
        <ele>252</ele>
        <time>2018-12-05T08:48:21Z</time>
      </trkpt>
      <trkpt lat="47.69493" lon="6.05507">
        <ele>252</ele>
        <time>2018-12-05T08:48:23Z</time>
      </trkpt>
      <trkpt lat="47.69498" lon="6.05511">
        <ele>252</ele>
        <time>2018-12-05T08:48:25Z</time>
      </trkpt>
      <trkpt lat="47.69503" lon="6.05515">
        <ele>252</ele>
        <time>2018-12-05T08:48:27Z</time>
      </trkpt>
      <trkpt lat="47.69509" lon="6.05518">
        <ele>252</ele>
        <time>2018-12-05T08:48:30Z</time>
      </trkpt>
      <trkpt lat="47.69513" lon="6.05521">
        <ele>252</ele>
        <time>2018-12-05T08:48:32Z</time>
      </trkpt>
      <trkpt lat="47.69519" lon="6.05524">
        <ele>252</ele>
        <time>2018-12-05T08:48:34Z</time>
      </trkpt>
      <trkpt lat="47.69524" lon="6.05528">
        <ele>252</ele>
        <time>2018-12-05T08:48:36Z</time>
      </trkpt>
      <trkpt lat="47.69529" lon="6.05533">
        <ele>252</ele>
        <time>2018-12-05T08:48:39Z</time>
      </trkpt>
      <trkpt lat="47.69532" lon="6.05538">
        <ele>252</ele>
        <time>2018-12-05T08:48:58Z</time>
      </trkpt>
      <trkpt lat="47.69537" lon="6.05539">
        <ele>252</ele>
        <time>2018-12-05T08:49:58Z</time>
      </trkpt>
      <trkpt lat="47.69542" lon="6.05534">
        <ele>253</ele>
        <time>2018-12-05T08:50:03Z</time>
      </trkpt>
      <trkpt lat="47.69547" lon="6.05535">
        <ele>253</ele>
        <time>2018-12-05T08:50:05Z</time>
      </trkpt>
      <trkpt lat="47.69555" lon="6.05537">
        <ele>253</ele>
        <time>2018-12-05T08:50:07Z</time>
      </trkpt>
      <trkpt lat="47.69563" lon="6.05538">
        <ele>253</ele>
        <time>2018-12-05T08:50:08Z</time>
      </trkpt>
      <trkpt lat="47.69568" lon="6.05539">
        <ele>253</ele>
        <time>2018-12-05T08:50:09Z</time>
      </trkpt>
      <trkpt lat="47.69574" lon="6.05541">
        <ele>253</ele>
        <time>2018-12-05T08:50:10Z</time>
      </trkpt>
      <trkpt lat="47.6958" lon="6.05544">
        <ele>252</ele>
        <time>2018-12-05T08:50:11Z</time>
      </trkpt>
      <trkpt lat="47.69586" lon="6.05548">
        <ele>250</ele>
        <time>2018-12-05T08:50:12Z</time>
      </trkpt>
      <trkpt lat="47.69592" lon="6.05553">
        <ele>250</ele>
        <time>2018-12-05T08:50:13Z</time>
      </trkpt>
      <trkpt lat="47.69597" lon="6.05558">
        <ele>250</ele>
        <time>2018-12-05T08:50:14Z</time>
      </trkpt>
      <trkpt lat="47.69602" lon="6.05563">
        <ele>250</ele>
        <time>2018-12-05T08:50:15Z</time>
      </trkpt>
      <trkpt lat="47.69606" lon="6.05567">
        <ele>250</ele>
        <time>2018-12-05T08:50:16Z</time>
      </trkpt>
      <trkpt lat="47.69611" lon="6.05571">
        <ele>250</ele>
        <time>2018-12-05T08:50:17Z</time>
      </trkpt>
      <trkpt lat="47.69616" lon="6.05575">
        <ele>249</ele>
        <time>2018-12-05T08:50:18Z</time>
      </trkpt>
      <trkpt lat="47.69621" lon="6.05578">
        <ele>249</ele>
        <time>2018-12-05T08:50:19Z</time>
      </trkpt>
      <trkpt lat="47.69629" lon="6.05583">
        <ele>249</ele>
        <time>2018-12-05T08:50:21Z</time>
      </trkpt>
      <trkpt lat="47.69634" lon="6.05585">
        <ele>249</ele>
        <time>2018-12-05T08:50:22Z</time>
      </trkpt>
      <trkpt lat="47.69639" lon="6.05587">
        <ele>249</ele>
        <time>2018-12-05T08:50:23Z</time>
      </trkpt>
      <trkpt lat="47.69644" lon="6.05587">
        <ele>248</ele>
        <time>2018-12-05T08:50:24Z</time>
      </trkpt>
      <trkpt lat="47.69649" lon="6.05587">
        <ele>248</ele>
        <time>2018-12-05T08:50:25Z</time>
      </trkpt>
      <trkpt lat="47.69656" lon="6.05586">
        <ele>247</ele>
        <time>2018-12-05T08:50:26Z</time>
      </trkpt>
      <trkpt lat="47.69663" lon="6.05584">
        <ele>247</ele>
        <time>2018-12-05T08:50:27Z</time>
      </trkpt>
      <trkpt lat="47.69669" lon="6.05581">
        <ele>246</ele>
        <time>2018-12-05T08:50:28Z</time>
      </trkpt>
      <trkpt lat="47.69676" lon="6.05577">
        <ele>245</ele>
        <time>2018-12-05T08:50:29Z</time>
      </trkpt>
      <trkpt lat="47.69682" lon="6.05573">
        <ele>244</ele>
        <time>2018-12-05T08:50:30Z</time>
      </trkpt>
      <trkpt lat="47.69688" lon="6.05569">
        <ele>244</ele>
        <time>2018-12-05T08:50:31Z</time>
      </trkpt>
      <trkpt lat="47.69694" lon="6.05564">
        <ele>243</ele>
        <time>2018-12-05T08:50:32Z</time>
      </trkpt>
      <trkpt lat="47.69699" lon="6.05558">
        <ele>243</ele>
        <time>2018-12-05T08:50:33Z</time>
      </trkpt>
      <trkpt lat="47.69705" lon="6.05552">
        <ele>243</ele>
        <time>2018-12-05T08:50:34Z</time>
      </trkpt>
      <trkpt lat="47.6971" lon="6.05547">
        <ele>243</ele>
        <time>2018-12-05T08:50:35Z</time>
      </trkpt>
      <trkpt lat="47.69715" lon="6.05542">
        <ele>243</ele>
        <time>2018-12-05T08:50:36Z</time>
      </trkpt>
      <trkpt lat="47.69719" lon="6.05536">
        <ele>242</ele>
        <time>2018-12-05T08:50:37Z</time>
      </trkpt>
      <trkpt lat="47.69724" lon="6.05531">
        <ele>242</ele>
        <time>2018-12-05T08:50:38Z</time>
      </trkpt>
      <trkpt lat="47.69729" lon="6.05526">
        <ele>242</ele>
        <time>2018-12-05T08:50:39Z</time>
      </trkpt>
      <trkpt lat="47.69733" lon="6.0552">
        <ele>241</ele>
        <time>2018-12-05T08:50:40Z</time>
      </trkpt>
      <trkpt lat="47.69737" lon="6.05514">
        <ele>241</ele>
        <time>2018-12-05T08:50:41Z</time>
      </trkpt>
      <trkpt lat="47.69742" lon="6.05508">
        <ele>240</ele>
        <time>2018-12-05T08:50:42Z</time>
      </trkpt>
      <trkpt lat="47.69746" lon="6.05501">
        <ele>240</ele>
        <time>2018-12-05T08:50:43Z</time>
      </trkpt>
      <trkpt lat="47.69751" lon="6.05494">
        <ele>240</ele>
        <time>2018-12-05T08:50:44Z</time>
      </trkpt>
      <trkpt lat="47.69755" lon="6.05487">
        <ele>240</ele>
        <time>2018-12-05T08:50:45Z</time>
      </trkpt>
      <trkpt lat="47.6976" lon="6.0548">
        <ele>241</ele>
        <time>2018-12-05T08:50:46Z</time>
      </trkpt>
      <trkpt lat="47.69765" lon="6.05473">
        <ele>241</ele>
        <time>2018-12-05T08:50:47Z</time>
      </trkpt>
      <trkpt lat="47.6977" lon="6.05468">
        <ele>241</ele>
        <time>2018-12-05T08:50:48Z</time>
      </trkpt>
      <trkpt lat="47.69775" lon="6.05462">
        <ele>242</ele>
        <time>2018-12-05T08:50:49Z</time>
      </trkpt>
      <trkpt lat="47.6978" lon="6.05458">
        <ele>242</ele>
        <time>2018-12-05T08:50:50Z</time>
      </trkpt>
      <trkpt lat="47.69786" lon="6.05454">
        <ele>242</ele>
        <time>2018-12-05T08:50:51Z</time>
      </trkpt>
      <trkpt lat="47.69791" lon="6.0545">
        <ele>242</ele>
        <time>2018-12-05T08:50:52Z</time>
      </trkpt>
      <trkpt lat="47.69796" lon="6.05449">
        <ele>243</ele>
        <time>2018-12-05T08:50:53Z</time>
      </trkpt>
      <trkpt lat="47.69801" lon="6.05448">
        <ele>243</ele>
        <time>2018-12-05T08:50:54Z</time>
      </trkpt>
      <trkpt lat="47.69807" lon="6.05448">
        <ele>243</ele>
        <time>2018-12-05T08:50:55Z</time>
      </trkpt>
      <trkpt lat="47.69812" lon="6.05449">
        <ele>243</ele>
        <time>2018-12-05T08:50:56Z</time>
      </trkpt>
      <trkpt lat="47.69816" lon="6.05449">
        <ele>243</ele>
        <time>2018-12-05T08:50:57Z</time>
      </trkpt>
      <trkpt lat="47.69824" lon="6.05448">
        <ele>244</ele>
        <time>2018-12-05T08:50:59Z</time>
      </trkpt>
      <trkpt lat="47.69831" lon="6.05447">
        <ele>244</ele>
        <time>2018-12-05T08:51:01Z</time>
      </trkpt>
      <trkpt lat="47.69836" lon="6.05445">
        <ele>246</ele>
        <time>2018-12-05T08:51:03Z</time>
      </trkpt>
      <trkpt lat="47.69842" lon="6.05443">
        <ele>246</ele>
        <time>2018-12-05T08:51:05Z</time>
      </trkpt>
      <trkpt lat="47.69847" lon="6.05442">
        <ele>246</ele>
        <time>2018-12-05T08:51:07Z</time>
      </trkpt>
      <trkpt lat="47.69852" lon="6.05439">
        <ele>246</ele>
        <time>2018-12-05T08:51:09Z</time>
      </trkpt>
      <trkpt lat="47.69857" lon="6.05436">
        <ele>246</ele>
        <time>2018-12-05T08:51:11Z</time>
      </trkpt>
      <trkpt lat="47.69862" lon="6.05432">
        <ele>246</ele>
        <time>2018-12-05T08:51:13Z</time>
      </trkpt>
      <trkpt lat="47.69867" lon="6.0543">
        <ele>246</ele>
        <time>2018-12-05T08:51:15Z</time>
      </trkpt>
      <trkpt lat="47.69872" lon="6.05428">
        <ele>246</ele>
        <time>2018-12-05T08:51:17Z</time>
      </trkpt>
      <trkpt lat="47.69876" lon="6.05425">
        <ele>246</ele>
        <time>2018-12-05T08:51:19Z</time>
      </trkpt>
      <trkpt lat="47.69882" lon="6.05422">
        <ele>246</ele>
        <time>2018-12-05T08:51:21Z</time>
      </trkpt>
      <trkpt lat="47.69886" lon="6.05419">
        <ele>246</ele>
        <time>2018-12-05T08:51:23Z</time>
      </trkpt>
      <trkpt lat="47.69891" lon="6.05416">
        <ele>249</ele>
        <time>2018-12-05T08:51:25Z</time>
      </trkpt>
      <trkpt lat="47.69896" lon="6.05413">
        <ele>249</ele>
        <time>2018-12-05T08:51:27Z</time>
      </trkpt>
      <trkpt lat="47.699" lon="6.05411">
        <ele>249</ele>
        <time>2018-12-05T08:51:29Z</time>
      </trkpt>
      <trkpt lat="47.69906" lon="6.05407">
        <ele>249</ele>
        <time>2018-12-05T08:51:32Z</time>
      </trkpt>
      <trkpt lat="47.6991" lon="6.05404">
        <ele>249</ele>
        <time>2018-12-05T08:51:34Z</time>
      </trkpt>
      <trkpt lat="47.69914" lon="6.05402">
        <ele>249</ele>
        <time>2018-12-05T08:51:36Z</time>
      </trkpt>
      <trkpt lat="47.69919" lon="6.05399">
        <ele>249</ele>
        <time>2018-12-05T08:51:38Z</time>
      </trkpt>
      <trkpt lat="47.69924" lon="6.05397">
        <ele>249</ele>
        <time>2018-12-05T08:51:40Z</time>
      </trkpt>
      <trkpt lat="47.69929" lon="6.05394">
        <ele>249</ele>
        <time>2018-12-05T08:51:42Z</time>
      </trkpt>
      <trkpt lat="47.69933" lon="6.05391">
        <ele>249</ele>
        <time>2018-12-05T08:51:44Z</time>
      </trkpt>
      <trkpt lat="47.69939" lon="6.05388">
        <ele>249</ele>
        <time>2018-12-05T08:51:46Z</time>
      </trkpt>
      <trkpt lat="47.69945" lon="6.05384">
        <ele>249</ele>
        <time>2018-12-05T08:51:48Z</time>
      </trkpt>
      <trkpt lat="47.69951" lon="6.05381">
        <ele>249</ele>
        <time>2018-12-05T08:51:50Z</time>
      </trkpt>
      <trkpt lat="47.69957" lon="6.05379">
        <ele>249</ele>
        <time>2018-12-05T08:51:52Z</time>
      </trkpt>
      <trkpt lat="47.69963" lon="6.05377">
        <ele>249</ele>
        <time>2018-12-05T08:51:54Z</time>
      </trkpt>
      <trkpt lat="47.69968" lon="6.05375">
        <ele>249</ele>
        <time>2018-12-05T08:51:56Z</time>
      </trkpt>
      <trkpt lat="47.69975" lon="6.05374">
        <ele>249</ele>
        <time>2018-12-05T08:51:58Z</time>
      </trkpt>
      <trkpt lat="47.69981" lon="6.05373">
        <ele>249</ele>
        <time>2018-12-05T08:52:00Z</time>
      </trkpt>
      <trkpt lat="47.69987" lon="6.05373">
        <ele>249</ele>
        <time>2018-12-05T08:52:02Z</time>
      </trkpt>
      <trkpt lat="47.69992" lon="6.05373">
        <ele>249</ele>
        <time>2018-12-05T08:52:04Z</time>
      </trkpt>
      <trkpt lat="47.7" lon="6.05374">
        <ele>249</ele>
        <time>2018-12-05T08:52:06Z</time>
      </trkpt>
      <trkpt lat="47.70007" lon="6.05374">
        <ele>248</ele>
        <time>2018-12-05T08:52:08Z</time>
      </trkpt>
      <trkpt lat="47.70014" lon="6.05372">
        <ele>248</ele>
        <time>2018-12-05T08:52:10Z</time>
      </trkpt>
      <trkpt lat="47.70021" lon="6.05372">
        <ele>248</ele>
        <time>2018-12-05T08:52:12Z</time>
      </trkpt>
      <trkpt lat="47.70029" lon="6.05372">
        <ele>248</ele>
        <time>2018-12-05T08:52:14Z</time>
      </trkpt>
      <trkpt lat="47.70044" lon="6.05375">
        <ele>248</ele>
        <time>2018-12-05T08:52:16Z</time>
      </trkpt>
      <trkpt lat="47.7005" lon="6.05376">
        <ele>248</ele>
        <time>2018-12-05T08:52:17Z</time>
      </trkpt>
      <trkpt lat="47.70056" lon="6.05376">
        <ele>247</ele>
        <time>2018-12-05T08:52:18Z</time>
      </trkpt>
      <trkpt lat="47.70062" lon="6.05376">
        <ele>247</ele>
        <time>2018-12-05T08:52:19Z</time>
      </trkpt>
      <trkpt lat="47.70069" lon="6.05375">
        <ele>247</ele>
        <time>2018-12-05T08:52:20Z</time>
      </trkpt>
      <trkpt lat="47.70077" lon="6.05374">
        <ele>247</ele>
        <time>2018-12-05T08:52:21Z</time>
      </trkpt>
      <trkpt lat="47.70083" lon="6.05372">
        <ele>247</ele>
        <time>2018-12-05T08:52:22Z</time>
      </trkpt>
      <trkpt lat="47.7009" lon="6.0537">
        <ele>246</ele>
        <time>2018-12-05T08:52:23Z</time>
      </trkpt>
      <trkpt lat="47.70096" lon="6.05368">
        <ele>246</ele>
        <time>2018-12-05T08:52:24Z</time>
      </trkpt>
      <trkpt lat="47.70102" lon="6.05366">
        <ele>246</ele>
        <time>2018-12-05T08:52:25Z</time>
      </trkpt>
      <trkpt lat="47.70109" lon="6.05364">
        <ele>246</ele>
        <time>2018-12-05T08:52:26Z</time>
      </trkpt>
      <trkpt lat="47.70116" lon="6.05361">
        <ele>246</ele>
        <time>2018-12-05T08:52:27Z</time>
      </trkpt>
      <trkpt lat="47.70123" lon="6.05359">
        <ele>246</ele>
        <time>2018-12-05T08:52:28Z</time>
      </trkpt>
      <trkpt lat="47.7013" lon="6.05356">
        <ele>245</ele>
        <time>2018-12-05T08:52:29Z</time>
      </trkpt>
      <trkpt lat="47.70136" lon="6.05353">
        <ele>245</ele>
        <time>2018-12-05T08:52:30Z</time>
      </trkpt>
      <trkpt lat="47.70143" lon="6.0535">
        <ele>245</ele>
        <time>2018-12-05T08:52:31Z</time>
      </trkpt>
      <trkpt lat="47.70149" lon="6.05347">
        <ele>245</ele>
        <time>2018-12-05T08:52:32Z</time>
      </trkpt>
      <trkpt lat="47.70155" lon="6.05344">
        <ele>245</ele>
        <time>2018-12-05T08:52:33Z</time>
      </trkpt>
      <trkpt lat="47.70161" lon="6.0534">
        <ele>245</ele>
        <time>2018-12-05T08:52:34Z</time>
      </trkpt>
      <trkpt lat="47.70167" lon="6.05336">
        <ele>244</ele>
        <time>2018-12-05T08:52:35Z</time>
      </trkpt>
      <trkpt lat="47.70173" lon="6.05332">
        <ele>244</ele>
        <time>2018-12-05T08:52:36Z</time>
      </trkpt>
      <trkpt lat="47.70178" lon="6.05328">
        <ele>245</ele>
        <time>2018-12-05T08:52:37Z</time>
      </trkpt>
      <trkpt lat="47.70183" lon="6.05324">
        <ele>245</ele>
        <time>2018-12-05T08:52:38Z</time>
      </trkpt>
      <trkpt lat="47.70188" lon="6.0532">
        <ele>245</ele>
        <time>2018-12-05T08:52:39Z</time>
      </trkpt>
      <trkpt lat="47.70192" lon="6.05316">
        <ele>245</ele>
        <time>2018-12-05T08:52:40Z</time>
      </trkpt>
      <trkpt lat="47.70196" lon="6.05312">
        <ele>246</ele>
        <time>2018-12-05T08:52:41Z</time>
      </trkpt>
      <trkpt lat="47.702" lon="6.05308">
        <ele>246</ele>
        <time>2018-12-05T08:52:42Z</time>
      </trkpt>
      <trkpt lat="47.70207" lon="6.053">
        <ele>246</ele>
        <time>2018-12-05T08:52:44Z</time>
      </trkpt>
      <trkpt lat="47.70211" lon="6.05295">
        <ele>246</ele>
        <time>2018-12-05T08:52:46Z</time>
      </trkpt>
      <trkpt lat="47.70216" lon="6.0529">
        <ele>246</ele>
        <time>2018-12-05T08:52:49Z</time>
      </trkpt>
      <trkpt lat="47.70221" lon="6.05285">
        <ele>247</ele>
        <time>2018-12-05T08:52:52Z</time>
      </trkpt>
      <trkpt lat="47.70225" lon="6.05282">
        <ele>247</ele>
        <time>2018-12-05T08:52:55Z</time>
      </trkpt>
      <trkpt lat="47.7023" lon="6.05277">
        <ele>247</ele>
        <time>2018-12-05T08:52:58Z</time>
      </trkpt>
      <trkpt lat="47.70236" lon="6.05273">
        <ele>247</ele>
        <time>2018-12-05T08:53:01Z</time>
      </trkpt>
      <trkpt lat="47.70242" lon="6.05271">
        <ele>248</ele>
        <time>2018-12-05T08:53:04Z</time>
      </trkpt>
      <trkpt lat="47.70248" lon="6.05269">
        <ele>248</ele>
        <time>2018-12-05T08:53:07Z</time>
      </trkpt>
      <trkpt lat="47.70253" lon="6.05267">
        <ele>252</ele>
        <time>2018-12-05T08:53:10Z</time>
      </trkpt>
      <trkpt lat="47.70258" lon="6.05266">
        <ele>252</ele>
        <time>2018-12-05T08:53:13Z</time>
      </trkpt>
      <trkpt lat="47.70264" lon="6.05267">
        <ele>252</ele>
        <time>2018-12-05T08:53:16Z</time>
      </trkpt>
      <trkpt lat="47.7027" lon="6.05268">
        <ele>252</ele>
        <time>2018-12-05T08:53:17Z</time>
      </trkpt>
      <trkpt lat="47.70276" lon="6.0527">
        <ele>253</ele>
        <time>2018-12-05T08:53:19Z</time>
      </trkpt>
      <trkpt lat="47.70282" lon="6.05273">
        <ele>253</ele>
        <time>2018-12-05T08:53:21Z</time>
      </trkpt>
      <trkpt lat="47.70286" lon="6.05273">
        <ele>253</ele>
        <time>2018-12-05T08:53:23Z</time>
      </trkpt>
      <trkpt lat="47.70293" lon="6.05273">
        <ele>254</ele>
        <time>2018-12-05T08:53:26Z</time>
      </trkpt>
      <trkpt lat="47.70298" lon="6.05272">
        <ele>254</ele>
        <time>2018-12-05T08:53:29Z</time>
      </trkpt>
      <trkpt lat="47.70304" lon="6.05271">
        <ele>254</ele>
        <time>2018-12-05T08:53:32Z</time>
      </trkpt>
      <trkpt lat="47.70309" lon="6.05271">
        <ele>254</ele>
        <time>2018-12-05T08:53:35Z</time>
      </trkpt>
      <trkpt lat="47.70315" lon="6.0527">
        <ele>255</ele>
        <time>2018-12-05T08:53:38Z</time>
      </trkpt>
      <trkpt lat="47.7032" lon="6.0527">
        <ele>255</ele>
        <time>2018-12-05T08:53:41Z</time>
      </trkpt>
      <trkpt lat="47.70326" lon="6.05271">
        <ele>255</ele>
        <time>2018-12-05T08:53:44Z</time>
      </trkpt>
      <trkpt lat="47.70333" lon="6.05272">
        <ele>258</ele>
        <time>2018-12-05T08:53:46Z</time>
      </trkpt>
      <trkpt lat="47.7034" lon="6.05272">
        <ele>258</ele>
        <time>2018-12-05T08:53:48Z</time>
      </trkpt>
      <trkpt lat="47.70346" lon="6.05272">
        <ele>258</ele>
        <time>2018-12-05T08:53:50Z</time>
      </trkpt>
      <trkpt lat="47.70352" lon="6.05273">
        <ele>259</ele>
        <time>2018-12-05T08:53:52Z</time>
      </trkpt>
      <trkpt lat="47.70358" lon="6.05273">
        <ele>259</ele>
        <time>2018-12-05T08:53:54Z</time>
      </trkpt>
      <trkpt lat="47.70365" lon="6.05272">
        <ele>259</ele>
        <time>2018-12-05T08:53:56Z</time>
      </trkpt>
      <trkpt lat="47.70372" lon="6.05273">
        <ele>259</ele>
        <time>2018-12-05T08:53:58Z</time>
      </trkpt>
      <trkpt lat="47.70377" lon="6.05274">
        <ele>259</ele>
        <time>2018-12-05T08:54:00Z</time>
      </trkpt>
      <trkpt lat="47.70383" lon="6.05275">
        <ele>259</ele>
        <time>2018-12-05T08:54:02Z</time>
      </trkpt>
      <trkpt lat="47.70389" lon="6.05276">
        <ele>260</ele>
        <time>2018-12-05T08:54:05Z</time>
      </trkpt>
      <trkpt lat="47.70394" lon="6.05277">
        <ele>260</ele>
        <time>2018-12-05T08:54:07Z</time>
      </trkpt>
      <trkpt lat="47.70399" lon="6.05278">
        <ele>260</ele>
        <time>2018-12-05T08:54:09Z</time>
      </trkpt>
      <trkpt lat="47.70404" lon="6.0528">
        <ele>260</ele>
        <time>2018-12-05T08:54:12Z</time>
      </trkpt>
      <trkpt lat="47.70409" lon="6.05283">
        <ele>260</ele>
        <time>2018-12-05T08:54:15Z</time>
      </trkpt>
      <trkpt lat="47.70415" lon="6.05286">
        <ele>260</ele>
        <time>2018-12-05T08:54:18Z</time>
      </trkpt>
      <trkpt lat="47.70419" lon="6.05288">
        <ele>261</ele>
        <time>2018-12-05T08:54:20Z</time>
      </trkpt>
      <trkpt lat="47.70423" lon="6.0529">
        <ele>261</ele>
        <time>2018-12-05T08:54:22Z</time>
      </trkpt>
      <trkpt lat="47.70428" lon="6.05293">
        <ele>261</ele>
        <time>2018-12-05T08:54:24Z</time>
      </trkpt>
      <trkpt lat="47.70432" lon="6.05294">
        <ele>261</ele>
        <time>2018-12-05T08:54:26Z</time>
      </trkpt>
      <trkpt lat="47.70438" lon="6.05298">
        <ele>261</ele>
        <time>2018-12-05T08:54:29Z</time>
      </trkpt>
      <trkpt lat="47.70444" lon="6.053">
        <ele>261</ele>
        <time>2018-12-05T08:54:33Z</time>
      </trkpt>
      <trkpt lat="47.70449" lon="6.05303">
        <ele>261</ele>
        <time>2018-12-05T08:54:37Z</time>
      </trkpt>
      <trkpt lat="47.70453" lon="6.05306">
        <ele>261</ele>
        <time>2018-12-05T08:54:40Z</time>
      </trkpt>
      <trkpt lat="47.70458" lon="6.05309">
        <ele>261</ele>
        <time>2018-12-05T08:54:43Z</time>
      </trkpt>
      <trkpt lat="47.70462" lon="6.05313">
        <ele>261</ele>
        <time>2018-12-05T08:54:46Z</time>
      </trkpt>
      <trkpt lat="47.70467" lon="6.05318">
        <ele>261</ele>
        <time>2018-12-05T08:54:49Z</time>
      </trkpt>
      <trkpt lat="47.70472" lon="6.05325">
        <ele>261</ele>
        <time>2018-12-05T08:54:52Z</time>
      </trkpt>
      <trkpt lat="47.70476" lon="6.0533">
        <ele>261</ele>
        <time>2018-12-05T08:54:55Z</time>
      </trkpt>
      <trkpt lat="47.7048" lon="6.05334">
        <ele>262</ele>
        <time>2018-12-05T08:54:58Z</time>
      </trkpt>
      <trkpt lat="47.70484" lon="6.05339">
        <ele>262</ele>
        <time>2018-12-05T08:55:03Z</time>
      </trkpt>
      <trkpt lat="47.70488" lon="6.05343">
        <ele>262</ele>
        <time>2018-12-05T08:55:05Z</time>
      </trkpt>
      <trkpt lat="47.70493" lon="6.05347">
        <ele>262</ele>
        <time>2018-12-05T08:55:08Z</time>
      </trkpt>
      <trkpt lat="47.70499" lon="6.05352">
        <ele>262</ele>
        <time>2018-12-05T08:55:11Z</time>
      </trkpt>
      <trkpt lat="47.70504" lon="6.05355">
        <ele>261</ele>
        <time>2018-12-05T08:55:13Z</time>
      </trkpt>
      <trkpt lat="47.70509" lon="6.05358">
        <ele>261</ele>
        <time>2018-12-05T08:55:15Z</time>
      </trkpt>
      <trkpt lat="47.70515" lon="6.05362">
        <ele>261</ele>
        <time>2018-12-05T08:55:18Z</time>
      </trkpt>
      <trkpt lat="47.7052" lon="6.05363">
        <ele>261</ele>
        <time>2018-12-05T08:55:21Z</time>
      </trkpt>
      <trkpt lat="47.70525" lon="6.05363">
        <ele>261</ele>
        <time>2018-12-05T08:55:25Z</time>
      </trkpt>
      <trkpt lat="47.7053" lon="6.05363">
        <ele>261</ele>
        <time>2018-12-05T08:55:31Z</time>
      </trkpt>
      <trkpt lat="47.70536" lon="6.05365">
        <ele>261</ele>
        <time>2018-12-05T08:55:34Z</time>
      </trkpt>
      <trkpt lat="47.7054" lon="6.05368">
        <ele>260</ele>
        <time>2018-12-05T08:55:36Z</time>
      </trkpt>
      <trkpt lat="47.70546" lon="6.05371">
        <ele>260</ele>
        <time>2018-12-05T08:55:38Z</time>
      </trkpt>
      <trkpt lat="47.70552" lon="6.05372">
        <ele>260</ele>
        <time>2018-12-05T08:55:40Z</time>
      </trkpt>
      <trkpt lat="47.70558" lon="6.05372">
        <ele>260</ele>
        <time>2018-12-05T08:55:42Z</time>
      </trkpt>
      <trkpt lat="47.70564" lon="6.05374">
        <ele>260</ele>
        <time>2018-12-05T08:55:44Z</time>
      </trkpt>
      <trkpt lat="47.7057" lon="6.05375">
        <ele>260</ele>
        <time>2018-12-05T08:55:46Z</time>
      </trkpt>
      <trkpt lat="47.70576" lon="6.05377">
        <ele>260</ele>
        <time>2018-12-05T08:55:48Z</time>
      </trkpt>
      <trkpt lat="47.70581" lon="6.0538">
        <ele>260</ele>
        <time>2018-12-05T08:55:50Z</time>
      </trkpt>
      <trkpt lat="47.70587" lon="6.05384">
        <ele>259</ele>
        <time>2018-12-05T08:55:52Z</time>
      </trkpt>
      <trkpt lat="47.70591" lon="6.05387">
        <ele>259</ele>
        <time>2018-12-05T08:55:54Z</time>
      </trkpt>
      <trkpt lat="47.70597" lon="6.05389">
        <ele>259</ele>
        <time>2018-12-05T08:55:56Z</time>
      </trkpt>
      <trkpt lat="47.70602" lon="6.05391">
        <ele>259</ele>
        <time>2018-12-05T08:55:58Z</time>
      </trkpt>
      <trkpt lat="47.70607" lon="6.05393">
        <ele>259</ele>
        <time>2018-12-05T08:56:00Z</time>
      </trkpt>
      <trkpt lat="47.70613" lon="6.05396">
        <ele>259</ele>
        <time>2018-12-05T08:56:02Z</time>
      </trkpt>
      <trkpt lat="47.70618" lon="6.05398">
        <ele>259</ele>
        <time>2018-12-05T08:56:04Z</time>
      </trkpt>
      <trkpt lat="47.70623" lon="6.054">
        <ele>259</ele>
        <time>2018-12-05T08:56:06Z</time>
      </trkpt>
      <trkpt lat="47.7063" lon="6.05403">
        <ele>259</ele>
        <time>2018-12-05T08:56:09Z</time>
      </trkpt>
      <trkpt lat="47.70635" lon="6.05406">
        <ele>259</ele>
        <time>2018-12-05T08:56:12Z</time>
      </trkpt>
      <trkpt lat="47.70641" lon="6.05407">
        <ele>259</ele>
        <time>2018-12-05T08:56:15Z</time>
      </trkpt>
      <trkpt lat="47.70646" lon="6.05408">
        <ele>259</ele>
        <time>2018-12-05T08:56:17Z</time>
      </trkpt>
      <trkpt lat="47.70651" lon="6.05408">
        <ele>259</ele>
        <time>2018-12-05T08:56:20Z</time>
      </trkpt>
      <trkpt lat="47.70657" lon="6.05409">
        <ele>258</ele>
        <time>2018-12-05T08:56:23Z</time>
      </trkpt>
      <trkpt lat="47.70663" lon="6.0541">
        <ele>258</ele>
        <time>2018-12-05T08:56:25Z</time>
      </trkpt>
      <trkpt lat="47.7067" lon="6.0541">
        <ele>258</ele>
        <time>2018-12-05T08:56:27Z</time>
      </trkpt>
      <trkpt lat="47.70677" lon="6.05411">
        <ele>258</ele>
        <time>2018-12-05T08:56:29Z</time>
      </trkpt>
      <trkpt lat="47.70683" lon="6.05411">
        <ele>258</ele>
        <time>2018-12-05T08:56:31Z</time>
      </trkpt>
      <trkpt lat="47.7069" lon="6.05411">
        <ele>258</ele>
        <time>2018-12-05T08:56:33Z</time>
      </trkpt>
      <trkpt lat="47.70696" lon="6.05411">
        <ele>258</ele>
        <time>2018-12-05T08:56:35Z</time>
      </trkpt>
      <trkpt lat="47.70704" lon="6.0541">
        <ele>258</ele>
        <time>2018-12-05T08:56:37Z</time>
      </trkpt>
      <trkpt lat="47.70711" lon="6.0541">
        <ele>257</ele>
        <time>2018-12-05T08:56:39Z</time>
      </trkpt>
      <trkpt lat="47.70719" lon="6.0541">
        <ele>257</ele>
        <time>2018-12-05T08:56:41Z</time>
      </trkpt>
      <trkpt lat="47.70725" lon="6.0541">
        <ele>257</ele>
        <time>2018-12-05T08:56:43Z</time>
      </trkpt>
      <trkpt lat="47.70732" lon="6.0541">
        <ele>257</ele>
        <time>2018-12-05T08:56:45Z</time>
      </trkpt>
      <trkpt lat="47.70739" lon="6.0541">
        <ele>257</ele>
        <time>2018-12-05T08:56:47Z</time>
      </trkpt>
      <trkpt lat="47.70745" lon="6.0541">
        <ele>256</ele>
        <time>2018-12-05T08:56:49Z</time>
      </trkpt>
      <trkpt lat="47.70751" lon="6.0541">
        <ele>257</ele>
        <time>2018-12-05T08:56:51Z</time>
      </trkpt>
      <trkpt lat="47.70756" lon="6.0541">
        <ele>257</ele>
        <time>2018-12-05T08:56:53Z</time>
      </trkpt>
      <trkpt lat="47.70762" lon="6.05411">
        <ele>257</ele>
        <time>2018-12-05T08:56:55Z</time>
      </trkpt>
      <trkpt lat="47.70767" lon="6.05411">
        <ele>257</ele>
        <time>2018-12-05T08:56:57Z</time>
      </trkpt>
      <trkpt lat="47.70773" lon="6.05412">
        <ele>258</ele>
        <time>2018-12-05T08:56:59Z</time>
      </trkpt>
      <trkpt lat="47.70779" lon="6.05412">
        <ele>258</ele>
        <time>2018-12-05T08:57:01Z</time>
      </trkpt>
      <trkpt lat="47.70784" lon="6.05412">
        <ele>258</ele>
        <time>2018-12-05T08:57:03Z</time>
      </trkpt>
      <trkpt lat="47.70789" lon="6.05407">
        <ele>258</ele>
        <time>2018-12-05T08:57:06Z</time>
      </trkpt>
      <trkpt lat="47.70792" lon="6.05399">
        <ele>259</ele>
        <time>2018-12-05T08:57:09Z</time>
      </trkpt>
      <trkpt lat="47.70794" lon="6.05392">
        <ele>259</ele>
        <time>2018-12-05T08:57:11Z</time>
      </trkpt>
      <trkpt lat="47.70795" lon="6.05384">
        <ele>259</ele>
        <time>2018-12-05T08:57:14Z</time>
      </trkpt>
      <trkpt lat="47.70796" lon="6.05377">
        <ele>259</ele>
        <time>2018-12-05T08:57:17Z</time>
      </trkpt>
      <trkpt lat="47.70798" lon="6.05369">
        <ele>259</ele>
        <time>2018-12-05T08:57:21Z</time>
      </trkpt>
      <trkpt lat="47.70798" lon="6.0536">
        <ele>259</ele>
        <time>2018-12-05T08:57:24Z</time>
      </trkpt>
      <trkpt lat="47.70798" lon="6.05352">
        <ele>259</ele>
        <time>2018-12-05T08:57:27Z</time>
      </trkpt>
      <trkpt lat="47.70799" lon="6.05343">
        <ele>259</ele>
        <time>2018-12-05T08:57:29Z</time>
      </trkpt>
      <trkpt lat="47.70799" lon="6.05333">
        <ele>259</ele>
        <time>2018-12-05T08:57:31Z</time>
      </trkpt>
      <trkpt lat="47.70799" lon="6.05325">
        <ele>258</ele>
        <time>2018-12-05T08:57:33Z</time>
      </trkpt>
      <trkpt lat="47.708" lon="6.05317">
        <ele>258</ele>
        <time>2018-12-05T08:57:35Z</time>
      </trkpt>
      <trkpt lat="47.708" lon="6.05308">
        <ele>258</ele>
        <time>2018-12-05T08:57:37Z</time>
      </trkpt>
      <trkpt lat="47.70801" lon="6.05299">
        <ele>258</ele>
        <time>2018-12-05T08:57:39Z</time>
      </trkpt>
      <trkpt lat="47.70801" lon="6.0529">
        <ele>258</ele>
        <time>2018-12-05T08:57:41Z</time>
      </trkpt>
      <trkpt lat="47.70802" lon="6.05281">
        <ele>258</ele>
        <time>2018-12-05T08:57:43Z</time>
      </trkpt>
      <trkpt lat="47.70803" lon="6.0527">
        <ele>258</ele>
        <time>2018-12-05T08:57:45Z</time>
      </trkpt>
      <trkpt lat="47.70803" lon="6.05259">
        <ele>258</ele>
        <time>2018-12-05T08:57:47Z</time>
      </trkpt>
      <trkpt lat="47.70804" lon="6.05246">
        <ele>258</ele>
        <time>2018-12-05T08:57:49Z</time>
      </trkpt>
      <trkpt lat="47.70805" lon="6.05234">
        <ele>258</ele>
        <time>2018-12-05T08:57:51Z</time>
      </trkpt>
      <trkpt lat="47.70806" lon="6.05224">
        <ele>258</ele>
        <time>2018-12-05T08:57:53Z</time>
      </trkpt>
      <trkpt lat="47.70807" lon="6.05214">
        <ele>258</ele>
        <time>2018-12-05T08:57:55Z</time>
      </trkpt>
      <trkpt lat="47.70808" lon="6.05205">
        <ele>258</ele>
        <time>2018-12-05T08:57:57Z</time>
      </trkpt>
      <trkpt lat="47.70809" lon="6.05197">
        <ele>258</ele>
        <time>2018-12-05T08:57:59Z</time>
      </trkpt>
      <trkpt lat="47.7081" lon="6.05189">
        <ele>258</ele>
        <time>2018-12-05T08:58:01Z</time>
      </trkpt>
      <trkpt lat="47.70811" lon="6.05182">
        <ele>259</ele>
        <time>2018-12-05T08:58:03Z</time>
      </trkpt>
      <trkpt lat="47.70812" lon="6.05175">
        <ele>259</ele>
        <time>2018-12-05T08:58:05Z</time>
      </trkpt>
      <trkpt lat="47.70812" lon="6.05168">
        <ele>259</ele>
        <time>2018-12-05T08:58:07Z</time>
      </trkpt>
      <trkpt lat="47.70813" lon="6.0516">
        <ele>259</ele>
        <time>2018-12-05T08:58:09Z</time>
      </trkpt>
      <trkpt lat="47.70814" lon="6.0515">
        <ele>259</ele>
        <time>2018-12-05T08:58:12Z</time>
      </trkpt>
      <trkpt lat="47.70815" lon="6.05144">
        <ele>259</ele>
        <time>2018-12-05T08:58:14Z</time>
      </trkpt>
      <trkpt lat="47.70815" lon="6.05136">
        <ele>259</ele>
        <time>2018-12-05T08:58:16Z</time>
      </trkpt>
      <trkpt lat="47.70816" lon="6.05127">
        <ele>259</ele>
        <time>2018-12-05T08:58:18Z</time>
      </trkpt>
      <trkpt lat="47.70817" lon="6.05117">
        <ele>259</ele>
        <time>2018-12-05T08:58:20Z</time>
      </trkpt>
      <trkpt lat="47.70818" lon="6.05106">
        <ele>259</ele>
        <time>2018-12-05T08:58:22Z</time>
      </trkpt>
      <trkpt lat="47.70819" lon="6.05096">
        <ele>259</ele>
        <time>2018-12-05T08:58:24Z</time>
      </trkpt>
      <trkpt lat="47.7082" lon="6.05084">
        <ele>259</ele>
        <time>2018-12-05T08:58:26Z</time>
      </trkpt>
      <trkpt lat="47.70821" lon="6.05073">
        <ele>258</ele>
        <time>2018-12-05T08:58:28Z</time>
      </trkpt>
      <trkpt lat="47.70822" lon="6.05061">
        <ele>258</ele>
        <time>2018-12-05T08:58:30Z</time>
      </trkpt>
      <trkpt lat="47.70822" lon="6.05048">
        <ele>258</ele>
        <time>2018-12-05T08:58:31Z</time>
      </trkpt>
      <trkpt lat="47.70823" lon="6.05041">
        <ele>258</ele>
        <time>2018-12-05T08:58:32Z</time>
      </trkpt>
      <trkpt lat="47.70823" lon="6.05034">
        <ele>258</ele>
        <time>2018-12-05T08:58:33Z</time>
      </trkpt>
      <trkpt lat="47.70824" lon="6.05021">
        <ele>258</ele>
        <time>2018-12-05T08:58:35Z</time>
      </trkpt>
      <trkpt lat="47.70825" lon="6.05014">
        <ele>258</ele>
        <time>2018-12-05T08:58:36Z</time>
      </trkpt>
      <trkpt lat="47.70825" lon="6.05008">
        <ele>257</ele>
        <time>2018-12-05T08:58:37Z</time>
      </trkpt>
      <trkpt lat="47.70826" lon="6.05">
        <ele>257</ele>
        <time>2018-12-05T08:58:38Z</time>
      </trkpt>
      <trkpt lat="47.70827" lon="6.04991">
        <ele>257</ele>
        <time>2018-12-05T08:58:39Z</time>
      </trkpt>
      <trkpt lat="47.70827" lon="6.04983">
        <ele>256</ele>
        <time>2018-12-05T08:58:40Z</time>
      </trkpt>
      <trkpt lat="47.70828" lon="6.04975">
        <ele>256</ele>
        <time>2018-12-05T08:58:41Z</time>
      </trkpt>
      <trkpt lat="47.70829" lon="6.04967">
        <ele>256</ele>
        <time>2018-12-05T08:58:42Z</time>
      </trkpt>
      <trkpt lat="47.70829" lon="6.04958">
        <ele>256</ele>
        <time>2018-12-05T08:58:43Z</time>
      </trkpt>
      <trkpt lat="47.7083" lon="6.0495">
        <ele>256</ele>
        <time>2018-12-05T08:58:44Z</time>
      </trkpt>
      <trkpt lat="47.7083" lon="6.04941">
        <ele>255</ele>
        <time>2018-12-05T08:58:45Z</time>
      </trkpt>
      <trkpt lat="47.70831" lon="6.04932">
        <ele>255</ele>
        <time>2018-12-05T08:58:46Z</time>
      </trkpt>
      <trkpt lat="47.70832" lon="6.04922">
        <ele>254</ele>
        <time>2018-12-05T08:58:47Z</time>
      </trkpt>
      <trkpt lat="47.70833" lon="6.04912">
        <ele>254</ele>
        <time>2018-12-05T08:58:48Z</time>
      </trkpt>
      <trkpt lat="47.70834" lon="6.04901">
        <ele>251</ele>
        <time>2018-12-05T08:58:49Z</time>
      </trkpt>
      <trkpt lat="47.70835" lon="6.04889">
        <ele>250</ele>
        <time>2018-12-05T08:58:50Z</time>
      </trkpt>
      <trkpt lat="47.70836" lon="6.04877">
        <ele>249</ele>
        <time>2018-12-05T08:58:51Z</time>
      </trkpt>
      <trkpt lat="47.70838" lon="6.04864">
        <ele>248</ele>
        <time>2018-12-05T08:58:52Z</time>
      </trkpt>
      <trkpt lat="47.70839" lon="6.04849">
        <ele>248</ele>
        <time>2018-12-05T08:58:53Z</time>
      </trkpt>
      <trkpt lat="47.7084" lon="6.04835">
        <ele>247</ele>
        <time>2018-12-05T08:58:54Z</time>
      </trkpt>
      <trkpt lat="47.70841" lon="6.0482">
        <ele>245</ele>
        <time>2018-12-05T08:58:55Z</time>
      </trkpt>
      <trkpt lat="47.70843" lon="6.04806">
        <ele>243</ele>
        <time>2018-12-05T08:58:56Z</time>
      </trkpt>
      <trkpt lat="47.70844" lon="6.04791">
        <ele>243</ele>
        <time>2018-12-05T08:58:57Z</time>
      </trkpt>
      <trkpt lat="47.70845" lon="6.04776">
        <ele>242</ele>
        <time>2018-12-05T08:58:58Z</time>
      </trkpt>
      <trkpt lat="47.70847" lon="6.04761">
        <ele>241</ele>
        <time>2018-12-05T08:58:59Z</time>
      </trkpt>
      <trkpt lat="47.70848" lon="6.04747">
        <ele>239</ele>
        <time>2018-12-05T08:59:00Z</time>
      </trkpt>
      <trkpt lat="47.70849" lon="6.04732">
        <ele>239</ele>
        <time>2018-12-05T08:59:01Z</time>
      </trkpt>
      <trkpt lat="47.7085" lon="6.04717">
        <ele>238</ele>
        <time>2018-12-05T08:59:02Z</time>
      </trkpt>
      <trkpt lat="47.70851" lon="6.04703">
        <ele>238</ele>
        <time>2018-12-05T08:59:03Z</time>
      </trkpt>
      <trkpt lat="47.70852" lon="6.0469">
        <ele>238</ele>
        <time>2018-12-05T08:59:04Z</time>
      </trkpt>
      <trkpt lat="47.70853" lon="6.04678">
        <ele>238</ele>
        <time>2018-12-05T08:59:05Z</time>
      </trkpt>
      <trkpt lat="47.70854" lon="6.04667">
        <ele>238</ele>
        <time>2018-12-05T08:59:06Z</time>
      </trkpt>
      <trkpt lat="47.70854" lon="6.04656">
        <ele>235</ele>
        <time>2018-12-05T08:59:07Z</time>
      </trkpt>
      <trkpt lat="47.70855" lon="6.04645">
        <ele>235</ele>
        <time>2018-12-05T08:59:08Z</time>
      </trkpt>
      <trkpt lat="47.70855" lon="6.04635">
        <ele>234</ele>
        <time>2018-12-05T08:59:09Z</time>
      </trkpt>
      <trkpt lat="47.70856" lon="6.04625">
        <ele>234</ele>
        <time>2018-12-05T08:59:10Z</time>
      </trkpt>
      <trkpt lat="47.70857" lon="6.04615">
        <ele>234</ele>
        <time>2018-12-05T08:59:11Z</time>
      </trkpt>
      <trkpt lat="47.70857" lon="6.04606">
        <ele>233</ele>
        <time>2018-12-05T08:59:12Z</time>
      </trkpt>
      <trkpt lat="47.70859" lon="6.04597">
        <ele>233</ele>
        <time>2018-12-05T08:59:13Z</time>
      </trkpt>
      <trkpt lat="47.7086" lon="6.04588">
        <ele>233</ele>
        <time>2018-12-05T08:59:14Z</time>
      </trkpt>
      <trkpt lat="47.70863" lon="6.04579">
        <ele>231</ele>
        <time>2018-12-05T08:59:15Z</time>
      </trkpt>
      <trkpt lat="47.70866" lon="6.04572">
        <ele>231</ele>
        <time>2018-12-05T08:59:16Z</time>
      </trkpt>
      <trkpt lat="47.7087" lon="6.04567">
        <ele>231</ele>
        <time>2018-12-05T08:59:17Z</time>
      </trkpt>
      <trkpt lat="47.70876" lon="6.04564">
        <ele>231</ele>
        <time>2018-12-05T08:59:18Z</time>
      </trkpt>
      <trkpt lat="47.70882" lon="6.04562">
        <ele>231</ele>
        <time>2018-12-05T08:59:19Z</time>
      </trkpt>
      <trkpt lat="47.70889" lon="6.0456">
        <ele>231</ele>
        <time>2018-12-05T08:59:20Z</time>
      </trkpt>
      <trkpt lat="47.70895" lon="6.04558">
        <ele>231</ele>
        <time>2018-12-05T08:59:21Z</time>
      </trkpt>
      <trkpt lat="47.70901" lon="6.04555">
        <ele>231</ele>
        <time>2018-12-05T08:59:22Z</time>
      </trkpt>
      <trkpt lat="47.70907" lon="6.04553">
        <ele>231</ele>
        <time>2018-12-05T08:59:23Z</time>
      </trkpt>
      <trkpt lat="47.70913" lon="6.04553">
        <ele>231</ele>
        <time>2018-12-05T08:59:24Z</time>
      </trkpt>
      <trkpt lat="47.70919" lon="6.04552">
        <ele>232</ele>
        <time>2018-12-05T08:59:25Z</time>
      </trkpt>
      <trkpt lat="47.70925" lon="6.04551">
        <ele>232</ele>
        <time>2018-12-05T08:59:26Z</time>
      </trkpt>
      <trkpt lat="47.70931" lon="6.0455">
        <ele>232</ele>
        <time>2018-12-05T08:59:27Z</time>
      </trkpt>
      <trkpt lat="47.70936" lon="6.0455">
        <ele>232</ele>
        <time>2018-12-05T08:59:28Z</time>
      </trkpt>
      <trkpt lat="47.70941" lon="6.04549">
        <ele>232</ele>
        <time>2018-12-05T08:59:29Z</time>
      </trkpt>
      <trkpt lat="47.70949" lon="6.04548">
        <ele>232</ele>
        <time>2018-12-05T08:59:31Z</time>
      </trkpt>
      <trkpt lat="47.70957" lon="6.04548">
        <ele>232</ele>
        <time>2018-12-05T08:59:33Z</time>
      </trkpt>
      <trkpt lat="47.70963" lon="6.04549">
        <ele>232</ele>
        <time>2018-12-05T08:59:36Z</time>
      </trkpt>
      <trkpt lat="47.70969" lon="6.04551">
        <ele>232</ele>
        <time>2018-12-05T08:59:38Z</time>
      </trkpt>
      <trkpt lat="47.70975" lon="6.04553">
        <ele>232</ele>
        <time>2018-12-05T08:59:40Z</time>
      </trkpt>
      <trkpt lat="47.70981" lon="6.04556">
        <ele>232</ele>
        <time>2018-12-05T08:59:42Z</time>
      </trkpt>
      <trkpt lat="47.70987" lon="6.0456">
        <ele>232</ele>
        <time>2018-12-05T08:59:44Z</time>
      </trkpt>
      <trkpt lat="47.70992" lon="6.04562">
        <ele>232</ele>
        <time>2018-12-05T08:59:46Z</time>
      </trkpt>
      <trkpt lat="47.70998" lon="6.04563">
        <ele>232</ele>
        <time>2018-12-05T08:59:48Z</time>
      </trkpt>
      <trkpt lat="47.71004" lon="6.04563">
        <ele>232</ele>
        <time>2018-12-05T08:59:50Z</time>
      </trkpt>
      <trkpt lat="47.71011" lon="6.04562">
        <ele>232</ele>
        <time>2018-12-05T08:59:52Z</time>
      </trkpt>
      <trkpt lat="47.71022" lon="6.04562">
        <ele>232</ele>
        <time>2018-12-05T08:59:54Z</time>
      </trkpt>
      <trkpt lat="47.7103" lon="6.04561">
        <ele>232</ele>
        <time>2018-12-05T08:59:56Z</time>
      </trkpt>
      <trkpt lat="47.71037" lon="6.04562">
        <ele>232</ele>
        <time>2018-12-05T08:59:58Z</time>
      </trkpt>
      <trkpt lat="47.71045" lon="6.04563">
        <ele>232</ele>
        <time>2018-12-05T09:00:00Z</time>
      </trkpt>
      <trkpt lat="47.71053" lon="6.04563">
        <ele>232</ele>
        <time>2018-12-05T09:00:02Z</time>
      </trkpt>
      <trkpt lat="47.71059" lon="6.04564">
        <ele>232</ele>
        <time>2018-12-05T09:00:03Z</time>
      </trkpt>
      <trkpt lat="47.71065" lon="6.04564">
        <ele>232</ele>
        <time>2018-12-05T09:00:04Z</time>
      </trkpt>
      <trkpt lat="47.7107" lon="6.04564">
        <ele>232</ele>
        <time>2018-12-05T09:00:05Z</time>
      </trkpt>
      <trkpt lat="47.71075" lon="6.04564">
        <ele>232</ele>
        <time>2018-12-05T09:00:06Z</time>
      </trkpt>
      <trkpt lat="47.7108" lon="6.04565">
        <ele>232</ele>
        <time>2018-12-05T09:00:07Z</time>
      </trkpt>
      <trkpt lat="47.71085" lon="6.04565">
        <ele>234</ele>
        <time>2018-12-05T09:00:08Z</time>
      </trkpt>
      <trkpt lat="47.7109" lon="6.04565">
        <ele>234</ele>
        <time>2018-12-05T09:00:09Z</time>
      </trkpt>
      <trkpt lat="47.71094" lon="6.04565">
        <ele>234</ele>
        <time>2018-12-05T09:00:10Z</time>
      </trkpt>
      <trkpt lat="47.71102" lon="6.04565">
        <ele>234</ele>
        <time>2018-12-05T09:00:12Z</time>
      </trkpt>
      <trkpt lat="47.7111" lon="6.04563">
        <ele>234</ele>
        <time>2018-12-05T09:00:14Z</time>
      </trkpt>
      <trkpt lat="47.71116" lon="6.04563">
        <ele>235</ele>
        <time>2018-12-05T09:00:16Z</time>
      </trkpt>
      <trkpt lat="47.71121" lon="6.04561">
        <ele>235</ele>
        <time>2018-12-05T09:00:18Z</time>
      </trkpt>
      <trkpt lat="47.71129" lon="6.04559">
        <ele>235</ele>
        <time>2018-12-05T09:00:20Z</time>
      </trkpt>
      <trkpt lat="47.71134" lon="6.04557">
        <ele>235</ele>
        <time>2018-12-05T09:00:22Z</time>
      </trkpt>
      <trkpt lat="47.71139" lon="6.04554">
        <ele>235</ele>
        <time>2018-12-05T09:00:24Z</time>
      </trkpt>
      <trkpt lat="47.71144" lon="6.04552">
        <ele>235</ele>
        <time>2018-12-05T09:00:26Z</time>
      </trkpt>
      <trkpt lat="47.71151" lon="6.04549">
        <ele>236</ele>
        <time>2018-12-05T09:00:28Z</time>
      </trkpt>
      <trkpt lat="47.71159" lon="6.04545">
        <ele>236</ele>
        <time>2018-12-05T09:00:30Z</time>
      </trkpt>
      <trkpt lat="47.71166" lon="6.0454">
        <ele>236</ele>
        <time>2018-12-05T09:00:32Z</time>
      </trkpt>
      <trkpt lat="47.71172" lon="6.04536">
        <ele>236</ele>
        <time>2018-12-05T09:00:34Z</time>
      </trkpt>
      <trkpt lat="47.71179" lon="6.04532">
        <ele>236</ele>
        <time>2018-12-05T09:00:36Z</time>
      </trkpt>
      <trkpt lat="47.71191" lon="6.04525">
        <ele>236</ele>
        <time>2018-12-05T09:00:38Z</time>
      </trkpt>
      <trkpt lat="47.71198" lon="6.04521">
        <ele>236</ele>
        <time>2018-12-05T09:00:40Z</time>
      </trkpt>
      <trkpt lat="47.71206" lon="6.04518">
        <ele>235</ele>
        <time>2018-12-05T09:00:42Z</time>
      </trkpt>
      <trkpt lat="47.71215" lon="6.04515">
        <ele>235</ele>
        <time>2018-12-05T09:00:44Z</time>
      </trkpt>
      <trkpt lat="47.71224" lon="6.04513">
        <ele>235</ele>
        <time>2018-12-05T09:00:46Z</time>
      </trkpt>
      <trkpt lat="47.7123" lon="6.0451">
        <ele>235</ele>
        <time>2018-12-05T09:00:48Z</time>
      </trkpt>
      <trkpt lat="47.71239" lon="6.04507">
        <ele>234</ele>
        <time>2018-12-05T09:00:50Z</time>
      </trkpt>
      <trkpt lat="47.71245" lon="6.04505">
        <ele>234</ele>
        <time>2018-12-05T09:00:51Z</time>
      </trkpt>
      <trkpt lat="47.71249" lon="6.04504">
        <ele>234</ele>
        <time>2018-12-05T09:00:52Z</time>
      </trkpt>
      <trkpt lat="47.71255" lon="6.04502">
        <ele>233</ele>
        <time>2018-12-05T09:00:53Z</time>
      </trkpt>
      <trkpt lat="47.7126" lon="6.04501">
        <ele>233</ele>
        <time>2018-12-05T09:00:54Z</time>
      </trkpt>
      <trkpt lat="47.71265" lon="6.045">
        <ele>232</ele>
        <time>2018-12-05T09:00:55Z</time>
      </trkpt>
      <trkpt lat="47.7127" lon="6.045">
        <ele>232</ele>
        <time>2018-12-05T09:00:56Z</time>
      </trkpt>
      <trkpt lat="47.71275" lon="6.04499">
        <ele>231</ele>
        <time>2018-12-05T09:00:57Z</time>
      </trkpt>
      <trkpt lat="47.7128" lon="6.04498">
        <ele>231</ele>
        <time>2018-12-05T09:00:58Z</time>
      </trkpt>
      <trkpt lat="47.71286" lon="6.04498">
        <ele>231</ele>
        <time>2018-12-05T09:00:59Z</time>
      </trkpt>
      <trkpt lat="47.71291" lon="6.04497">
        <ele>230</ele>
        <time>2018-12-05T09:01:00Z</time>
      </trkpt>
      <trkpt lat="47.71298" lon="6.04497">
        <ele>230</ele>
        <time>2018-12-05T09:01:01Z</time>
      </trkpt>
      <trkpt lat="47.71304" lon="6.04499">
        <ele>230</ele>
        <time>2018-12-05T09:01:02Z</time>
      </trkpt>
      <trkpt lat="47.7131" lon="6.045">
        <ele>229</ele>
        <time>2018-12-05T09:01:03Z</time>
      </trkpt>
      <trkpt lat="47.71316" lon="6.04501">
        <ele>229</ele>
        <time>2018-12-05T09:01:04Z</time>
      </trkpt>
      <trkpt lat="47.71322" lon="6.04502">
        <ele>228</ele>
        <time>2018-12-05T09:01:05Z</time>
      </trkpt>
      <trkpt lat="47.71327" lon="6.04503">
        <ele>228</ele>
        <time>2018-12-05T09:01:06Z</time>
      </trkpt>
      <trkpt lat="47.71334" lon="6.04504">
        <ele>228</ele>
        <time>2018-12-05T09:01:07Z</time>
      </trkpt>
      <trkpt lat="47.71339" lon="6.04505">
        <ele>228</ele>
        <time>2018-12-05T09:01:08Z</time>
      </trkpt>
      <trkpt lat="47.71345" lon="6.04506">
        <ele>229</ele>
        <time>2018-12-05T09:01:09Z</time>
      </trkpt>
      <trkpt lat="47.71349" lon="6.04506">
        <ele>229</ele>
        <time>2018-12-05T09:01:10Z</time>
      </trkpt>
      <trkpt lat="47.71357" lon="6.04507">
        <ele>230</ele>
        <time>2018-12-05T09:01:12Z</time>
      </trkpt>
      <trkpt lat="47.71361" lon="6.04512">
        <ele>230</ele>
        <time>2018-12-05T09:01:14Z</time>
      </trkpt>
      <trkpt lat="47.71362" lon="6.0452">
        <ele>230</ele>
        <time>2018-12-05T09:01:16Z</time>
      </trkpt>
      <trkpt lat="47.71362" lon="6.04531">
        <ele>231</ele>
        <time>2018-12-05T09:01:18Z</time>
      </trkpt>
      <trkpt lat="47.71363" lon="6.04542">
        <ele>231</ele>
        <time>2018-12-05T09:01:20Z</time>
      </trkpt>
      <trkpt lat="47.71364" lon="6.04549">
        <ele>231</ele>
        <time>2018-12-05T09:01:21Z</time>
      </trkpt>
      <trkpt lat="47.71365" lon="6.04556">
        <ele>231</ele>
        <time>2018-12-05T09:01:22Z</time>
      </trkpt>
      <trkpt lat="47.71369" lon="6.04567">
        <ele>231</ele>
        <time>2018-12-05T09:01:24Z</time>
      </trkpt>
      <trkpt lat="47.71371" lon="6.04578">
        <ele>232</ele>
        <time>2018-12-05T09:01:26Z</time>
      </trkpt>
      <trkpt lat="47.71373" lon="6.04585">
        <ele>233</ele>
        <time>2018-12-05T09:01:28Z</time>
      </trkpt>
      <trkpt lat="47.71376" lon="6.04593">
        <ele>233</ele>
        <time>2018-12-05T09:01:30Z</time>
      </trkpt>
      <trkpt lat="47.7138" lon="6.04601">
        <ele>233</ele>
        <time>2018-12-05T09:01:32Z</time>
      </trkpt>
      <trkpt lat="47.71385" lon="6.04608">
        <ele>233</ele>
        <time>2018-12-05T09:01:34Z</time>
      </trkpt>
      <trkpt lat="47.7139" lon="6.04616">
        <ele>233</ele>
        <time>2018-12-05T09:01:36Z</time>
      </trkpt>
      <trkpt lat="47.71396" lon="6.04625">
        <ele>234</ele>
        <time>2018-12-05T09:01:38Z</time>
      </trkpt>
      <trkpt lat="47.714" lon="6.04633">
        <ele>234</ele>
        <time>2018-12-05T09:01:40Z</time>
      </trkpt>
      <trkpt lat="47.71405" lon="6.04639">
        <ele>234</ele>
        <time>2018-12-05T09:01:42Z</time>
      </trkpt>
      <trkpt lat="47.7141" lon="6.04646">
        <ele>234</ele>
        <time>2018-12-05T09:01:44Z</time>
      </trkpt>
      <trkpt lat="47.71415" lon="6.04653">
        <ele>235</ele>
        <time>2018-12-05T09:01:46Z</time>
      </trkpt>
      <trkpt lat="47.71419" lon="6.04659">
        <ele>237</ele>
        <time>2018-12-05T09:01:48Z</time>
      </trkpt>
      <trkpt lat="47.71423" lon="6.04666">
        <ele>237</ele>
        <time>2018-12-05T09:01:50Z</time>
      </trkpt>
      <trkpt lat="47.71427" lon="6.04674">
        <ele>238</ele>
        <time>2018-12-05T09:01:52Z</time>
      </trkpt>
      <trkpt lat="47.71432" lon="6.0468">
        <ele>239</ele>
        <time>2018-12-05T09:01:54Z</time>
      </trkpt>
      <trkpt lat="47.71437" lon="6.04687">
        <ele>239</ele>
        <time>2018-12-05T09:01:56Z</time>
      </trkpt>
      <trkpt lat="47.71442" lon="6.04694">
        <ele>239</ele>
        <time>2018-12-05T09:01:58Z</time>
      </trkpt>
      <trkpt lat="47.71446" lon="6.04701">
        <ele>240</ele>
        <time>2018-12-05T09:02:00Z</time>
      </trkpt>
      <trkpt lat="47.7145" lon="6.04709">
        <ele>240</ele>
        <time>2018-12-05T09:02:02Z</time>
      </trkpt>
      <trkpt lat="47.71454" lon="6.04716">
        <ele>240</ele>
        <time>2018-12-05T09:02:04Z</time>
      </trkpt>
      <trkpt lat="47.71459" lon="6.04724">
        <ele>240</ele>
        <time>2018-12-05T09:02:06Z</time>
      </trkpt>
      <trkpt lat="47.71463" lon="6.04731">
        <ele>241</ele>
        <time>2018-12-05T09:02:08Z</time>
      </trkpt>
      <trkpt lat="47.71467" lon="6.04738">
        <ele>241</ele>
        <time>2018-12-05T09:02:10Z</time>
      </trkpt>
      <trkpt lat="47.71472" lon="6.04746">
        <ele>242</ele>
        <time>2018-12-05T09:02:12Z</time>
      </trkpt>
      <trkpt lat="47.71475" lon="6.04753">
        <ele>241</ele>
        <time>2018-12-05T09:02:14Z</time>
      </trkpt>
      <trkpt lat="47.71478" lon="6.04759">
        <ele>241</ele>
        <time>2018-12-05T09:02:16Z</time>
      </trkpt>
      <trkpt lat="47.71481" lon="6.04767">
        <ele>241</ele>
        <time>2018-12-05T09:02:18Z</time>
      </trkpt>
      <trkpt lat="47.71485" lon="6.04777">
        <ele>241</ele>
        <time>2018-12-05T09:02:20Z</time>
      </trkpt>
      <trkpt lat="47.71488" lon="6.04787">
        <ele>240</ele>
        <time>2018-12-05T09:02:22Z</time>
      </trkpt>
      <trkpt lat="47.71492" lon="6.04797">
        <ele>240</ele>
        <time>2018-12-05T09:02:24Z</time>
      </trkpt>
      <trkpt lat="47.71495" lon="6.04804">
        <ele>240</ele>
        <time>2018-12-05T09:02:26Z</time>
      </trkpt>
      <trkpt lat="47.71499" lon="6.04812">
        <ele>240</ele>
        <time>2018-12-05T09:02:28Z</time>
      </trkpt>
      <trkpt lat="47.71503" lon="6.04821">
        <ele>245</ele>
        <time>2018-12-05T09:02:30Z</time>
      </trkpt>
      <trkpt lat="47.71508" lon="6.04831">
        <ele>244</ele>
        <time>2018-12-05T09:02:32Z</time>
      </trkpt>
      <trkpt lat="47.71512" lon="6.0484">
        <ele>243</ele>
        <time>2018-12-05T09:02:34Z</time>
      </trkpt>
      <trkpt lat="47.71516" lon="6.04851">
        <ele>244</ele>
        <time>2018-12-05T09:02:36Z</time>
      </trkpt>
      <trkpt lat="47.71519" lon="6.04862">
        <ele>244</ele>
        <time>2018-12-05T09:02:38Z</time>
      </trkpt>
      <trkpt lat="47.71523" lon="6.04872">
        <ele>244</ele>
        <time>2018-12-05T09:02:40Z</time>
      </trkpt>
      <trkpt lat="47.71527" lon="6.04881">
        <ele>243</ele>
        <time>2018-12-05T09:02:42Z</time>
      </trkpt>
      <trkpt lat="47.71532" lon="6.04889">
        <ele>243</ele>
        <time>2018-12-05T09:02:44Z</time>
      </trkpt>
      <trkpt lat="47.71536" lon="6.04899">
        <ele>243</ele>
        <time>2018-12-05T09:02:46Z</time>
      </trkpt>
      <trkpt lat="47.71541" lon="6.04909">
        <ele>244</ele>
        <time>2018-12-05T09:02:48Z</time>
      </trkpt>
      <trkpt lat="47.71544" lon="6.04919">
        <ele>241</ele>
        <time>2018-12-05T09:02:50Z</time>
      </trkpt>
      <trkpt lat="47.71548" lon="6.04928">
        <ele>242</ele>
        <time>2018-12-05T09:02:52Z</time>
      </trkpt>
      <trkpt lat="47.71552" lon="6.04937">
        <ele>242</ele>
        <time>2018-12-05T09:02:54Z</time>
      </trkpt>
      <trkpt lat="47.71555" lon="6.04948">
        <ele>242</ele>
        <time>2018-12-05T09:02:56Z</time>
      </trkpt>
      <trkpt lat="47.71558" lon="6.04958">
        <ele>242</ele>
        <time>2018-12-05T09:02:58Z</time>
      </trkpt>
      <trkpt lat="47.71562" lon="6.04966">
        <ele>242</ele>
        <time>2018-12-05T09:03:00Z</time>
      </trkpt>
      <trkpt lat="47.71565" lon="6.04976">
        <ele>242</ele>
        <time>2018-12-05T09:03:02Z</time>
      </trkpt>
      <trkpt lat="47.71568" lon="6.04987">
        <ele>242</ele>
        <time>2018-12-05T09:03:04Z</time>
      </trkpt>
      <trkpt lat="47.71572" lon="6.04996">
        <ele>242</ele>
        <time>2018-12-05T09:03:06Z</time>
      </trkpt>
      <trkpt lat="47.71576" lon="6.05006">
        <ele>242</ele>
        <time>2018-12-05T09:03:08Z</time>
      </trkpt>
      <trkpt lat="47.71579" lon="6.05016">
        <ele>241</ele>
        <time>2018-12-05T09:03:10Z</time>
      </trkpt>
      <trkpt lat="47.71583" lon="6.05024">
        <ele>241</ele>
        <time>2018-12-05T09:03:12Z</time>
      </trkpt>
      <trkpt lat="47.71586" lon="6.05032">
        <ele>246</ele>
        <time>2018-12-05T09:03:14Z</time>
      </trkpt>
      <trkpt lat="47.71588" lon="6.05041">
        <ele>246</ele>
        <time>2018-12-05T09:03:16Z</time>
      </trkpt>
      <trkpt lat="47.71589" lon="6.05052">
        <ele>246</ele>
        <time>2018-12-05T09:03:18Z</time>
      </trkpt>
      <trkpt lat="47.71591" lon="6.05064">
        <ele>245</ele>
        <time>2018-12-05T09:03:20Z</time>
      </trkpt>
      <trkpt lat="47.71593" lon="6.05075">
        <ele>244</ele>
        <time>2018-12-05T09:03:22Z</time>
      </trkpt>
      <trkpt lat="47.71594" lon="6.05086">
        <ele>242</ele>
        <time>2018-12-05T09:03:24Z</time>
      </trkpt>
      <trkpt lat="47.71595" lon="6.05098">
        <ele>243</ele>
        <time>2018-12-05T09:03:26Z</time>
      </trkpt>
      <trkpt lat="47.71595" lon="6.05109">
        <ele>244</ele>
        <time>2018-12-05T09:03:28Z</time>
      </trkpt>
      <trkpt lat="47.71596" lon="6.05121">
        <ele>244</ele>
        <time>2018-12-05T09:03:30Z</time>
      </trkpt>
      <trkpt lat="47.71597" lon="6.05136">
        <ele>244</ele>
        <time>2018-12-05T09:03:32Z</time>
      </trkpt>
      <trkpt lat="47.71598" lon="6.05145">
        <ele>243</ele>
        <time>2018-12-05T09:03:34Z</time>
      </trkpt>
      <trkpt lat="47.71599" lon="6.05154">
        <ele>243</ele>
        <time>2018-12-05T09:03:36Z</time>
      </trkpt>
      <trkpt lat="47.71601" lon="6.05162">
        <ele>242</ele>
        <time>2018-12-05T09:03:38Z</time>
      </trkpt>
      <trkpt lat="47.71603" lon="6.05171">
        <ele>241</ele>
        <time>2018-12-05T09:03:40Z</time>
      </trkpt>
      <trkpt lat="47.71604" lon="6.0518">
        <ele>242</ele>
        <time>2018-12-05T09:03:42Z</time>
      </trkpt>
      <trkpt lat="47.71606" lon="6.05187">
        <ele>242</ele>
        <time>2018-12-05T09:03:44Z</time>
      </trkpt>
      <trkpt lat="47.71608" lon="6.05195">
        <ele>243</ele>
        <time>2018-12-05T09:03:46Z</time>
      </trkpt>
      <trkpt lat="47.71611" lon="6.05207">
        <ele>243</ele>
        <time>2018-12-05T09:03:48Z</time>
      </trkpt>
      <trkpt lat="47.71614" lon="6.05215">
        <ele>243</ele>
        <time>2018-12-05T09:03:50Z</time>
      </trkpt>
      <trkpt lat="47.71615" lon="6.05222">
        <ele>243</ele>
        <time>2018-12-05T09:03:52Z</time>
      </trkpt>
      <trkpt lat="47.71617" lon="6.05229">
        <ele>243</ele>
        <time>2018-12-05T09:03:54Z</time>
      </trkpt>
      <trkpt lat="47.71619" lon="6.05238">
        <ele>243</ele>
        <time>2018-12-05T09:03:56Z</time>
      </trkpt>
      <trkpt lat="47.71622" lon="6.05247">
        <ele>243</ele>
        <time>2018-12-05T09:03:58Z</time>
      </trkpt>
      <trkpt lat="47.71624" lon="6.05253">
        <ele>243</ele>
        <time>2018-12-05T09:04:00Z</time>
      </trkpt>
      <trkpt lat="47.71627" lon="6.0526">
        <ele>243</ele>
        <time>2018-12-05T09:04:02Z</time>
      </trkpt>
      <trkpt lat="47.7163" lon="6.05267">
        <ele>244</ele>
        <time>2018-12-05T09:04:04Z</time>
      </trkpt>
      <trkpt lat="47.71633" lon="6.05275">
        <ele>244</ele>
        <time>2018-12-05T09:04:06Z</time>
      </trkpt>
      <trkpt lat="47.71636" lon="6.05284">
        <ele>244</ele>
        <time>2018-12-05T09:04:08Z</time>
      </trkpt>
      <trkpt lat="47.71638" lon="6.05292">
        <ele>244</ele>
        <time>2018-12-05T09:04:10Z</time>
      </trkpt>
      <trkpt lat="47.7164" lon="6.053">
        <ele>244</ele>
        <time>2018-12-05T09:04:12Z</time>
      </trkpt>
      <trkpt lat="47.71643" lon="6.05308">
        <ele>244</ele>
        <time>2018-12-05T09:04:14Z</time>
      </trkpt>
      <trkpt lat="47.71645" lon="6.05315">
        <ele>244</ele>
        <time>2018-12-05T09:04:16Z</time>
      </trkpt>
      <trkpt lat="47.71647" lon="6.05323">
        <ele>245</ele>
        <time>2018-12-05T09:04:18Z</time>
      </trkpt>
      <trkpt lat="47.7165" lon="6.0533">
        <ele>245</ele>
        <time>2018-12-05T09:04:20Z</time>
      </trkpt>
      <trkpt lat="47.71652" lon="6.05338">
        <ele>246</ele>
        <time>2018-12-05T09:04:23Z</time>
      </trkpt>
      <trkpt lat="47.71654" lon="6.05347">
        <ele>246</ele>
        <time>2018-12-05T09:04:26Z</time>
      </trkpt>
      <trkpt lat="47.71655" lon="6.05355">
        <ele>246</ele>
        <time>2018-12-05T09:04:28Z</time>
      </trkpt>
      <trkpt lat="47.71655" lon="6.05362">
        <ele>246</ele>
        <time>2018-12-05T09:04:30Z</time>
      </trkpt>
      <trkpt lat="47.71656" lon="6.05371">
        <ele>246</ele>
        <time>2018-12-05T09:04:32Z</time>
      </trkpt>
      <trkpt lat="47.71656" lon="6.05381">
        <ele>247</ele>
        <time>2018-12-05T09:04:34Z</time>
      </trkpt>
      <trkpt lat="47.71656" lon="6.05391">
        <ele>247</ele>
        <time>2018-12-05T09:04:36Z</time>
      </trkpt>
      <trkpt lat="47.71657" lon="6.054">
        <ele>247</ele>
        <time>2018-12-05T09:04:38Z</time>
      </trkpt>
      <trkpt lat="47.71657" lon="6.0541">
        <ele>248</ele>
        <time>2018-12-05T09:04:40Z</time>
      </trkpt>
      <trkpt lat="47.71657" lon="6.0542">
        <ele>250</ele>
        <time>2018-12-05T09:04:42Z</time>
      </trkpt>
      <trkpt lat="47.71658" lon="6.05431">
        <ele>250</ele>
        <time>2018-12-05T09:04:44Z</time>
      </trkpt>
      <trkpt lat="47.71658" lon="6.0544">
        <ele>251</ele>
        <time>2018-12-05T09:04:46Z</time>
      </trkpt>
      <trkpt lat="47.71658" lon="6.05448">
        <ele>251</ele>
        <time>2018-12-05T09:04:49Z</time>
      </trkpt>
      <trkpt lat="47.71657" lon="6.05455">
        <ele>251</ele>
        <time>2018-12-05T09:04:51Z</time>
      </trkpt>
      <trkpt lat="47.71655" lon="6.05465">
        <ele>252</ele>
        <time>2018-12-05T09:04:53Z</time>
      </trkpt>
      <trkpt lat="47.71654" lon="6.05472">
        <ele>252</ele>
        <time>2018-12-05T09:04:55Z</time>
      </trkpt>
      <trkpt lat="47.71652" lon="6.0548">
        <ele>252</ele>
        <time>2018-12-05T09:04:57Z</time>
      </trkpt>
      <trkpt lat="47.71651" lon="6.05488">
        <ele>253</ele>
        <time>2018-12-05T09:04:59Z</time>
      </trkpt>
      <trkpt lat="47.71649" lon="6.05496">
        <ele>253</ele>
        <time>2018-12-05T09:05:01Z</time>
      </trkpt>
      <trkpt lat="47.71647" lon="6.05503">
        <ele>255</ele>
        <time>2018-12-05T09:05:03Z</time>
      </trkpt>
      <trkpt lat="47.71645" lon="6.0551">
        <ele>255</ele>
        <time>2018-12-05T09:05:05Z</time>
      </trkpt>
      <trkpt lat="47.71643" lon="6.05516">
        <ele>255</ele>
        <time>2018-12-05T09:05:07Z</time>
      </trkpt>
      <trkpt lat="47.71641" lon="6.05524">
        <ele>256</ele>
        <time>2018-12-05T09:05:10Z</time>
      </trkpt>
      <trkpt lat="47.71639" lon="6.05531">
        <ele>256</ele>
        <time>2018-12-05T09:05:13Z</time>
      </trkpt>
      <trkpt lat="47.71638" lon="6.05538">
        <ele>256</ele>
        <time>2018-12-05T09:05:16Z</time>
      </trkpt>
      <trkpt lat="47.71636" lon="6.05547">
        <ele>256</ele>
        <time>2018-12-05T09:05:19Z</time>
      </trkpt>
      <trkpt lat="47.71634" lon="6.05555">
        <ele>256</ele>
        <time>2018-12-05T09:05:21Z</time>
      </trkpt>
      <trkpt lat="47.71633" lon="6.05562">
        <ele>256</ele>
        <time>2018-12-05T09:05:23Z</time>
      </trkpt>
      <trkpt lat="47.71632" lon="6.05569">
        <ele>256</ele>
        <time>2018-12-05T09:05:25Z</time>
      </trkpt>
      <trkpt lat="47.71631" lon="6.05576">
        <ele>256</ele>
        <time>2018-12-05T09:05:29Z</time>
      </trkpt>
      <trkpt lat="47.7163" lon="6.05584">
        <ele>258</ele>
        <time>2018-12-05T09:05:32Z</time>
      </trkpt>
      <trkpt lat="47.71629" lon="6.0559">
        <ele>258</ele>
        <time>2018-12-05T09:05:34Z</time>
      </trkpt>
      <trkpt lat="47.71628" lon="6.05598">
        <ele>258</ele>
        <time>2018-12-05T09:05:36Z</time>
      </trkpt>
      <trkpt lat="47.71627" lon="6.05606">
        <ele>258</ele>
        <time>2018-12-05T09:05:38Z</time>
      </trkpt>
      <trkpt lat="47.71625" lon="6.05614">
        <ele>258</ele>
        <time>2018-12-05T09:05:40Z</time>
      </trkpt>
      <trkpt lat="47.71624" lon="6.0562">
        <ele>258</ele>
        <time>2018-12-05T09:05:42Z</time>
      </trkpt>
      <trkpt lat="47.71623" lon="6.05628">
        <ele>258</ele>
        <time>2018-12-05T09:05:44Z</time>
      </trkpt>
      <trkpt lat="47.71622" lon="6.05635">
        <ele>258</ele>
        <time>2018-12-05T09:05:46Z</time>
      </trkpt>
      <trkpt lat="47.7162" lon="6.05644">
        <ele>258</ele>
        <time>2018-12-05T09:05:49Z</time>
      </trkpt>
      <trkpt lat="47.71618" lon="6.05652">
        <ele>258</ele>
        <time>2018-12-05T09:05:51Z</time>
      </trkpt>
      <trkpt lat="47.71616" lon="6.05658">
        <ele>258</ele>
        <time>2018-12-05T09:05:53Z</time>
      </trkpt>
      <trkpt lat="47.71614" lon="6.05665">
        <ele>258</ele>
        <time>2018-12-05T09:05:56Z</time>
      </trkpt>
      <trkpt lat="47.71611" lon="6.05673">
        <ele>258</ele>
        <time>2018-12-05T09:05:59Z</time>
      </trkpt>
      <trkpt lat="47.71608" lon="6.05679">
        <ele>258</ele>
        <time>2018-12-05T09:06:00Z</time>
      </trkpt>
      <trkpt lat="47.71605" lon="6.05688">
        <ele>257</ele>
        <time>2018-12-05T09:06:02Z</time>
      </trkpt>
      <trkpt lat="47.71601" lon="6.05694">
        <ele>257</ele>
        <time>2018-12-05T09:06:04Z</time>
      </trkpt>
      <trkpt lat="47.71599" lon="6.057">
        <ele>257</ele>
        <time>2018-12-05T09:06:06Z</time>
      </trkpt>
      <trkpt lat="47.71596" lon="6.05708">
        <ele>257</ele>
        <time>2018-12-05T09:06:08Z</time>
      </trkpt>
      <trkpt lat="47.71594" lon="6.05715">
        <ele>256</ele>
        <time>2018-12-05T09:06:10Z</time>
      </trkpt>
      <trkpt lat="47.71592" lon="6.05722">
        <ele>256</ele>
        <time>2018-12-05T09:06:12Z</time>
      </trkpt>
      <trkpt lat="47.71591" lon="6.05729">
        <ele>256</ele>
        <time>2018-12-05T09:06:15Z</time>
      </trkpt>
      <trkpt lat="47.71591" lon="6.05736">
        <ele>255</ele>
        <time>2018-12-05T09:06:18Z</time>
      </trkpt>
      <trkpt lat="47.71595" lon="6.0574">
        <ele>255</ele>
        <time>2018-12-05T09:06:22Z</time>
      </trkpt>
      <trkpt lat="47.71601" lon="6.05738">
        <ele>255</ele>
        <time>2018-12-05T09:06:26Z</time>
      </trkpt>
      <trkpt lat="47.71607" lon="6.05737">
        <ele>256</ele>
        <time>2018-12-05T09:06:30Z</time>
      </trkpt>
      <trkpt lat="47.71612" lon="6.05738">
        <ele>256</ele>
        <time>2018-12-05T09:06:33Z</time>
      </trkpt>
      <trkpt lat="47.71617" lon="6.05739">
        <ele>256</ele>
        <time>2018-12-05T09:06:35Z</time>
      </trkpt>
      <trkpt lat="47.71622" lon="6.0574">
        <ele>257</ele>
        <time>2018-12-05T09:06:38Z</time>
      </trkpt>
      <trkpt lat="47.71627" lon="6.05741">
        <ele>257</ele>
        <time>2018-12-05T09:06:40Z</time>
      </trkpt>
      <trkpt lat="47.71632" lon="6.05742">
        <ele>257</ele>
        <time>2018-12-05T09:06:44Z</time>
      </trkpt>
      <trkpt lat="47.71638" lon="6.05743">
        <ele>257</ele>
        <time>2018-12-05T09:06:49Z</time>
      </trkpt>
      <trkpt lat="47.71645" lon="6.05743">
        <ele>257</ele>
        <time>2018-12-05T09:06:52Z</time>
      </trkpt>
      <trkpt lat="47.71649" lon="6.05743">
        <ele>257</ele>
        <time>2018-12-05T09:06:54Z</time>
      </trkpt>
      <trkpt lat="47.71655" lon="6.05743">
        <ele>258</ele>
        <time>2018-12-05T09:06:56Z</time>
      </trkpt>
      <trkpt lat="47.71661" lon="6.05745">
        <ele>258</ele>
        <time>2018-12-05T09:06:58Z</time>
      </trkpt>
      <trkpt lat="47.71665" lon="6.05746">
        <ele>258</ele>
        <time>2018-12-05T09:07:00Z</time>
      </trkpt>
      <trkpt lat="47.71674" lon="6.05746">
        <ele>259</ele>
        <time>2018-12-05T09:07:03Z</time>
      </trkpt>
      <trkpt lat="47.7168" lon="6.05747">
        <ele>259</ele>
        <time>2018-12-05T09:07:04Z</time>
      </trkpt>
      <trkpt lat="47.71687" lon="6.05748">
        <ele>260</ele>
        <time>2018-12-05T09:07:06Z</time>
      </trkpt>
      <trkpt lat="47.71692" lon="6.05749">
        <ele>260</ele>
        <time>2018-12-05T09:07:08Z</time>
      </trkpt>
      <trkpt lat="47.717" lon="6.0575">
        <ele>259</ele>
        <time>2018-12-05T09:07:10Z</time>
      </trkpt>
      <trkpt lat="47.71707" lon="6.0575">
        <ele>259</ele>
        <time>2018-12-05T09:07:12Z</time>
      </trkpt>
      <trkpt lat="47.71712" lon="6.05751">
        <ele>259</ele>
        <time>2018-12-05T09:07:14Z</time>
      </trkpt>
      <trkpt lat="47.71719" lon="6.05751">
        <ele>260</ele>
        <time>2018-12-05T09:07:17Z</time>
      </trkpt>
      <trkpt lat="47.71724" lon="6.05754">
        <ele>260</ele>
        <time>2018-12-05T09:07:19Z</time>
      </trkpt>
      <trkpt lat="47.71728" lon="6.05759">
        <ele>260</ele>
        <time>2018-12-05T09:07:22Z</time>
      </trkpt>
      <trkpt lat="47.71733" lon="6.05762">
        <ele>261</ele>
        <time>2018-12-05T09:07:24Z</time>
      </trkpt>
      <trkpt lat="47.7174" lon="6.05765">
        <ele>261</ele>
        <time>2018-12-05T09:07:26Z</time>
      </trkpt>
      <trkpt lat="47.71745" lon="6.05767">
        <ele>261</ele>
        <time>2018-12-05T09:07:28Z</time>
      </trkpt>
      <trkpt lat="47.7175" lon="6.05769">
        <ele>262</ele>
        <time>2018-12-05T09:07:30Z</time>
      </trkpt>
      <trkpt lat="47.71755" lon="6.05773">
        <ele>262</ele>
        <time>2018-12-05T09:07:33Z</time>
      </trkpt>
      <trkpt lat="47.71759" lon="6.05777">
        <ele>262</ele>
        <time>2018-12-05T09:07:36Z</time>
      </trkpt>
      <trkpt lat="47.71762" lon="6.05782">
        <ele>262</ele>
        <time>2018-12-05T09:07:39Z</time>
      </trkpt>
      <trkpt lat="47.71764" lon="6.05789">
        <ele>262</ele>
        <time>2018-12-05T09:07:44Z</time>
      </trkpt>
      <trkpt lat="47.71766" lon="6.05795">
        <ele>262</ele>
        <time>2018-12-05T09:07:49Z</time>
      </trkpt>
      <trkpt lat="47.71769" lon="6.05802">
        <ele>262</ele>
        <time>2018-12-05T09:07:58Z</time>
      </trkpt>
      <trkpt lat="47.7177" lon="6.05809">
        <ele>262</ele>
        <time>2018-12-05T09:08:00Z</time>
      </trkpt>
      <trkpt lat="47.71772" lon="6.05818">
        <ele>262</ele>
        <time>2018-12-05T09:08:02Z</time>
      </trkpt>
      <trkpt lat="47.71774" lon="6.05825">
        <ele>262</ele>
        <time>2018-12-05T09:08:04Z</time>
      </trkpt>
      <trkpt lat="47.71779" lon="6.05832">
        <ele>262</ele>
        <time>2018-12-05T09:08:06Z</time>
      </trkpt>
      <trkpt lat="47.71785" lon="6.05836">
        <ele>262</ele>
        <time>2018-12-05T09:08:07Z</time>
      </trkpt>
      <trkpt lat="47.71791" lon="6.05841">
        <ele>263</ele>
        <time>2018-12-05T09:08:08Z</time>
      </trkpt>
      <trkpt lat="47.71799" lon="6.05847">
        <ele>263</ele>
        <time>2018-12-05T09:08:09Z</time>
      </trkpt>
      <trkpt lat="47.71806" lon="6.05854">
        <ele>263</ele>
        <time>2018-12-05T09:08:10Z</time>
      </trkpt>
      <trkpt lat="47.71815" lon="6.0586">
        <ele>264</ele>
        <time>2018-12-05T09:08:11Z</time>
      </trkpt>
      <trkpt lat="47.71822" lon="6.05866">
        <ele>264</ele>
        <time>2018-12-05T09:08:12Z</time>
      </trkpt>
      <trkpt lat="47.71829" lon="6.0587">
        <ele>264</ele>
        <time>2018-12-05T09:08:13Z</time>
      </trkpt>
      <trkpt lat="47.71836" lon="6.05875">
        <ele>266</ele>
        <time>2018-12-05T09:08:14Z</time>
      </trkpt>
      <trkpt lat="47.71841" lon="6.05878">
        <ele>266</ele>
        <time>2018-12-05T09:08:15Z</time>
      </trkpt>
      <trkpt lat="47.71848" lon="6.05882">
        <ele>266</ele>
        <time>2018-12-05T09:08:16Z</time>
      </trkpt>
      <trkpt lat="47.71852" lon="6.05885">
        <ele>266</ele>
        <time>2018-12-05T09:08:17Z</time>
      </trkpt>
      <trkpt lat="47.71858" lon="6.05887">
        <ele>267</ele>
        <time>2018-12-05T09:08:19Z</time>
      </trkpt>
      <trkpt lat="47.71865" lon="6.05891">
        <ele>267</ele>
        <time>2018-12-05T09:08:21Z</time>
      </trkpt>
      <trkpt lat="47.71871" lon="6.05893">
        <ele>267</ele>
        <time>2018-12-05T09:08:23Z</time>
      </trkpt>
      <trkpt lat="47.71876" lon="6.05896">
        <ele>267</ele>
        <time>2018-12-05T09:08:25Z</time>
      </trkpt>
      <trkpt lat="47.71882" lon="6.05899">
        <ele>267</ele>
        <time>2018-12-05T09:08:27Z</time>
      </trkpt>
      <trkpt lat="47.71887" lon="6.05901">
        <ele>267</ele>
        <time>2018-12-05T09:08:29Z</time>
      </trkpt>
      <trkpt lat="47.71893" lon="6.05906">
        <ele>267</ele>
        <time>2018-12-05T09:08:32Z</time>
      </trkpt>
      <trkpt lat="47.71898" lon="6.05908">
        <ele>267</ele>
        <time>2018-12-05T09:08:35Z</time>
      </trkpt>
      <trkpt lat="47.71903" lon="6.05911">
        <ele>267</ele>
        <time>2018-12-05T09:08:38Z</time>
      </trkpt>
      <trkpt lat="47.71908" lon="6.05914">
        <ele>267</ele>
        <time>2018-12-05T09:08:41Z</time>
      </trkpt>
      <trkpt lat="47.71912" lon="6.05917">
        <ele>268</ele>
        <time>2018-12-05T09:08:43Z</time>
      </trkpt>
      <trkpt lat="47.71919" lon="6.05919">
        <ele>268</ele>
        <time>2018-12-05T09:08:46Z</time>
      </trkpt>
      <trkpt lat="47.71924" lon="6.05921">
        <ele>267</ele>
        <time>2018-12-05T09:08:49Z</time>
      </trkpt>
      <trkpt lat="47.71928" lon="6.05922">
        <ele>267</ele>
        <time>2018-12-05T09:08:51Z</time>
      </trkpt>
      <trkpt lat="47.71933" lon="6.05923">
        <ele>267</ele>
        <time>2018-12-05T09:08:53Z</time>
      </trkpt>
      <trkpt lat="47.71939" lon="6.05925">
        <ele>266</ele>
        <time>2018-12-05T09:08:56Z</time>
      </trkpt>
      <trkpt lat="47.71944" lon="6.05923">
        <ele>266</ele>
        <time>2018-12-05T09:08:59Z</time>
      </trkpt>
      <trkpt lat="47.71949" lon="6.05924">
        <ele>266</ele>
        <time>2018-12-05T09:09:05Z</time>
      </trkpt>
      <trkpt lat="47.71954" lon="6.05929">
        <ele>266</ele>
        <time>2018-12-05T09:09:08Z</time>
      </trkpt>
      <trkpt lat="47.71959" lon="6.05933">
        <ele>266</ele>
        <time>2018-12-05T09:09:10Z</time>
      </trkpt>
      <trkpt lat="47.71967" lon="6.05938">
        <ele>265</ele>
        <time>2018-12-05T09:09:12Z</time>
      </trkpt>
      <trkpt lat="47.71973" lon="6.05941">
        <ele>265</ele>
        <time>2018-12-05T09:09:14Z</time>
      </trkpt>
      <trkpt lat="47.7198" lon="6.05942">
        <ele>265</ele>
        <time>2018-12-05T09:09:17Z</time>
      </trkpt>
      <trkpt lat="47.71985" lon="6.05943">
        <ele>265</ele>
        <time>2018-12-05T09:09:19Z</time>
      </trkpt>
      <trkpt lat="47.71992" lon="6.05944">
        <ele>265</ele>
        <time>2018-12-05T09:09:21Z</time>
      </trkpt>
      <trkpt lat="47.71997" lon="6.05945">
        <ele>265</ele>
        <time>2018-12-05T09:09:23Z</time>
      </trkpt>
      <trkpt lat="47.72001" lon="6.05949">
        <ele>261</ele>
        <time>2018-12-05T09:09:25Z</time>
      </trkpt>
      <trkpt lat="47.72005" lon="6.05954">
        <ele>260</ele>
        <time>2018-12-05T09:09:28Z</time>
      </trkpt>
      <trkpt lat="47.7201" lon="6.05959">
        <ele>260</ele>
        <time>2018-12-05T09:09:31Z</time>
      </trkpt>
      <trkpt lat="47.72015" lon="6.05962">
        <ele>259</ele>
        <time>2018-12-05T09:09:33Z</time>
      </trkpt>
      <trkpt lat="47.72022" lon="6.05964">
        <ele>259</ele>
        <time>2018-12-05T09:09:35Z</time>
      </trkpt>
      <trkpt lat="47.7203" lon="6.05967">
        <ele>259</ele>
        <time>2018-12-05T09:09:37Z</time>
      </trkpt>
      <trkpt lat="47.72037" lon="6.0597">
        <ele>258</ele>
        <time>2018-12-05T09:09:39Z</time>
      </trkpt>
      <trkpt lat="47.72044" lon="6.05975">
        <ele>258</ele>
        <time>2018-12-05T09:09:42Z</time>
      </trkpt>
      <trkpt lat="47.72048" lon="6.05979">
        <ele>257</ele>
        <time>2018-12-05T09:09:43Z</time>
      </trkpt>
      <trkpt lat="47.72055" lon="6.05986">
        <ele>256</ele>
        <time>2018-12-05T09:09:44Z</time>
      </trkpt>
      <trkpt lat="47.72061" lon="6.05992">
        <ele>255</ele>
        <time>2018-12-05T09:09:45Z</time>
      </trkpt>
      <trkpt lat="47.72066" lon="6.05997">
        <ele>254</ele>
        <time>2018-12-05T09:09:46Z</time>
      </trkpt>
      <trkpt lat="47.72071" lon="6.06">
        <ele>250</ele>
        <time>2018-12-05T09:09:47Z</time>
      </trkpt>
      <trkpt lat="47.72075" lon="6.06003">
        <ele>250</ele>
        <time>2018-12-05T09:09:48Z</time>
      </trkpt>
      <trkpt lat="47.72083" lon="6.06008">
        <ele>250</ele>
        <time>2018-12-05T09:09:50Z</time>
      </trkpt>
      <trkpt lat="47.72088" lon="6.06013">
        <ele>248</ele>
        <time>2018-12-05T09:09:52Z</time>
      </trkpt>
      <trkpt lat="47.72094" lon="6.06017">
        <ele>247</ele>
        <time>2018-12-05T09:09:55Z</time>
      </trkpt>
      <trkpt lat="47.72098" lon="6.06021">
        <ele>247</ele>
        <time>2018-12-05T09:09:58Z</time>
      </trkpt>
      <trkpt lat="47.72102" lon="6.06025">
        <ele>247</ele>
        <time>2018-12-05T09:10:01Z</time>
      </trkpt>
      <trkpt lat="47.72106" lon="6.06033">
        <ele>246</ele>
        <time>2018-12-05T09:10:04Z</time>
      </trkpt>
      <trkpt lat="47.72112" lon="6.0604">
        <ele>246</ele>
        <time>2018-12-05T09:10:06Z</time>
      </trkpt>
      <trkpt lat="47.72116" lon="6.06045">
        <ele>245</ele>
        <time>2018-12-05T09:10:07Z</time>
      </trkpt>
      <trkpt lat="47.72124" lon="6.06053">
        <ele>245</ele>
        <time>2018-12-05T09:10:08Z</time>
      </trkpt>
      <trkpt lat="47.72129" lon="6.06059">
        <ele>245</ele>
        <time>2018-12-05T09:10:09Z</time>
      </trkpt>
      <trkpt lat="47.72134" lon="6.06064">
        <ele>245</ele>
        <time>2018-12-05T09:10:10Z</time>
      </trkpt>
      <trkpt lat="47.72138" lon="6.06067">
        <ele>245</ele>
        <time>2018-12-05T09:10:11Z</time>
      </trkpt>
      <trkpt lat="47.72142" lon="6.06071">
        <ele>244</ele>
        <time>2018-12-05T09:10:12Z</time>
      </trkpt>
      <trkpt lat="47.72148" lon="6.0608">
        <ele>244</ele>
        <time>2018-12-05T09:10:14Z</time>
      </trkpt>
      <trkpt lat="47.72152" lon="6.06085">
        <ele>242</ele>
        <time>2018-12-05T09:10:15Z</time>
      </trkpt>
      <trkpt lat="47.72156" lon="6.06091">
        <ele>242</ele>
        <time>2018-12-05T09:10:16Z</time>
      </trkpt>
      <trkpt lat="47.72162" lon="6.06098">
        <ele>242</ele>
        <time>2018-12-05T09:10:18Z</time>
      </trkpt>
      <trkpt lat="47.72167" lon="6.06104">
        <ele>243</ele>
        <time>2018-12-05T09:10:20Z</time>
      </trkpt>
      <trkpt lat="47.72172" lon="6.06108">
        <ele>243</ele>
        <time>2018-12-05T09:10:22Z</time>
      </trkpt>
      <trkpt lat="47.72178" lon="6.06115">
        <ele>243</ele>
        <time>2018-12-05T09:10:24Z</time>
      </trkpt>
      <trkpt lat="47.72183" lon="6.06121">
        <ele>243</ele>
        <time>2018-12-05T09:10:26Z</time>
      </trkpt>
      <trkpt lat="47.72188" lon="6.06126">
        <ele>243</ele>
        <time>2018-12-05T09:10:28Z</time>
      </trkpt>
      <trkpt lat="47.72192" lon="6.0613">
        <ele>243</ele>
        <time>2018-12-05T09:10:30Z</time>
      </trkpt>
      <trkpt lat="47.72196" lon="6.06133">
        <ele>243</ele>
        <time>2018-12-05T09:10:32Z</time>
      </trkpt>
      <trkpt lat="47.722" lon="6.06136">
        <ele>244</ele>
        <time>2018-12-05T09:10:35Z</time>
      </trkpt>
      <trkpt lat="47.72205" lon="6.06139">
        <ele>244</ele>
        <time>2018-12-05T09:10:38Z</time>
      </trkpt>
      <trkpt lat="47.72209" lon="6.06141">
        <ele>244</ele>
        <time>2018-12-05T09:10:42Z</time>
      </trkpt>
      <trkpt lat="47.72214" lon="6.06143">
        <ele>244</ele>
        <time>2018-12-05T09:10:45Z</time>
      </trkpt>
      <trkpt lat="47.72219" lon="6.06146">
        <ele>244</ele>
        <time>2018-12-05T09:10:48Z</time>
      </trkpt>
      <trkpt lat="47.72224" lon="6.06148">
        <ele>244</ele>
        <time>2018-12-05T09:10:52Z</time>
      </trkpt>
      <trkpt lat="47.72228" lon="6.06151">
        <ele>245</ele>
        <time>2018-12-05T09:10:59Z</time>
      </trkpt>
      <trkpt lat="47.72234" lon="6.06152">
        <ele>245</ele>
        <time>2018-12-05T09:11:04Z</time>
      </trkpt>
      <trkpt lat="47.7224" lon="6.06153">
        <ele>245</ele>
        <time>2018-12-05T09:11:08Z</time>
      </trkpt>
      <trkpt lat="47.72245" lon="6.06154">
        <ele>245</ele>
        <time>2018-12-05T09:11:11Z</time>
      </trkpt>
      <trkpt lat="47.7225" lon="6.06155">
        <ele>246</ele>
        <time>2018-12-05T09:11:13Z</time>
      </trkpt>
      <trkpt lat="47.72256" lon="6.06154">
        <ele>247</ele>
        <time>2018-12-05T09:11:15Z</time>
      </trkpt>
      <trkpt lat="47.7226" lon="6.06151">
        <ele>247</ele>
        <time>2018-12-05T09:11:17Z</time>
      </trkpt>
      <trkpt lat="47.72265" lon="6.06145">
        <ele>247</ele>
        <time>2018-12-05T09:11:20Z</time>
      </trkpt>
      <trkpt lat="47.72269" lon="6.06141">
        <ele>247</ele>
        <time>2018-12-05T09:11:24Z</time>
      </trkpt>
      <trkpt lat="47.72273" lon="6.06137">
        <ele>247</ele>
        <time>2018-12-05T09:11:28Z</time>
      </trkpt>
      <trkpt lat="47.72277" lon="6.06133">
        <ele>247</ele>
        <time>2018-12-05T09:11:31Z</time>
      </trkpt>
      <trkpt lat="47.72283" lon="6.06133">
        <ele>247</ele>
        <time>2018-12-05T09:12:36Z</time>
      </trkpt>
      <trkpt lat="47.72289" lon="6.06134">
        <ele>247</ele>
        <time>2018-12-05T09:12:39Z</time>
      </trkpt>
      <trkpt lat="47.72295" lon="6.06134">
        <ele>247</ele>
        <time>2018-12-05T09:12:42Z</time>
      </trkpt>
      <trkpt lat="47.72301" lon="6.06133">
        <ele>247</ele>
        <time>2018-12-05T09:12:45Z</time>
      </trkpt>
      <trkpt lat="47.72307" lon="6.06132">
        <ele>247</ele>
        <time>2018-12-05T09:12:48Z</time>
      </trkpt>
      <trkpt lat="47.72314" lon="6.06133">
        <ele>247</ele>
        <time>2018-12-05T09:12:51Z</time>
      </trkpt>
      <trkpt lat="47.7232" lon="6.06133">
        <ele>247</ele>
        <time>2018-12-05T09:12:54Z</time>
      </trkpt>
      <trkpt lat="47.72325" lon="6.06133">
        <ele>248</ele>
        <time>2018-12-05T09:12:56Z</time>
      </trkpt>
      <trkpt lat="47.7233" lon="6.06134">
        <ele>248</ele>
        <time>2018-12-05T09:12:58Z</time>
      </trkpt>
      <trkpt lat="47.72337" lon="6.06135">
        <ele>247</ele>
        <time>2018-12-05T09:13:00Z</time>
      </trkpt>
      <trkpt lat="47.72345" lon="6.06136">
        <ele>247</ele>
        <time>2018-12-05T09:13:02Z</time>
      </trkpt>
      <trkpt lat="47.72352" lon="6.06138">
        <ele>247</ele>
        <time>2018-12-05T09:13:04Z</time>
      </trkpt>
      <trkpt lat="47.72359" lon="6.06139">
        <ele>247</ele>
        <time>2018-12-05T09:13:06Z</time>
      </trkpt>
      <trkpt lat="47.72365" lon="6.0614">
        <ele>247</ele>
        <time>2018-12-05T09:13:08Z</time>
      </trkpt>
      <trkpt lat="47.72371" lon="6.06142">
        <ele>247</ele>
        <time>2018-12-05T09:13:12Z</time>
      </trkpt>
      <trkpt lat="47.72376" lon="6.06144">
        <ele>247</ele>
        <time>2018-12-05T09:13:14Z</time>
      </trkpt>
      <trkpt lat="47.72381" lon="6.06145">
        <ele>247</ele>
        <time>2018-12-05T09:13:17Z</time>
      </trkpt>
      <trkpt lat="47.72386" lon="6.06149">
        <ele>247</ele>
        <time>2018-12-05T09:13:32Z</time>
      </trkpt>
      <trkpt lat="47.7239" lon="6.06152">
        <ele>247</ele>
        <time>2018-12-05T09:13:36Z</time>
      </trkpt>
      <trkpt lat="47.72395" lon="6.06155">
        <ele>247</ele>
        <time>2018-12-05T09:13:41Z</time>
      </trkpt>
      <trkpt lat="47.724" lon="6.06157">
        <ele>247</ele>
        <time>2018-12-05T09:14:04Z</time>
      </trkpt>
      <trkpt lat="47.72405" lon="6.06159">
        <ele>247</ele>
        <time>2018-12-05T09:14:10Z</time>
      </trkpt>
      <trkpt lat="47.7241" lon="6.06161">
        <ele>247</ele>
        <time>2018-12-05T09:14:13Z</time>
      </trkpt>
      <trkpt lat="47.72416" lon="6.06164">
        <ele>247</ele>
        <time>2018-12-05T09:14:16Z</time>
      </trkpt>
      <trkpt lat="47.7242" lon="6.06168">
        <ele>247</ele>
        <time>2018-12-05T09:14:18Z</time>
      </trkpt>
      <trkpt lat="47.72425" lon="6.06172">
        <ele>248</ele>
        <time>2018-12-05T09:14:20Z</time>
      </trkpt>
      <trkpt lat="47.72433" lon="6.06178">
        <ele>248</ele>
        <time>2018-12-05T09:14:22Z</time>
      </trkpt>
      <trkpt lat="47.72439" lon="6.06183">
        <ele>249</ele>
        <time>2018-12-05T09:14:24Z</time>
      </trkpt>
      <trkpt lat="47.72444" lon="6.06187">
        <ele>249</ele>
        <time>2018-12-05T09:14:26Z</time>
      </trkpt>
      <trkpt lat="47.7245" lon="6.0619">
        <ele>249</ele>
        <time>2018-12-05T09:14:28Z</time>
      </trkpt>
      <trkpt lat="47.72456" lon="6.06194">
        <ele>249</ele>
        <time>2018-12-05T09:14:30Z</time>
      </trkpt>
      <trkpt lat="47.72463" lon="6.06199">
        <ele>249</ele>
        <time>2018-12-05T09:14:32Z</time>
      </trkpt>
      <trkpt lat="47.72471" lon="6.06205">
        <ele>250</ele>
        <time>2018-12-05T09:14:34Z</time>
      </trkpt>
      <trkpt lat="47.72478" lon="6.0621">
        <ele>250</ele>
        <time>2018-12-05T09:14:36Z</time>
      </trkpt>
      <trkpt lat="47.72485" lon="6.06214">
        <ele>250</ele>
        <time>2018-12-05T09:14:38Z</time>
      </trkpt>
      <trkpt lat="47.72491" lon="6.06219">
        <ele>250</ele>
        <time>2018-12-05T09:14:40Z</time>
      </trkpt>
      <trkpt lat="47.72499" lon="6.06224">
        <ele>250</ele>
        <time>2018-12-05T09:14:42Z</time>
      </trkpt>
      <trkpt lat="47.72505" lon="6.06229">
        <ele>252</ele>
        <time>2018-12-05T09:14:44Z</time>
      </trkpt>
      <trkpt lat="47.72511" lon="6.06234">
        <ele>252</ele>
        <time>2018-12-05T09:14:46Z</time>
      </trkpt>
      <trkpt lat="47.72518" lon="6.06238">
        <ele>252</ele>
        <time>2018-12-05T09:14:48Z</time>
      </trkpt>
      <trkpt lat="47.72524" lon="6.06243">
        <ele>253</ele>
        <time>2018-12-05T09:14:50Z</time>
      </trkpt>
      <trkpt lat="47.72529" lon="6.06246">
        <ele>253</ele>
        <time>2018-12-05T09:14:52Z</time>
      </trkpt>
      <trkpt lat="47.72533" lon="6.06249">
        <ele>253</ele>
        <time>2018-12-05T09:14:54Z</time>
      </trkpt>
      <trkpt lat="47.72538" lon="6.06253">
        <ele>252</ele>
        <time>2018-12-05T09:14:56Z</time>
      </trkpt>
      <trkpt lat="47.72543" lon="6.06257">
        <ele>252</ele>
        <time>2018-12-05T09:14:58Z</time>
      </trkpt>
      <trkpt lat="47.72549" lon="6.06261">
        <ele>252</ele>
        <time>2018-12-05T09:15:00Z</time>
      </trkpt>
      <trkpt lat="47.72554" lon="6.06264">
        <ele>252</ele>
        <time>2018-12-05T09:15:02Z</time>
      </trkpt>
      <trkpt lat="47.72559" lon="6.06268">
        <ele>252</ele>
        <time>2018-12-05T09:15:04Z</time>
      </trkpt>
      <trkpt lat="47.72565" lon="6.06272">
        <ele>252</ele>
        <time>2018-12-05T09:15:06Z</time>
      </trkpt>
      <trkpt lat="47.72571" lon="6.06276">
        <ele>252</ele>
        <time>2018-12-05T09:15:08Z</time>
      </trkpt>
      <trkpt lat="47.72577" lon="6.06281">
        <ele>252</ele>
        <time>2018-12-05T09:15:10Z</time>
      </trkpt>
      <trkpt lat="47.72583" lon="6.06286">
        <ele>252</ele>
        <time>2018-12-05T09:15:12Z</time>
      </trkpt>
      <trkpt lat="47.72589" lon="6.0629">
        <ele>252</ele>
        <time>2018-12-05T09:15:14Z</time>
      </trkpt>
      <trkpt lat="47.72596" lon="6.06295">
        <ele>252</ele>
        <time>2018-12-05T09:15:16Z</time>
      </trkpt>
      <trkpt lat="47.72603" lon="6.06301">
        <ele>252</ele>
        <time>2018-12-05T09:15:18Z</time>
      </trkpt>
      <trkpt lat="47.72608" lon="6.06307">
        <ele>251</ele>
        <time>2018-12-05T09:15:20Z</time>
      </trkpt>
      <trkpt lat="47.72613" lon="6.06311">
        <ele>251</ele>
        <time>2018-12-05T09:15:22Z</time>
      </trkpt>
      <trkpt lat="47.72618" lon="6.06316">
        <ele>251</ele>
        <time>2018-12-05T09:15:24Z</time>
      </trkpt>
      <trkpt lat="47.72625" lon="6.06321">
        <ele>251</ele>
        <time>2018-12-05T09:15:26Z</time>
      </trkpt>
      <trkpt lat="47.72632" lon="6.06327">
        <ele>251</ele>
        <time>2018-12-05T09:15:28Z</time>
      </trkpt>
      <trkpt lat="47.72636" lon="6.06331">
        <ele>251</ele>
        <time>2018-12-05T09:15:29Z</time>
      </trkpt>
      <trkpt lat="47.7264" lon="6.06335">
        <ele>249</ele>
        <time>2018-12-05T09:15:30Z</time>
      </trkpt>
      <trkpt lat="47.72644" lon="6.06338">
        <ele>249</ele>
        <time>2018-12-05T09:15:32Z</time>
      </trkpt>
      <trkpt lat="47.72652" lon="6.06343">
        <ele>249</ele>
        <time>2018-12-05T09:15:34Z</time>
      </trkpt>
      <trkpt lat="47.72666" lon="6.06361">
        <ele>248</ele>
        <time>2018-12-05T09:15:36Z</time>
      </trkpt>
      <trkpt lat="47.72671" lon="6.06364">
        <ele>246</ele>
        <time>2018-12-05T09:15:37Z</time>
      </trkpt>
      <trkpt lat="47.72674" lon="6.06371">
        <ele>246</ele>
        <time>2018-12-05T09:15:38Z</time>
      </trkpt>
      <trkpt lat="47.72678" lon="6.06376">
        <ele>246</ele>
        <time>2018-12-05T09:15:39Z</time>
      </trkpt>
      <trkpt lat="47.72682" lon="6.06379">
        <ele>246</ele>
        <time>2018-12-05T09:15:40Z</time>
      </trkpt>
      <trkpt lat="47.72686" lon="6.06381">
        <ele>246</ele>
        <time>2018-12-05T09:15:41Z</time>
      </trkpt>
      <trkpt lat="47.72694" lon="6.06387">
        <ele>246</ele>
        <time>2018-12-05T09:15:43Z</time>
      </trkpt>
      <trkpt lat="47.727" lon="6.0639">
        <ele>245</ele>
        <time>2018-12-05T09:15:45Z</time>
      </trkpt>
      <trkpt lat="47.72706" lon="6.06393">
        <ele>245</ele>
        <time>2018-12-05T09:15:47Z</time>
      </trkpt>
      <trkpt lat="47.72711" lon="6.06395">
        <ele>245</ele>
        <time>2018-12-05T09:15:49Z</time>
      </trkpt>
      <trkpt lat="47.72717" lon="6.06397">
        <ele>245</ele>
        <time>2018-12-05T09:15:52Z</time>
      </trkpt>
      <trkpt lat="47.72723" lon="6.06398">
        <ele>245</ele>
        <time>2018-12-05T09:15:55Z</time>
      </trkpt>
      <trkpt lat="47.72729" lon="6.06398">
        <ele>245</ele>
        <time>2018-12-05T09:15:57Z</time>
      </trkpt>
      <trkpt lat="47.72734" lon="6.06398">
        <ele>245</ele>
        <time>2018-12-05T09:15:59Z</time>
      </trkpt>
      <trkpt lat="47.72738" lon="6.06399">
        <ele>245</ele>
        <time>2018-12-05T09:16:01Z</time>
      </trkpt>
      <trkpt lat="47.72743" lon="6.064">
        <ele>245</ele>
        <time>2018-12-05T09:16:04Z</time>
      </trkpt>
      <trkpt lat="47.72749" lon="6.06402">
        <ele>245</ele>
        <time>2018-12-05T09:16:07Z</time>
      </trkpt>
      <trkpt lat="47.72753" lon="6.064">
        <ele>243</ele>
        <time>2018-12-05T09:16:15Z</time>
      </trkpt>
      <trkpt lat="47.72756" lon="6.06393">
        <ele>243</ele>
        <time>2018-12-05T09:16:18Z</time>
      </trkpt>
      <trkpt lat="47.7276" lon="6.06388">
        <ele>243</ele>
        <time>2018-12-05T09:16:20Z</time>
      </trkpt>
      <trkpt lat="47.72765" lon="6.06383">
        <ele>243</ele>
        <time>2018-12-05T09:16:22Z</time>
      </trkpt>
      <trkpt lat="47.72771" lon="6.06377">
        <ele>243</ele>
        <time>2018-12-05T09:16:24Z</time>
      </trkpt>
      <trkpt lat="47.72778" lon="6.06376">
        <ele>243</ele>
        <time>2018-12-05T09:16:25Z</time>
      </trkpt>
      <trkpt lat="47.72787" lon="6.06372">
        <ele>243</ele>
        <time>2018-12-05T09:16:26Z</time>
      </trkpt>
      <trkpt lat="47.72795" lon="6.0637">
        <ele>242</ele>
        <time>2018-12-05T09:16:27Z</time>
      </trkpt>
      <trkpt lat="47.72805" lon="6.06365">
        <ele>242</ele>
        <time>2018-12-05T09:16:28Z</time>
      </trkpt>
      <trkpt lat="47.72811" lon="6.06362">
        <ele>242</ele>
        <time>2018-12-05T09:16:29Z</time>
      </trkpt>
      <trkpt lat="47.72815" lon="6.06361">
        <ele>242</ele>
        <time>2018-12-05T09:16:30Z</time>
      </trkpt>
      <trkpt lat="47.72821" lon="6.06358">
        <ele>242</ele>
        <time>2018-12-05T09:16:32Z</time>
      </trkpt>
      <trkpt lat="47.72826" lon="6.06354">
        <ele>241</ele>
        <time>2018-12-05T09:16:34Z</time>
      </trkpt>
      <trkpt lat="47.72829" lon="6.06349">
        <ele>241</ele>
        <time>2018-12-05T09:16:36Z</time>
      </trkpt>
      <trkpt lat="47.72834" lon="6.06343">
        <ele>241</ele>
        <time>2018-12-05T09:16:39Z</time>
      </trkpt>
      <trkpt lat="47.72838" lon="6.06338">
        <ele>241</ele>
        <time>2018-12-05T09:16:41Z</time>
      </trkpt>
      <trkpt lat="47.72841" lon="6.06331">
        <ele>241</ele>
        <time>2018-12-05T09:16:45Z</time>
      </trkpt>
      <trkpt lat="47.72844" lon="6.06322">
        <ele>241</ele>
        <time>2018-12-05T09:16:48Z</time>
      </trkpt>
      <trkpt lat="47.72846" lon="6.06315">
        <ele>241</ele>
        <time>2018-12-05T09:16:50Z</time>
      </trkpt>
      <trkpt lat="47.7285" lon="6.06309">
        <ele>241</ele>
        <time>2018-12-05T09:16:54Z</time>
      </trkpt>
      <trkpt lat="47.72853" lon="6.06302">
        <ele>241</ele>
        <time>2018-12-05T09:16:57Z</time>
      </trkpt>
      <trkpt lat="47.72856" lon="6.06295">
        <ele>241</ele>
        <time>2018-12-05T09:16:59Z</time>
      </trkpt>
      <trkpt lat="47.7286" lon="6.06288">
        <ele>242</ele>
        <time>2018-12-05T09:17:02Z</time>
      </trkpt>
      <trkpt lat="47.72863" lon="6.06284">
        <ele>242</ele>
        <time>2018-12-05T09:17:04Z</time>
      </trkpt>
      <trkpt lat="47.72867" lon="6.06278">
        <ele>242</ele>
        <time>2018-12-05T09:17:06Z</time>
      </trkpt>
      <trkpt lat="47.72871" lon="6.06271">
        <ele>242</ele>
        <time>2018-12-05T09:17:08Z</time>
      </trkpt>
      <trkpt lat="47.72876" lon="6.06263">
        <ele>242</ele>
        <time>2018-12-05T09:17:10Z</time>
      </trkpt>
      <trkpt lat="47.72879" lon="6.06255">
        <ele>242</ele>
        <time>2018-12-05T09:17:12Z</time>
      </trkpt>
      <trkpt lat="47.72884" lon="6.06246">
        <ele>242</ele>
        <time>2018-12-05T09:17:14Z</time>
      </trkpt>
      <trkpt lat="47.72888" lon="6.06239">
        <ele>243</ele>
        <time>2018-12-05T09:17:16Z</time>
      </trkpt>
      <trkpt lat="47.72891" lon="6.06233">
        <ele>243</ele>
        <time>2018-12-05T09:17:18Z</time>
      </trkpt>
      <trkpt lat="47.72894" lon="6.06225">
        <ele>243</ele>
        <time>2018-12-05T09:17:20Z</time>
      </trkpt>
      <trkpt lat="47.72898" lon="6.06218">
        <ele>243</ele>
        <time>2018-12-05T09:17:22Z</time>
      </trkpt>
      <trkpt lat="47.72902" lon="6.06212">
        <ele>243</ele>
        <time>2018-12-05T09:17:24Z</time>
      </trkpt>
      <trkpt lat="47.72907" lon="6.06206">
        <ele>243</ele>
        <time>2018-12-05T09:17:26Z</time>
      </trkpt>
      <trkpt lat="47.72911" lon="6.062">
        <ele>243</ele>
        <time>2018-12-05T09:17:28Z</time>
      </trkpt>
      <trkpt lat="47.72915" lon="6.06195">
        <ele>243</ele>
        <time>2018-12-05T09:17:30Z</time>
      </trkpt>
      <trkpt lat="47.72921" lon="6.06188">
        <ele>243</ele>
        <time>2018-12-05T09:17:32Z</time>
      </trkpt>
      <trkpt lat="47.72925" lon="6.06183">
        <ele>243</ele>
        <time>2018-12-05T09:17:34Z</time>
      </trkpt>
      <trkpt lat="47.72929" lon="6.06179">
        <ele>243</ele>
        <time>2018-12-05T09:17:36Z</time>
      </trkpt>
      <trkpt lat="47.72934" lon="6.06176">
        <ele>243</ele>
        <time>2018-12-05T09:17:38Z</time>
      </trkpt>
      <trkpt lat="47.72939" lon="6.06172">
        <ele>242</ele>
        <time>2018-12-05T09:17:41Z</time>
      </trkpt>
      <trkpt lat="47.72945" lon="6.0617">
        <ele>242</ele>
        <time>2018-12-05T09:17:43Z</time>
      </trkpt>
      <trkpt lat="47.72949" lon="6.06168">
        <ele>242</ele>
        <time>2018-12-05T09:17:44Z</time>
      </trkpt>
      <trkpt lat="47.72955" lon="6.06167">
        <ele>242</ele>
        <time>2018-12-05T09:17:46Z</time>
      </trkpt>
      <trkpt lat="47.7296" lon="6.06166">
        <ele>242</ele>
        <time>2018-12-05T09:17:48Z</time>
      </trkpt>
      <trkpt lat="47.72965" lon="6.06164">
        <ele>242</ele>
        <time>2018-12-05T09:17:50Z</time>
      </trkpt>
      <trkpt lat="47.72971" lon="6.06164">
        <ele>241</ele>
        <time>2018-12-05T09:17:52Z</time>
      </trkpt>
      <trkpt lat="47.72976" lon="6.06163">
        <ele>241</ele>
        <time>2018-12-05T09:17:54Z</time>
      </trkpt>
      <trkpt lat="47.72982" lon="6.06162">
        <ele>241</ele>
        <time>2018-12-05T09:17:56Z</time>
      </trkpt>
      <trkpt lat="47.72988" lon="6.0616">
        <ele>241</ele>
        <time>2018-12-05T09:17:58Z</time>
      </trkpt>
      <trkpt lat="47.72994" lon="6.06159">
        <ele>241</ele>
        <time>2018-12-05T09:18:00Z</time>
      </trkpt>
      <trkpt lat="47.73" lon="6.06157">
        <ele>241</ele>
        <time>2018-12-05T09:18:02Z</time>
      </trkpt>
      <trkpt lat="47.73004" lon="6.06157">
        <ele>242</ele>
        <time>2018-12-05T09:18:04Z</time>
      </trkpt>
      <trkpt lat="47.73011" lon="6.06155">
        <ele>242</ele>
        <time>2018-12-05T09:18:07Z</time>
      </trkpt>
      <trkpt lat="47.73017" lon="6.06154">
        <ele>243</ele>
        <time>2018-12-05T09:18:10Z</time>
      </trkpt>
      <trkpt lat="47.73023" lon="6.06153">
        <ele>243</ele>
        <time>2018-12-05T09:18:13Z</time>
      </trkpt>
      <trkpt lat="47.73028" lon="6.06151">
        <ele>243</ele>
        <time>2018-12-05T09:18:16Z</time>
      </trkpt>
      <trkpt lat="47.73033" lon="6.06151">
        <ele>244</ele>
        <time>2018-12-05T09:18:19Z</time>
      </trkpt>
      <trkpt lat="47.73038" lon="6.06151">
        <ele>244</ele>
        <time>2018-12-05T09:18:22Z</time>
      </trkpt>
      <trkpt lat="47.73044" lon="6.06151">
        <ele>244</ele>
        <time>2018-12-05T09:18:25Z</time>
      </trkpt>
      <trkpt lat="47.7305" lon="6.06152">
        <ele>244</ele>
        <time>2018-12-05T09:18:28Z</time>
      </trkpt>
      <trkpt lat="47.73055" lon="6.06152">
        <ele>245</ele>
        <time>2018-12-05T09:18:30Z</time>
      </trkpt>
      <trkpt lat="47.73059" lon="6.06153">
        <ele>245</ele>
        <time>2018-12-05T09:18:32Z</time>
      </trkpt>
      <trkpt lat="47.73066" lon="6.06155">
        <ele>245</ele>
        <time>2018-12-05T09:18:35Z</time>
      </trkpt>
      <trkpt lat="47.73072" lon="6.06156">
        <ele>246</ele>
        <time>2018-12-05T09:18:38Z</time>
      </trkpt>
      <trkpt lat="47.73078" lon="6.06157">
        <ele>246</ele>
        <time>2018-12-05T09:18:41Z</time>
      </trkpt>
      <trkpt lat="47.73084" lon="6.06159">
        <ele>248</ele>
        <time>2018-12-05T09:18:44Z</time>
      </trkpt>
      <trkpt lat="47.73091" lon="6.06162">
        <ele>248</ele>
        <time>2018-12-05T09:18:47Z</time>
      </trkpt>
      <trkpt lat="47.73095" lon="6.06164">
        <ele>248</ele>
        <time>2018-12-05T09:18:49Z</time>
      </trkpt>
      <trkpt lat="47.731" lon="6.06167">
        <ele>249</ele>
        <time>2018-12-05T09:18:51Z</time>
      </trkpt>
      <trkpt lat="47.73105" lon="6.06169">
        <ele>250</ele>
        <time>2018-12-05T09:18:53Z</time>
      </trkpt>
      <trkpt lat="47.7311" lon="6.06172">
        <ele>250</ele>
        <time>2018-12-05T09:18:55Z</time>
      </trkpt>
      <trkpt lat="47.73115" lon="6.06176">
        <ele>250</ele>
        <time>2018-12-05T09:18:57Z</time>
      </trkpt>
      <trkpt lat="47.73119" lon="6.0618">
        <ele>250</ele>
        <time>2018-12-05T09:18:59Z</time>
      </trkpt>
      <trkpt lat="47.73125" lon="6.06184">
        <ele>251</ele>
        <time>2018-12-05T09:19:01Z</time>
      </trkpt>
      <trkpt lat="47.73131" lon="6.06188">
        <ele>251</ele>
        <time>2018-12-05T09:19:03Z</time>
      </trkpt>
      <trkpt lat="47.73136" lon="6.06191">
        <ele>251</ele>
        <time>2018-12-05T09:19:05Z</time>
      </trkpt>
      <trkpt lat="47.73142" lon="6.06194">
        <ele>251</ele>
        <time>2018-12-05T09:19:07Z</time>
      </trkpt>
      <trkpt lat="47.73148" lon="6.06198">
        <ele>251</ele>
        <time>2018-12-05T09:19:09Z</time>
      </trkpt>
      <trkpt lat="47.73154" lon="6.06205">
        <ele>252</ele>
        <time>2018-12-05T09:19:11Z</time>
      </trkpt>
      <trkpt lat="47.73159" lon="6.06208">
        <ele>252</ele>
        <time>2018-12-05T09:19:12Z</time>
      </trkpt>
      <trkpt lat="47.73163" lon="6.06211">
        <ele>252</ele>
        <time>2018-12-05T09:19:13Z</time>
      </trkpt>
      <trkpt lat="47.73168" lon="6.06215">
        <ele>252</ele>
        <time>2018-12-05T09:19:14Z</time>
      </trkpt>
      <trkpt lat="47.73173" lon="6.06219">
        <ele>253</ele>
        <time>2018-12-05T09:19:15Z</time>
      </trkpt>
      <trkpt lat="47.73177" lon="6.06223">
        <ele>253</ele>
        <time>2018-12-05T09:19:16Z</time>
      </trkpt>
      <trkpt lat="47.73184" lon="6.06231">
        <ele>253</ele>
        <time>2018-12-05T09:19:18Z</time>
      </trkpt>
      <trkpt lat="47.73187" lon="6.06237">
        <ele>253</ele>
        <time>2018-12-05T09:19:19Z</time>
      </trkpt>
      <trkpt lat="47.73192" lon="6.06245">
        <ele>253</ele>
        <time>2018-12-05T09:19:21Z</time>
      </trkpt>
      <trkpt lat="47.73198" lon="6.06251">
        <ele>255</ele>
        <time>2018-12-05T09:19:23Z</time>
      </trkpt>
      <trkpt lat="47.73204" lon="6.06256">
        <ele>255</ele>
        <time>2018-12-05T09:19:25Z</time>
      </trkpt>
      <trkpt lat="47.7321" lon="6.06258">
        <ele>255</ele>
        <time>2018-12-05T09:19:27Z</time>
      </trkpt>
      <trkpt lat="47.73216" lon="6.06259">
        <ele>254</ele>
        <time>2018-12-05T09:19:29Z</time>
      </trkpt>
      <trkpt lat="47.73222" lon="6.06259">
        <ele>254</ele>
        <time>2018-12-05T09:19:31Z</time>
      </trkpt>
      <trkpt lat="47.73228" lon="6.06258">
        <ele>254</ele>
        <time>2018-12-05T09:19:33Z</time>
      </trkpt>
      <trkpt lat="47.73237" lon="6.06257">
        <ele>253</ele>
        <time>2018-12-05T09:19:35Z</time>
      </trkpt>
      <trkpt lat="47.73245" lon="6.06257">
        <ele>252</ele>
        <time>2018-12-05T09:19:36Z</time>
      </trkpt>
      <trkpt lat="47.7325" lon="6.06258">
        <ele>252</ele>
        <time>2018-12-05T09:19:37Z</time>
      </trkpt>
      <trkpt lat="47.73257" lon="6.06261">
        <ele>251</ele>
        <time>2018-12-05T09:19:39Z</time>
      </trkpt>
      <trkpt lat="47.73264" lon="6.06264">
        <ele>251</ele>
        <time>2018-12-05T09:19:41Z</time>
      </trkpt>
      <trkpt lat="47.7327" lon="6.06268">
        <ele>251</ele>
        <time>2018-12-05T09:19:43Z</time>
      </trkpt>
      <trkpt lat="47.73276" lon="6.06272">
        <ele>251</ele>
        <time>2018-12-05T09:19:45Z</time>
      </trkpt>
      <trkpt lat="47.73281" lon="6.06277">
        <ele>251</ele>
        <time>2018-12-05T09:19:47Z</time>
      </trkpt>
      <trkpt lat="47.73287" lon="6.06282">
        <ele>251</ele>
        <time>2018-12-05T09:19:49Z</time>
      </trkpt>
      <trkpt lat="47.73293" lon="6.06286">
        <ele>251</ele>
        <time>2018-12-05T09:19:51Z</time>
      </trkpt>
      <trkpt lat="47.73299" lon="6.06292">
        <ele>251</ele>
        <time>2018-12-05T09:19:53Z</time>
      </trkpt>
      <trkpt lat="47.73304" lon="6.06296">
        <ele>251</ele>
        <time>2018-12-05T09:19:55Z</time>
      </trkpt>
      <trkpt lat="47.73311" lon="6.06301">
        <ele>251</ele>
        <time>2018-12-05T09:19:57Z</time>
      </trkpt>
      <trkpt lat="47.73318" lon="6.06306">
        <ele>251</ele>
        <time>2018-12-05T09:19:59Z</time>
      </trkpt>
      <trkpt lat="47.73325" lon="6.06311">
        <ele>251</ele>
        <time>2018-12-05T09:20:01Z</time>
      </trkpt>
      <trkpt lat="47.73332" lon="6.06316">
        <ele>251</ele>
        <time>2018-12-05T09:20:03Z</time>
      </trkpt>
      <trkpt lat="47.73338" lon="6.0632">
        <ele>249</ele>
        <time>2018-12-05T09:20:05Z</time>
      </trkpt>
      <trkpt lat="47.73345" lon="6.06325">
        <ele>249</ele>
        <time>2018-12-05T09:20:07Z</time>
      </trkpt>
      <trkpt lat="47.73353" lon="6.06329">
        <ele>249</ele>
        <time>2018-12-05T09:20:08Z</time>
      </trkpt>
      <trkpt lat="47.73361" lon="6.06332">
        <ele>249</ele>
        <time>2018-12-05T09:20:10Z</time>
      </trkpt>
      <trkpt lat="47.7337" lon="6.06334">
        <ele>249</ele>
        <time>2018-12-05T09:20:12Z</time>
      </trkpt>
      <trkpt lat="47.73375" lon="6.06335">
        <ele>249</ele>
        <time>2018-12-05T09:20:13Z</time>
      </trkpt>
      <trkpt lat="47.7338" lon="6.06336">
        <ele>249</ele>
        <time>2018-12-05T09:20:14Z</time>
      </trkpt>
      <trkpt lat="47.73384" lon="6.06337">
        <ele>249</ele>
        <time>2018-12-05T09:20:15Z</time>
      </trkpt>
      <trkpt lat="47.73389" lon="6.06338">
        <ele>249</ele>
        <time>2018-12-05T09:20:16Z</time>
      </trkpt>
      <trkpt lat="47.73395" lon="6.0634">
        <ele>249</ele>
        <time>2018-12-05T09:20:17Z</time>
      </trkpt>
      <trkpt lat="47.73399" lon="6.06342">
        <ele>249</ele>
        <time>2018-12-05T09:20:18Z</time>
      </trkpt>
      <trkpt lat="47.73405" lon="6.06344">
        <ele>248</ele>
        <time>2018-12-05T09:20:19Z</time>
      </trkpt>
      <trkpt lat="47.7341" lon="6.06346">
        <ele>248</ele>
        <time>2018-12-05T09:20:20Z</time>
      </trkpt>
      <trkpt lat="47.73415" lon="6.06349">
        <ele>248</ele>
        <time>2018-12-05T09:20:21Z</time>
      </trkpt>
      <trkpt lat="47.73419" lon="6.06351">
        <ele>248</ele>
        <time>2018-12-05T09:20:22Z</time>
      </trkpt>
      <trkpt lat="47.73424" lon="6.06353">
        <ele>248</ele>
        <time>2018-12-05T09:20:23Z</time>
      </trkpt>
      <trkpt lat="47.73428" lon="6.06355">
        <ele>248</ele>
        <time>2018-12-05T09:20:24Z</time>
      </trkpt>
      <trkpt lat="47.73437" lon="6.06359">
        <ele>248</ele>
        <time>2018-12-05T09:20:26Z</time>
      </trkpt>
      <trkpt lat="47.73444" lon="6.06361">
        <ele>248</ele>
        <time>2018-12-05T09:20:28Z</time>
      </trkpt>
      <trkpt lat="47.7345" lon="6.06363">
        <ele>248</ele>
        <time>2018-12-05T09:20:30Z</time>
      </trkpt>
      <trkpt lat="47.73457" lon="6.06366">
        <ele>248</ele>
        <time>2018-12-05T09:20:32Z</time>
      </trkpt>
      <trkpt lat="47.73463" lon="6.06369">
        <ele>248</ele>
        <time>2018-12-05T09:20:34Z</time>
      </trkpt>
      <trkpt lat="47.73469" lon="6.0637">
        <ele>249</ele>
        <time>2018-12-05T09:20:36Z</time>
      </trkpt>
      <trkpt lat="47.73475" lon="6.06373">
        <ele>249</ele>
        <time>2018-12-05T09:20:39Z</time>
      </trkpt>
      <trkpt lat="47.73477" lon="6.06379">
        <ele>249</ele>
        <time>2018-12-05T09:20:42Z</time>
      </trkpt>
      <trkpt lat="47.73473" lon="6.06385">
        <ele>249</ele>
        <time>2018-12-05T09:20:47Z</time>
      </trkpt>
      <trkpt lat="47.73469" lon="6.06387">
        <ele>249</ele>
        <time>2018-12-05T09:20:52Z</time>
      </trkpt>
      <trkpt lat="47.73474" lon="6.06387">
        <ele>249</ele>
        <time>2018-12-05T09:21:16Z</time>
      </trkpt>
      <trkpt lat="47.73479" lon="6.06383">
        <ele>249</ele>
        <time>2018-12-05T09:21:18Z</time>
      </trkpt>
      <trkpt lat="47.73483" lon="6.06379">
        <ele>249</ele>
        <time>2018-12-05T09:21:19Z</time>
      </trkpt>
      <trkpt lat="47.7349" lon="6.06376">
        <ele>249</ele>
        <time>2018-12-05T09:21:21Z</time>
      </trkpt>
      <trkpt lat="47.73496" lon="6.06372">
        <ele>249</ele>
        <time>2018-12-05T09:21:23Z</time>
      </trkpt>
      <trkpt lat="47.73502" lon="6.06369">
        <ele>249</ele>
        <time>2018-12-05T09:21:25Z</time>
      </trkpt>
      <trkpt lat="47.73508" lon="6.06366">
        <ele>249</ele>
        <time>2018-12-05T09:21:27Z</time>
      </trkpt>
      <trkpt lat="47.73515" lon="6.06362">
        <ele>249</ele>
        <time>2018-12-05T09:21:29Z</time>
      </trkpt>
      <trkpt lat="47.73519" lon="6.06358">
        <ele>249</ele>
        <time>2018-12-05T09:21:30Z</time>
      </trkpt>
      <trkpt lat="47.73526" lon="6.06352">
        <ele>249</ele>
        <time>2018-12-05T09:21:32Z</time>
      </trkpt>
      <trkpt lat="47.73535" lon="6.06345">
        <ele>249</ele>
        <time>2018-12-05T09:21:34Z</time>
      </trkpt>
      <trkpt lat="47.73542" lon="6.06339">
        <ele>249</ele>
        <time>2018-12-05T09:21:36Z</time>
      </trkpt>
      <trkpt lat="47.73549" lon="6.06332">
        <ele>247</ele>
        <time>2018-12-05T09:21:38Z</time>
      </trkpt>
      <trkpt lat="47.73559" lon="6.06321">
        <ele>247</ele>
        <time>2018-12-05T09:21:40Z</time>
      </trkpt>
      <trkpt lat="47.73566" lon="6.06315">
        <ele>247</ele>
        <time>2018-12-05T09:21:42Z</time>
      </trkpt>
      <trkpt lat="47.73572" lon="6.06309">
        <ele>247</ele>
        <time>2018-12-05T09:21:44Z</time>
      </trkpt>
      <trkpt lat="47.73579" lon="6.06304">
        <ele>247</ele>
        <time>2018-12-05T09:21:46Z</time>
      </trkpt>
      <trkpt lat="47.73585" lon="6.06297">
        <ele>245</ele>
        <time>2018-12-05T09:21:48Z</time>
      </trkpt>
      <trkpt lat="47.73594" lon="6.06294">
        <ele>245</ele>
        <time>2018-12-05T09:21:50Z</time>
      </trkpt>
      <trkpt lat="47.73599" lon="6.06297">
        <ele>245</ele>
        <time>2018-12-05T09:21:51Z</time>
      </trkpt>
      <trkpt lat="47.73605" lon="6.06304">
        <ele>245</ele>
        <time>2018-12-05T09:21:53Z</time>
      </trkpt>
      <trkpt lat="47.73609" lon="6.0631">
        <ele>245</ele>
        <time>2018-12-05T09:21:54Z</time>
      </trkpt>
      <trkpt lat="47.73612" lon="6.06315">
        <ele>245</ele>
        <time>2018-12-05T09:21:55Z</time>
      </trkpt>
      <trkpt lat="47.73615" lon="6.06322">
        <ele>245</ele>
        <time>2018-12-05T09:21:57Z</time>
      </trkpt>
      <trkpt lat="47.73617" lon="6.0633">
        <ele>245</ele>
        <time>2018-12-05T09:21:59Z</time>
      </trkpt>
      <trkpt lat="47.73619" lon="6.0634">
        <ele>247</ele>
        <time>2018-12-05T09:22:02Z</time>
      </trkpt>
      <trkpt lat="47.73621" lon="6.06352">
        <ele>247</ele>
        <time>2018-12-05T09:22:04Z</time>
      </trkpt>
      <trkpt lat="47.73623" lon="6.06362">
        <ele>247</ele>
        <time>2018-12-05T09:22:06Z</time>
      </trkpt>
      <trkpt lat="47.73626" lon="6.06373">
        <ele>247</ele>
        <time>2018-12-05T09:22:08Z</time>
      </trkpt>
      <trkpt lat="47.73628" lon="6.06382">
        <ele>247</ele>
        <time>2018-12-05T09:22:10Z</time>
      </trkpt>
      <trkpt lat="47.73631" lon="6.06393">
        <ele>247</ele>
        <time>2018-12-05T09:22:12Z</time>
      </trkpt>
      <trkpt lat="47.73633" lon="6.06403">
        <ele>247</ele>
        <time>2018-12-05T09:22:14Z</time>
      </trkpt>
      <trkpt lat="47.73636" lon="6.06414">
        <ele>247</ele>
        <time>2018-12-05T09:22:16Z</time>
      </trkpt>
      <trkpt lat="47.73639" lon="6.06424">
        <ele>248</ele>
        <time>2018-12-05T09:22:18Z</time>
      </trkpt>
      <trkpt lat="47.73642" lon="6.06433">
        <ele>248</ele>
        <time>2018-12-05T09:22:20Z</time>
      </trkpt>
      <trkpt lat="47.73645" lon="6.06442">
        <ele>248</ele>
        <time>2018-12-05T09:22:22Z</time>
      </trkpt>
      <trkpt lat="47.73648" lon="6.0645">
        <ele>248</ele>
        <time>2018-12-05T09:22:24Z</time>
      </trkpt>
      <trkpt lat="47.73651" lon="6.06459">
        <ele>248</ele>
        <time>2018-12-05T09:22:26Z</time>
      </trkpt>
      <trkpt lat="47.73653" lon="6.06466">
        <ele>249</ele>
        <time>2018-12-05T09:22:28Z</time>
      </trkpt>
      <trkpt lat="47.73655" lon="6.06474">
        <ele>249</ele>
        <time>2018-12-05T09:22:30Z</time>
      </trkpt>
      <trkpt lat="47.73658" lon="6.06483">
        <ele>248</ele>
        <time>2018-12-05T09:22:32Z</time>
      </trkpt>
      <trkpt lat="47.73661" lon="6.06492">
        <ele>248</ele>
        <time>2018-12-05T09:22:34Z</time>
      </trkpt>
      <trkpt lat="47.73664" lon="6.06499">
        <ele>248</ele>
        <time>2018-12-05T09:22:36Z</time>
      </trkpt>
      <trkpt lat="47.73669" lon="6.06506">
        <ele>248</ele>
        <time>2018-12-05T09:22:38Z</time>
      </trkpt>
      <trkpt lat="47.73675" lon="6.06513">
        <ele>247</ele>
        <time>2018-12-05T09:22:40Z</time>
      </trkpt>
      <trkpt lat="47.73681" lon="6.06517">
        <ele>247</ele>
        <time>2018-12-05T09:22:42Z</time>
      </trkpt>
      <trkpt lat="47.73686" lon="6.06522">
        <ele>247</ele>
        <time>2018-12-05T09:22:44Z</time>
      </trkpt>
      <trkpt lat="47.73692" lon="6.06528">
        <ele>247</ele>
        <time>2018-12-05T09:22:46Z</time>
      </trkpt>
      <trkpt lat="47.73698" lon="6.06534">
        <ele>247</ele>
        <time>2018-12-05T09:22:48Z</time>
      </trkpt>
      <trkpt lat="47.73703" lon="6.0654">
        <ele>247</ele>
        <time>2018-12-05T09:22:50Z</time>
      </trkpt>
      <trkpt lat="47.73709" lon="6.06547">
        <ele>247</ele>
        <time>2018-12-05T09:22:52Z</time>
      </trkpt>
      <trkpt lat="47.73715" lon="6.06554">
        <ele>247</ele>
        <time>2018-12-05T09:22:54Z</time>
      </trkpt>
      <trkpt lat="47.73722" lon="6.06561">
        <ele>247</ele>
        <time>2018-12-05T09:22:56Z</time>
      </trkpt>
      <trkpt lat="47.7373" lon="6.06568">
        <ele>247</ele>
        <time>2018-12-05T09:22:58Z</time>
      </trkpt>
      <trkpt lat="47.73736" lon="6.06574">
        <ele>247</ele>
        <time>2018-12-05T09:23:00Z</time>
      </trkpt>
      <trkpt lat="47.73744" lon="6.0658">
        <ele>247</ele>
        <time>2018-12-05T09:23:01Z</time>
      </trkpt>
      <trkpt lat="47.73748" lon="6.06583">
        <ele>247</ele>
        <time>2018-12-05T09:23:02Z</time>
      </trkpt>
      <trkpt lat="47.73753" lon="6.06587">
        <ele>246</ele>
        <time>2018-12-05T09:23:03Z</time>
      </trkpt>
      <trkpt lat="47.73758" lon="6.06593">
        <ele>244</ele>
        <time>2018-12-05T09:23:04Z</time>
      </trkpt>
      <trkpt lat="47.73764" lon="6.06601">
        <ele>242</ele>
        <time>2018-12-05T09:23:05Z</time>
      </trkpt>
      <trkpt lat="47.7377" lon="6.0661">
        <ele>241</ele>
        <time>2018-12-05T09:23:06Z</time>
      </trkpt>
      <trkpt lat="47.73777" lon="6.0662">
        <ele>241</ele>
        <time>2018-12-05T09:23:07Z</time>
      </trkpt>
      <trkpt lat="47.73784" lon="6.06631">
        <ele>240</ele>
        <time>2018-12-05T09:23:08Z</time>
      </trkpt>
      <trkpt lat="47.73791" lon="6.06643">
        <ele>240</ele>
        <time>2018-12-05T09:23:09Z</time>
      </trkpt>
      <trkpt lat="47.73798" lon="6.06655">
        <ele>239</ele>
        <time>2018-12-05T09:23:10Z</time>
      </trkpt>
      <trkpt lat="47.73805" lon="6.06669">
        <ele>243</ele>
        <time>2018-12-05T09:23:11Z</time>
      </trkpt>
      <trkpt lat="47.73812" lon="6.06681">
        <ele>242</ele>
        <time>2018-12-05T09:23:12Z</time>
      </trkpt>
      <trkpt lat="47.7382" lon="6.06695">
        <ele>243</ele>
        <time>2018-12-05T09:23:13Z</time>
      </trkpt>
      <trkpt lat="47.73828" lon="6.06708">
        <ele>244</ele>
        <time>2018-12-05T09:23:14Z</time>
      </trkpt>
      <trkpt lat="47.73836" lon="6.06723">
        <ele>234</ele>
        <time>2018-12-05T09:23:15Z</time>
      </trkpt>
      <trkpt lat="47.73845" lon="6.06738">
        <ele>236</ele>
        <time>2018-12-05T09:23:16Z</time>
      </trkpt>
      <trkpt lat="47.73854" lon="6.06753">
        <ele>238</ele>
        <time>2018-12-05T09:23:17Z</time>
      </trkpt>
      <trkpt lat="47.73863" lon="6.06768">
        <ele>236</ele>
        <time>2018-12-05T09:23:18Z</time>
      </trkpt>
      <trkpt lat="47.73872" lon="6.06783">
        <ele>235</ele>
        <time>2018-12-05T09:23:19Z</time>
      </trkpt>
      <trkpt lat="47.73879" lon="6.06798">
        <ele>235</ele>
        <time>2018-12-05T09:23:20Z</time>
      </trkpt>
      <trkpt lat="47.73887" lon="6.06813">
        <ele>233</ele>
        <time>2018-12-05T09:23:21Z</time>
      </trkpt>
      <trkpt lat="47.73895" lon="6.06827">
        <ele>231</ele>
        <time>2018-12-05T09:23:22Z</time>
      </trkpt>
      <trkpt lat="47.73903" lon="6.06841">
        <ele>233</ele>
        <time>2018-12-05T09:23:23Z</time>
      </trkpt>
      <trkpt lat="47.73911" lon="6.06854">
        <ele>235</ele>
        <time>2018-12-05T09:23:24Z</time>
      </trkpt>
      <trkpt lat="47.73919" lon="6.06868">
        <ele>223</ele>
        <time>2018-12-05T09:23:25Z</time>
      </trkpt>
      <trkpt lat="47.73927" lon="6.06881">
        <ele>224</ele>
        <time>2018-12-05T09:23:26Z</time>
      </trkpt>
      <trkpt lat="47.73936" lon="6.06894">
        <ele>225</ele>
        <time>2018-12-05T09:23:27Z</time>
      </trkpt>
      <trkpt lat="47.73945" lon="6.06908">
        <ele>224</ele>
        <time>2018-12-05T09:23:28Z</time>
      </trkpt>
      <trkpt lat="47.73952" lon="6.06922">
        <ele>226</ele>
        <time>2018-12-05T09:23:29Z</time>
      </trkpt>
      <trkpt lat="47.73958" lon="6.06936">
        <ele>225</ele>
        <time>2018-12-05T09:23:30Z</time>
      </trkpt>
      <trkpt lat="47.73964" lon="6.0695">
        <ele>225</ele>
        <time>2018-12-05T09:23:31Z</time>
      </trkpt>
      <trkpt lat="47.73968" lon="6.06963">
        <ele>225</ele>
        <time>2018-12-05T09:23:32Z</time>
      </trkpt>
      <trkpt lat="47.73972" lon="6.06977">
        <ele>224</ele>
        <time>2018-12-05T09:23:33Z</time>
      </trkpt>
      <trkpt lat="47.73975" lon="6.0699">
        <ele>223</ele>
        <time>2018-12-05T09:23:34Z</time>
      </trkpt>
      <trkpt lat="47.73979" lon="6.07003">
        <ele>225</ele>
        <time>2018-12-05T09:23:35Z</time>
      </trkpt>
      <trkpt lat="47.73982" lon="6.07016">
        <ele>225</ele>
        <time>2018-12-05T09:23:36Z</time>
      </trkpt>
      <trkpt lat="47.73985" lon="6.07027">
        <ele>226</ele>
        <time>2018-12-05T09:23:37Z</time>
      </trkpt>
      <trkpt lat="47.73989" lon="6.07038">
        <ele>227</ele>
        <time>2018-12-05T09:23:38Z</time>
      </trkpt>
      <trkpt lat="47.73992" lon="6.07049">
        <ele>227</ele>
        <time>2018-12-05T09:23:39Z</time>
      </trkpt>
      <trkpt lat="47.73995" lon="6.07059">
        <ele>226</ele>
        <time>2018-12-05T09:23:40Z</time>
      </trkpt>
      <trkpt lat="47.73996" lon="6.07068">
        <ele>225</ele>
        <time>2018-12-05T09:23:41Z</time>
      </trkpt>
      <trkpt lat="47.73997" lon="6.07077">
        <ele>223</ele>
        <time>2018-12-05T09:23:42Z</time>
      </trkpt>
      <trkpt lat="47.73998" lon="6.07086">
        <ele>222</ele>
        <time>2018-12-05T09:23:43Z</time>
      </trkpt>
      <trkpt lat="47.73999" lon="6.07094">
        <ele>226</ele>
        <time>2018-12-05T09:23:44Z</time>
      </trkpt>
      <trkpt lat="47.74" lon="6.07101">
        <ele>219</ele>
        <time>2018-12-05T09:23:45Z</time>
      </trkpt>
      <trkpt lat="47.74002" lon="6.07114">
        <ele>219</ele>
        <time>2018-12-05T09:23:47Z</time>
      </trkpt>
      <trkpt lat="47.74004" lon="6.07126">
        <ele>219</ele>
        <time>2018-12-05T09:23:49Z</time>
      </trkpt>
      <trkpt lat="47.74006" lon="6.07137">
        <ele>220</ele>
        <time>2018-12-05T09:23:51Z</time>
      </trkpt>
      <trkpt lat="47.74008" lon="6.07148">
        <ele>222</ele>
        <time>2018-12-05T09:23:53Z</time>
      </trkpt>
      <trkpt lat="47.74011" lon="6.07158">
        <ele>223</ele>
        <time>2018-12-05T09:23:55Z</time>
      </trkpt>
      <trkpt lat="47.74013" lon="6.07168">
        <ele>225</ele>
        <time>2018-12-05T09:23:57Z</time>
      </trkpt>
      <trkpt lat="47.74016" lon="6.07175">
        <ele>224</ele>
        <time>2018-12-05T09:23:59Z</time>
      </trkpt>
      <trkpt lat="47.74017" lon="6.07186">
        <ele>224</ele>
        <time>2018-12-05T09:24:02Z</time>
      </trkpt>
      <trkpt lat="47.74018" lon="6.07196">
        <ele>223</ele>
        <time>2018-12-05T09:24:04Z</time>
      </trkpt>
      <trkpt lat="47.7402" lon="6.07206">
        <ele>224</ele>
        <time>2018-12-05T09:24:06Z</time>
      </trkpt>
      <trkpt lat="47.74022" lon="6.07216">
        <ele>224</ele>
        <time>2018-12-05T09:24:08Z</time>
      </trkpt>
      <trkpt lat="47.74024" lon="6.07225">
        <ele>224</ele>
        <time>2018-12-05T09:24:10Z</time>
      </trkpt>
      <trkpt lat="47.74027" lon="6.07238">
        <ele>225</ele>
        <time>2018-12-05T09:24:12Z</time>
      </trkpt>
      <trkpt lat="47.74029" lon="6.07249">
        <ele>225</ele>
        <time>2018-12-05T09:24:14Z</time>
      </trkpt>
      <trkpt lat="47.7403" lon="6.07258">
        <ele>227</ele>
        <time>2018-12-05T09:24:16Z</time>
      </trkpt>
      <trkpt lat="47.74032" lon="6.07269">
        <ele>227</ele>
        <time>2018-12-05T09:24:18Z</time>
      </trkpt>
      <trkpt lat="47.74034" lon="6.07276">
        <ele>227</ele>
        <time>2018-12-05T09:24:19Z</time>
      </trkpt>
      <trkpt lat="47.74036" lon="6.07286">
        <ele>227</ele>
        <time>2018-12-05T09:24:21Z</time>
      </trkpt>
      <trkpt lat="47.74038" lon="6.07296">
        <ele>227</ele>
        <time>2018-12-05T09:24:23Z</time>
      </trkpt>
      <trkpt lat="47.7404" lon="6.07307">
        <ele>227</ele>
        <time>2018-12-05T09:24:25Z</time>
      </trkpt>
      <trkpt lat="47.74042" lon="6.07317">
        <ele>226</ele>
        <time>2018-12-05T09:24:27Z</time>
      </trkpt>
      <trkpt lat="47.74044" lon="6.07328">
        <ele>226</ele>
        <time>2018-12-05T09:24:29Z</time>
      </trkpt>
      <trkpt lat="47.74046" lon="6.07337">
        <ele>228</ele>
        <time>2018-12-05T09:24:31Z</time>
      </trkpt>
      <trkpt lat="47.74048" lon="6.07346">
        <ele>228</ele>
        <time>2018-12-05T09:24:33Z</time>
      </trkpt>
      <trkpt lat="47.7405" lon="6.07357">
        <ele>228</ele>
        <time>2018-12-05T09:24:35Z</time>
      </trkpt>
      <trkpt lat="47.74052" lon="6.07367">
        <ele>228</ele>
        <time>2018-12-05T09:24:37Z</time>
      </trkpt>
      <trkpt lat="47.74054" lon="6.07378">
        <ele>228</ele>
        <time>2018-12-05T09:24:39Z</time>
      </trkpt>
      <trkpt lat="47.74056" lon="6.0739">
        <ele>228</ele>
        <time>2018-12-05T09:24:41Z</time>
      </trkpt>
      <trkpt lat="47.74058" lon="6.07402">
        <ele>227</ele>
        <time>2018-12-05T09:24:43Z</time>
      </trkpt>
      <trkpt lat="47.74059" lon="6.0741">
        <ele>226</ele>
        <time>2018-12-05T09:24:44Z</time>
      </trkpt>
      <trkpt lat="47.74061" lon="6.07416">
        <ele>226</ele>
        <time>2018-12-05T09:24:45Z</time>
      </trkpt>
      <trkpt lat="47.74061" lon="6.07423">
        <ele>227</ele>
        <time>2018-12-05T09:24:46Z</time>
      </trkpt>
      <trkpt lat="47.74063" lon="6.07433">
        <ele>227</ele>
        <time>2018-12-05T09:24:48Z</time>
      </trkpt>
      <trkpt lat="47.74064" lon="6.07443">
        <ele>228</ele>
        <time>2018-12-05T09:24:50Z</time>
      </trkpt>
      <trkpt lat="47.74065" lon="6.07454">
        <ele>228</ele>
        <time>2018-12-05T09:24:52Z</time>
      </trkpt>
      <trkpt lat="47.74067" lon="6.07465">
        <ele>228</ele>
        <time>2018-12-05T09:24:54Z</time>
      </trkpt>
      <trkpt lat="47.74069" lon="6.07475">
        <ele>227</ele>
        <time>2018-12-05T09:24:56Z</time>
      </trkpt>
      <trkpt lat="47.74072" lon="6.07493">
        <ele>225</ele>
        <time>2018-12-05T09:24:58Z</time>
      </trkpt>
      <trkpt lat="47.74075" lon="6.07505">
        <ele>225</ele>
        <time>2018-12-05T09:25:00Z</time>
      </trkpt>
      <trkpt lat="47.74078" lon="6.07516">
        <ele>227</ele>
        <time>2018-12-05T09:25:02Z</time>
      </trkpt>
      <trkpt lat="47.7408" lon="6.07522">
        <ele>228</ele>
        <time>2018-12-05T09:25:03Z</time>
      </trkpt>
      <trkpt lat="47.74082" lon="6.07529">
        <ele>229</ele>
        <time>2018-12-05T09:25:04Z</time>
      </trkpt>
      <trkpt lat="47.74084" lon="6.07535">
        <ele>218</ele>
        <time>2018-12-05T09:25:05Z</time>
      </trkpt>
      <trkpt lat="47.74087" lon="6.07542">
        <ele>219</ele>
        <time>2018-12-05T09:25:06Z</time>
      </trkpt>
      <trkpt lat="47.74089" lon="6.07549">
        <ele>219</ele>
        <time>2018-12-05T09:25:07Z</time>
      </trkpt>
      <trkpt lat="47.74092" lon="6.07556">
        <ele>219</ele>
        <time>2018-12-05T09:25:08Z</time>
      </trkpt>
      <trkpt lat="47.74094" lon="6.07563">
        <ele>220</ele>
        <time>2018-12-05T09:25:09Z</time>
      </trkpt>
      <trkpt lat="47.74096" lon="6.0757">
        <ele>220</ele>
        <time>2018-12-05T09:25:10Z</time>
      </trkpt>
      <trkpt lat="47.74099" lon="6.07577">
        <ele>220</ele>
        <time>2018-12-05T09:25:11Z</time>
      </trkpt>
      <trkpt lat="47.74102" lon="6.07584">
        <ele>222</ele>
        <time>2018-12-05T09:25:12Z</time>
      </trkpt>
      <trkpt lat="47.74104" lon="6.07591">
        <ele>221</ele>
        <time>2018-12-05T09:25:13Z</time>
      </trkpt>
      <trkpt lat="47.74107" lon="6.07598">
        <ele>221</ele>
        <time>2018-12-05T09:25:14Z</time>
      </trkpt>
      <trkpt lat="47.7411" lon="6.07605">
        <ele>221</ele>
        <time>2018-12-05T09:25:15Z</time>
      </trkpt>
      <trkpt lat="47.74114" lon="6.07613">
        <ele>221</ele>
        <time>2018-12-05T09:25:16Z</time>
      </trkpt>
      <trkpt lat="47.74117" lon="6.07621">
        <ele>221</ele>
        <time>2018-12-05T09:25:17Z</time>
      </trkpt>
      <trkpt lat="47.74122" lon="6.07629">
        <ele>220</ele>
        <time>2018-12-05T09:25:18Z</time>
      </trkpt>
      <trkpt lat="47.74127" lon="6.07638">
        <ele>220</ele>
        <time>2018-12-05T09:25:19Z</time>
      </trkpt>
      <trkpt lat="47.74133" lon="6.07647">
        <ele>220</ele>
        <time>2018-12-05T09:25:20Z</time>
      </trkpt>
      <trkpt lat="47.74139" lon="6.07655">
        <ele>219</ele>
        <time>2018-12-05T09:25:21Z</time>
      </trkpt>
      <trkpt lat="47.74145" lon="6.07664">
        <ele>218</ele>
        <time>2018-12-05T09:25:22Z</time>
      </trkpt>
      <trkpt lat="47.7415" lon="6.07675">
        <ele>219</ele>
        <time>2018-12-05T09:25:23Z</time>
      </trkpt>
      <trkpt lat="47.74155" lon="6.07685">
        <ele>220</ele>
        <time>2018-12-05T09:25:24Z</time>
      </trkpt>
      <trkpt lat="47.74159" lon="6.07696">
        <ele>220</ele>
        <time>2018-12-05T09:25:25Z</time>
      </trkpt>
      <trkpt lat="47.74162" lon="6.07707">
        <ele>220</ele>
        <time>2018-12-05T09:25:26Z</time>
      </trkpt>
      <trkpt lat="47.74164" lon="6.07718">
        <ele>220</ele>
        <time>2018-12-05T09:25:27Z</time>
      </trkpt>
      <trkpt lat="47.74165" lon="6.07729">
        <ele>219</ele>
        <time>2018-12-05T09:25:28Z</time>
      </trkpt>
      <trkpt lat="47.74166" lon="6.0774">
        <ele>217</ele>
        <time>2018-12-05T09:25:29Z</time>
      </trkpt>
      <trkpt lat="47.74167" lon="6.0775">
        <ele>214</ele>
        <time>2018-12-05T09:25:30Z</time>
      </trkpt>
      <trkpt lat="47.74168" lon="6.0776">
        <ele>214</ele>
        <time>2018-12-05T09:25:31Z</time>
      </trkpt>
      <trkpt lat="47.74171" lon="6.07769">
        <ele>214</ele>
        <time>2018-12-05T09:25:32Z</time>
      </trkpt>
      <trkpt lat="47.74174" lon="6.07777">
        <ele>214</ele>
        <time>2018-12-05T09:25:33Z</time>
      </trkpt>
      <trkpt lat="47.74177" lon="6.07784">
        <ele>214</ele>
        <time>2018-12-05T09:25:34Z</time>
      </trkpt>
      <trkpt lat="47.74181" lon="6.07791">
        <ele>214</ele>
        <time>2018-12-05T09:25:35Z</time>
      </trkpt>
      <trkpt lat="47.74185" lon="6.07796">
        <ele>214</ele>
        <time>2018-12-05T09:25:36Z</time>
      </trkpt>
      <trkpt lat="47.74192" lon="6.07804">
        <ele>214</ele>
        <time>2018-12-05T09:25:38Z</time>
      </trkpt>
      <trkpt lat="47.74199" lon="6.07813">
        <ele>214</ele>
        <time>2018-12-05T09:25:40Z</time>
      </trkpt>
      <trkpt lat="47.74202" lon="6.07817">
        <ele>214</ele>
        <time>2018-12-05T09:25:41Z</time>
      </trkpt>
      <trkpt lat="47.74206" lon="6.07822">
        <ele>214</ele>
        <time>2018-12-05T09:25:42Z</time>
      </trkpt>
      <trkpt lat="47.7421" lon="6.07826">
        <ele>214</ele>
        <time>2018-12-05T09:25:43Z</time>
      </trkpt>
      <trkpt lat="47.74214" lon="6.07831">
        <ele>214</ele>
        <time>2018-12-05T09:25:44Z</time>
      </trkpt>
      <trkpt lat="47.74218" lon="6.07836">
        <ele>215</ele>
        <time>2018-12-05T09:25:45Z</time>
      </trkpt>
      <trkpt lat="47.74222" lon="6.0784">
        <ele>215</ele>
        <time>2018-12-05T09:25:46Z</time>
      </trkpt>
      <trkpt lat="47.74226" lon="6.07844">
        <ele>215</ele>
        <time>2018-12-05T09:25:47Z</time>
      </trkpt>
      <trkpt lat="47.7423" lon="6.07848">
        <ele>215</ele>
        <time>2018-12-05T09:25:48Z</time>
      </trkpt>
      <trkpt lat="47.74234" lon="6.07852">
        <ele>215</ele>
        <time>2018-12-05T09:25:49Z</time>
      </trkpt>
      <trkpt lat="47.74238" lon="6.07855">
        <ele>215</ele>
        <time>2018-12-05T09:25:50Z</time>
      </trkpt>
      <trkpt lat="47.74247" lon="6.0786">
        <ele>215</ele>
        <time>2018-12-05T09:25:52Z</time>
      </trkpt>
      <trkpt lat="47.74255" lon="6.07865">
        <ele>215</ele>
        <time>2018-12-05T09:25:54Z</time>
      </trkpt>
      <trkpt lat="47.74263" lon="6.07868">
        <ele>215</ele>
        <time>2018-12-05T09:25:56Z</time>
      </trkpt>
      <trkpt lat="47.74272" lon="6.07868">
        <ele>215</ele>
        <time>2018-12-05T09:25:58Z</time>
      </trkpt>
      <trkpt lat="47.74277" lon="6.07865">
        <ele>215</ele>
        <time>2018-12-05T09:26:00Z</time>
      </trkpt>
      <trkpt lat="47.74282" lon="6.0786">
        <ele>215</ele>
        <time>2018-12-05T09:26:02Z</time>
      </trkpt>
      <trkpt lat="47.74288" lon="6.07853">
        <ele>215</ele>
        <time>2018-12-05T09:26:03Z</time>
      </trkpt>
      <trkpt lat="47.74295" lon="6.07846">
        <ele>215</ele>
        <time>2018-12-05T09:26:05Z</time>
      </trkpt>
      <trkpt lat="47.74301" lon="6.07841">
        <ele>216</ele>
        <time>2018-12-05T09:26:07Z</time>
      </trkpt>
      <trkpt lat="47.74306" lon="6.07836">
        <ele>216</ele>
        <time>2018-12-05T09:26:09Z</time>
      </trkpt>
      <trkpt lat="47.7431" lon="6.07832">
        <ele>214</ele>
        <time>2018-12-05T09:26:11Z</time>
      </trkpt>
      <trkpt lat="47.74314" lon="6.07828">
        <ele>214</ele>
        <time>2018-12-05T09:26:13Z</time>
      </trkpt>
      <trkpt lat="47.7432" lon="6.07821">
        <ele>215</ele>
        <time>2018-12-05T09:26:15Z</time>
      </trkpt>
      <trkpt lat="47.74327" lon="6.07814">
        <ele>214</ele>
        <time>2018-12-05T09:26:16Z</time>
      </trkpt>
      <trkpt lat="47.74331" lon="6.0781">
        <ele>214</ele>
        <time>2018-12-05T09:26:17Z</time>
      </trkpt>
      <trkpt lat="47.74335" lon="6.07806">
        <ele>216</ele>
        <time>2018-12-05T09:26:18Z</time>
      </trkpt>
      <trkpt lat="47.7434" lon="6.07802">
        <ele>216</ele>
        <time>2018-12-05T09:26:19Z</time>
      </trkpt>
      <trkpt lat="47.74345" lon="6.07798">
        <ele>215</ele>
        <time>2018-12-05T09:26:20Z</time>
      </trkpt>
      <trkpt lat="47.74351" lon="6.07794">
        <ele>215</ele>
        <time>2018-12-05T09:26:21Z</time>
      </trkpt>
      <trkpt lat="47.74356" lon="6.0779">
        <ele>215</ele>
        <time>2018-12-05T09:26:22Z</time>
      </trkpt>
      <trkpt lat="47.7436" lon="6.07787">
        <ele>215</ele>
        <time>2018-12-05T09:26:23Z</time>
      </trkpt>
      <trkpt lat="47.74364" lon="6.07785">
        <ele>215</ele>
        <time>2018-12-05T09:26:24Z</time>
      </trkpt>
      <trkpt lat="47.74369" lon="6.07783">
        <ele>216</ele>
        <time>2018-12-05T09:26:25Z</time>
      </trkpt>
      <trkpt lat="47.74375" lon="6.0778">
        <ele>216</ele>
        <time>2018-12-05T09:26:26Z</time>
      </trkpt>
      <trkpt lat="47.7438" lon="6.07778">
        <ele>216</ele>
        <time>2018-12-05T09:26:27Z</time>
      </trkpt>
      <trkpt lat="47.74384" lon="6.07776">
        <ele>216</ele>
        <time>2018-12-05T09:26:28Z</time>
      </trkpt>
      <trkpt lat="47.74389" lon="6.07773">
        <ele>216</ele>
        <time>2018-12-05T09:26:29Z</time>
      </trkpt>
      <trkpt lat="47.74393" lon="6.07772">
        <ele>216</ele>
        <time>2018-12-05T09:26:30Z</time>
      </trkpt>
      <trkpt lat="47.74398" lon="6.0777">
        <ele>216</ele>
        <time>2018-12-05T09:26:31Z</time>
      </trkpt>
      <trkpt lat="47.74406" lon="6.07767">
        <ele>216</ele>
        <time>2018-12-05T09:26:33Z</time>
      </trkpt>
      <trkpt lat="47.74414" lon="6.07766">
        <ele>216</ele>
        <time>2018-12-05T09:26:35Z</time>
      </trkpt>
      <trkpt lat="47.74419" lon="6.07765">
        <ele>217</ele>
        <time>2018-12-05T09:26:36Z</time>
      </trkpt>
      <trkpt lat="47.74427" lon="6.07764">
        <ele>217</ele>
        <time>2018-12-05T09:26:38Z</time>
      </trkpt>
      <trkpt lat="47.74436" lon="6.07765">
        <ele>217</ele>
        <time>2018-12-05T09:26:40Z</time>
      </trkpt>
      <trkpt lat="47.74441" lon="6.07765">
        <ele>217</ele>
        <time>2018-12-05T09:26:41Z</time>
      </trkpt>
      <trkpt lat="47.74446" lon="6.07765">
        <ele>217</ele>
        <time>2018-12-05T09:26:42Z</time>
      </trkpt>
      <trkpt lat="47.74451" lon="6.07765">
        <ele>217</ele>
        <time>2018-12-05T09:26:43Z</time>
      </trkpt>
      <trkpt lat="47.7446" lon="6.07763">
        <ele>217</ele>
        <time>2018-12-05T09:26:45Z</time>
      </trkpt>
      <trkpt lat="47.74465" lon="6.07761">
        <ele>217</ele>
        <time>2018-12-05T09:26:46Z</time>
      </trkpt>
      <trkpt lat="47.7447" lon="6.07759">
        <ele>217</ele>
        <time>2018-12-05T09:26:47Z</time>
      </trkpt>
      <trkpt lat="47.74475" lon="6.07756">
        <ele>216</ele>
        <time>2018-12-05T09:26:48Z</time>
      </trkpt>
      <trkpt lat="47.7448" lon="6.07752">
        <ele>216</ele>
        <time>2018-12-05T09:26:49Z</time>
      </trkpt>
      <trkpt lat="47.74485" lon="6.07746">
        <ele>215</ele>
        <time>2018-12-05T09:26:50Z</time>
      </trkpt>
      <trkpt lat="47.74488" lon="6.07742">
        <ele>215</ele>
        <time>2018-12-05T09:26:51Z</time>
      </trkpt>
      <trkpt lat="47.74492" lon="6.07732">
        <ele>215</ele>
        <time>2018-12-05T09:26:53Z</time>
      </trkpt>
      <trkpt lat="47.74496" lon="6.07721">
        <ele>215</ele>
        <time>2018-12-05T09:26:55Z</time>
      </trkpt>
      <trkpt lat="47.74499" lon="6.0771">
        <ele>215</ele>
        <time>2018-12-05T09:26:57Z</time>
      </trkpt>
      <trkpt lat="47.74501" lon="6.07698">
        <ele>214</ele>
        <time>2018-12-05T09:26:59Z</time>
      </trkpt>
      <trkpt lat="47.74504" lon="6.07686">
        <ele>214</ele>
        <time>2018-12-05T09:27:01Z</time>
      </trkpt>
      <trkpt lat="47.74507" lon="6.0768">
        <ele>214</ele>
        <time>2018-12-05T09:27:02Z</time>
      </trkpt>
      <trkpt lat="47.7451" lon="6.07675">
        <ele>214</ele>
        <time>2018-12-05T09:27:03Z</time>
      </trkpt>
      <trkpt lat="47.74514" lon="6.0767">
        <ele>214</ele>
        <time>2018-12-05T09:27:04Z</time>
      </trkpt>
      <trkpt lat="47.74522" lon="6.07665">
        <ele>213</ele>
        <time>2018-12-05T09:27:06Z</time>
      </trkpt>
      <trkpt lat="47.74527" lon="6.07663">
        <ele>213</ele>
        <time>2018-12-05T09:27:07Z</time>
      </trkpt>
      <trkpt lat="47.74535" lon="6.07659">
        <ele>213</ele>
        <time>2018-12-05T09:27:09Z</time>
      </trkpt>
      <trkpt lat="47.7454" lon="6.07657">
        <ele>213</ele>
        <time>2018-12-05T09:27:10Z</time>
      </trkpt>
      <trkpt lat="47.74544" lon="6.07655">
        <ele>213</ele>
        <time>2018-12-05T09:27:11Z</time>
      </trkpt>
      <trkpt lat="47.74549" lon="6.07652">
        <ele>213</ele>
        <time>2018-12-05T09:27:12Z</time>
      </trkpt>
      <trkpt lat="47.74553" lon="6.0765">
        <ele>213</ele>
        <time>2018-12-05T09:27:13Z</time>
      </trkpt>
      <trkpt lat="47.74558" lon="6.07646">
        <ele>213</ele>
        <time>2018-12-05T09:27:14Z</time>
      </trkpt>
      <trkpt lat="47.74563" lon="6.07643">
        <ele>213</ele>
        <time>2018-12-05T09:27:15Z</time>
      </trkpt>
      <trkpt lat="47.74567" lon="6.0764">
        <ele>213</ele>
        <time>2018-12-05T09:27:16Z</time>
      </trkpt>
      <trkpt lat="47.74572" lon="6.07637">
        <ele>213</ele>
        <time>2018-12-05T09:27:17Z</time>
      </trkpt>
      <trkpt lat="47.74576" lon="6.07633">
        <ele>213</ele>
        <time>2018-12-05T09:27:18Z</time>
      </trkpt>
      <trkpt lat="47.7458" lon="6.07629">
        <ele>213</ele>
        <time>2018-12-05T09:27:19Z</time>
      </trkpt>
      <trkpt lat="47.74586" lon="6.0762">
        <ele>213</ele>
        <time>2018-12-05T09:27:21Z</time>
      </trkpt>
      <trkpt lat="47.74589" lon="6.07614">
        <ele>213</ele>
        <time>2018-12-05T09:27:22Z</time>
      </trkpt>
      <trkpt lat="47.74591" lon="6.07608">
        <ele>213</ele>
        <time>2018-12-05T09:27:23Z</time>
      </trkpt>
      <trkpt lat="47.74593" lon="6.07602">
        <ele>213</ele>
        <time>2018-12-05T09:27:24Z</time>
      </trkpt>
      <trkpt lat="47.74597" lon="6.07591">
        <ele>213</ele>
        <time>2018-12-05T09:27:26Z</time>
      </trkpt>
      <trkpt lat="47.746" lon="6.0758">
        <ele>213</ele>
        <time>2018-12-05T09:27:28Z</time>
      </trkpt>
      <trkpt lat="47.74603" lon="6.0757">
        <ele>213</ele>
        <time>2018-12-05T09:27:30Z</time>
      </trkpt>
      <trkpt lat="47.74607" lon="6.07562">
        <ele>213</ele>
        <time>2018-12-05T09:27:32Z</time>
      </trkpt>
      <trkpt lat="47.74612" lon="6.07552">
        <ele>213</ele>
        <time>2018-12-05T09:27:34Z</time>
      </trkpt>
      <trkpt lat="47.74614" lon="6.07546">
        <ele>213</ele>
        <time>2018-12-05T09:27:35Z</time>
      </trkpt>
      <trkpt lat="47.74617" lon="6.07534">
        <ele>212</ele>
        <time>2018-12-05T09:27:37Z</time>
      </trkpt>
      <trkpt lat="47.7462" lon="6.07523">
        <ele>212</ele>
        <time>2018-12-05T09:27:39Z</time>
      </trkpt>
      <trkpt lat="47.74623" lon="6.07511">
        <ele>212</ele>
        <time>2018-12-05T09:27:41Z</time>
      </trkpt>
      <trkpt lat="47.74623" lon="6.07498">
        <ele>212</ele>
        <time>2018-12-05T09:27:43Z</time>
      </trkpt>
      <trkpt lat="47.74622" lon="6.07485">
        <ele>212</ele>
        <time>2018-12-05T09:27:45Z</time>
      </trkpt>
      <trkpt lat="47.7462" lon="6.07472">
        <ele>212</ele>
        <time>2018-12-05T09:27:47Z</time>
      </trkpt>
      <trkpt lat="47.74619" lon="6.07465">
        <ele>212</ele>
        <time>2018-12-05T09:27:48Z</time>
      </trkpt>
      <trkpt lat="47.74618" lon="6.07458">
        <ele>212</ele>
        <time>2018-12-05T09:27:49Z</time>
      </trkpt>
      <trkpt lat="47.74616" lon="6.07452">
        <ele>212</ele>
        <time>2018-12-05T09:27:50Z</time>
      </trkpt>
      <trkpt lat="47.74614" lon="6.07445">
        <ele>212</ele>
        <time>2018-12-05T09:27:51Z</time>
      </trkpt>
      <trkpt lat="47.74613" lon="6.07438">
        <ele>212</ele>
        <time>2018-12-05T09:27:52Z</time>
      </trkpt>
      <trkpt lat="47.74611" lon="6.07432">
        <ele>212</ele>
        <time>2018-12-05T09:27:53Z</time>
      </trkpt>
      <trkpt lat="47.7461" lon="6.07425">
        <ele>212</ele>
        <time>2018-12-05T09:27:54Z</time>
      </trkpt>
      <trkpt lat="47.74607" lon="6.07413">
        <ele>212</ele>
        <time>2018-12-05T09:27:56Z</time>
      </trkpt>
      <trkpt lat="47.74606" lon="6.07406">
        <ele>212</ele>
        <time>2018-12-05T09:27:57Z</time>
      </trkpt>
      <trkpt lat="47.74604" lon="6.074">
        <ele>211</ele>
        <time>2018-12-05T09:27:58Z</time>
      </trkpt>
      <trkpt lat="47.74603" lon="6.07393">
        <ele>211</ele>
        <time>2018-12-05T09:27:59Z</time>
      </trkpt>
      <trkpt lat="47.74601" lon="6.07386">
        <ele>211</ele>
        <time>2018-12-05T09:28:00Z</time>
      </trkpt>
      <trkpt lat="47.746" lon="6.07379">
        <ele>211</ele>
        <time>2018-12-05T09:28:01Z</time>
      </trkpt>
      <trkpt lat="47.74598" lon="6.07372">
        <ele>211</ele>
        <time>2018-12-05T09:28:02Z</time>
      </trkpt>
      <trkpt lat="47.74597" lon="6.07366">
        <ele>211</ele>
        <time>2018-12-05T09:28:03Z</time>
      </trkpt>
      <trkpt lat="47.74595" lon="6.07359">
        <ele>211</ele>
        <time>2018-12-05T09:28:04Z</time>
      </trkpt>
      <trkpt lat="47.74594" lon="6.07353">
        <ele>211</ele>
        <time>2018-12-05T09:28:05Z</time>
      </trkpt>
      <trkpt lat="47.74593" lon="6.07346">
        <ele>211</ele>
        <time>2018-12-05T09:28:06Z</time>
      </trkpt>
      <trkpt lat="47.74591" lon="6.07339">
        <ele>210</ele>
        <time>2018-12-05T09:28:07Z</time>
      </trkpt>
      <trkpt lat="47.7459" lon="6.07333">
        <ele>210</ele>
        <time>2018-12-05T09:28:08Z</time>
      </trkpt>
      <trkpt lat="47.74588" lon="6.07326">
        <ele>210</ele>
        <time>2018-12-05T09:28:09Z</time>
      </trkpt>
      <trkpt lat="47.74587" lon="6.0732">
        <ele>210</ele>
        <time>2018-12-05T09:28:10Z</time>
      </trkpt>
      <trkpt lat="47.74585" lon="6.07313">
        <ele>210</ele>
        <time>2018-12-05T09:28:11Z</time>
      </trkpt>
      <trkpt lat="47.74585" lon="6.07306">
        <ele>210</ele>
        <time>2018-12-05T09:28:12Z</time>
      </trkpt>
      <trkpt lat="47.74583" lon="6.073">
        <ele>210</ele>
        <time>2018-12-05T09:28:13Z</time>
      </trkpt>
      <trkpt lat="47.74583" lon="6.07293">
        <ele>209</ele>
        <time>2018-12-05T09:28:14Z</time>
      </trkpt>
      <trkpt lat="47.74582" lon="6.07286">
        <ele>209</ele>
        <time>2018-12-05T09:28:15Z</time>
      </trkpt>
      <trkpt lat="47.74582" lon="6.07278">
        <ele>209</ele>
        <time>2018-12-05T09:28:16Z</time>
      </trkpt>
      <trkpt lat="47.74582" lon="6.07271">
        <ele>209</ele>
        <time>2018-12-05T09:28:17Z</time>
      </trkpt>
      <trkpt lat="47.74582" lon="6.07264">
        <ele>209</ele>
        <time>2018-12-05T09:28:18Z</time>
      </trkpt>
      <trkpt lat="47.74584" lon="6.07257">
        <ele>209</ele>
        <time>2018-12-05T09:28:19Z</time>
      </trkpt>
      <trkpt lat="47.74586" lon="6.07244">
        <ele>209</ele>
        <time>2018-12-05T09:28:21Z</time>
      </trkpt>
      <trkpt lat="47.74588" lon="6.07237">
        <ele>209</ele>
        <time>2018-12-05T09:28:22Z</time>
      </trkpt>
      <trkpt lat="47.74591" lon="6.07225">
        <ele>210</ele>
        <time>2018-12-05T09:28:24Z</time>
      </trkpt>
      <trkpt lat="47.74594" lon="6.07214">
        <ele>210</ele>
        <time>2018-12-05T09:28:26Z</time>
      </trkpt>
      <trkpt lat="47.74597" lon="6.07203">
        <ele>210</ele>
        <time>2018-12-05T09:28:28Z</time>
      </trkpt>
      <trkpt lat="47.74599" lon="6.07193">
        <ele>210</ele>
        <time>2018-12-05T09:28:30Z</time>
      </trkpt>
      <trkpt lat="47.74602" lon="6.07182">
        <ele>210</ele>
        <time>2018-12-05T09:28:32Z</time>
      </trkpt>
      <trkpt lat="47.74605" lon="6.0717">
        <ele>210</ele>
        <time>2018-12-05T09:28:34Z</time>
      </trkpt>
      <trkpt lat="47.74608" lon="6.0716">
        <ele>210</ele>
        <time>2018-12-05T09:28:36Z</time>
      </trkpt>
      <trkpt lat="47.74612" lon="6.07149">
        <ele>210</ele>
        <time>2018-12-05T09:28:38Z</time>
      </trkpt>
      <trkpt lat="47.74613" lon="6.07143">
        <ele>210</ele>
        <time>2018-12-05T09:28:39Z</time>
      </trkpt>
      <trkpt lat="47.74616" lon="6.07131">
        <ele>210</ele>
        <time>2018-12-05T09:28:41Z</time>
      </trkpt>
      <trkpt lat="47.74619" lon="6.07119">
        <ele>210</ele>
        <time>2018-12-05T09:28:43Z</time>
      </trkpt>
      <trkpt lat="47.74622" lon="6.07112">
        <ele>210</ele>
        <time>2018-12-05T09:28:44Z</time>
      </trkpt>
      <trkpt lat="47.74624" lon="6.07105">
        <ele>210</ele>
        <time>2018-12-05T09:28:45Z</time>
      </trkpt>
      <trkpt lat="47.74625" lon="6.07099">
        <ele>210</ele>
        <time>2018-12-05T09:28:46Z</time>
      </trkpt>
      <trkpt lat="47.74627" lon="6.07093">
        <ele>210</ele>
        <time>2018-12-05T09:28:47Z</time>
      </trkpt>
      <trkpt lat="47.7463" lon="6.07081">
        <ele>210</ele>
        <time>2018-12-05T09:28:49Z</time>
      </trkpt>
      <trkpt lat="47.74633" lon="6.0707">
        <ele>210</ele>
        <time>2018-12-05T09:28:51Z</time>
      </trkpt>
      <trkpt lat="47.74636" lon="6.07061">
        <ele>210</ele>
        <time>2018-12-05T09:28:53Z</time>
      </trkpt>
      <trkpt lat="47.74639" lon="6.0705">
        <ele>210</ele>
        <time>2018-12-05T09:28:55Z</time>
      </trkpt>
      <trkpt lat="47.74641" lon="6.0704">
        <ele>211</ele>
        <time>2018-12-05T09:28:57Z</time>
      </trkpt>
      <trkpt lat="47.74643" lon="6.07032">
        <ele>211</ele>
        <time>2018-12-05T09:28:59Z</time>
      </trkpt>
      <trkpt lat="47.74644" lon="6.07025">
        <ele>211</ele>
        <time>2018-12-05T09:29:01Z</time>
      </trkpt>
      <trkpt lat="47.74646" lon="6.07018">
        <ele>211</ele>
        <time>2018-12-05T09:29:03Z</time>
      </trkpt>
      <trkpt lat="47.74649" lon="6.07009">
        <ele>211</ele>
        <time>2018-12-05T09:29:05Z</time>
      </trkpt>
      <trkpt lat="47.74653" lon="6.07">
        <ele>211</ele>
        <time>2018-12-05T09:29:07Z</time>
      </trkpt>
      <trkpt lat="47.74657" lon="6.06989">
        <ele>211</ele>
        <time>2018-12-05T09:29:09Z</time>
      </trkpt>
      <trkpt lat="47.74661" lon="6.06978">
        <ele>210</ele>
        <time>2018-12-05T09:29:11Z</time>
      </trkpt>
      <trkpt lat="47.74665" lon="6.06967">
        <ele>210</ele>
        <time>2018-12-05T09:29:13Z</time>
      </trkpt>
      <trkpt lat="47.74668" lon="6.06955">
        <ele>210</ele>
        <time>2018-12-05T09:29:15Z</time>
      </trkpt>
      <trkpt lat="47.74673" lon="6.06938">
        <ele>210</ele>
        <time>2018-12-05T09:29:17Z</time>
      </trkpt>
      <trkpt lat="47.74676" lon="6.06925">
        <ele>210</ele>
        <time>2018-12-05T09:29:19Z</time>
      </trkpt>
      <trkpt lat="47.74678" lon="6.06919">
        <ele>210</ele>
        <time>2018-12-05T09:29:20Z</time>
      </trkpt>
      <trkpt lat="47.74681" lon="6.06907">
        <ele>210</ele>
        <time>2018-12-05T09:29:22Z</time>
      </trkpt>
      <trkpt lat="47.74683" lon="6.06896">
        <ele>210</ele>
        <time>2018-12-05T09:29:24Z</time>
      </trkpt>
      <trkpt lat="47.74685" lon="6.06883">
        <ele>210</ele>
        <time>2018-12-05T09:29:26Z</time>
      </trkpt>
      <trkpt lat="47.74687" lon="6.06871">
        <ele>209</ele>
        <time>2018-12-05T09:29:28Z</time>
      </trkpt>
      <trkpt lat="47.74688" lon="6.06859">
        <ele>209</ele>
        <time>2018-12-05T09:29:30Z</time>
      </trkpt>
      <trkpt lat="47.74689" lon="6.06848">
        <ele>209</ele>
        <time>2018-12-05T09:29:32Z</time>
      </trkpt>
      <trkpt lat="47.7469" lon="6.06841">
        <ele>209</ele>
        <time>2018-12-05T09:29:33Z</time>
      </trkpt>
      <trkpt lat="47.74691" lon="6.06828">
        <ele>209</ele>
        <time>2018-12-05T09:29:35Z</time>
      </trkpt>
      <trkpt lat="47.74692" lon="6.06817">
        <ele>209</ele>
        <time>2018-12-05T09:29:37Z</time>
      </trkpt>
      <trkpt lat="47.74693" lon="6.06806">
        <ele>209</ele>
        <time>2018-12-05T09:29:39Z</time>
      </trkpt>
      <trkpt lat="47.74695" lon="6.06794">
        <ele>209</ele>
        <time>2018-12-05T09:29:41Z</time>
      </trkpt>
      <trkpt lat="47.74696" lon="6.06783">
        <ele>209</ele>
        <time>2018-12-05T09:29:43Z</time>
      </trkpt>
      <trkpt lat="47.74698" lon="6.06771">
        <ele>210</ele>
        <time>2018-12-05T09:29:45Z</time>
      </trkpt>
      <trkpt lat="47.74698" lon="6.06758">
        <ele>210</ele>
        <time>2018-12-05T09:29:47Z</time>
      </trkpt>
      <trkpt lat="47.74699" lon="6.06747">
        <ele>210</ele>
        <time>2018-12-05T09:29:49Z</time>
      </trkpt>
      <trkpt lat="47.74699" lon="6.06736">
        <ele>210</ele>
        <time>2018-12-05T09:29:51Z</time>
      </trkpt>
      <trkpt lat="47.74699" lon="6.06723">
        <ele>210</ele>
        <time>2018-12-05T09:29:53Z</time>
      </trkpt>
      <trkpt lat="47.74699" lon="6.06712">
        <ele>210</ele>
        <time>2018-12-05T09:29:55Z</time>
      </trkpt>
      <trkpt lat="47.74699" lon="6.06699">
        <ele>211</ele>
        <time>2018-12-05T09:29:57Z</time>
      </trkpt>
      <trkpt lat="47.74699" lon="6.06686">
        <ele>211</ele>
        <time>2018-12-05T09:29:59Z</time>
      </trkpt>
      <trkpt lat="47.74699" lon="6.06679">
        <ele>211</ele>
        <time>2018-12-05T09:30:00Z</time>
      </trkpt>
      <trkpt lat="47.74698" lon="6.06666">
        <ele>211</ele>
        <time>2018-12-05T09:30:02Z</time>
      </trkpt>
      <trkpt lat="47.74698" lon="6.06658">
        <ele>211</ele>
        <time>2018-12-05T09:30:03Z</time>
      </trkpt>
      <trkpt lat="47.74698" lon="6.06651">
        <ele>210</ele>
        <time>2018-12-05T09:30:04Z</time>
      </trkpt>
      <trkpt lat="47.74698" lon="6.06645">
        <ele>210</ele>
        <time>2018-12-05T09:30:05Z</time>
      </trkpt>
      <trkpt lat="47.74697" lon="6.06638">
        <ele>210</ele>
        <time>2018-12-05T09:30:06Z</time>
      </trkpt>
      <trkpt lat="47.74697" lon="6.0663">
        <ele>210</ele>
        <time>2018-12-05T09:30:07Z</time>
      </trkpt>
      <trkpt lat="47.74697" lon="6.06622">
        <ele>210</ele>
        <time>2018-12-05T09:30:08Z</time>
      </trkpt>
      <trkpt lat="47.74696" lon="6.06609">
        <ele>210</ele>
        <time>2018-12-05T09:30:10Z</time>
      </trkpt>
      <trkpt lat="47.74695" lon="6.06597">
        <ele>210</ele>
        <time>2018-12-05T09:30:12Z</time>
      </trkpt>
      <trkpt lat="47.74695" lon="6.06585">
        <ele>210</ele>
        <time>2018-12-05T09:30:14Z</time>
      </trkpt>
      <trkpt lat="47.74695" lon="6.06578">
        <ele>209</ele>
        <time>2018-12-05T09:30:15Z</time>
      </trkpt>
      <trkpt lat="47.74695" lon="6.06571">
        <ele>209</ele>
        <time>2018-12-05T09:30:16Z</time>
      </trkpt>
      <trkpt lat="47.74694" lon="6.0656">
        <ele>209</ele>
        <time>2018-12-05T09:30:18Z</time>
      </trkpt>
      <trkpt lat="47.74694" lon="6.06553">
        <ele>209</ele>
        <time>2018-12-05T09:30:19Z</time>
      </trkpt>
      <trkpt lat="47.74693" lon="6.06541">
        <ele>209</ele>
        <time>2018-12-05T09:30:21Z</time>
      </trkpt>
      <trkpt lat="47.74692" lon="6.06533">
        <ele>209</ele>
        <time>2018-12-05T09:30:22Z</time>
      </trkpt>
      <trkpt lat="47.74692" lon="6.06526">
        <ele>209</ele>
        <time>2018-12-05T09:30:23Z</time>
      </trkpt>
      <trkpt lat="47.74691" lon="6.06514">
        <ele>209</ele>
        <time>2018-12-05T09:30:25Z</time>
      </trkpt>
      <trkpt lat="47.74691" lon="6.06507">
        <ele>209</ele>
        <time>2018-12-05T09:30:26Z</time>
      </trkpt>
      <trkpt lat="47.7469" lon="6.06495">
        <ele>209</ele>
        <time>2018-12-05T09:30:28Z</time>
      </trkpt>
      <trkpt lat="47.7469" lon="6.06483">
        <ele>209</ele>
        <time>2018-12-05T09:30:30Z</time>
      </trkpt>
      <trkpt lat="47.7469" lon="6.06472">
        <ele>208</ele>
        <time>2018-12-05T09:30:32Z</time>
      </trkpt>
      <trkpt lat="47.7469" lon="6.0646">
        <ele>208</ele>
        <time>2018-12-05T09:30:34Z</time>
      </trkpt>
      <trkpt lat="47.74691" lon="6.06447">
        <ele>208</ele>
        <time>2018-12-05T09:30:36Z</time>
      </trkpt>
      <trkpt lat="47.74691" lon="6.06435">
        <ele>208</ele>
        <time>2018-12-05T09:30:38Z</time>
      </trkpt>
      <trkpt lat="47.74691" lon="6.06424">
        <ele>208</ele>
        <time>2018-12-05T09:30:40Z</time>
      </trkpt>
      <trkpt lat="47.74691" lon="6.06414">
        <ele>207</ele>
        <time>2018-12-05T09:30:42Z</time>
      </trkpt>
      <trkpt lat="47.74693" lon="6.06402">
        <ele>207</ele>
        <time>2018-12-05T09:30:44Z</time>
      </trkpt>
      <trkpt lat="47.74696" lon="6.06391">
        <ele>207</ele>
        <time>2018-12-05T09:30:46Z</time>
      </trkpt>
      <trkpt lat="47.74697" lon="6.06384">
        <ele>207</ele>
        <time>2018-12-05T09:30:47Z</time>
      </trkpt>
      <trkpt lat="47.74698" lon="6.06378">
        <ele>207</ele>
        <time>2018-12-05T09:30:48Z</time>
      </trkpt>
      <trkpt lat="47.747" lon="6.06367">
        <ele>207</ele>
        <time>2018-12-05T09:30:50Z</time>
      </trkpt>
      <trkpt lat="47.74703" lon="6.06355">
        <ele>207</ele>
        <time>2018-12-05T09:30:52Z</time>
      </trkpt>
      <trkpt lat="47.74706" lon="6.06344">
        <ele>207</ele>
        <time>2018-12-05T09:30:54Z</time>
      </trkpt>
      <trkpt lat="47.7471" lon="6.06332">
        <ele>208</ele>
        <time>2018-12-05T09:30:56Z</time>
      </trkpt>
      <trkpt lat="47.74714" lon="6.0632">
        <ele>208</ele>
        <time>2018-12-05T09:30:58Z</time>
      </trkpt>
      <trkpt lat="47.74718" lon="6.0631">
        <ele>208</ele>
        <time>2018-12-05T09:31:00Z</time>
      </trkpt>
      <trkpt lat="47.74721" lon="6.06304">
        <ele>208</ele>
        <time>2018-12-05T09:31:01Z</time>
      </trkpt>
      <trkpt lat="47.74722" lon="6.06297">
        <ele>208</ele>
        <time>2018-12-05T09:31:02Z</time>
      </trkpt>
      <trkpt lat="47.74726" lon="6.06286">
        <ele>208</ele>
        <time>2018-12-05T09:31:04Z</time>
      </trkpt>
      <trkpt lat="47.74728" lon="6.0628">
        <ele>208</ele>
        <time>2018-12-05T09:31:05Z</time>
      </trkpt>
      <trkpt lat="47.74731" lon="6.06267">
        <ele>208</ele>
        <time>2018-12-05T09:31:07Z</time>
      </trkpt>
      <trkpt lat="47.74735" lon="6.06257">
        <ele>208</ele>
        <time>2018-12-05T09:31:09Z</time>
      </trkpt>
      <trkpt lat="47.74737" lon="6.06251">
        <ele>208</ele>
        <time>2018-12-05T09:31:10Z</time>
      </trkpt>
      <trkpt lat="47.74741" lon="6.06239">
        <ele>209</ele>
        <time>2018-12-05T09:31:12Z</time>
      </trkpt>
      <trkpt lat="47.74743" lon="6.06233">
        <ele>209</ele>
        <time>2018-12-05T09:31:13Z</time>
      </trkpt>
      <trkpt lat="47.74747" lon="6.06222">
        <ele>209</ele>
        <time>2018-12-05T09:31:15Z</time>
      </trkpt>
      <trkpt lat="47.7475" lon="6.0621">
        <ele>209</ele>
        <time>2018-12-05T09:31:17Z</time>
      </trkpt>
      <trkpt lat="47.74751" lon="6.06204">
        <ele>209</ele>
        <time>2018-12-05T09:31:18Z</time>
      </trkpt>
      <trkpt lat="47.74753" lon="6.06197">
        <ele>209</ele>
        <time>2018-12-05T09:31:19Z</time>
      </trkpt>
      <trkpt lat="47.74756" lon="6.06186">
        <ele>209</ele>
        <time>2018-12-05T09:31:21Z</time>
      </trkpt>
      <trkpt lat="47.74757" lon="6.06179">
        <ele>209</ele>
        <time>2018-12-05T09:31:22Z</time>
      </trkpt>
      <trkpt lat="47.7476" lon="6.06167">
        <ele>209</ele>
        <time>2018-12-05T09:31:24Z</time>
      </trkpt>
      <trkpt lat="47.74763" lon="6.06155">
        <ele>209</ele>
        <time>2018-12-05T09:31:26Z</time>
      </trkpt>
      <trkpt lat="47.74766" lon="6.06145">
        <ele>209</ele>
        <time>2018-12-05T09:31:28Z</time>
      </trkpt>
      <trkpt lat="47.74769" lon="6.06132">
        <ele>208</ele>
        <time>2018-12-05T09:31:30Z</time>
      </trkpt>
      <trkpt lat="47.74773" lon="6.06121">
        <ele>208</ele>
        <time>2018-12-05T09:31:32Z</time>
      </trkpt>
      <trkpt lat="47.74775" lon="6.06109">
        <ele>208</ele>
        <time>2018-12-05T09:31:34Z</time>
      </trkpt>
      <trkpt lat="47.74778" lon="6.06103">
        <ele>208</ele>
        <time>2018-12-05T09:31:35Z</time>
      </trkpt>
      <trkpt lat="47.74782" lon="6.06091">
        <ele>208</ele>
        <time>2018-12-05T09:31:37Z</time>
      </trkpt>
      <trkpt lat="47.74784" lon="6.0608">
        <ele>208</ele>
        <time>2018-12-05T09:31:39Z</time>
      </trkpt>
      <trkpt lat="47.74789" lon="6.06069">
        <ele>208</ele>
        <time>2018-12-05T09:31:41Z</time>
      </trkpt>
      <trkpt lat="47.74794" lon="6.06058">
        <ele>208</ele>
        <time>2018-12-05T09:31:43Z</time>
      </trkpt>
      <trkpt lat="47.74798" lon="6.06046">
        <ele>209</ele>
        <time>2018-12-05T09:31:45Z</time>
      </trkpt>
      <trkpt lat="47.74801" lon="6.06034">
        <ele>209</ele>
        <time>2018-12-05T09:31:47Z</time>
      </trkpt>
      <trkpt lat="47.74805" lon="6.06023">
        <ele>209</ele>
        <time>2018-12-05T09:31:49Z</time>
      </trkpt>
      <trkpt lat="47.74809" lon="6.06012">
        <ele>209</ele>
        <time>2018-12-05T09:31:51Z</time>
      </trkpt>
      <trkpt lat="47.74812" lon="6.06001">
        <ele>209</ele>
        <time>2018-12-05T09:31:53Z</time>
      </trkpt>
      <trkpt lat="47.74815" lon="6.05989">
        <ele>210</ele>
        <time>2018-12-05T09:31:55Z</time>
      </trkpt>
      <trkpt lat="47.74818" lon="6.0598">
        <ele>210</ele>
        <time>2018-12-05T09:31:57Z</time>
      </trkpt>
      <trkpt lat="47.7482" lon="6.05972">
        <ele>210</ele>
        <time>2018-12-05T09:31:59Z</time>
      </trkpt>
      <trkpt lat="47.74826" lon="6.05966">
        <ele>210</ele>
        <time>2018-12-05T09:32:02Z</time>
      </trkpt>
      <trkpt lat="47.74834" lon="6.05966">
        <ele>210</ele>
        <time>2018-12-05T09:32:04Z</time>
      </trkpt>
      <trkpt lat="47.74839" lon="6.05968">
        <ele>210</ele>
        <time>2018-12-05T09:32:06Z</time>
      </trkpt>
      <trkpt lat="47.74846" lon="6.05971">
        <ele>210</ele>
        <time>2018-12-05T09:32:08Z</time>
      </trkpt>
      <trkpt lat="47.74853" lon="6.05975">
        <ele>210</ele>
        <time>2018-12-05T09:32:10Z</time>
      </trkpt>
      <trkpt lat="47.7486" lon="6.05979">
        <ele>210</ele>
        <time>2018-12-05T09:32:12Z</time>
      </trkpt>
      <trkpt lat="47.74867" lon="6.05986">
        <ele>210</ele>
        <time>2018-12-05T09:32:14Z</time>
      </trkpt>
      <trkpt lat="47.74878" lon="6.05998">
        <ele>210</ele>
        <time>2018-12-05T09:32:16Z</time>
      </trkpt>
      <trkpt lat="47.74882" lon="6.06002">
        <ele>210</ele>
        <time>2018-12-05T09:32:17Z</time>
      </trkpt>
      <trkpt lat="47.74888" lon="6.06008">
        <ele>210</ele>
        <time>2018-12-05T09:32:19Z</time>
      </trkpt>
      <trkpt lat="47.74894" lon="6.06016">
        <ele>210</ele>
        <time>2018-12-05T09:32:21Z</time>
      </trkpt>
      <trkpt lat="47.74901" lon="6.06022">
        <ele>210</ele>
        <time>2018-12-05T09:32:23Z</time>
      </trkpt>
      <trkpt lat="47.74908" lon="6.06028">
        <ele>210</ele>
        <time>2018-12-05T09:32:25Z</time>
      </trkpt>
      <trkpt lat="47.74915" lon="6.06035">
        <ele>210</ele>
        <time>2018-12-05T09:32:27Z</time>
      </trkpt>
      <trkpt lat="47.74919" lon="6.06039">
        <ele>210</ele>
        <time>2018-12-05T09:32:28Z</time>
      </trkpt>
      <trkpt lat="47.74926" lon="6.06045">
        <ele>211</ele>
        <time>2018-12-05T09:32:30Z</time>
      </trkpt>
      <trkpt lat="47.74933" lon="6.0605">
        <ele>211</ele>
        <time>2018-12-05T09:32:32Z</time>
      </trkpt>
      <trkpt lat="47.74939" lon="6.06056">
        <ele>211</ele>
        <time>2018-12-05T09:32:34Z</time>
      </trkpt>
      <trkpt lat="47.74945" lon="6.06062">
        <ele>211</ele>
        <time>2018-12-05T09:32:36Z</time>
      </trkpt>
      <trkpt lat="47.74951" lon="6.0607">
        <ele>211</ele>
        <time>2018-12-05T09:32:38Z</time>
      </trkpt>
      <trkpt lat="47.74956" lon="6.06075">
        <ele>211</ele>
        <time>2018-12-05T09:32:40Z</time>
      </trkpt>
      <trkpt lat="47.74961" lon="6.0608">
        <ele>211</ele>
        <time>2018-12-05T09:32:42Z</time>
      </trkpt>
      <trkpt lat="47.74968" lon="6.06085">
        <ele>211</ele>
        <time>2018-12-05T09:32:43Z</time>
      </trkpt>
      <trkpt lat="47.74975" lon="6.06091">
        <ele>211</ele>
        <time>2018-12-05T09:32:45Z</time>
      </trkpt>
      <trkpt lat="47.74981" lon="6.06097">
        <ele>211</ele>
        <time>2018-12-05T09:32:47Z</time>
      </trkpt>
      <trkpt lat="47.74988" lon="6.06104">
        <ele>211</ele>
        <time>2018-12-05T09:32:49Z</time>
      </trkpt>
      <trkpt lat="47.74995" lon="6.06111">
        <ele>211</ele>
        <time>2018-12-05T09:32:51Z</time>
      </trkpt>
      <trkpt lat="47.75003" lon="6.06117">
        <ele>212</ele>
        <time>2018-12-05T09:32:53Z</time>
      </trkpt>
      <trkpt lat="47.7501" lon="6.06123">
        <ele>211</ele>
        <time>2018-12-05T09:32:55Z</time>
      </trkpt>
      <trkpt lat="47.75018" lon="6.06129">
        <ele>211</ele>
        <time>2018-12-05T09:32:57Z</time>
      </trkpt>
      <trkpt lat="47.75025" lon="6.06135">
        <ele>211</ele>
        <time>2018-12-05T09:32:59Z</time>
      </trkpt>
      <trkpt lat="47.75031" lon="6.06139">
        <ele>211</ele>
        <time>2018-12-05T09:33:01Z</time>
      </trkpt>
      <trkpt lat="47.75037" lon="6.06144">
        <ele>211</ele>
        <time>2018-12-05T09:33:03Z</time>
      </trkpt>
      <trkpt lat="47.75043" lon="6.06149">
        <ele>211</ele>
        <time>2018-12-05T09:33:05Z</time>
      </trkpt>
      <trkpt lat="47.75049" lon="6.06155">
        <ele>211</ele>
        <time>2018-12-05T09:33:07Z</time>
      </trkpt>
      <trkpt lat="47.75054" lon="6.06158">
        <ele>211</ele>
        <time>2018-12-05T09:33:09Z</time>
      </trkpt>
      <trkpt lat="47.7506" lon="6.06161">
        <ele>211</ele>
        <time>2018-12-05T09:33:12Z</time>
      </trkpt>
      <trkpt lat="47.75064" lon="6.06163">
        <ele>211</ele>
        <time>2018-12-05T09:33:14Z</time>
      </trkpt>
      <trkpt lat="47.7507" lon="6.06163">
        <ele>211</ele>
        <time>2018-12-05T09:33:16Z</time>
      </trkpt>
      <trkpt lat="47.75075" lon="6.06165">
        <ele>211</ele>
        <time>2018-12-05T09:33:19Z</time>
      </trkpt>
      <trkpt lat="47.75073" lon="6.06172">
        <ele>211</ele>
        <time>2018-12-05T09:34:15Z</time>
      </trkpt>
      <trkpt lat="47.75078" lon="6.06174">
        <ele>211</ele>
        <time>2018-12-05T09:34:42Z</time>
      </trkpt>
      <trkpt lat="47.75082" lon="6.06174">
        <ele>211</ele>
        <time>2018-12-05T09:34:49Z</time>
      </trkpt>
      <trkpt lat="47.75082" lon="6.06181">
        <ele>211</ele>
        <time>2018-12-05T09:40:24Z</time>
      </trkpt>
      <trkpt lat="47.75077" lon="6.06182">
        <ele>211</ele>
        <time>2018-12-05T09:42:18Z</time>
      </trkpt>
      <trkpt lat="47.75076" lon="6.06175">
        <ele>211</ele>
        <time>2018-12-05T09:42:48Z</time>
      </trkpt>
      <trkpt lat="47.75077" lon="6.06168">
        <ele>211</ele>
        <time>2018-12-05T09:42:54Z</time>
      </trkpt>
      <trkpt lat="47.75077" lon="6.06161">
        <ele>211</ele>
        <time>2018-12-05T09:43:08Z</time>
      </trkpt>
      <trkpt lat="47.75079" lon="6.06154">
        <ele>211</ele>
        <time>2018-12-05T09:44:02Z</time>
      </trkpt>
      <trkpt lat="47.75083" lon="6.06149">
        <ele>211</ele>
        <time>2018-12-05T09:44:05Z</time>
      </trkpt>
      <trkpt lat="47.75086" lon="6.06143">
        <ele>211</ele>
        <time>2018-12-05T09:44:07Z</time>
      </trkpt>
      <trkpt lat="47.75089" lon="6.06137">
        <ele>211</ele>
        <time>2018-12-05T09:44:09Z</time>
      </trkpt>
      <trkpt lat="47.75092" lon="6.06129">
        <ele>212</ele>
        <time>2018-12-05T09:44:13Z</time>
      </trkpt>
      <trkpt lat="47.75094" lon="6.06121">
        <ele>211</ele>
        <time>2018-12-05T09:44:16Z</time>
      </trkpt>
      <trkpt lat="47.75096" lon="6.06112">
        <ele>211</ele>
        <time>2018-12-05T09:44:19Z</time>
      </trkpt>
      <trkpt lat="47.75099" lon="6.06104">
        <ele>211</ele>
        <time>2018-12-05T09:44:22Z</time>
      </trkpt>
      <trkpt lat="47.75103" lon="6.06097">
        <ele>211</ele>
        <time>2018-12-05T09:44:25Z</time>
      </trkpt>
      <trkpt lat="47.75108" lon="6.06091">
        <ele>211</ele>
        <time>2018-12-05T09:44:27Z</time>
      </trkpt>
      <trkpt lat="47.75111" lon="6.06084">
        <ele>212</ele>
        <time>2018-12-05T09:44:29Z</time>
      </trkpt>
      <trkpt lat="47.75115" lon="6.06077">
        <ele>213</ele>
        <time>2018-12-05T09:44:31Z</time>
      </trkpt>
      <trkpt lat="47.75118" lon="6.06069">
        <ele>213</ele>
        <time>2018-12-05T09:44:33Z</time>
      </trkpt>
      <trkpt lat="47.75122" lon="6.06062">
        <ele>213</ele>
        <time>2018-12-05T09:44:35Z</time>
      </trkpt>
      <trkpt lat="47.75126" lon="6.06054">
        <ele>214</ele>
        <time>2018-12-05T09:44:37Z</time>
      </trkpt>
      <trkpt lat="47.75129" lon="6.06045">
        <ele>214</ele>
        <time>2018-12-05T09:44:39Z</time>
      </trkpt>
      <trkpt lat="47.75132" lon="6.06038">
        <ele>214</ele>
        <time>2018-12-05T09:44:41Z</time>
      </trkpt>
      <trkpt lat="47.75132" lon="6.0603">
        <ele>214</ele>
        <time>2018-12-05T09:44:44Z</time>
      </trkpt>
      <trkpt lat="47.75131" lon="6.06022">
        <ele>214</ele>
        <time>2018-12-05T09:44:46Z</time>
      </trkpt>
      <trkpt lat="47.75128" lon="6.06014">
        <ele>214</ele>
        <time>2018-12-05T09:44:48Z</time>
      </trkpt>
      <trkpt lat="47.75123" lon="6.06004">
        <ele>214</ele>
        <time>2018-12-05T09:44:50Z</time>
      </trkpt>
      <trkpt lat="47.75117" lon="6.05994">
        <ele>216</ele>
        <time>2018-12-05T09:44:52Z</time>
      </trkpt>
      <trkpt lat="47.75114" lon="6.05988">
        <ele>216</ele>
        <time>2018-12-05T09:44:53Z</time>
      </trkpt>
      <trkpt lat="47.7511" lon="6.0598">
        <ele>216</ele>
        <time>2018-12-05T09:44:54Z</time>
      </trkpt>
      <trkpt lat="47.75104" lon="6.05971">
        <ele>216</ele>
        <time>2018-12-05T09:44:56Z</time>
      </trkpt>
      <trkpt lat="47.751" lon="6.05966">
        <ele>217</ele>
        <time>2018-12-05T09:44:57Z</time>
      </trkpt>
      <trkpt lat="47.75095" lon="6.05958">
        <ele>217</ele>
        <time>2018-12-05T09:44:59Z</time>
      </trkpt>
      <trkpt lat="47.75092" lon="6.05953">
        <ele>217</ele>
        <time>2018-12-05T09:45:00Z</time>
      </trkpt>
      <trkpt lat="47.75089" lon="6.05947">
        <ele>217</ele>
        <time>2018-12-05T09:45:01Z</time>
      </trkpt>
      <trkpt lat="47.75083" lon="6.05938">
        <ele>217</ele>
        <time>2018-12-05T09:45:02Z</time>
      </trkpt>
      <trkpt lat="47.75079" lon="6.05932">
        <ele>215</ele>
        <time>2018-12-05T09:45:03Z</time>
      </trkpt>
      <trkpt lat="47.7507" lon="6.05921">
        <ele>215</ele>
        <time>2018-12-05T09:45:04Z</time>
      </trkpt>
      <trkpt lat="47.75067" lon="6.05914">
        <ele>217</ele>
        <time>2018-12-05T09:45:05Z</time>
      </trkpt>
      <trkpt lat="47.75063" lon="6.05907">
        <ele>217</ele>
        <time>2018-12-05T09:45:06Z</time>
      </trkpt>
      <trkpt lat="47.75059" lon="6.059">
        <ele>217</ele>
        <time>2018-12-05T09:45:07Z</time>
      </trkpt>
      <trkpt lat="47.75054" lon="6.05893">
        <ele>217</ele>
        <time>2018-12-05T09:45:08Z</time>
      </trkpt>
      <trkpt lat="47.75049" lon="6.05886">
        <ele>217</ele>
        <time>2018-12-05T09:45:09Z</time>
      </trkpt>
      <trkpt lat="47.75044" lon="6.05879">
        <ele>217</ele>
        <time>2018-12-05T09:45:10Z</time>
      </trkpt>
      <trkpt lat="47.75041" lon="6.05874">
        <ele>216</ele>
        <time>2018-12-05T09:45:11Z</time>
      </trkpt>
      <trkpt lat="47.75037" lon="6.0587">
        <ele>216</ele>
        <time>2018-12-05T09:45:12Z</time>
      </trkpt>
      <trkpt lat="47.75033" lon="6.05863">
        <ele>216</ele>
        <time>2018-12-05T09:45:13Z</time>
      </trkpt>
      <trkpt lat="47.75029" lon="6.05857">
        <ele>216</ele>
        <time>2018-12-05T09:45:14Z</time>
      </trkpt>
      <trkpt lat="47.75026" lon="6.05849">
        <ele>216</ele>
        <time>2018-12-05T09:45:15Z</time>
      </trkpt>
      <trkpt lat="47.75022" lon="6.05843">
        <ele>216</ele>
        <time>2018-12-05T09:45:16Z</time>
      </trkpt>
      <trkpt lat="47.75018" lon="6.05836">
        <ele>216</ele>
        <time>2018-12-05T09:45:17Z</time>
      </trkpt>
      <trkpt lat="47.75014" lon="6.05829">
        <ele>217</ele>
        <time>2018-12-05T09:45:18Z</time>
      </trkpt>
      <trkpt lat="47.7501" lon="6.05822">
        <ele>217</ele>
        <time>2018-12-05T09:45:19Z</time>
      </trkpt>
      <trkpt lat="47.75006" lon="6.05815">
        <ele>217</ele>
        <time>2018-12-05T09:45:20Z</time>
      </trkpt>
      <trkpt lat="47.75002" lon="6.0581">
        <ele>217</ele>
        <time>2018-12-05T09:45:21Z</time>
      </trkpt>
      <trkpt lat="47.74999" lon="6.05803">
        <ele>215</ele>
        <time>2018-12-05T09:45:22Z</time>
      </trkpt>
      <trkpt lat="47.74995" lon="6.05797">
        <ele>215</ele>
        <time>2018-12-05T09:45:23Z</time>
      </trkpt>
      <trkpt lat="47.74991" lon="6.05791">
        <ele>215</ele>
        <time>2018-12-05T09:45:24Z</time>
      </trkpt>
      <trkpt lat="47.74988" lon="6.05786">
        <ele>215</ele>
        <time>2018-12-05T09:45:25Z</time>
      </trkpt>
      <trkpt lat="47.74983" lon="6.05778">
        <ele>215</ele>
        <time>2018-12-05T09:45:27Z</time>
      </trkpt>
      <trkpt lat="47.74976" lon="6.05769">
        <ele>215</ele>
        <time>2018-12-05T09:45:29Z</time>
      </trkpt>
      <trkpt lat="47.74971" lon="6.05763">
        <ele>215</ele>
        <time>2018-12-05T09:45:30Z</time>
      </trkpt>
      <trkpt lat="47.74966" lon="6.05757">
        <ele>215</ele>
        <time>2018-12-05T09:45:31Z</time>
      </trkpt>
      <trkpt lat="47.74964" lon="6.0575">
        <ele>215</ele>
        <time>2018-12-05T09:45:32Z</time>
      </trkpt>
      <trkpt lat="47.74958" lon="6.05741">
        <ele>216</ele>
        <time>2018-12-05T09:45:34Z</time>
      </trkpt>
      <trkpt lat="47.74952" lon="6.05731">
        <ele>216</ele>
        <time>2018-12-05T09:45:36Z</time>
      </trkpt>
      <trkpt lat="47.74948" lon="6.05726">
        <ele>216</ele>
        <time>2018-12-05T09:45:37Z</time>
      </trkpt>
      <trkpt lat="47.74944" lon="6.05722">
        <ele>215</ele>
        <time>2018-12-05T09:45:38Z</time>
      </trkpt>
      <trkpt lat="47.74939" lon="6.05713">
        <ele>215</ele>
        <time>2018-12-05T09:45:40Z</time>
      </trkpt>
      <trkpt lat="47.74934" lon="6.05703">
        <ele>215</ele>
        <time>2018-12-05T09:45:42Z</time>
      </trkpt>
      <trkpt lat="47.74928" lon="6.05695">
        <ele>215</ele>
        <time>2018-12-05T09:45:44Z</time>
      </trkpt>
      <trkpt lat="47.74923" lon="6.05688">
        <ele>215</ele>
        <time>2018-12-05T09:45:46Z</time>
      </trkpt>
      <trkpt lat="47.74919" lon="6.05684">
        <ele>215</ele>
        <time>2018-12-05T09:45:48Z</time>
      </trkpt>
      <trkpt lat="47.74919" lon="6.05677">
        <ele>215</ele>
        <time>2018-12-05T09:45:50Z</time>
      </trkpt>
      <trkpt lat="47.7492" lon="6.05669">
        <ele>214</ele>
        <time>2018-12-05T09:45:52Z</time>
      </trkpt>
      <trkpt lat="47.74922" lon="6.05661">
        <ele>215</ele>
        <time>2018-12-05T09:45:54Z</time>
      </trkpt>
      <trkpt lat="47.74925" lon="6.05654">
        <ele>215</ele>
        <time>2018-12-05T09:45:56Z</time>
      </trkpt>
      <trkpt lat="47.74927" lon="6.05647">
        <ele>216</ele>
        <time>2018-12-05T09:45:58Z</time>
      </trkpt>
      <trkpt lat="47.7493" lon="6.05639">
        <ele>216</ele>
        <time>2018-12-05T09:46:00Z</time>
      </trkpt>
      <trkpt lat="47.74934" lon="6.05629">
        <ele>216</ele>
        <time>2018-12-05T09:46:02Z</time>
      </trkpt>
      <trkpt lat="47.74937" lon="6.0562">
        <ele>216</ele>
        <time>2018-12-05T09:46:04Z</time>
      </trkpt>
      <trkpt lat="47.7494" lon="6.05611">
        <ele>216</ele>
        <time>2018-12-05T09:46:06Z</time>
      </trkpt>
      <trkpt lat="47.74943" lon="6.05601">
        <ele>216</ele>
        <time>2018-12-05T09:46:08Z</time>
      </trkpt>
      <trkpt lat="47.74945" lon="6.05592">
        <ele>216</ele>
        <time>2018-12-05T09:46:10Z</time>
      </trkpt>
      <trkpt lat="47.74949" lon="6.05582">
        <ele>215</ele>
        <time>2018-12-05T09:46:12Z</time>
      </trkpt>
      <trkpt lat="47.74952" lon="6.05575">
        <ele>215</ele>
        <time>2018-12-05T09:46:14Z</time>
      </trkpt>
      <trkpt lat="47.74955" lon="6.05568">
        <ele>215</ele>
        <time>2018-12-05T09:46:16Z</time>
      </trkpt>
      <trkpt lat="47.74958" lon="6.05561">
        <ele>215</ele>
        <time>2018-12-05T09:46:18Z</time>
      </trkpt>
      <trkpt lat="47.74962" lon="6.05554">
        <ele>215</ele>
        <time>2018-12-05T09:46:20Z</time>
      </trkpt>
      <trkpt lat="47.74966" lon="6.05547">
        <ele>215</ele>
        <time>2018-12-05T09:46:22Z</time>
      </trkpt>
      <trkpt lat="47.7497" lon="6.0554">
        <ele>215</ele>
        <time>2018-12-05T09:46:24Z</time>
      </trkpt>
      <trkpt lat="47.74974" lon="6.05532">
        <ele>216</ele>
        <time>2018-12-05T09:46:26Z</time>
      </trkpt>
      <trkpt lat="47.74978" lon="6.05523">
        <ele>216</ele>
        <time>2018-12-05T09:46:28Z</time>
      </trkpt>
      <trkpt lat="47.74982" lon="6.05512">
        <ele>216</ele>
        <time>2018-12-05T09:46:30Z</time>
      </trkpt>
      <trkpt lat="47.74987" lon="6.05504">
        <ele>216</ele>
        <time>2018-12-05T09:46:32Z</time>
      </trkpt>
      <trkpt lat="47.7499" lon="6.05495">
        <ele>215</ele>
        <time>2018-12-05T09:46:34Z</time>
      </trkpt>
      <trkpt lat="47.74994" lon="6.05485">
        <ele>215</ele>
        <time>2018-12-05T09:46:36Z</time>
      </trkpt>
      <trkpt lat="47.74997" lon="6.05477">
        <ele>214</ele>
        <time>2018-12-05T09:46:38Z</time>
      </trkpt>
      <trkpt lat="47.75" lon="6.05468">
        <ele>217</ele>
        <time>2018-12-05T09:46:40Z</time>
      </trkpt>
      <trkpt lat="47.75003" lon="6.05458">
        <ele>217</ele>
        <time>2018-12-05T09:46:42Z</time>
      </trkpt>
      <trkpt lat="47.75006" lon="6.05446">
        <ele>217</ele>
        <time>2018-12-05T09:46:44Z</time>
      </trkpt>
      <trkpt lat="47.75009" lon="6.05439">
        <ele>216</ele>
        <time>2018-12-05T09:46:45Z</time>
      </trkpt>
      <trkpt lat="47.75013" lon="6.05429">
        <ele>216</ele>
        <time>2018-12-05T09:46:47Z</time>
      </trkpt>
      <trkpt lat="47.75018" lon="6.05419">
        <ele>216</ele>
        <time>2018-12-05T09:46:49Z</time>
      </trkpt>
      <trkpt lat="47.75022" lon="6.05408">
        <ele>215</ele>
        <time>2018-12-05T09:46:51Z</time>
      </trkpt>
      <trkpt lat="47.75027" lon="6.05397">
        <ele>215</ele>
        <time>2018-12-05T09:46:53Z</time>
      </trkpt>
      <trkpt lat="47.75029" lon="6.05391">
        <ele>215</ele>
        <time>2018-12-05T09:46:54Z</time>
      </trkpt>
      <trkpt lat="47.75032" lon="6.05386">
        <ele>215</ele>
        <time>2018-12-05T09:46:55Z</time>
      </trkpt>
      <trkpt lat="47.75036" lon="6.05375">
        <ele>216</ele>
        <time>2018-12-05T09:46:57Z</time>
      </trkpt>
      <trkpt lat="47.75044" lon="6.05359">
        <ele>216</ele>
        <time>2018-12-05T09:46:59Z</time>
      </trkpt>
      <trkpt lat="47.75048" lon="6.05348">
        <ele>216</ele>
        <time>2018-12-05T09:47:01Z</time>
      </trkpt>
      <trkpt lat="47.75053" lon="6.05337">
        <ele>216</ele>
        <time>2018-12-05T09:47:03Z</time>
      </trkpt>
      <trkpt lat="47.75058" lon="6.05327">
        <ele>215</ele>
        <time>2018-12-05T09:47:05Z</time>
      </trkpt>
      <trkpt lat="47.75063" lon="6.05317">
        <ele>215</ele>
        <time>2018-12-05T09:47:07Z</time>
      </trkpt>
      <trkpt lat="47.75069" lon="6.05307">
        <ele>215</ele>
        <time>2018-12-05T09:47:09Z</time>
      </trkpt>
      <trkpt lat="47.75072" lon="6.05301">
        <ele>215</ele>
        <time>2018-12-05T09:47:10Z</time>
      </trkpt>
      <trkpt lat="47.75075" lon="6.05295">
        <ele>215</ele>
        <time>2018-12-05T09:47:11Z</time>
      </trkpt>
      <trkpt lat="47.75079" lon="6.05285">
        <ele>214</ele>
        <time>2018-12-05T09:47:13Z</time>
      </trkpt>
      <trkpt lat="47.75084" lon="6.05276">
        <ele>218</ele>
        <time>2018-12-05T09:47:15Z</time>
      </trkpt>
      <trkpt lat="47.75087" lon="6.05271">
        <ele>217</ele>
        <time>2018-12-05T09:47:16Z</time>
      </trkpt>
      <trkpt lat="47.75091" lon="6.05261">
        <ele>217</ele>
        <time>2018-12-05T09:47:18Z</time>
      </trkpt>
      <trkpt lat="47.75095" lon="6.05252">
        <ele>217</ele>
        <time>2018-12-05T09:47:20Z</time>
      </trkpt>
      <trkpt lat="47.751" lon="6.05243">
        <ele>216</ele>
        <time>2018-12-05T09:47:22Z</time>
      </trkpt>
      <trkpt lat="47.75104" lon="6.05233">
        <ele>217</ele>
        <time>2018-12-05T09:47:24Z</time>
      </trkpt>
      <trkpt lat="47.75109" lon="6.05222">
        <ele>217</ele>
        <time>2018-12-05T09:47:26Z</time>
      </trkpt>
      <trkpt lat="47.75112" lon="6.05216">
        <ele>217</ele>
        <time>2018-12-05T09:47:27Z</time>
      </trkpt>
      <trkpt lat="47.75117" lon="6.05206">
        <ele>217</ele>
        <time>2018-12-05T09:47:29Z</time>
      </trkpt>
      <trkpt lat="47.7512" lon="6.05201">
        <ele>217</ele>
        <time>2018-12-05T09:47:30Z</time>
      </trkpt>
      <trkpt lat="47.75125" lon="6.05191">
        <ele>217</ele>
        <time>2018-12-05T09:47:32Z</time>
      </trkpt>
      <trkpt lat="47.75128" lon="6.05185">
        <ele>217</ele>
        <time>2018-12-05T09:47:33Z</time>
      </trkpt>
      <trkpt lat="47.75131" lon="6.05179">
        <ele>217</ele>
        <time>2018-12-05T09:47:34Z</time>
      </trkpt>
      <trkpt lat="47.75134" lon="6.05173">
        <ele>218</ele>
        <time>2018-12-05T09:47:35Z</time>
      </trkpt>
      <trkpt lat="47.75137" lon="6.05167">
        <ele>216</ele>
        <time>2018-12-05T09:47:36Z</time>
      </trkpt>
      <trkpt lat="47.7514" lon="6.05161">
        <ele>216</ele>
        <time>2018-12-05T09:47:37Z</time>
      </trkpt>
      <trkpt lat="47.75145" lon="6.0515">
        <ele>216</ele>
        <time>2018-12-05T09:47:39Z</time>
      </trkpt>
      <trkpt lat="47.7515" lon="6.05139">
        <ele>216</ele>
        <time>2018-12-05T09:47:41Z</time>
      </trkpt>
      <trkpt lat="47.75155" lon="6.05127">
        <ele>216</ele>
        <time>2018-12-05T09:47:43Z</time>
      </trkpt>
      <trkpt lat="47.75158" lon="6.05122">
        <ele>216</ele>
        <time>2018-12-05T09:47:44Z</time>
      </trkpt>
      <trkpt lat="47.75163" lon="6.05111">
        <ele>216</ele>
        <time>2018-12-05T09:47:46Z</time>
      </trkpt>
      <trkpt lat="47.75168" lon="6.05102">
        <ele>217</ele>
        <time>2018-12-05T09:47:48Z</time>
      </trkpt>
      <trkpt lat="47.75172" lon="6.05093">
        <ele>216</ele>
        <time>2018-12-05T09:47:50Z</time>
      </trkpt>
      <trkpt lat="47.75177" lon="6.05083">
        <ele>216</ele>
        <time>2018-12-05T09:47:52Z</time>
      </trkpt>
      <trkpt lat="47.75182" lon="6.05075">
        <ele>214</ele>
        <time>2018-12-05T09:47:54Z</time>
      </trkpt>
      <trkpt lat="47.75186" lon="6.05067">
        <ele>214</ele>
        <time>2018-12-05T09:47:56Z</time>
      </trkpt>
      <trkpt lat="47.7519" lon="6.05058">
        <ele>214</ele>
        <time>2018-12-05T09:47:58Z</time>
      </trkpt>
      <trkpt lat="47.75193" lon="6.05052">
        <ele>213</ele>
        <time>2018-12-05T09:47:59Z</time>
      </trkpt>
      <trkpt lat="47.75198" lon="6.05042">
        <ele>213</ele>
        <time>2018-12-05T09:48:01Z</time>
      </trkpt>
      <trkpt lat="47.75201" lon="6.05037">
        <ele>213</ele>
        <time>2018-12-05T09:48:02Z</time>
      </trkpt>
      <trkpt lat="47.75205" lon="6.05029">
        <ele>213</ele>
        <time>2018-12-05T09:48:04Z</time>
      </trkpt>
      <trkpt lat="47.75207" lon="6.05022">
        <ele>213</ele>
        <time>2018-12-05T09:48:06Z</time>
      </trkpt>
      <trkpt lat="47.7521" lon="6.05015">
        <ele>212</ele>
        <time>2018-12-05T09:48:08Z</time>
      </trkpt>
      <trkpt lat="47.75214" lon="6.05006">
        <ele>212</ele>
        <time>2018-12-05T09:48:10Z</time>
      </trkpt>
      <trkpt lat="47.75216" lon="6.05">
        <ele>212</ele>
        <time>2018-12-05T09:48:11Z</time>
      </trkpt>
      <trkpt lat="47.7522" lon="6.04991">
        <ele>211</ele>
        <time>2018-12-05T09:48:13Z</time>
      </trkpt>
      <trkpt lat="47.75223" lon="6.04981">
        <ele>211</ele>
        <time>2018-12-05T09:48:15Z</time>
      </trkpt>
      <trkpt lat="47.75225" lon="6.04972">
        <ele>211</ele>
        <time>2018-12-05T09:48:17Z</time>
      </trkpt>
      <trkpt lat="47.75228" lon="6.04963">
        <ele>211</ele>
        <time>2018-12-05T09:48:19Z</time>
      </trkpt>
      <trkpt lat="47.75231" lon="6.04954">
        <ele>211</ele>
        <time>2018-12-05T09:48:21Z</time>
      </trkpt>
      <trkpt lat="47.75233" lon="6.04944">
        <ele>211</ele>
        <time>2018-12-05T09:48:23Z</time>
      </trkpt>
      <trkpt lat="47.75236" lon="6.04933">
        <ele>211</ele>
        <time>2018-12-05T09:48:25Z</time>
      </trkpt>
      <trkpt lat="47.75237" lon="6.04925">
        <ele>212</ele>
        <time>2018-12-05T09:48:27Z</time>
      </trkpt>
      <trkpt lat="47.75235" lon="6.04919">
        <ele>212</ele>
        <time>2018-12-05T09:48:29Z</time>
      </trkpt>
      <trkpt lat="47.75228" lon="6.04916">
        <ele>212</ele>
        <time>2018-12-05T09:48:32Z</time>
      </trkpt>
      <trkpt lat="47.75221" lon="6.04916">
        <ele>212</ele>
        <time>2018-12-05T09:48:34Z</time>
      </trkpt>
      <trkpt lat="47.75216" lon="6.04918">
        <ele>211</ele>
        <time>2018-12-05T09:48:36Z</time>
      </trkpt>
      <trkpt lat="47.7521" lon="6.04919">
        <ele>211</ele>
        <time>2018-12-05T09:48:38Z</time>
      </trkpt>
      <trkpt lat="47.75203" lon="6.04922">
        <ele>211</ele>
        <time>2018-12-05T09:48:40Z</time>
      </trkpt>
      <trkpt lat="47.75196" lon="6.04925">
        <ele>211</ele>
        <time>2018-12-05T09:48:42Z</time>
      </trkpt>
      <trkpt lat="47.75189" lon="6.04927">
        <ele>211</ele>
        <time>2018-12-05T09:48:44Z</time>
      </trkpt>
      <trkpt lat="47.75181" lon="6.04929">
        <ele>211</ele>
        <time>2018-12-05T09:48:46Z</time>
      </trkpt>
      <trkpt lat="47.75173" lon="6.0493">
        <ele>211</ele>
        <time>2018-12-05T09:48:48Z</time>
      </trkpt>
      <trkpt lat="47.75169" lon="6.04931">
        <ele>211</ele>
        <time>2018-12-05T09:48:49Z</time>
      </trkpt>
      <trkpt lat="47.75164" lon="6.04932">
        <ele>211</ele>
        <time>2018-12-05T09:48:50Z</time>
      </trkpt>
      <trkpt lat="47.75159" lon="6.04933">
        <ele>211</ele>
        <time>2018-12-05T09:48:51Z</time>
      </trkpt>
      <trkpt lat="47.75151" lon="6.04935">
        <ele>211</ele>
        <time>2018-12-05T09:48:53Z</time>
      </trkpt>
      <trkpt lat="47.75144" lon="6.04937">
        <ele>211</ele>
        <time>2018-12-05T09:48:55Z</time>
      </trkpt>
      <trkpt lat="47.75137" lon="6.0494">
        <ele>211</ele>
        <time>2018-12-05T09:48:57Z</time>
      </trkpt>
      <trkpt lat="47.7513" lon="6.04941">
        <ele>211</ele>
        <time>2018-12-05T09:48:59Z</time>
      </trkpt>
      <trkpt lat="47.75123" lon="6.04942">
        <ele>211</ele>
        <time>2018-12-05T09:49:01Z</time>
      </trkpt>
      <trkpt lat="47.75115" lon="6.04944">
        <ele>211</ele>
        <time>2018-12-05T09:49:03Z</time>
      </trkpt>
      <trkpt lat="47.75107" lon="6.04945">
        <ele>211</ele>
        <time>2018-12-05T09:49:05Z</time>
      </trkpt>
      <trkpt lat="47.75099" lon="6.04947">
        <ele>211</ele>
        <time>2018-12-05T09:49:07Z</time>
      </trkpt>
      <trkpt lat="47.75092" lon="6.04949">
        <ele>211</ele>
        <time>2018-12-05T09:49:09Z</time>
      </trkpt>
      <trkpt lat="47.75085" lon="6.0495">
        <ele>211</ele>
        <time>2018-12-05T09:49:11Z</time>
      </trkpt>
      <trkpt lat="47.75078" lon="6.04952">
        <ele>212</ele>
        <time>2018-12-05T09:49:13Z</time>
      </trkpt>
      <trkpt lat="47.75071" lon="6.04953">
        <ele>212</ele>
        <time>2018-12-05T09:49:15Z</time>
      </trkpt>
      <trkpt lat="47.75064" lon="6.04955">
        <ele>212</ele>
        <time>2018-12-05T09:49:17Z</time>
      </trkpt>
      <trkpt lat="47.75056" lon="6.04956">
        <ele>212</ele>
        <time>2018-12-05T09:49:19Z</time>
      </trkpt>
      <trkpt lat="47.75048" lon="6.04958">
        <ele>212</ele>
        <time>2018-12-05T09:49:21Z</time>
      </trkpt>
      <trkpt lat="47.7504" lon="6.04959">
        <ele>212</ele>
        <time>2018-12-05T09:49:23Z</time>
      </trkpt>
      <trkpt lat="47.75033" lon="6.04961">
        <ele>212</ele>
        <time>2018-12-05T09:49:25Z</time>
      </trkpt>
      <trkpt lat="47.75024" lon="6.04964">
        <ele>213</ele>
        <time>2018-12-05T09:49:27Z</time>
      </trkpt>
      <trkpt lat="47.75014" lon="6.04966">
        <ele>213</ele>
        <time>2018-12-05T09:49:29Z</time>
      </trkpt>
      <trkpt lat="47.75006" lon="6.04967">
        <ele>213</ele>
        <time>2018-12-05T09:49:31Z</time>
      </trkpt>
      <trkpt lat="47.74998" lon="6.04968">
        <ele>214</ele>
        <time>2018-12-05T09:49:33Z</time>
      </trkpt>
      <trkpt lat="47.74993" lon="6.04969">
        <ele>214</ele>
        <time>2018-12-05T09:49:34Z</time>
      </trkpt>
      <trkpt lat="47.74986" lon="6.04969">
        <ele>214</ele>
        <time>2018-12-05T09:49:36Z</time>
      </trkpt>
      <trkpt lat="47.7498" lon="6.0497">
        <ele>214</ele>
        <time>2018-12-05T09:49:38Z</time>
      </trkpt>
      <trkpt lat="47.74973" lon="6.04971">
        <ele>214</ele>
        <time>2018-12-05T09:49:40Z</time>
      </trkpt>
      <trkpt lat="47.74965" lon="6.04974">
        <ele>214</ele>
        <time>2018-12-05T09:49:42Z</time>
      </trkpt>
      <trkpt lat="47.74958" lon="6.04976">
        <ele>214</ele>
        <time>2018-12-05T09:49:44Z</time>
      </trkpt>
      <trkpt lat="47.74951" lon="6.04978">
        <ele>214</ele>
        <time>2018-12-05T09:49:46Z</time>
      </trkpt>
      <trkpt lat="47.74945" lon="6.0498">
        <ele>214</ele>
        <time>2018-12-05T09:49:48Z</time>
      </trkpt>
      <trkpt lat="47.74937" lon="6.04982">
        <ele>214</ele>
        <time>2018-12-05T09:49:50Z</time>
      </trkpt>
      <trkpt lat="47.74929" lon="6.04983">
        <ele>214</ele>
        <time>2018-12-05T09:49:52Z</time>
      </trkpt>
      <trkpt lat="47.74921" lon="6.04985">
        <ele>214</ele>
        <time>2018-12-05T09:49:54Z</time>
      </trkpt>
      <trkpt lat="47.74913" lon="6.04984">
        <ele>214</ele>
        <time>2018-12-05T09:49:56Z</time>
      </trkpt>
      <trkpt lat="47.74909" lon="6.04984">
        <ele>213</ele>
        <time>2018-12-05T09:49:57Z</time>
      </trkpt>
      <trkpt lat="47.74902" lon="6.04987">
        <ele>213</ele>
        <time>2018-12-05T09:49:59Z</time>
      </trkpt>
      <trkpt lat="47.74895" lon="6.04988">
        <ele>213</ele>
        <time>2018-12-05T09:50:01Z</time>
      </trkpt>
      <trkpt lat="47.74884" lon="6.0499">
        <ele>213</ele>
        <time>2018-12-05T09:50:03Z</time>
      </trkpt>
      <trkpt lat="47.7488" lon="6.04991">
        <ele>213</ele>
        <time>2018-12-05T09:50:04Z</time>
      </trkpt>
      <trkpt lat="47.74871" lon="6.04993">
        <ele>213</ele>
        <time>2018-12-05T09:50:06Z</time>
      </trkpt>
      <trkpt lat="47.74858" lon="6.04996">
        <ele>213</ele>
        <time>2018-12-05T09:50:08Z</time>
      </trkpt>
      <trkpt lat="47.7485" lon="6.04998">
        <ele>213</ele>
        <time>2018-12-05T09:50:10Z</time>
      </trkpt>
      <trkpt lat="47.74846" lon="6.04999">
        <ele>212</ele>
        <time>2018-12-05T09:50:11Z</time>
      </trkpt>
      <trkpt lat="47.7484" lon="6.04998">
        <ele>212</ele>
        <time>2018-12-05T09:50:12Z</time>
      </trkpt>
      <trkpt lat="47.74835" lon="6.05">
        <ele>212</ele>
        <time>2018-12-05T09:50:13Z</time>
      </trkpt>
      <trkpt lat="47.74831" lon="6.05002">
        <ele>212</ele>
        <time>2018-12-05T09:50:14Z</time>
      </trkpt>
      <trkpt lat="47.74826" lon="6.05004">
        <ele>212</ele>
        <time>2018-12-05T09:50:15Z</time>
      </trkpt>
      <trkpt lat="47.74821" lon="6.05006">
        <ele>212</ele>
        <time>2018-12-05T09:50:16Z</time>
      </trkpt>
      <trkpt lat="47.74816" lon="6.05006">
        <ele>212</ele>
        <time>2018-12-05T09:50:17Z</time>
      </trkpt>
      <trkpt lat="47.74808" lon="6.05008">
        <ele>212</ele>
        <time>2018-12-05T09:50:19Z</time>
      </trkpt>
      <trkpt lat="47.74803" lon="6.05009">
        <ele>212</ele>
        <time>2018-12-05T09:50:20Z</time>
      </trkpt>
      <trkpt lat="47.74794" lon="6.05011">
        <ele>212</ele>
        <time>2018-12-05T09:50:22Z</time>
      </trkpt>
      <trkpt lat="47.74789" lon="6.05012">
        <ele>212</ele>
        <time>2018-12-05T09:50:23Z</time>
      </trkpt>
      <trkpt lat="47.7478" lon="6.05014">
        <ele>212</ele>
        <time>2018-12-05T09:50:25Z</time>
      </trkpt>
      <trkpt lat="47.74776" lon="6.05015">
        <ele>212</ele>
        <time>2018-12-05T09:50:26Z</time>
      </trkpt>
      <trkpt lat="47.74767" lon="6.05017">
        <ele>212</ele>
        <time>2018-12-05T09:50:28Z</time>
      </trkpt>
      <trkpt lat="47.74759" lon="6.05019">
        <ele>212</ele>
        <time>2018-12-05T09:50:30Z</time>
      </trkpt>
      <trkpt lat="47.74754" lon="6.05021">
        <ele>212</ele>
        <time>2018-12-05T09:50:31Z</time>
      </trkpt>
      <trkpt lat="47.74745" lon="6.05024">
        <ele>212</ele>
        <time>2018-12-05T09:50:33Z</time>
      </trkpt>
      <trkpt lat="47.74737" lon="6.05026">
        <ele>212</ele>
        <time>2018-12-05T09:50:35Z</time>
      </trkpt>
      <trkpt lat="47.74732" lon="6.05027">
        <ele>212</ele>
        <time>2018-12-05T09:50:36Z</time>
      </trkpt>
      <trkpt lat="47.74728" lon="6.05028">
        <ele>212</ele>
        <time>2018-12-05T09:50:37Z</time>
      </trkpt>
      <trkpt lat="47.74723" lon="6.05029">
        <ele>212</ele>
        <time>2018-12-05T09:50:38Z</time>
      </trkpt>
      <trkpt lat="47.74714" lon="6.05031">
        <ele>212</ele>
        <time>2018-12-05T09:50:40Z</time>
      </trkpt>
      <trkpt lat="47.74706" lon="6.05034">
        <ele>212</ele>
        <time>2018-12-05T09:50:42Z</time>
      </trkpt>
      <trkpt lat="47.74698" lon="6.05036">
        <ele>212</ele>
        <time>2018-12-05T09:50:44Z</time>
      </trkpt>
      <trkpt lat="47.7469" lon="6.05038">
        <ele>212</ele>
        <time>2018-12-05T09:50:46Z</time>
      </trkpt>
      <trkpt lat="47.74682" lon="6.0504">
        <ele>212</ele>
        <time>2018-12-05T09:50:48Z</time>
      </trkpt>
      <trkpt lat="47.74674" lon="6.05043">
        <ele>212</ele>
        <time>2018-12-05T09:50:50Z</time>
      </trkpt>
      <trkpt lat="47.74665" lon="6.05046">
        <ele>213</ele>
        <time>2018-12-05T09:50:52Z</time>
      </trkpt>
      <trkpt lat="47.74656" lon="6.05049">
        <ele>213</ele>
        <time>2018-12-05T09:50:54Z</time>
      </trkpt>
      <trkpt lat="47.74649" lon="6.05053">
        <ele>213</ele>
        <time>2018-12-05T09:50:56Z</time>
      </trkpt>
      <trkpt lat="47.7464" lon="6.05057">
        <ele>213</ele>
        <time>2018-12-05T09:50:58Z</time>
      </trkpt>
      <trkpt lat="47.74632" lon="6.05061">
        <ele>213</ele>
        <time>2018-12-05T09:51:00Z</time>
      </trkpt>
      <trkpt lat="47.74624" lon="6.05065">
        <ele>213</ele>
        <time>2018-12-05T09:51:02Z</time>
      </trkpt>
      <trkpt lat="47.74615" lon="6.05068">
        <ele>213</ele>
        <time>2018-12-05T09:51:04Z</time>
      </trkpt>
      <trkpt lat="47.74611" lon="6.05071">
        <ele>213</ele>
        <time>2018-12-05T09:51:05Z</time>
      </trkpt>
      <trkpt lat="47.74603" lon="6.05075">
        <ele>213</ele>
        <time>2018-12-05T09:51:07Z</time>
      </trkpt>
      <trkpt lat="47.74595" lon="6.05081">
        <ele>212</ele>
        <time>2018-12-05T09:51:09Z</time>
      </trkpt>
      <trkpt lat="47.74589" lon="6.05086">
        <ele>212</ele>
        <time>2018-12-05T09:51:11Z</time>
      </trkpt>
      <trkpt lat="47.74582" lon="6.05091">
        <ele>212</ele>
        <time>2018-12-05T09:51:13Z</time>
      </trkpt>
      <trkpt lat="47.74575" lon="6.05095">
        <ele>212</ele>
        <time>2018-12-05T09:51:15Z</time>
      </trkpt>
      <trkpt lat="47.74568" lon="6.05093">
        <ele>212</ele>
        <time>2018-12-05T09:51:17Z</time>
      </trkpt>
      <trkpt lat="47.74564" lon="6.05085">
        <ele>212</ele>
        <time>2018-12-05T09:51:20Z</time>
      </trkpt>
      <trkpt lat="47.74562" lon="6.05074">
        <ele>213</ele>
        <time>2018-12-05T09:51:21Z</time>
      </trkpt>
      <trkpt lat="47.74561" lon="6.05067">
        <ele>213</ele>
        <time>2018-12-05T09:51:22Z</time>
      </trkpt>
      <trkpt lat="47.7456" lon="6.05061">
        <ele>213</ele>
        <time>2018-12-05T09:51:23Z</time>
      </trkpt>
      <trkpt lat="47.74559" lon="6.05054">
        <ele>213</ele>
        <time>2018-12-05T09:51:24Z</time>
      </trkpt>
      <trkpt lat="47.74551" lon="6.05049">
        <ele>213</ele>
        <time>2018-12-05T09:51:26Z</time>
      </trkpt>
      <trkpt lat="47.74547" lon="6.05043">
        <ele>213</ele>
        <time>2018-12-05T09:51:28Z</time>
      </trkpt>
      <trkpt lat="47.74543" lon="6.05033">
        <ele>213</ele>
        <time>2018-12-05T09:51:30Z</time>
      </trkpt>
      <trkpt lat="47.74539" lon="6.05026">
        <ele>213</ele>
        <time>2018-12-05T09:51:31Z</time>
      </trkpt>
      <trkpt lat="47.74533" lon="6.0502">
        <ele>213</ele>
        <time>2018-12-05T09:51:33Z</time>
      </trkpt>
      <trkpt lat="47.74527" lon="6.05012">
        <ele>213</ele>
        <time>2018-12-05T09:51:35Z</time>
      </trkpt>
      <trkpt lat="47.74521" lon="6.05005">
        <ele>214</ele>
        <time>2018-12-05T09:51:37Z</time>
      </trkpt>
      <trkpt lat="47.74515" lon="6.04998">
        <ele>215</ele>
        <time>2018-12-05T09:51:39Z</time>
      </trkpt>
      <trkpt lat="47.74509" lon="6.0499">
        <ele>215</ele>
        <time>2018-12-05T09:51:41Z</time>
      </trkpt>
      <trkpt lat="47.74502" lon="6.04982">
        <ele>216</ele>
        <time>2018-12-05T09:51:43Z</time>
      </trkpt>
      <trkpt lat="47.74496" lon="6.04975">
        <ele>215</ele>
        <time>2018-12-05T09:51:45Z</time>
      </trkpt>
      <trkpt lat="47.74489" lon="6.04968">
        <ele>215</ele>
        <time>2018-12-05T09:51:47Z</time>
      </trkpt>
      <trkpt lat="47.74483" lon="6.0496">
        <ele>216</ele>
        <time>2018-12-05T09:51:49Z</time>
      </trkpt>
      <trkpt lat="47.74478" lon="6.04953">
        <ele>216</ele>
        <time>2018-12-05T09:51:51Z</time>
      </trkpt>
      <trkpt lat="47.74473" lon="6.04948">
        <ele>216</ele>
        <time>2018-12-05T09:51:53Z</time>
      </trkpt>
      <trkpt lat="47.74468" lon="6.04942">
        <ele>216</ele>
        <time>2018-12-05T09:51:55Z</time>
      </trkpt>
      <trkpt lat="47.74463" lon="6.04937">
        <ele>216</ele>
        <time>2018-12-05T09:51:57Z</time>
      </trkpt>
      <trkpt lat="47.74459" lon="6.04932">
        <ele>216</ele>
        <time>2018-12-05T09:51:59Z</time>
      </trkpt>
      <trkpt lat="47.74454" lon="6.04926">
        <ele>216</ele>
        <time>2018-12-05T09:52:01Z</time>
      </trkpt>
      <trkpt lat="47.74447" lon="6.04917">
        <ele>216</ele>
        <time>2018-12-05T09:52:03Z</time>
      </trkpt>
      <trkpt lat="47.7444" lon="6.04911">
        <ele>217</ele>
        <time>2018-12-05T09:52:05Z</time>
      </trkpt>
      <trkpt lat="47.74433" lon="6.04905">
        <ele>217</ele>
        <time>2018-12-05T09:52:07Z</time>
      </trkpt>
      <trkpt lat="47.74427" lon="6.04899">
        <ele>217</ele>
        <time>2018-12-05T09:52:09Z</time>
      </trkpt>
      <trkpt lat="47.74421" lon="6.04893">
        <ele>217</ele>
        <time>2018-12-05T09:52:11Z</time>
      </trkpt>
      <trkpt lat="47.74414" lon="6.04887">
        <ele>215</ele>
        <time>2018-12-05T09:52:13Z</time>
      </trkpt>
      <trkpt lat="47.74407" lon="6.0488">
        <ele>215</ele>
        <time>2018-12-05T09:52:15Z</time>
      </trkpt>
      <trkpt lat="47.744" lon="6.04873">
        <ele>215</ele>
        <time>2018-12-05T09:52:17Z</time>
      </trkpt>
      <trkpt lat="47.74394" lon="6.04866">
        <ele>215</ele>
        <time>2018-12-05T09:52:19Z</time>
      </trkpt>
      <trkpt lat="47.74387" lon="6.04859">
        <ele>215</ele>
        <time>2018-12-05T09:52:21Z</time>
      </trkpt>
      <trkpt lat="47.74381" lon="6.04853">
        <ele>215</ele>
        <time>2018-12-05T09:52:23Z</time>
      </trkpt>
      <trkpt lat="47.74375" lon="6.04847">
        <ele>215</ele>
        <time>2018-12-05T09:52:25Z</time>
      </trkpt>
      <trkpt lat="47.7437" lon="6.04843">
        <ele>215</ele>
        <time>2018-12-05T09:52:26Z</time>
      </trkpt>
      <trkpt lat="47.74366" lon="6.0484">
        <ele>215</ele>
        <time>2018-12-05T09:52:27Z</time>
      </trkpt>
      <trkpt lat="47.7436" lon="6.04833">
        <ele>217</ele>
        <time>2018-12-05T09:52:29Z</time>
      </trkpt>
      <trkpt lat="47.74354" lon="6.04827">
        <ele>217</ele>
        <time>2018-12-05T09:52:31Z</time>
      </trkpt>
      <trkpt lat="47.74347" lon="6.0482">
        <ele>217</ele>
        <time>2018-12-05T09:52:33Z</time>
      </trkpt>
      <trkpt lat="47.7434" lon="6.04813">
        <ele>217</ele>
        <time>2018-12-05T09:52:35Z</time>
      </trkpt>
      <trkpt lat="47.74334" lon="6.04807">
        <ele>217</ele>
        <time>2018-12-05T09:52:37Z</time>
      </trkpt>
      <trkpt lat="47.74328" lon="6.04801">
        <ele>215</ele>
        <time>2018-12-05T09:52:39Z</time>
      </trkpt>
      <trkpt lat="47.74322" lon="6.04795">
        <ele>216</ele>
        <time>2018-12-05T09:52:41Z</time>
      </trkpt>
      <trkpt lat="47.74317" lon="6.04791">
        <ele>216</ele>
        <time>2018-12-05T09:52:42Z</time>
      </trkpt>
      <trkpt lat="47.74308" lon="6.04781">
        <ele>216</ele>
        <time>2018-12-05T09:52:44Z</time>
      </trkpt>
      <trkpt lat="47.74301" lon="6.04774">
        <ele>216</ele>
        <time>2018-12-05T09:52:46Z</time>
      </trkpt>
      <trkpt lat="47.74296" lon="6.04768">
        <ele>216</ele>
        <time>2018-12-05T09:52:48Z</time>
      </trkpt>
      <trkpt lat="47.7429" lon="6.04761">
        <ele>216</ele>
        <time>2018-12-05T09:52:50Z</time>
      </trkpt>
      <trkpt lat="47.74284" lon="6.04755">
        <ele>216</ele>
        <time>2018-12-05T09:52:52Z</time>
      </trkpt>
      <trkpt lat="47.74278" lon="6.04748">
        <ele>218</ele>
        <time>2018-12-05T09:52:54Z</time>
      </trkpt>
      <trkpt lat="47.74272" lon="6.04741">
        <ele>218</ele>
        <time>2018-12-05T09:52:56Z</time>
      </trkpt>
      <trkpt lat="47.74266" lon="6.04734">
        <ele>218</ele>
        <time>2018-12-05T09:52:58Z</time>
      </trkpt>
      <trkpt lat="47.74261" lon="6.04727">
        <ele>218</ele>
        <time>2018-12-05T09:53:00Z</time>
      </trkpt>
      <trkpt lat="47.74255" lon="6.04721">
        <ele>218</ele>
        <time>2018-12-05T09:53:02Z</time>
      </trkpt>
      <trkpt lat="47.74249" lon="6.04714">
        <ele>215</ele>
        <time>2018-12-05T09:53:04Z</time>
      </trkpt>
      <trkpt lat="47.74242" lon="6.04707">
        <ele>215</ele>
        <time>2018-12-05T09:53:06Z</time>
      </trkpt>
      <trkpt lat="47.74235" lon="6.047">
        <ele>215</ele>
        <time>2018-12-05T09:53:08Z</time>
      </trkpt>
      <trkpt lat="47.74229" lon="6.04694">
        <ele>215</ele>
        <time>2018-12-05T09:53:10Z</time>
      </trkpt>
      <trkpt lat="47.74223" lon="6.04687">
        <ele>215</ele>
        <time>2018-12-05T09:53:12Z</time>
      </trkpt>
      <trkpt lat="47.74217" lon="6.0468">
        <ele>215</ele>
        <time>2018-12-05T09:53:14Z</time>
      </trkpt>
      <trkpt lat="47.7421" lon="6.04674">
        <ele>215</ele>
        <time>2018-12-05T09:53:16Z</time>
      </trkpt>
      <trkpt lat="47.74204" lon="6.04668">
        <ele>215</ele>
        <time>2018-12-05T09:53:18Z</time>
      </trkpt>
      <trkpt lat="47.74197" lon="6.04661">
        <ele>216</ele>
        <time>2018-12-05T09:53:20Z</time>
      </trkpt>
      <trkpt lat="47.74191" lon="6.04654">
        <ele>216</ele>
        <time>2018-12-05T09:53:22Z</time>
      </trkpt>
      <trkpt lat="47.74184" lon="6.04648">
        <ele>216</ele>
        <time>2018-12-05T09:53:24Z</time>
      </trkpt>
      <trkpt lat="47.74178" lon="6.04641">
        <ele>216</ele>
        <time>2018-12-05T09:53:26Z</time>
      </trkpt>
      <trkpt lat="47.74172" lon="6.04634">
        <ele>217</ele>
        <time>2018-12-05T09:53:28Z</time>
      </trkpt>
      <trkpt lat="47.74166" lon="6.04627">
        <ele>215</ele>
        <time>2018-12-05T09:53:30Z</time>
      </trkpt>
      <trkpt lat="47.74159" lon="6.0462">
        <ele>215</ele>
        <time>2018-12-05T09:53:32Z</time>
      </trkpt>
      <trkpt lat="47.74153" lon="6.04613">
        <ele>216</ele>
        <time>2018-12-05T09:53:34Z</time>
      </trkpt>
      <trkpt lat="47.74146" lon="6.04606">
        <ele>216</ele>
        <time>2018-12-05T09:53:36Z</time>
      </trkpt>
      <trkpt lat="47.7414" lon="6.04599">
        <ele>216</ele>
        <time>2018-12-05T09:53:38Z</time>
      </trkpt>
      <trkpt lat="47.74134" lon="6.04592">
        <ele>216</ele>
        <time>2018-12-05T09:53:40Z</time>
      </trkpt>
      <trkpt lat="47.74128" lon="6.04586">
        <ele>215</ele>
        <time>2018-12-05T09:53:42Z</time>
      </trkpt>
      <trkpt lat="47.74122" lon="6.0458">
        <ele>219</ele>
        <time>2018-12-05T09:53:44Z</time>
      </trkpt>
      <trkpt lat="47.74117" lon="6.04575">
        <ele>218</ele>
        <time>2018-12-05T09:53:46Z</time>
      </trkpt>
      <trkpt lat="47.74112" lon="6.0457">
        <ele>218</ele>
        <time>2018-12-05T09:53:48Z</time>
      </trkpt>
      <trkpt lat="47.74106" lon="6.04564">
        <ele>218</ele>
        <time>2018-12-05T09:53:50Z</time>
      </trkpt>
      <trkpt lat="47.741" lon="6.04557">
        <ele>218</ele>
        <time>2018-12-05T09:53:52Z</time>
      </trkpt>
      <trkpt lat="47.74093" lon="6.0455">
        <ele>218</ele>
        <time>2018-12-05T09:53:54Z</time>
      </trkpt>
      <trkpt lat="47.74087" lon="6.04544">
        <ele>218</ele>
        <time>2018-12-05T09:53:56Z</time>
      </trkpt>
      <trkpt lat="47.74081" lon="6.04538">
        <ele>215</ele>
        <time>2018-12-05T09:53:58Z</time>
      </trkpt>
      <trkpt lat="47.74075" lon="6.04531">
        <ele>215</ele>
        <time>2018-12-05T09:54:00Z</time>
      </trkpt>
      <trkpt lat="47.74069" lon="6.04525">
        <ele>215</ele>
        <time>2018-12-05T09:54:02Z</time>
      </trkpt>
      <trkpt lat="47.74063" lon="6.04517">
        <ele>215</ele>
        <time>2018-12-05T09:54:04Z</time>
      </trkpt>
      <trkpt lat="47.74056" lon="6.0451">
        <ele>215</ele>
        <time>2018-12-05T09:54:06Z</time>
      </trkpt>
      <trkpt lat="47.7405" lon="6.04503">
        <ele>215</ele>
        <time>2018-12-05T09:54:08Z</time>
      </trkpt>
      <trkpt lat="47.74044" lon="6.04497">
        <ele>217</ele>
        <time>2018-12-05T09:54:10Z</time>
      </trkpt>
      <trkpt lat="47.74037" lon="6.0449">
        <ele>216</ele>
        <time>2018-12-05T09:54:12Z</time>
      </trkpt>
      <trkpt lat="47.74031" lon="6.04484">
        <ele>216</ele>
        <time>2018-12-05T09:54:14Z</time>
      </trkpt>
      <trkpt lat="47.7402" lon="6.04472">
        <ele>216</ele>
        <time>2018-12-05T09:54:16Z</time>
      </trkpt>
      <trkpt lat="47.74014" lon="6.04465">
        <ele>216</ele>
        <time>2018-12-05T09:54:18Z</time>
      </trkpt>
      <trkpt lat="47.74007" lon="6.04459">
        <ele>216</ele>
        <time>2018-12-05T09:54:20Z</time>
      </trkpt>
      <trkpt lat="47.74" lon="6.04453">
        <ele>216</ele>
        <time>2018-12-05T09:54:22Z</time>
      </trkpt>
      <trkpt lat="47.73993" lon="6.04446">
        <ele>214</ele>
        <time>2018-12-05T09:54:24Z</time>
      </trkpt>
      <trkpt lat="47.73987" lon="6.0444">
        <ele>214</ele>
        <time>2018-12-05T09:54:26Z</time>
      </trkpt>
      <trkpt lat="47.73981" lon="6.04433">
        <ele>214</ele>
        <time>2018-12-05T09:54:28Z</time>
      </trkpt>
      <trkpt lat="47.73976" lon="6.04428">
        <ele>214</ele>
        <time>2018-12-05T09:54:30Z</time>
      </trkpt>
      <trkpt lat="47.73972" lon="6.04423">
        <ele>214</ele>
        <time>2018-12-05T09:54:32Z</time>
      </trkpt>
      <trkpt lat="47.73965" lon="6.04416">
        <ele>216</ele>
        <time>2018-12-05T09:54:34Z</time>
      </trkpt>
      <trkpt lat="47.73959" lon="6.04409">
        <ele>216</ele>
        <time>2018-12-05T09:54:36Z</time>
      </trkpt>
      <trkpt lat="47.73953" lon="6.04403">
        <ele>216</ele>
        <time>2018-12-05T09:54:38Z</time>
      </trkpt>
      <trkpt lat="47.73948" lon="6.04397">
        <ele>216</ele>
        <time>2018-12-05T09:54:40Z</time>
      </trkpt>
      <trkpt lat="47.73942" lon="6.0439">
        <ele>216</ele>
        <time>2018-12-05T09:54:42Z</time>
      </trkpt>
      <trkpt lat="47.73936" lon="6.04384">
        <ele>216</ele>
        <time>2018-12-05T09:54:44Z</time>
      </trkpt>
      <trkpt lat="47.7393" lon="6.04378">
        <ele>216</ele>
        <time>2018-12-05T09:54:46Z</time>
      </trkpt>
      <trkpt lat="47.73924" lon="6.04371">
        <ele>216</ele>
        <time>2018-12-05T09:54:48Z</time>
      </trkpt>
      <trkpt lat="47.73917" lon="6.04364">
        <ele>217</ele>
        <time>2018-12-05T09:54:50Z</time>
      </trkpt>
      <trkpt lat="47.7391" lon="6.04356">
        <ele>215</ele>
        <time>2018-12-05T09:54:52Z</time>
      </trkpt>
      <trkpt lat="47.73907" lon="6.04351">
        <ele>215</ele>
        <time>2018-12-05T09:54:53Z</time>
      </trkpt>
      <trkpt lat="47.739" lon="6.04345">
        <ele>215</ele>
        <time>2018-12-05T09:54:55Z</time>
      </trkpt>
      <trkpt lat="47.73894" lon="6.04339">
        <ele>215</ele>
        <time>2018-12-05T09:54:57Z</time>
      </trkpt>
      <trkpt lat="47.73888" lon="6.04332">
        <ele>216</ele>
        <time>2018-12-05T09:54:59Z</time>
      </trkpt>
      <trkpt lat="47.73881" lon="6.04326">
        <ele>216</ele>
        <time>2018-12-05T09:55:01Z</time>
      </trkpt>
      <trkpt lat="47.7387" lon="6.04317">
        <ele>215</ele>
        <time>2018-12-05T09:55:03Z</time>
      </trkpt>
      <trkpt lat="47.73863" lon="6.04311">
        <ele>215</ele>
        <time>2018-12-05T09:55:05Z</time>
      </trkpt>
      <trkpt lat="47.73855" lon="6.04304">
        <ele>215</ele>
        <time>2018-12-05T09:55:07Z</time>
      </trkpt>
      <trkpt lat="47.73848" lon="6.04298">
        <ele>215</ele>
        <time>2018-12-05T09:55:09Z</time>
      </trkpt>
      <trkpt lat="47.7384" lon="6.04294">
        <ele>215</ele>
        <time>2018-12-05T09:55:11Z</time>
      </trkpt>
      <trkpt lat="47.73834" lon="6.04289">
        <ele>215</ele>
        <time>2018-12-05T09:55:13Z</time>
      </trkpt>
      <trkpt lat="47.73827" lon="6.04285">
        <ele>213</ele>
        <time>2018-12-05T09:55:15Z</time>
      </trkpt>
      <trkpt lat="47.7382" lon="6.04281">
        <ele>213</ele>
        <time>2018-12-05T09:55:17Z</time>
      </trkpt>
      <trkpt lat="47.73812" lon="6.04277">
        <ele>213</ele>
        <time>2018-12-05T09:55:19Z</time>
      </trkpt>
      <trkpt lat="47.73805" lon="6.04274">
        <ele>213</ele>
        <time>2018-12-05T09:55:21Z</time>
      </trkpt>
      <trkpt lat="47.73797" lon="6.0427">
        <ele>212</ele>
        <time>2018-12-05T09:55:23Z</time>
      </trkpt>
      <trkpt lat="47.73792" lon="6.04267">
        <ele>212</ele>
        <time>2018-12-05T09:55:25Z</time>
      </trkpt>
      <trkpt lat="47.73787" lon="6.04264">
        <ele>212</ele>
        <time>2018-12-05T09:55:27Z</time>
      </trkpt>
      <trkpt lat="47.73782" lon="6.0426">
        <ele>212</ele>
        <time>2018-12-05T09:55:29Z</time>
      </trkpt>
      <trkpt lat="47.73776" lon="6.04257">
        <ele>211</ele>
        <time>2018-12-05T09:55:31Z</time>
      </trkpt>
      <trkpt lat="47.7377" lon="6.04253">
        <ele>211</ele>
        <time>2018-12-05T09:55:33Z</time>
      </trkpt>
      <trkpt lat="47.73764" lon="6.0425">
        <ele>211</ele>
        <time>2018-12-05T09:55:35Z</time>
      </trkpt>
      <trkpt lat="47.73756" lon="6.04246">
        <ele>211</ele>
        <time>2018-12-05T09:55:37Z</time>
      </trkpt>
      <trkpt lat="47.7375" lon="6.04243">
        <ele>210</ele>
        <time>2018-12-05T09:55:39Z</time>
      </trkpt>
      <trkpt lat="47.73742" lon="6.04239">
        <ele>209</ele>
        <time>2018-12-05T09:55:41Z</time>
      </trkpt>
      <trkpt lat="47.73735" lon="6.04237">
        <ele>209</ele>
        <time>2018-12-05T09:55:43Z</time>
      </trkpt>
      <trkpt lat="47.73721" lon="6.04236">
        <ele>209</ele>
        <time>2018-12-05T09:55:45Z</time>
      </trkpt>
      <trkpt lat="47.73716" lon="6.04237">
        <ele>209</ele>
        <time>2018-12-05T09:55:46Z</time>
      </trkpt>
      <trkpt lat="47.73711" lon="6.04238">
        <ele>209</ele>
        <time>2018-12-05T09:55:47Z</time>
      </trkpt>
      <trkpt lat="47.73703" lon="6.04241">
        <ele>208</ele>
        <time>2018-12-05T09:55:49Z</time>
      </trkpt>
      <trkpt lat="47.73695" lon="6.04244">
        <ele>208</ele>
        <time>2018-12-05T09:55:51Z</time>
      </trkpt>
      <trkpt lat="47.73687" lon="6.04247">
        <ele>208</ele>
        <time>2018-12-05T09:55:53Z</time>
      </trkpt>
      <trkpt lat="47.7368" lon="6.04251">
        <ele>207</ele>
        <time>2018-12-05T09:55:55Z</time>
      </trkpt>
      <trkpt lat="47.73672" lon="6.04255">
        <ele>207</ele>
        <time>2018-12-05T09:55:57Z</time>
      </trkpt>
      <trkpt lat="47.73664" lon="6.0426">
        <ele>207</ele>
        <time>2018-12-05T09:55:59Z</time>
      </trkpt>
      <trkpt lat="47.73656" lon="6.04264">
        <ele>207</ele>
        <time>2018-12-05T09:56:01Z</time>
      </trkpt>
      <trkpt lat="47.73648" lon="6.04268">
        <ele>207</ele>
        <time>2018-12-05T09:56:03Z</time>
      </trkpt>
      <trkpt lat="47.73641" lon="6.04272">
        <ele>207</ele>
        <time>2018-12-05T09:56:05Z</time>
      </trkpt>
      <trkpt lat="47.73634" lon="6.04276">
        <ele>207</ele>
        <time>2018-12-05T09:56:07Z</time>
      </trkpt>
      <trkpt lat="47.73626" lon="6.04279">
        <ele>207</ele>
        <time>2018-12-05T09:56:09Z</time>
      </trkpt>
      <trkpt lat="47.73619" lon="6.04282">
        <ele>207</ele>
        <time>2018-12-05T09:56:11Z</time>
      </trkpt>
      <trkpt lat="47.73611" lon="6.04286">
        <ele>207</ele>
        <time>2018-12-05T09:56:13Z</time>
      </trkpt>
      <trkpt lat="47.73602" lon="6.04289">
        <ele>207</ele>
        <time>2018-12-05T09:56:15Z</time>
      </trkpt>
      <trkpt lat="47.73594" lon="6.04292">
        <ele>208</ele>
        <time>2018-12-05T09:56:17Z</time>
      </trkpt>
      <trkpt lat="47.73586" lon="6.04295">
        <ele>208</ele>
        <time>2018-12-05T09:56:19Z</time>
      </trkpt>
      <trkpt lat="47.73578" lon="6.04298">
        <ele>209</ele>
        <time>2018-12-05T09:56:21Z</time>
      </trkpt>
      <trkpt lat="47.7357" lon="6.043">
        <ele>210</ele>
        <time>2018-12-05T09:56:23Z</time>
      </trkpt>
      <trkpt lat="47.73562" lon="6.04302">
        <ele>210</ele>
        <time>2018-12-05T09:56:25Z</time>
      </trkpt>
      <trkpt lat="47.73554" lon="6.04301">
        <ele>210</ele>
        <time>2018-12-05T09:56:27Z</time>
      </trkpt>
      <trkpt lat="47.73545" lon="6.04298">
        <ele>210</ele>
        <time>2018-12-05T09:56:29Z</time>
      </trkpt>
      <trkpt lat="47.73541" lon="6.04296">
        <ele>210</ele>
        <time>2018-12-05T09:56:30Z</time>
      </trkpt>
      <trkpt lat="47.73536" lon="6.04294">
        <ele>210</ele>
        <time>2018-12-05T09:56:31Z</time>
      </trkpt>
      <trkpt lat="47.73532" lon="6.04291">
        <ele>210</ele>
        <time>2018-12-05T09:56:32Z</time>
      </trkpt>
      <trkpt lat="47.73524" lon="6.04286">
        <ele>210</ele>
        <time>2018-12-05T09:56:34Z</time>
      </trkpt>
      <trkpt lat="47.73516" lon="6.04281">
        <ele>210</ele>
        <time>2018-12-05T09:56:36Z</time>
      </trkpt>
      <trkpt lat="47.73509" lon="6.04276">
        <ele>210</ele>
        <time>2018-12-05T09:56:38Z</time>
      </trkpt>
      <trkpt lat="47.73504" lon="6.04272">
        <ele>210</ele>
        <time>2018-12-05T09:56:40Z</time>
      </trkpt>
      <trkpt lat="47.73497" lon="6.04266">
        <ele>211</ele>
        <time>2018-12-05T09:56:42Z</time>
      </trkpt>
      <trkpt lat="47.7349" lon="6.0426">
        <ele>211</ele>
        <time>2018-12-05T09:56:44Z</time>
      </trkpt>
      <trkpt lat="47.73483" lon="6.04255">
        <ele>211</ele>
        <time>2018-12-05T09:56:46Z</time>
      </trkpt>
      <trkpt lat="47.73478" lon="6.04251">
        <ele>211</ele>
        <time>2018-12-05T09:56:48Z</time>
      </trkpt>
      <trkpt lat="47.73473" lon="6.04247">
        <ele>210</ele>
        <time>2018-12-05T09:56:49Z</time>
      </trkpt>
      <trkpt lat="47.73465" lon="6.04242">
        <ele>210</ele>
        <time>2018-12-05T09:56:51Z</time>
      </trkpt>
      <trkpt lat="47.73457" lon="6.04236">
        <ele>210</ele>
        <time>2018-12-05T09:56:53Z</time>
      </trkpt>
      <trkpt lat="47.7345" lon="6.0423">
        <ele>210</ele>
        <time>2018-12-05T09:56:55Z</time>
      </trkpt>
      <trkpt lat="47.73446" lon="6.04227">
        <ele>210</ele>
        <time>2018-12-05T09:56:56Z</time>
      </trkpt>
      <trkpt lat="47.73441" lon="6.04224">
        <ele>210</ele>
        <time>2018-12-05T09:56:57Z</time>
      </trkpt>
      <trkpt lat="47.73437" lon="6.04222">
        <ele>210</ele>
        <time>2018-12-05T09:56:58Z</time>
      </trkpt>
      <trkpt lat="47.73433" lon="6.04219">
        <ele>210</ele>
        <time>2018-12-05T09:56:59Z</time>
      </trkpt>
      <trkpt lat="47.73428" lon="6.04216">
        <ele>209</ele>
        <time>2018-12-05T09:57:00Z</time>
      </trkpt>
      <trkpt lat="47.73423" lon="6.04213">
        <ele>209</ele>
        <time>2018-12-05T09:57:01Z</time>
      </trkpt>
      <trkpt lat="47.73419" lon="6.04211">
        <ele>209</ele>
        <time>2018-12-05T09:57:02Z</time>
      </trkpt>
      <trkpt lat="47.73414" lon="6.04208">
        <ele>210</ele>
        <time>2018-12-05T09:57:03Z</time>
      </trkpt>
      <trkpt lat="47.73409" lon="6.04205">
        <ele>210</ele>
        <time>2018-12-05T09:57:04Z</time>
      </trkpt>
      <trkpt lat="47.73405" lon="6.04202">
        <ele>210</ele>
        <time>2018-12-05T09:57:05Z</time>
      </trkpt>
      <trkpt lat="47.73398" lon="6.04197">
        <ele>210</ele>
        <time>2018-12-05T09:57:07Z</time>
      </trkpt>
      <trkpt lat="47.7339" lon="6.04192">
        <ele>210</ele>
        <time>2018-12-05T09:57:09Z</time>
      </trkpt>
      <trkpt lat="47.73383" lon="6.04187">
        <ele>210</ele>
        <time>2018-12-05T09:57:11Z</time>
      </trkpt>
      <trkpt lat="47.73376" lon="6.04183">
        <ele>210</ele>
        <time>2018-12-05T09:57:13Z</time>
      </trkpt>
      <trkpt lat="47.73371" lon="6.0418">
        <ele>210</ele>
        <time>2018-12-05T09:57:15Z</time>
      </trkpt>
      <trkpt lat="47.73367" lon="6.04177">
        <ele>210</ele>
        <time>2018-12-05T09:57:17Z</time>
      </trkpt>
      <trkpt lat="47.73362" lon="6.04175">
        <ele>210</ele>
        <time>2018-12-05T09:57:19Z</time>
      </trkpt>
      <trkpt lat="47.73358" lon="6.04172">
        <ele>210</ele>
        <time>2018-12-05T09:57:21Z</time>
      </trkpt>
      <trkpt lat="47.73352" lon="6.04168">
        <ele>210</ele>
        <time>2018-12-05T09:57:23Z</time>
      </trkpt>
      <trkpt lat="47.73347" lon="6.04165">
        <ele>210</ele>
        <time>2018-12-05T09:57:25Z</time>
      </trkpt>
      <trkpt lat="47.73342" lon="6.04162">
        <ele>210</ele>
        <time>2018-12-05T09:57:27Z</time>
      </trkpt>
      <trkpt lat="47.73336" lon="6.04159">
        <ele>211</ele>
        <time>2018-12-05T09:57:29Z</time>
      </trkpt>
      <trkpt lat="47.73331" lon="6.04156">
        <ele>215</ele>
        <time>2018-12-05T09:57:31Z</time>
      </trkpt>
      <trkpt lat="47.73325" lon="6.04154">
        <ele>217</ele>
        <time>2018-12-05T09:57:34Z</time>
      </trkpt>
      <trkpt lat="47.73321" lon="6.04152">
        <ele>218</ele>
        <time>2018-12-05T09:57:38Z</time>
      </trkpt>
      <trkpt lat="47.73315" lon="6.0415">
        <ele>219</ele>
        <time>2018-12-05T09:57:42Z</time>
      </trkpt>
      <trkpt lat="47.7331" lon="6.0415">
        <ele>220</ele>
        <time>2018-12-05T09:57:45Z</time>
      </trkpt>
      <trkpt lat="47.73303" lon="6.04149">
        <ele>221</ele>
        <time>2018-12-05T09:57:48Z</time>
      </trkpt>
      <trkpt lat="47.73298" lon="6.04152">
        <ele>222</ele>
        <time>2018-12-05T09:57:50Z</time>
      </trkpt>
      <trkpt lat="47.73292" lon="6.04158">
        <ele>223</ele>
        <time>2018-12-05T09:57:52Z</time>
      </trkpt>
      <trkpt lat="47.73289" lon="6.04167">
        <ele>222</ele>
        <time>2018-12-05T09:57:54Z</time>
      </trkpt>
      <trkpt lat="47.73288" lon="6.04178">
        <ele>222</ele>
        <time>2018-12-05T09:57:56Z</time>
      </trkpt>
      <trkpt lat="47.73287" lon="6.04187">
        <ele>222</ele>
        <time>2018-12-05T09:57:58Z</time>
      </trkpt>
      <trkpt lat="47.73286" lon="6.04194">
        <ele>222</ele>
        <time>2018-12-05T09:57:59Z</time>
      </trkpt>
      <trkpt lat="47.73286" lon="6.04203">
        <ele>222</ele>
        <time>2018-12-05T09:58:00Z</time>
      </trkpt>
      <trkpt lat="47.73285" lon="6.04215">
        <ele>221</ele>
        <time>2018-12-05T09:58:01Z</time>
      </trkpt>
      <trkpt lat="47.73283" lon="6.04227">
        <ele>221</ele>
        <time>2018-12-05T09:58:02Z</time>
      </trkpt>
      <trkpt lat="47.73279" lon="6.04239">
        <ele>222</ele>
        <time>2018-12-05T09:58:04Z</time>
      </trkpt>
      <trkpt lat="47.73277" lon="6.04247">
        <ele>222</ele>
        <time>2018-12-05T09:58:05Z</time>
      </trkpt>
      <trkpt lat="47.73275" lon="6.04255">
        <ele>219</ele>
        <time>2018-12-05T09:58:06Z</time>
      </trkpt>
      <trkpt lat="47.73273" lon="6.04264">
        <ele>219</ele>
        <time>2018-12-05T09:58:07Z</time>
      </trkpt>
      <trkpt lat="47.73271" lon="6.04272">
        <ele>219</ele>
        <time>2018-12-05T09:58:08Z</time>
      </trkpt>
      <trkpt lat="47.7327" lon="6.04281">
        <ele>218</ele>
        <time>2018-12-05T09:58:09Z</time>
      </trkpt>
      <trkpt lat="47.73269" lon="6.0429">
        <ele>217</ele>
        <time>2018-12-05T09:58:10Z</time>
      </trkpt>
      <trkpt lat="47.73268" lon="6.04299">
        <ele>217</ele>
        <time>2018-12-05T09:58:11Z</time>
      </trkpt>
      <trkpt lat="47.73267" lon="6.04308">
        <ele>216</ele>
        <time>2018-12-05T09:58:12Z</time>
      </trkpt>
      <trkpt lat="47.73266" lon="6.04316">
        <ele>216</ele>
        <time>2018-12-05T09:58:13Z</time>
      </trkpt>
      <trkpt lat="47.73264" lon="6.04323">
        <ele>216</ele>
        <time>2018-12-05T09:58:14Z</time>
      </trkpt>
      <trkpt lat="47.73263" lon="6.04329">
        <ele>216</ele>
        <time>2018-12-05T09:58:15Z</time>
      </trkpt>
      <trkpt lat="47.7326" lon="6.04336">
        <ele>214</ele>
        <time>2018-12-05T09:58:16Z</time>
      </trkpt>
      <trkpt lat="47.73255" lon="6.04347">
        <ele>214</ele>
        <time>2018-12-05T09:58:18Z</time>
      </trkpt>
      <trkpt lat="47.73249" lon="6.04355">
        <ele>218</ele>
        <time>2018-12-05T09:58:20Z</time>
      </trkpt>
      <trkpt lat="47.73243" lon="6.04363">
        <ele>219</ele>
        <time>2018-12-05T09:58:22Z</time>
      </trkpt>
      <trkpt lat="47.73237" lon="6.04371">
        <ele>219</ele>
        <time>2018-12-05T09:58:24Z</time>
      </trkpt>
      <trkpt lat="47.7323" lon="6.04379">
        <ele>219</ele>
        <time>2018-12-05T09:58:26Z</time>
      </trkpt>
      <trkpt lat="47.73223" lon="6.04386">
        <ele>219</ele>
        <time>2018-12-05T09:58:28Z</time>
      </trkpt>
      <trkpt lat="47.73217" lon="6.04395">
        <ele>219</ele>
        <time>2018-12-05T09:58:30Z</time>
      </trkpt>
      <trkpt lat="47.73211" lon="6.04403">
        <ele>219</ele>
        <time>2018-12-05T09:58:32Z</time>
      </trkpt>
      <trkpt lat="47.73206" lon="6.04411">
        <ele>219</ele>
        <time>2018-12-05T09:58:34Z</time>
      </trkpt>
      <trkpt lat="47.73202" lon="6.04415">
        <ele>220</ele>
        <time>2018-12-05T09:58:35Z</time>
      </trkpt>
      <trkpt lat="47.73196" lon="6.04424">
        <ele>215</ele>
        <time>2018-12-05T09:58:37Z</time>
      </trkpt>
      <trkpt lat="47.7319" lon="6.04433">
        <ele>215</ele>
        <time>2018-12-05T09:58:39Z</time>
      </trkpt>
      <trkpt lat="47.73184" lon="6.04441">
        <ele>215</ele>
        <time>2018-12-05T09:58:41Z</time>
      </trkpt>
      <trkpt lat="47.73179" lon="6.04449">
        <ele>215</ele>
        <time>2018-12-05T09:58:43Z</time>
      </trkpt>
      <trkpt lat="47.73173" lon="6.04456">
        <ele>214</ele>
        <time>2018-12-05T09:58:45Z</time>
      </trkpt>
      <trkpt lat="47.73168" lon="6.04463">
        <ele>214</ele>
        <time>2018-12-05T09:58:47Z</time>
      </trkpt>
      <trkpt lat="47.73165" lon="6.04468">
        <ele>219</ele>
        <time>2018-12-05T09:58:48Z</time>
      </trkpt>
      <trkpt lat="47.73158" lon="6.04477">
        <ele>218</ele>
        <time>2018-12-05T09:58:50Z</time>
      </trkpt>
      <trkpt lat="47.73155" lon="6.04482">
        <ele>218</ele>
        <time>2018-12-05T09:58:51Z</time>
      </trkpt>
      <trkpt lat="47.73148" lon="6.04491">
        <ele>218</ele>
        <time>2018-12-05T09:58:53Z</time>
      </trkpt>
      <trkpt lat="47.73145" lon="6.04495">
        <ele>218</ele>
        <time>2018-12-05T09:58:54Z</time>
      </trkpt>
      <trkpt lat="47.73141" lon="6.045">
        <ele>219</ele>
        <time>2018-12-05T09:58:55Z</time>
      </trkpt>
      <trkpt lat="47.73137" lon="6.04504">
        <ele>215</ele>
        <time>2018-12-05T09:58:56Z</time>
      </trkpt>
      <trkpt lat="47.73133" lon="6.04509">
        <ele>215</ele>
        <time>2018-12-05T09:58:57Z</time>
      </trkpt>
      <trkpt lat="47.73129" lon="6.04514">
        <ele>216</ele>
        <time>2018-12-05T09:58:58Z</time>
      </trkpt>
      <trkpt lat="47.73126" lon="6.04518">
        <ele>216</ele>
        <time>2018-12-05T09:58:59Z</time>
      </trkpt>
      <trkpt lat="47.73122" lon="6.04523">
        <ele>216</ele>
        <time>2018-12-05T09:59:00Z</time>
      </trkpt>
      <trkpt lat="47.73118" lon="6.04528">
        <ele>216</ele>
        <time>2018-12-05T09:59:01Z</time>
      </trkpt>
      <trkpt lat="47.73112" lon="6.04535">
        <ele>217</ele>
        <time>2018-12-05T09:59:03Z</time>
      </trkpt>
      <trkpt lat="47.73105" lon="6.04541">
        <ele>217</ele>
        <time>2018-12-05T09:59:05Z</time>
      </trkpt>
      <trkpt lat="47.73099" lon="6.04548">
        <ele>216</ele>
        <time>2018-12-05T09:59:07Z</time>
      </trkpt>
      <trkpt lat="47.73093" lon="6.04555">
        <ele>216</ele>
        <time>2018-12-05T09:59:09Z</time>
      </trkpt>
      <trkpt lat="47.73087" lon="6.04562">
        <ele>216</ele>
        <time>2018-12-05T09:59:11Z</time>
      </trkpt>
      <trkpt lat="47.7308" lon="6.04569">
        <ele>219</ele>
        <time>2018-12-05T09:59:13Z</time>
      </trkpt>
      <trkpt lat="47.73076" lon="6.04572">
        <ele>219</ele>
        <time>2018-12-05T09:59:14Z</time>
      </trkpt>
      <trkpt lat="47.73069" lon="6.04578">
        <ele>219</ele>
        <time>2018-12-05T09:59:16Z</time>
      </trkpt>
      <trkpt lat="47.73062" lon="6.04584">
        <ele>217</ele>
        <time>2018-12-05T09:59:18Z</time>
      </trkpt>
      <trkpt lat="47.73055" lon="6.0459">
        <ele>218</ele>
        <time>2018-12-05T09:59:20Z</time>
      </trkpt>
      <trkpt lat="47.73049" lon="6.04596">
        <ele>218</ele>
        <time>2018-12-05T09:59:22Z</time>
      </trkpt>
      <trkpt lat="47.73043" lon="6.04601">
        <ele>219</ele>
        <time>2018-12-05T09:59:24Z</time>
      </trkpt>
      <trkpt lat="47.73037" lon="6.04606">
        <ele>219</ele>
        <time>2018-12-05T09:59:26Z</time>
      </trkpt>
      <trkpt lat="47.73033" lon="6.0461">
        <ele>219</ele>
        <time>2018-12-05T09:59:28Z</time>
      </trkpt>
      <trkpt lat="47.73028" lon="6.04615">
        <ele>219</ele>
        <time>2018-12-05T09:59:30Z</time>
      </trkpt>
      <trkpt lat="47.73024" lon="6.04619">
        <ele>219</ele>
        <time>2018-12-05T09:59:32Z</time>
      </trkpt>
      <trkpt lat="47.73018" lon="6.04624">
        <ele>219</ele>
        <time>2018-12-05T09:59:34Z</time>
      </trkpt>
      <trkpt lat="47.73013" lon="6.0463">
        <ele>219</ele>
        <time>2018-12-05T09:59:36Z</time>
      </trkpt>
      <trkpt lat="47.73007" lon="6.04637">
        <ele>219</ele>
        <time>2018-12-05T09:59:38Z</time>
      </trkpt>
      <trkpt lat="47.73003" lon="6.04644">
        <ele>219</ele>
        <time>2018-12-05T09:59:40Z</time>
      </trkpt>
      <trkpt lat="47.72997" lon="6.04651">
        <ele>220</ele>
        <time>2018-12-05T09:59:42Z</time>
      </trkpt>
      <trkpt lat="47.72993" lon="6.04656">
        <ele>220</ele>
        <time>2018-12-05T09:59:43Z</time>
      </trkpt>
      <trkpt lat="47.72988" lon="6.0466">
        <ele>220</ele>
        <time>2018-12-05T09:59:45Z</time>
      </trkpt>
      <trkpt lat="47.72982" lon="6.04665">
        <ele>220</ele>
        <time>2018-12-05T09:59:47Z</time>
      </trkpt>
      <trkpt lat="47.72977" lon="6.0467">
        <ele>218</ele>
        <time>2018-12-05T09:59:49Z</time>
      </trkpt>
      <trkpt lat="47.72973" lon="6.04677">
        <ele>218</ele>
        <time>2018-12-05T09:59:51Z</time>
      </trkpt>
      <trkpt lat="47.72967" lon="6.04683">
        <ele>218</ele>
        <time>2018-12-05T09:59:53Z</time>
      </trkpt>
      <trkpt lat="47.72961" lon="6.0469">
        <ele>217</ele>
        <time>2018-12-05T09:59:55Z</time>
      </trkpt>
      <trkpt lat="47.72956" lon="6.04693">
        <ele>217</ele>
        <time>2018-12-05T09:59:57Z</time>
      </trkpt>
      <trkpt lat="47.7295" lon="6.04697">
        <ele>217</ele>
        <time>2018-12-05T09:59:59Z</time>
      </trkpt>
      <trkpt lat="47.72943" lon="6.04703">
        <ele>217</ele>
        <time>2018-12-05T10:00:01Z</time>
      </trkpt>
      <trkpt lat="47.72937" lon="6.04707">
        <ele>217</ele>
        <time>2018-12-05T10:00:03Z</time>
      </trkpt>
      <trkpt lat="47.72931" lon="6.0471">
        <ele>217</ele>
        <time>2018-12-05T10:00:05Z</time>
      </trkpt>
      <trkpt lat="47.72924" lon="6.04714">
        <ele>217</ele>
        <time>2018-12-05T10:00:07Z</time>
      </trkpt>
      <trkpt lat="47.72919" lon="6.04716">
        <ele>217</ele>
        <time>2018-12-05T10:00:08Z</time>
      </trkpt>
      <trkpt lat="47.72911" lon="6.04719">
        <ele>215</ele>
        <time>2018-12-05T10:00:10Z</time>
      </trkpt>
      <trkpt lat="47.72903" lon="6.0472">
        <ele>215</ele>
        <time>2018-12-05T10:00:12Z</time>
      </trkpt>
      <trkpt lat="47.72896" lon="6.04716">
        <ele>215</ele>
        <time>2018-12-05T10:00:14Z</time>
      </trkpt>
      <trkpt lat="47.7289" lon="6.04711">
        <ele>215</ele>
        <time>2018-12-05T10:00:16Z</time>
      </trkpt>
      <trkpt lat="47.72884" lon="6.04706">
        <ele>215</ele>
        <time>2018-12-05T10:00:18Z</time>
      </trkpt>
      <trkpt lat="47.72879" lon="6.047">
        <ele>215</ele>
        <time>2018-12-05T10:00:20Z</time>
      </trkpt>
      <trkpt lat="47.72875" lon="6.04692">
        <ele>215</ele>
        <time>2018-12-05T10:00:22Z</time>
      </trkpt>
      <trkpt lat="47.72872" lon="6.04684">
        <ele>215</ele>
        <time>2018-12-05T10:00:24Z</time>
      </trkpt>
      <trkpt lat="47.72871" lon="6.04674">
        <ele>215</ele>
        <time>2018-12-05T10:00:26Z</time>
      </trkpt>
      <trkpt lat="47.7287" lon="6.04665">
        <ele>218</ele>
        <time>2018-12-05T10:00:28Z</time>
      </trkpt>
      <trkpt lat="47.72869" lon="6.04655">
        <ele>218</ele>
        <time>2018-12-05T10:00:30Z</time>
      </trkpt>
      <trkpt lat="47.72867" lon="6.04648">
        <ele>218</ele>
        <time>2018-12-05T10:00:32Z</time>
      </trkpt>
      <trkpt lat="47.72865" lon="6.04642">
        <ele>218</ele>
        <time>2018-12-05T10:00:34Z</time>
      </trkpt>
      <trkpt lat="47.72862" lon="6.04636">
        <ele>218</ele>
        <time>2018-12-05T10:00:36Z</time>
      </trkpt>
      <trkpt lat="47.72859" lon="6.04629">
        <ele>218</ele>
        <time>2018-12-05T10:00:38Z</time>
      </trkpt>
      <trkpt lat="47.72857" lon="6.0462">
        <ele>218</ele>
        <time>2018-12-05T10:00:40Z</time>
      </trkpt>
      <trkpt lat="47.72855" lon="6.04611">
        <ele>218</ele>
        <time>2018-12-05T10:00:42Z</time>
      </trkpt>
      <trkpt lat="47.72854" lon="6.04603">
        <ele>218</ele>
        <time>2018-12-05T10:00:44Z</time>
      </trkpt>
      <trkpt lat="47.72853" lon="6.04594">
        <ele>218</ele>
        <time>2018-12-05T10:00:46Z</time>
      </trkpt>
      <trkpt lat="47.72851" lon="6.04587">
        <ele>218</ele>
        <time>2018-12-05T10:00:48Z</time>
      </trkpt>
      <trkpt lat="47.72849" lon="6.04579">
        <ele>220</ele>
        <time>2018-12-05T10:00:51Z</time>
      </trkpt>
      <trkpt lat="47.72847" lon="6.04572">
        <ele>220</ele>
        <time>2018-12-05T10:00:53Z</time>
      </trkpt>
      <trkpt lat="47.72844" lon="6.04565">
        <ele>220</ele>
        <time>2018-12-05T10:00:55Z</time>
      </trkpt>
      <trkpt lat="47.72839" lon="6.04555">
        <ele>221</ele>
        <time>2018-12-05T10:00:58Z</time>
      </trkpt>
      <trkpt lat="47.72834" lon="6.0455">
        <ele>221</ele>
        <time>2018-12-05T10:01:00Z</time>
      </trkpt>
      <trkpt lat="47.72831" lon="6.04545">
        <ele>217</ele>
        <time>2018-12-05T10:01:02Z</time>
      </trkpt>
      <trkpt lat="47.72826" lon="6.04539">
        <ele>217</ele>
        <time>2018-12-05T10:01:04Z</time>
      </trkpt>
      <trkpt lat="47.72821" lon="6.04531">
        <ele>218</ele>
        <time>2018-12-05T10:01:06Z</time>
      </trkpt>
      <trkpt lat="47.72817" lon="6.04523">
        <ele>218</ele>
        <time>2018-12-05T10:01:08Z</time>
      </trkpt>
      <trkpt lat="47.72813" lon="6.04514">
        <ele>218</ele>
        <time>2018-12-05T10:01:10Z</time>
      </trkpt>
      <trkpt lat="47.72809" lon="6.04506">
        <ele>218</ele>
        <time>2018-12-05T10:01:12Z</time>
      </trkpt>
      <trkpt lat="47.72805" lon="6.04497">
        <ele>219</ele>
        <time>2018-12-05T10:01:14Z</time>
      </trkpt>
      <trkpt lat="47.72801" lon="6.04486">
        <ele>218</ele>
        <time>2018-12-05T10:01:16Z</time>
      </trkpt>
      <trkpt lat="47.72798" lon="6.04476">
        <ele>218</ele>
        <time>2018-12-05T10:01:18Z</time>
      </trkpt>
      <trkpt lat="47.72796" lon="6.04467">
        <ele>218</ele>
        <time>2018-12-05T10:01:20Z</time>
      </trkpt>
      <trkpt lat="47.72793" lon="6.04459">
        <ele>218</ele>
        <time>2018-12-05T10:01:22Z</time>
      </trkpt>
      <trkpt lat="47.7279" lon="6.0445">
        <ele>218</ele>
        <time>2018-12-05T10:01:24Z</time>
      </trkpt>
      <trkpt lat="47.72787" lon="6.04439">
        <ele>218</ele>
        <time>2018-12-05T10:01:26Z</time>
      </trkpt>
      <trkpt lat="47.72784" lon="6.04429">
        <ele>218</ele>
        <time>2018-12-05T10:01:28Z</time>
      </trkpt>
      <trkpt lat="47.72782" lon="6.04419">
        <ele>217</ele>
        <time>2018-12-05T10:01:30Z</time>
      </trkpt>
      <trkpt lat="47.72779" lon="6.0441">
        <ele>219</ele>
        <time>2018-12-05T10:01:32Z</time>
      </trkpt>
      <trkpt lat="47.72776" lon="6.04402">
        <ele>219</ele>
        <time>2018-12-05T10:01:34Z</time>
      </trkpt>
      <trkpt lat="47.72773" lon="6.04395">
        <ele>219</ele>
        <time>2018-12-05T10:01:36Z</time>
      </trkpt>
      <trkpt lat="47.72771" lon="6.04388">
        <ele>219</ele>
        <time>2018-12-05T10:01:38Z</time>
      </trkpt>
      <trkpt lat="47.72768" lon="6.0438">
        <ele>219</ele>
        <time>2018-12-05T10:01:40Z</time>
      </trkpt>
      <trkpt lat="47.72766" lon="6.04372">
        <ele>219</ele>
        <time>2018-12-05T10:01:42Z</time>
      </trkpt>
      <trkpt lat="47.72763" lon="6.04363">
        <ele>219</ele>
        <time>2018-12-05T10:01:44Z</time>
      </trkpt>
      <trkpt lat="47.7276" lon="6.04354">
        <ele>219</ele>
        <time>2018-12-05T10:01:46Z</time>
      </trkpt>
      <trkpt lat="47.72758" lon="6.04346">
        <ele>219</ele>
        <time>2018-12-05T10:01:48Z</time>
      </trkpt>
      <trkpt lat="47.72756" lon="6.04338">
        <ele>219</ele>
        <time>2018-12-05T10:01:50Z</time>
      </trkpt>
      <trkpt lat="47.72754" lon="6.04331">
        <ele>219</ele>
        <time>2018-12-05T10:01:52Z</time>
      </trkpt>
      <trkpt lat="47.72752" lon="6.04325">
        <ele>220</ele>
        <time>2018-12-05T10:01:54Z</time>
      </trkpt>
      <trkpt lat="47.72749" lon="6.0432">
        <ele>218</ele>
        <time>2018-12-05T10:01:56Z</time>
      </trkpt>
      <trkpt lat="47.72744" lon="6.04312">
        <ele>218</ele>
        <time>2018-12-05T10:01:59Z</time>
      </trkpt>
      <trkpt lat="47.72741" lon="6.04305">
        <ele>218</ele>
        <time>2018-12-05T10:02:01Z</time>
      </trkpt>
      <trkpt lat="47.72738" lon="6.043">
        <ele>218</ele>
        <time>2018-12-05T10:02:03Z</time>
      </trkpt>
      <trkpt lat="47.72734" lon="6.04291">
        <ele>218</ele>
        <time>2018-12-05T10:02:05Z</time>
      </trkpt>
      <trkpt lat="47.7273" lon="6.04285">
        <ele>218</ele>
        <time>2018-12-05T10:02:06Z</time>
      </trkpt>
      <trkpt lat="47.72724" lon="6.04276">
        <ele>218</ele>
        <time>2018-12-05T10:02:08Z</time>
      </trkpt>
      <trkpt lat="47.72719" lon="6.04267">
        <ele>218</ele>
        <time>2018-12-05T10:02:10Z</time>
      </trkpt>
      <trkpt lat="47.72713" lon="6.04257">
        <ele>217</ele>
        <time>2018-12-05T10:02:12Z</time>
      </trkpt>
      <trkpt lat="47.72709" lon="6.04252">
        <ele>217</ele>
        <time>2018-12-05T10:02:13Z</time>
      </trkpt>
      <trkpt lat="47.72704" lon="6.04244">
        <ele>219</ele>
        <time>2018-12-05T10:02:14Z</time>
      </trkpt>
      <trkpt lat="47.72698" lon="6.04234">
        <ele>219</ele>
        <time>2018-12-05T10:02:16Z</time>
      </trkpt>
      <trkpt lat="47.72695" lon="6.04229">
        <ele>219</ele>
        <time>2018-12-05T10:02:17Z</time>
      </trkpt>
      <trkpt lat="47.7269" lon="6.04219">
        <ele>219</ele>
        <time>2018-12-05T10:02:19Z</time>
      </trkpt>
      <trkpt lat="47.72686" lon="6.0421">
        <ele>219</ele>
        <time>2018-12-05T10:02:21Z</time>
      </trkpt>
      <trkpt lat="47.72683" lon="6.04201">
        <ele>219</ele>
        <time>2018-12-05T10:02:23Z</time>
      </trkpt>
      <trkpt lat="47.72679" lon="6.04192">
        <ele>219</ele>
        <time>2018-12-05T10:02:25Z</time>
      </trkpt>
      <trkpt lat="47.72675" lon="6.04183">
        <ele>219</ele>
        <time>2018-12-05T10:02:27Z</time>
      </trkpt>
      <trkpt lat="47.72672" lon="6.04173">
        <ele>218</ele>
        <time>2018-12-05T10:02:29Z</time>
      </trkpt>
      <trkpt lat="47.7267" lon="6.04164">
        <ele>219</ele>
        <time>2018-12-05T10:02:31Z</time>
      </trkpt>
      <trkpt lat="47.72668" lon="6.04156">
        <ele>220</ele>
        <time>2018-12-05T10:02:33Z</time>
      </trkpt>
      <trkpt lat="47.72667" lon="6.04149">
        <ele>221</ele>
        <time>2018-12-05T10:02:35Z</time>
      </trkpt>
      <trkpt lat="47.72666" lon="6.04141">
        <ele>217</ele>
        <time>2018-12-05T10:02:37Z</time>
      </trkpt>
      <trkpt lat="47.72665" lon="6.04132">
        <ele>218</ele>
        <time>2018-12-05T10:02:39Z</time>
      </trkpt>
      <trkpt lat="47.72663" lon="6.04124">
        <ele>218</ele>
        <time>2018-12-05T10:02:41Z</time>
      </trkpt>
      <trkpt lat="47.72662" lon="6.04116">
        <ele>218</ele>
        <time>2018-12-05T10:02:43Z</time>
      </trkpt>
      <trkpt lat="47.7266" lon="6.04108">
        <ele>219</ele>
        <time>2018-12-05T10:02:45Z</time>
      </trkpt>
      <trkpt lat="47.72658" lon="6.04101">
        <ele>219</ele>
        <time>2018-12-05T10:02:47Z</time>
      </trkpt>
      <trkpt lat="47.72656" lon="6.04094">
        <ele>220</ele>
        <time>2018-12-05T10:02:49Z</time>
      </trkpt>
      <trkpt lat="47.72654" lon="6.04086">
        <ele>220</ele>
        <time>2018-12-05T10:02:51Z</time>
      </trkpt>
      <trkpt lat="47.72653" lon="6.04079">
        <ele>221</ele>
        <time>2018-12-05T10:02:53Z</time>
      </trkpt>
      <trkpt lat="47.7265" lon="6.0407">
        <ele>221</ele>
        <time>2018-12-05T10:02:56Z</time>
      </trkpt>
      <trkpt lat="47.7265" lon="6.0406">
        <ele>220</ele>
        <time>2018-12-05T10:02:59Z</time>
      </trkpt>
      <trkpt lat="47.7265" lon="6.04053">
        <ele>220</ele>
        <time>2018-12-05T10:03:01Z</time>
      </trkpt>
      <trkpt lat="47.72651" lon="6.04045">
        <ele>220</ele>
        <time>2018-12-05T10:03:03Z</time>
      </trkpt>
      <trkpt lat="47.7265" lon="6.04038">
        <ele>221</ele>
        <time>2018-12-05T10:03:05Z</time>
      </trkpt>
      <trkpt lat="47.72649" lon="6.0403">
        <ele>221</ele>
        <time>2018-12-05T10:03:07Z</time>
      </trkpt>
      <trkpt lat="47.72647" lon="6.04022">
        <ele>221</ele>
        <time>2018-12-05T10:03:09Z</time>
      </trkpt>
      <trkpt lat="47.72645" lon="6.04013">
        <ele>221</ele>
        <time>2018-12-05T10:03:12Z</time>
      </trkpt>
      <trkpt lat="47.72645" lon="6.04006">
        <ele>222</ele>
        <time>2018-12-05T10:03:14Z</time>
      </trkpt>
      <trkpt lat="47.72645" lon="6.03999">
        <ele>222</ele>
        <time>2018-12-05T10:03:16Z</time>
      </trkpt>
      <trkpt lat="47.72644" lon="6.03991">
        <ele>222</ele>
        <time>2018-12-05T10:03:18Z</time>
      </trkpt>
      <trkpt lat="47.72644" lon="6.03984">
        <ele>222</ele>
        <time>2018-12-05T10:03:20Z</time>
      </trkpt>
      <trkpt lat="47.72644" lon="6.03976">
        <ele>222</ele>
        <time>2018-12-05T10:03:22Z</time>
      </trkpt>
      <trkpt lat="47.72645" lon="6.03968">
        <ele>222</ele>
        <time>2018-12-05T10:03:24Z</time>
      </trkpt>
      <trkpt lat="47.72645" lon="6.0396">
        <ele>222</ele>
        <time>2018-12-05T10:03:26Z</time>
      </trkpt>
      <trkpt lat="47.72645" lon="6.03952">
        <ele>222</ele>
        <time>2018-12-05T10:03:28Z</time>
      </trkpt>
      <trkpt lat="47.72646" lon="6.03945">
        <ele>222</ele>
        <time>2018-12-05T10:03:30Z</time>
      </trkpt>
      <trkpt lat="47.72647" lon="6.03937">
        <ele>222</ele>
        <time>2018-12-05T10:03:32Z</time>
      </trkpt>
      <trkpt lat="47.72647" lon="6.0393">
        <ele>223</ele>
        <time>2018-12-05T10:03:34Z</time>
      </trkpt>
      <trkpt lat="47.72648" lon="6.03923">
        <ele>223</ele>
        <time>2018-12-05T10:03:36Z</time>
      </trkpt>
      <trkpt lat="47.72649" lon="6.03915">
        <ele>224</ele>
        <time>2018-12-05T10:03:38Z</time>
      </trkpt>
      <trkpt lat="47.7265" lon="6.03908">
        <ele>223</ele>
        <time>2018-12-05T10:03:40Z</time>
      </trkpt>
      <trkpt lat="47.7265" lon="6.03901">
        <ele>223</ele>
        <time>2018-12-05T10:03:42Z</time>
      </trkpt>
      <trkpt lat="47.72651" lon="6.03893">
        <ele>223</ele>
        <time>2018-12-05T10:03:44Z</time>
      </trkpt>
      <trkpt lat="47.72652" lon="6.03886">
        <ele>223</ele>
        <time>2018-12-05T10:03:46Z</time>
      </trkpt>
      <trkpt lat="47.72653" lon="6.03879">
        <ele>222</ele>
        <time>2018-12-05T10:03:48Z</time>
      </trkpt>
      <trkpt lat="47.72654" lon="6.03871">
        <ele>223</ele>
        <time>2018-12-05T10:03:50Z</time>
      </trkpt>
      <trkpt lat="47.72656" lon="6.03864">
        <ele>223</ele>
        <time>2018-12-05T10:03:52Z</time>
      </trkpt>
      <trkpt lat="47.72657" lon="6.03855">
        <ele>223</ele>
        <time>2018-12-05T10:03:54Z</time>
      </trkpt>
      <trkpt lat="47.72658" lon="6.03844">
        <ele>224</ele>
        <time>2018-12-05T10:03:56Z</time>
      </trkpt>
      <trkpt lat="47.7266" lon="6.03832">
        <ele>225</ele>
        <time>2018-12-05T10:03:58Z</time>
      </trkpt>
      <trkpt lat="47.72662" lon="6.03821">
        <ele>224</ele>
        <time>2018-12-05T10:04:00Z</time>
      </trkpt>
      <trkpt lat="47.72664" lon="6.03812">
        <ele>223</ele>
        <time>2018-12-05T10:04:02Z</time>
      </trkpt>
      <trkpt lat="47.72666" lon="6.03804">
        <ele>222</ele>
        <time>2018-12-05T10:04:04Z</time>
      </trkpt>
      <trkpt lat="47.72669" lon="6.03796">
        <ele>228</ele>
        <time>2018-12-05T10:04:06Z</time>
      </trkpt>
      <trkpt lat="47.72672" lon="6.03789">
        <ele>227</ele>
        <time>2018-12-05T10:04:08Z</time>
      </trkpt>
      <trkpt lat="47.72675" lon="6.03781">
        <ele>227</ele>
        <time>2018-12-05T10:04:10Z</time>
      </trkpt>
      <trkpt lat="47.7268" lon="6.03773">
        <ele>227</ele>
        <time>2018-12-05T10:04:12Z</time>
      </trkpt>
      <trkpt lat="47.72684" lon="6.03765">
        <ele>226</ele>
        <time>2018-12-05T10:04:14Z</time>
      </trkpt>
      <trkpt lat="47.72688" lon="6.03757">
        <ele>226</ele>
        <time>2018-12-05T10:04:16Z</time>
      </trkpt>
      <trkpt lat="47.72692" lon="6.03748">
        <ele>224</ele>
        <time>2018-12-05T10:04:18Z</time>
      </trkpt>
      <trkpt lat="47.72697" lon="6.0374">
        <ele>224</ele>
        <time>2018-12-05T10:04:20Z</time>
      </trkpt>
      <trkpt lat="47.72702" lon="6.03733">
        <ele>224</ele>
        <time>2018-12-05T10:04:22Z</time>
      </trkpt>
      <trkpt lat="47.72707" lon="6.03726">
        <ele>224</ele>
        <time>2018-12-05T10:04:24Z</time>
      </trkpt>
      <trkpt lat="47.72712" lon="6.03718">
        <ele>224</ele>
        <time>2018-12-05T10:04:26Z</time>
      </trkpt>
      <trkpt lat="47.72716" lon="6.03711">
        <ele>224</ele>
        <time>2018-12-05T10:04:28Z</time>
      </trkpt>
      <trkpt lat="47.72721" lon="6.03704">
        <ele>224</ele>
        <time>2018-12-05T10:04:30Z</time>
      </trkpt>
      <trkpt lat="47.72725" lon="6.03696">
        <ele>224</ele>
        <time>2018-12-05T10:04:32Z</time>
      </trkpt>
      <trkpt lat="47.72729" lon="6.03688">
        <ele>224</ele>
        <time>2018-12-05T10:04:34Z</time>
      </trkpt>
      <trkpt lat="47.72734" lon="6.0368">
        <ele>224</ele>
        <time>2018-12-05T10:04:36Z</time>
      </trkpt>
      <trkpt lat="47.72739" lon="6.03673">
        <ele>224</ele>
        <time>2018-12-05T10:04:38Z</time>
      </trkpt>
      <trkpt lat="47.72745" lon="6.03666">
        <ele>224</ele>
        <time>2018-12-05T10:04:40Z</time>
      </trkpt>
      <trkpt lat="47.7275" lon="6.03658">
        <ele>225</ele>
        <time>2018-12-05T10:04:42Z</time>
      </trkpt>
      <trkpt lat="47.72756" lon="6.03651">
        <ele>225</ele>
        <time>2018-12-05T10:04:44Z</time>
      </trkpt>
      <trkpt lat="47.72761" lon="6.03644">
        <ele>225</ele>
        <time>2018-12-05T10:04:46Z</time>
      </trkpt>
      <trkpt lat="47.72767" lon="6.03636">
        <ele>224</ele>
        <time>2018-12-05T10:04:48Z</time>
      </trkpt>
      <trkpt lat="47.72773" lon="6.03628">
        <ele>224</ele>
        <time>2018-12-05T10:04:50Z</time>
      </trkpt>
      <trkpt lat="47.72779" lon="6.03622">
        <ele>224</ele>
        <time>2018-12-05T10:04:52Z</time>
      </trkpt>
      <trkpt lat="47.72784" lon="6.03616">
        <ele>224</ele>
        <time>2018-12-05T10:04:54Z</time>
      </trkpt>
      <trkpt lat="47.7279" lon="6.0361">
        <ele>224</ele>
        <time>2018-12-05T10:04:56Z</time>
      </trkpt>
      <trkpt lat="47.72795" lon="6.03605">
        <ele>224</ele>
        <time>2018-12-05T10:04:58Z</time>
      </trkpt>
      <trkpt lat="47.728" lon="6.03601">
        <ele>224</ele>
        <time>2018-12-05T10:04:59Z</time>
      </trkpt>
      <trkpt lat="47.72805" lon="6.03595">
        <ele>224</ele>
        <time>2018-12-05T10:05:01Z</time>
      </trkpt>
      <trkpt lat="47.72811" lon="6.03589">
        <ele>225</ele>
        <time>2018-12-05T10:05:03Z</time>
      </trkpt>
      <trkpt lat="47.72817" lon="6.03584">
        <ele>225</ele>
        <time>2018-12-05T10:05:05Z</time>
      </trkpt>
      <trkpt lat="47.72822" lon="6.03579">
        <ele>224</ele>
        <time>2018-12-05T10:05:07Z</time>
      </trkpt>
      <trkpt lat="47.72828" lon="6.03572">
        <ele>224</ele>
        <time>2018-12-05T10:05:09Z</time>
      </trkpt>
      <trkpt lat="47.72835" lon="6.03563">
        <ele>226</ele>
        <time>2018-12-05T10:05:11Z</time>
      </trkpt>
      <trkpt lat="47.72839" lon="6.03553">
        <ele>227</ele>
        <time>2018-12-05T10:05:13Z</time>
      </trkpt>
      <trkpt lat="47.72842" lon="6.03543">
        <ele>227</ele>
        <time>2018-12-05T10:05:14Z</time>
      </trkpt>
      <trkpt lat="47.72843" lon="6.03532">
        <ele>226</ele>
        <time>2018-12-05T10:05:16Z</time>
      </trkpt>
      <trkpt lat="47.72844" lon="6.0352">
        <ele>226</ele>
        <time>2018-12-05T10:05:18Z</time>
      </trkpt>
      <trkpt lat="47.72844" lon="6.03508">
        <ele>225</ele>
        <time>2018-12-05T10:05:20Z</time>
      </trkpt>
      <trkpt lat="47.72843" lon="6.03495">
        <ele>224</ele>
        <time>2018-12-05T10:05:22Z</time>
      </trkpt>
      <trkpt lat="47.72842" lon="6.03482">
        <ele>225</ele>
        <time>2018-12-05T10:05:24Z</time>
      </trkpt>
      <trkpt lat="47.72841" lon="6.0347">
        <ele>225</ele>
        <time>2018-12-05T10:05:26Z</time>
      </trkpt>
      <trkpt lat="47.72839" lon="6.03457">
        <ele>225</ele>
        <time>2018-12-05T10:05:28Z</time>
      </trkpt>
      <trkpt lat="47.72838" lon="6.03445">
        <ele>225</ele>
        <time>2018-12-05T10:05:30Z</time>
      </trkpt>
      <trkpt lat="47.72836" lon="6.03432">
        <ele>225</ele>
        <time>2018-12-05T10:05:32Z</time>
      </trkpt>
      <trkpt lat="47.72834" lon="6.0342">
        <ele>223</ele>
        <time>2018-12-05T10:05:34Z</time>
      </trkpt>
      <trkpt lat="47.72832" lon="6.03408">
        <ele>225</ele>
        <time>2018-12-05T10:05:36Z</time>
      </trkpt>
      <trkpt lat="47.72831" lon="6.03397">
        <ele>226</ele>
        <time>2018-12-05T10:05:38Z</time>
      </trkpt>
      <trkpt lat="47.7283" lon="6.03385">
        <ele>227</ele>
        <time>2018-12-05T10:05:40Z</time>
      </trkpt>
      <trkpt lat="47.7283" lon="6.03378">
        <ele>227</ele>
        <time>2018-12-05T10:05:41Z</time>
      </trkpt>
      <trkpt lat="47.72829" lon="6.03371">
        <ele>227</ele>
        <time>2018-12-05T10:05:42Z</time>
      </trkpt>
      <trkpt lat="47.72829" lon="6.03363">
        <ele>227</ele>
        <time>2018-12-05T10:05:43Z</time>
      </trkpt>
      <trkpt lat="47.72828" lon="6.03356">
        <ele>227</ele>
        <time>2018-12-05T10:05:44Z</time>
      </trkpt>
      <trkpt lat="47.72828" lon="6.0335">
        <ele>227</ele>
        <time>2018-12-05T10:05:45Z</time>
      </trkpt>
      <trkpt lat="47.72829" lon="6.03343">
        <ele>226</ele>
        <time>2018-12-05T10:05:46Z</time>
      </trkpt>
      <trkpt lat="47.72829" lon="6.03336">
        <ele>226</ele>
        <time>2018-12-05T10:05:47Z</time>
      </trkpt>
      <trkpt lat="47.72831" lon="6.03325">
        <ele>228</ele>
        <time>2018-12-05T10:05:49Z</time>
      </trkpt>
      <trkpt lat="47.72833" lon="6.03312">
        <ele>230</ele>
        <time>2018-12-05T10:05:51Z</time>
      </trkpt>
      <trkpt lat="47.72834" lon="6.03306">
        <ele>227</ele>
        <time>2018-12-05T10:05:52Z</time>
      </trkpt>
      <trkpt lat="47.72836" lon="6.03294">
        <ele>228</ele>
        <time>2018-12-05T10:05:54Z</time>
      </trkpt>
      <trkpt lat="47.72839" lon="6.03284">
        <ele>228</ele>
        <time>2018-12-05T10:05:56Z</time>
      </trkpt>
      <trkpt lat="47.72841" lon="6.03273">
        <ele>228</ele>
        <time>2018-12-05T10:05:58Z</time>
      </trkpt>
      <trkpt lat="47.72843" lon="6.03262">
        <ele>228</ele>
        <time>2018-12-05T10:06:00Z</time>
      </trkpt>
      <trkpt lat="47.72845" lon="6.03253">
        <ele>228</ele>
        <time>2018-12-05T10:06:02Z</time>
      </trkpt>
      <trkpt lat="47.72848" lon="6.03244">
        <ele>229</ele>
        <time>2018-12-05T10:06:04Z</time>
      </trkpt>
      <trkpt lat="47.72851" lon="6.03234">
        <ele>229</ele>
        <time>2018-12-05T10:06:06Z</time>
      </trkpt>
      <trkpt lat="47.72853" lon="6.03224">
        <ele>230</ele>
        <time>2018-12-05T10:06:08Z</time>
      </trkpt>
      <trkpt lat="47.72855" lon="6.03217">
        <ele>230</ele>
        <time>2018-12-05T10:06:10Z</time>
      </trkpt>
      <trkpt lat="47.72857" lon="6.03209">
        <ele>230</ele>
        <time>2018-12-05T10:06:12Z</time>
      </trkpt>
      <trkpt lat="47.72859" lon="6.03201">
        <ele>230</ele>
        <time>2018-12-05T10:06:14Z</time>
      </trkpt>
      <trkpt lat="47.72861" lon="6.03191">
        <ele>230</ele>
        <time>2018-12-05T10:06:16Z</time>
      </trkpt>
      <trkpt lat="47.72863" lon="6.03182">
        <ele>230</ele>
        <time>2018-12-05T10:06:18Z</time>
      </trkpt>
      <trkpt lat="47.72866" lon="6.03172">
        <ele>230</ele>
        <time>2018-12-05T10:06:20Z</time>
      </trkpt>
      <trkpt lat="47.72868" lon="6.03163">
        <ele>232</ele>
        <time>2018-12-05T10:06:22Z</time>
      </trkpt>
      <trkpt lat="47.72871" lon="6.03155">
        <ele>232</ele>
        <time>2018-12-05T10:06:24Z</time>
      </trkpt>
      <trkpt lat="47.72873" lon="6.03146">
        <ele>232</ele>
        <time>2018-12-05T10:06:26Z</time>
      </trkpt>
      <trkpt lat="47.72876" lon="6.03136">
        <ele>232</ele>
        <time>2018-12-05T10:06:28Z</time>
      </trkpt>
      <trkpt lat="47.72878" lon="6.03126">
        <ele>232</ele>
        <time>2018-12-05T10:06:30Z</time>
      </trkpt>
      <trkpt lat="47.72881" lon="6.03117">
        <ele>232</ele>
        <time>2018-12-05T10:06:32Z</time>
      </trkpt>
      <trkpt lat="47.72883" lon="6.03108">
        <ele>231</ele>
        <time>2018-12-05T10:06:34Z</time>
      </trkpt>
      <trkpt lat="47.72885" lon="6.031">
        <ele>231</ele>
        <time>2018-12-05T10:06:36Z</time>
      </trkpt>
      <trkpt lat="47.72888" lon="6.03091">
        <ele>231</ele>
        <time>2018-12-05T10:06:38Z</time>
      </trkpt>
      <trkpt lat="47.7289" lon="6.03082">
        <ele>232</ele>
        <time>2018-12-05T10:06:40Z</time>
      </trkpt>
      <trkpt lat="47.72891" lon="6.03073">
        <ele>232</ele>
        <time>2018-12-05T10:06:42Z</time>
      </trkpt>
      <trkpt lat="47.72893" lon="6.03063">
        <ele>233</ele>
        <time>2018-12-05T10:06:44Z</time>
      </trkpt>
      <trkpt lat="47.72894" lon="6.03054">
        <ele>233</ele>
        <time>2018-12-05T10:06:46Z</time>
      </trkpt>
      <trkpt lat="47.72895" lon="6.03044">
        <ele>233</ele>
        <time>2018-12-05T10:06:48Z</time>
      </trkpt>
      <trkpt lat="47.72896" lon="6.03033">
        <ele>233</ele>
        <time>2018-12-05T10:06:50Z</time>
      </trkpt>
      <trkpt lat="47.72897" lon="6.03024">
        <ele>233</ele>
        <time>2018-12-05T10:06:52Z</time>
      </trkpt>
      <trkpt lat="47.72898" lon="6.03014">
        <ele>233</ele>
        <time>2018-12-05T10:06:54Z</time>
      </trkpt>
      <trkpt lat="47.72898" lon="6.03005">
        <ele>233</ele>
        <time>2018-12-05T10:06:56Z</time>
      </trkpt>
      <trkpt lat="47.72899" lon="6.02996">
        <ele>234</ele>
        <time>2018-12-05T10:06:58Z</time>
      </trkpt>
      <trkpt lat="47.72899" lon="6.02988">
        <ele>234</ele>
        <time>2018-12-05T10:07:00Z</time>
      </trkpt>
      <trkpt lat="47.72899" lon="6.0298">
        <ele>235</ele>
        <time>2018-12-05T10:07:02Z</time>
      </trkpt>
      <trkpt lat="47.72899" lon="6.02972">
        <ele>235</ele>
        <time>2018-12-05T10:07:04Z</time>
      </trkpt>
      <trkpt lat="47.72899" lon="6.02964">
        <ele>236</ele>
        <time>2018-12-05T10:07:06Z</time>
      </trkpt>
      <trkpt lat="47.72899" lon="6.02956">
        <ele>236</ele>
        <time>2018-12-05T10:07:08Z</time>
      </trkpt>
      <trkpt lat="47.72899" lon="6.02948">
        <ele>236</ele>
        <time>2018-12-05T10:07:10Z</time>
      </trkpt>
      <trkpt lat="47.72898" lon="6.0294">
        <ele>236</ele>
        <time>2018-12-05T10:07:12Z</time>
      </trkpt>
      <trkpt lat="47.72897" lon="6.02932">
        <ele>236</ele>
        <time>2018-12-05T10:07:14Z</time>
      </trkpt>
      <trkpt lat="47.72895" lon="6.02924">
        <ele>236</ele>
        <time>2018-12-05T10:07:16Z</time>
      </trkpt>
      <trkpt lat="47.72893" lon="6.02914">
        <ele>237</ele>
        <time>2018-12-05T10:07:18Z</time>
      </trkpt>
      <trkpt lat="47.72892" lon="6.02906">
        <ele>238</ele>
        <time>2018-12-05T10:07:20Z</time>
      </trkpt>
      <trkpt lat="47.72889" lon="6.029">
        <ele>238</ele>
        <time>2018-12-05T10:07:22Z</time>
      </trkpt>
      <trkpt lat="47.72887" lon="6.02893">
        <ele>239</ele>
        <time>2018-12-05T10:07:24Z</time>
      </trkpt>
      <trkpt lat="47.72884" lon="6.02887">
        <ele>239</ele>
        <time>2018-12-05T10:07:26Z</time>
      </trkpt>
      <trkpt lat="47.72882" lon="6.02882">
        <ele>240</ele>
        <time>2018-12-05T10:07:28Z</time>
      </trkpt>
      <trkpt lat="47.72877" lon="6.02875">
        <ele>240</ele>
        <time>2018-12-05T10:07:31Z</time>
      </trkpt>
      <trkpt lat="47.72873" lon="6.02871">
        <ele>240</ele>
        <time>2018-12-05T10:07:33Z</time>
      </trkpt>
      <trkpt lat="47.72869" lon="6.02865">
        <ele>241</ele>
        <time>2018-12-05T10:07:36Z</time>
      </trkpt>
      <trkpt lat="47.72867" lon="6.02857">
        <ele>241</ele>
        <time>2018-12-05T10:07:41Z</time>
      </trkpt>
      <trkpt lat="47.72866" lon="6.0285">
        <ele>241</ele>
        <time>2018-12-05T10:07:45Z</time>
      </trkpt>
      <trkpt lat="47.72864" lon="6.02842">
        <ele>241</ele>
        <time>2018-12-05T10:07:49Z</time>
      </trkpt>
      <trkpt lat="47.72865" lon="6.02834">
        <ele>241</ele>
        <time>2018-12-05T10:07:53Z</time>
      </trkpt>
      <trkpt lat="47.72862" lon="6.02826">
        <ele>243</ele>
        <time>2018-12-05T10:07:56Z</time>
      </trkpt>
      <trkpt lat="47.7286" lon="6.02818">
        <ele>243</ele>
        <time>2018-12-05T10:07:58Z</time>
      </trkpt>
      <trkpt lat="47.72859" lon="6.02811">
        <ele>243</ele>
        <time>2018-12-05T10:08:01Z</time>
      </trkpt>
      <trkpt lat="47.7286" lon="6.02803">
        <ele>243</ele>
        <time>2018-12-05T10:08:05Z</time>
      </trkpt>
      <trkpt lat="47.72861" lon="6.02795">
        <ele>243</ele>
        <time>2018-12-05T10:08:08Z</time>
      </trkpt>
      <trkpt lat="47.72861" lon="6.02787">
        <ele>243</ele>
        <time>2018-12-05T10:08:10Z</time>
      </trkpt>
      <trkpt lat="47.72861" lon="6.02779">
        <ele>243</ele>
        <time>2018-12-05T10:08:12Z</time>
      </trkpt>
      <trkpt lat="47.72858" lon="6.02773">
        <ele>243</ele>
        <time>2018-12-05T10:08:14Z</time>
      </trkpt>
      <trkpt lat="47.72854" lon="6.02766">
        <ele>243</ele>
        <time>2018-12-05T10:08:17Z</time>
      </trkpt>
      <trkpt lat="47.7285" lon="6.02761">
        <ele>243</ele>
        <time>2018-12-05T10:08:20Z</time>
      </trkpt>
      <trkpt lat="47.72845" lon="6.02756">
        <ele>243</ele>
        <time>2018-12-05T10:08:23Z</time>
      </trkpt>
      <trkpt lat="47.72841" lon="6.02752">
        <ele>243</ele>
        <time>2018-12-05T10:08:35Z</time>
      </trkpt>
      <trkpt lat="47.72837" lon="6.02745">
        <ele>243</ele>
        <time>2018-12-05T10:08:38Z</time>
      </trkpt>
      <trkpt lat="47.72833" lon="6.02739">
        <ele>243</ele>
        <time>2018-12-05T10:08:40Z</time>
      </trkpt>
      <trkpt lat="47.72828" lon="6.02732">
        <ele>244</ele>
        <time>2018-12-05T10:08:42Z</time>
      </trkpt>
      <trkpt lat="47.72824" lon="6.02726">
        <ele>244</ele>
        <time>2018-12-05T10:08:44Z</time>
      </trkpt>
      <trkpt lat="47.7282" lon="6.02721">
        <ele>244</ele>
        <time>2018-12-05T10:08:46Z</time>
      </trkpt>
      <trkpt lat="47.72816" lon="6.02713">
        <ele>244</ele>
        <time>2018-12-05T10:08:49Z</time>
      </trkpt>
      <trkpt lat="47.72812" lon="6.02707">
        <ele>244</ele>
        <time>2018-12-05T10:08:51Z</time>
      </trkpt>
      <trkpt lat="47.72808" lon="6.027">
        <ele>244</ele>
        <time>2018-12-05T10:08:53Z</time>
      </trkpt>
      <trkpt lat="47.72803" lon="6.02694">
        <ele>244</ele>
        <time>2018-12-05T10:08:55Z</time>
      </trkpt>
      <trkpt lat="47.72798" lon="6.02688">
        <ele>244</ele>
        <time>2018-12-05T10:08:57Z</time>
      </trkpt>
      <trkpt lat="47.72793" lon="6.02682">
        <ele>244</ele>
        <time>2018-12-05T10:08:59Z</time>
      </trkpt>
      <trkpt lat="47.72789" lon="6.02675">
        <ele>244</ele>
        <time>2018-12-05T10:09:01Z</time>
      </trkpt>
      <trkpt lat="47.72785" lon="6.0267">
        <ele>244</ele>
        <time>2018-12-05T10:09:03Z</time>
      </trkpt>
      <trkpt lat="47.72781" lon="6.02663">
        <ele>244</ele>
        <time>2018-12-05T10:09:05Z</time>
      </trkpt>
      <trkpt lat="47.72776" lon="6.02656">
        <ele>244</ele>
        <time>2018-12-05T10:09:07Z</time>
      </trkpt>
      <trkpt lat="47.72772" lon="6.0265">
        <ele>244</ele>
        <time>2018-12-05T10:09:09Z</time>
      </trkpt>
      <trkpt lat="47.72768" lon="6.02644">
        <ele>244</ele>
        <time>2018-12-05T10:09:11Z</time>
      </trkpt>
      <trkpt lat="47.72765" lon="6.02639">
        <ele>244</ele>
        <time>2018-12-05T10:09:13Z</time>
      </trkpt>
      <trkpt lat="47.72761" lon="6.02632">
        <ele>244</ele>
        <time>2018-12-05T10:09:15Z</time>
      </trkpt>
      <trkpt lat="47.72757" lon="6.02626">
        <ele>244</ele>
        <time>2018-12-05T10:09:17Z</time>
      </trkpt>
      <trkpt lat="47.72753" lon="6.0262">
        <ele>244</ele>
        <time>2018-12-05T10:09:19Z</time>
      </trkpt>
      <trkpt lat="47.72749" lon="6.02614">
        <ele>245</ele>
        <time>2018-12-05T10:09:21Z</time>
      </trkpt>
      <trkpt lat="47.72745" lon="6.02608">
        <ele>245</ele>
        <time>2018-12-05T10:09:23Z</time>
      </trkpt>
      <trkpt lat="47.72741" lon="6.02602">
        <ele>245</ele>
        <time>2018-12-05T10:09:25Z</time>
      </trkpt>
      <trkpt lat="47.72738" lon="6.02598">
        <ele>245</ele>
        <time>2018-12-05T10:09:27Z</time>
      </trkpt>
      <trkpt lat="47.72734" lon="6.02593">
        <ele>245</ele>
        <time>2018-12-05T10:09:29Z</time>
      </trkpt>
      <trkpt lat="47.7273" lon="6.02587">
        <ele>245</ele>
        <time>2018-12-05T10:09:31Z</time>
      </trkpt>
      <trkpt lat="47.72727" lon="6.02581">
        <ele>246</ele>
        <time>2018-12-05T10:09:33Z</time>
      </trkpt>
      <trkpt lat="47.72722" lon="6.02576">
        <ele>246</ele>
        <time>2018-12-05T10:09:35Z</time>
      </trkpt>
      <trkpt lat="47.72719" lon="6.02571">
        <ele>246</ele>
        <time>2018-12-05T10:09:37Z</time>
      </trkpt>
      <trkpt lat="47.72714" lon="6.02565">
        <ele>246</ele>
        <time>2018-12-05T10:09:40Z</time>
      </trkpt>
      <trkpt lat="47.7271" lon="6.0256">
        <ele>246</ele>
        <time>2018-12-05T10:09:42Z</time>
      </trkpt>
      <trkpt lat="47.72707" lon="6.02555">
        <ele>246</ele>
        <time>2018-12-05T10:09:44Z</time>
      </trkpt>
      <trkpt lat="47.72703" lon="6.02549">
        <ele>246</ele>
        <time>2018-12-05T10:09:46Z</time>
      </trkpt>
      <trkpt lat="47.72699" lon="6.02543">
        <ele>246</ele>
        <time>2018-12-05T10:09:48Z</time>
      </trkpt>
      <trkpt lat="47.72694" lon="6.02537">
        <ele>246</ele>
        <time>2018-12-05T10:09:50Z</time>
      </trkpt>
      <trkpt lat="47.7269" lon="6.02529">
        <ele>246</ele>
        <time>2018-12-05T10:09:52Z</time>
      </trkpt>
      <trkpt lat="47.72684" lon="6.02519">
        <ele>246</ele>
        <time>2018-12-05T10:09:54Z</time>
      </trkpt>
      <trkpt lat="47.72681" lon="6.02514">
        <ele>246</ele>
        <time>2018-12-05T10:09:55Z</time>
      </trkpt>
      <trkpt lat="47.72676" lon="6.02504">
        <ele>246</ele>
        <time>2018-12-05T10:09:57Z</time>
      </trkpt>
      <trkpt lat="47.7267" lon="6.02495">
        <ele>246</ele>
        <time>2018-12-05T10:09:59Z</time>
      </trkpt>
      <trkpt lat="47.72665" lon="6.02485">
        <ele>245</ele>
        <time>2018-12-05T10:10:01Z</time>
      </trkpt>
      <trkpt lat="47.72657" lon="6.02471">
        <ele>245</ele>
        <time>2018-12-05T10:10:03Z</time>
      </trkpt>
      <trkpt lat="47.7265" lon="6.02465">
        <ele>245</ele>
        <time>2018-12-05T10:10:05Z</time>
      </trkpt>
      <trkpt lat="47.72643" lon="6.02466">
        <ele>245</ele>
        <time>2018-12-05T10:10:07Z</time>
      </trkpt>
      <trkpt lat="47.72638" lon="6.02474">
        <ele>245</ele>
        <time>2018-12-05T10:10:09Z</time>
      </trkpt>
      <trkpt lat="47.72635" lon="6.02482">
        <ele>245</ele>
        <time>2018-12-05T10:10:11Z</time>
      </trkpt>
      <trkpt lat="47.72632" lon="6.02491">
        <ele>245</ele>
        <time>2018-12-05T10:10:14Z</time>
      </trkpt>
      <trkpt lat="47.72629" lon="6.025">
        <ele>245</ele>
        <time>2018-12-05T10:10:16Z</time>
      </trkpt>
      <trkpt lat="47.72625" lon="6.02509">
        <ele>245</ele>
        <time>2018-12-05T10:10:18Z</time>
      </trkpt>
      <trkpt lat="47.7262" lon="6.02517">
        <ele>245</ele>
        <time>2018-12-05T10:10:20Z</time>
      </trkpt>
      <trkpt lat="47.72613" lon="6.02531">
        <ele>245</ele>
        <time>2018-12-05T10:10:22Z</time>
      </trkpt>
      <trkpt lat="47.72608" lon="6.02541">
        <ele>245</ele>
        <time>2018-12-05T10:10:24Z</time>
      </trkpt>
      <trkpt lat="47.72605" lon="6.02547">
        <ele>245</ele>
        <time>2018-12-05T10:10:25Z</time>
      </trkpt>
      <trkpt lat="47.72602" lon="6.02552">
        <ele>245</ele>
        <time>2018-12-05T10:10:26Z</time>
      </trkpt>
      <trkpt lat="47.72598" lon="6.02561">
        <ele>245</ele>
        <time>2018-12-05T10:10:28Z</time>
      </trkpt>
      <trkpt lat="47.72593" lon="6.02569">
        <ele>245</ele>
        <time>2018-12-05T10:10:30Z</time>
      </trkpt>
      <trkpt lat="47.72588" lon="6.02578">
        <ele>245</ele>
        <time>2018-12-05T10:10:32Z</time>
      </trkpt>
      <trkpt lat="47.72583" lon="6.02587">
        <ele>245</ele>
        <time>2018-12-05T10:10:34Z</time>
      </trkpt>
      <trkpt lat="47.72579" lon="6.02595">
        <ele>245</ele>
        <time>2018-12-05T10:10:36Z</time>
      </trkpt>
      <trkpt lat="47.72576" lon="6.026">
        <ele>245</ele>
        <time>2018-12-05T10:10:37Z</time>
      </trkpt>
      <trkpt lat="47.72573" lon="6.02606">
        <ele>245</ele>
        <time>2018-12-05T10:10:38Z</time>
      </trkpt>
      <trkpt lat="47.7257" lon="6.02612">
        <ele>245</ele>
        <time>2018-12-05T10:10:39Z</time>
      </trkpt>
      <trkpt lat="47.72567" lon="6.02618">
        <ele>244</ele>
        <time>2018-12-05T10:10:40Z</time>
      </trkpt>
      <trkpt lat="47.72565" lon="6.02623">
        <ele>244</ele>
        <time>2018-12-05T10:10:41Z</time>
      </trkpt>
      <trkpt lat="47.72562" lon="6.02629">
        <ele>244</ele>
        <time>2018-12-05T10:10:42Z</time>
      </trkpt>
      <trkpt lat="47.72559" lon="6.02635">
        <ele>244</ele>
        <time>2018-12-05T10:10:43Z</time>
      </trkpt>
      <trkpt lat="47.72555" lon="6.0264">
        <ele>244</ele>
        <time>2018-12-05T10:10:44Z</time>
      </trkpt>
      <trkpt lat="47.72552" lon="6.02646">
        <ele>244</ele>
        <time>2018-12-05T10:10:45Z</time>
      </trkpt>
      <trkpt lat="47.72549" lon="6.02651">
        <ele>244</ele>
        <time>2018-12-05T10:10:46Z</time>
      </trkpt>
      <trkpt lat="47.72546" lon="6.02657">
        <ele>244</ele>
        <time>2018-12-05T10:10:47Z</time>
      </trkpt>
      <trkpt lat="47.72544" lon="6.02663">
        <ele>244</ele>
        <time>2018-12-05T10:10:48Z</time>
      </trkpt>
      <trkpt lat="47.7254" lon="6.02674">
        <ele>245</ele>
        <time>2018-12-05T10:10:50Z</time>
      </trkpt>
      <trkpt lat="47.72537" lon="6.02679">
        <ele>245</ele>
        <time>2018-12-05T10:10:51Z</time>
      </trkpt>
      <trkpt lat="47.72534" lon="6.02685">
        <ele>245</ele>
        <time>2018-12-05T10:10:52Z</time>
      </trkpt>
      <trkpt lat="47.7253" lon="6.0269">
        <ele>245</ele>
        <time>2018-12-05T10:10:53Z</time>
      </trkpt>
      <trkpt lat="47.72527" lon="6.02695">
        <ele>245</ele>
        <time>2018-12-05T10:10:54Z</time>
      </trkpt>
      <trkpt lat="47.72522" lon="6.02705">
        <ele>245</ele>
        <time>2018-12-05T10:10:56Z</time>
      </trkpt>
      <trkpt lat="47.72517" lon="6.02715">
        <ele>246</ele>
        <time>2018-12-05T10:10:58Z</time>
      </trkpt>
      <trkpt lat="47.72512" lon="6.02724">
        <ele>246</ele>
        <time>2018-12-05T10:11:00Z</time>
      </trkpt>
      <trkpt lat="47.72507" lon="6.02733">
        <ele>247</ele>
        <time>2018-12-05T10:11:02Z</time>
      </trkpt>
      <trkpt lat="47.72502" lon="6.02742">
        <ele>247</ele>
        <time>2018-12-05T10:11:04Z</time>
      </trkpt>
      <trkpt lat="47.72499" lon="6.02751">
        <ele>248</ele>
        <time>2018-12-05T10:11:06Z</time>
      </trkpt>
      <trkpt lat="47.72495" lon="6.02755">
        <ele>248</ele>
        <time>2018-12-05T10:11:08Z</time>
      </trkpt>
      <trkpt lat="47.7249" lon="6.02756">
        <ele>248</ele>
        <time>2018-12-05T10:11:10Z</time>
      </trkpt>
      <trkpt lat="47.72487" lon="6.02752">
        <ele>248</ele>
        <time>2018-12-05T10:11:12Z</time>
      </trkpt>
      <trkpt lat="47.72485" lon="6.02743">
        <ele>246</ele>
        <time>2018-12-05T10:11:14Z</time>
      </trkpt>
      <trkpt lat="47.72485" lon="6.02732">
        <ele>246</ele>
        <time>2018-12-05T10:11:16Z</time>
      </trkpt>
      <trkpt lat="47.72483" lon="6.02713">
        <ele>245</ele>
        <time>2018-12-05T10:11:18Z</time>
      </trkpt>
      <trkpt lat="47.72482" lon="6.02706">
        <ele>244</ele>
        <time>2018-12-05T10:11:19Z</time>
      </trkpt>
      <trkpt lat="47.7248" lon="6.027">
        <ele>244</ele>
        <time>2018-12-05T10:11:20Z</time>
      </trkpt>
      <trkpt lat="47.72479" lon="6.02692">
        <ele>244</ele>
        <time>2018-12-05T10:11:21Z</time>
      </trkpt>
      <trkpt lat="47.72477" lon="6.02685">
        <ele>244</ele>
        <time>2018-12-05T10:11:22Z</time>
      </trkpt>
      <trkpt lat="47.72476" lon="6.02677">
        <ele>244</ele>
        <time>2018-12-05T10:11:23Z</time>
      </trkpt>
      <trkpt lat="47.72475" lon="6.02669">
        <ele>243</ele>
        <time>2018-12-05T10:11:24Z</time>
      </trkpt>
      <trkpt lat="47.72473" lon="6.0266">
        <ele>242</ele>
        <time>2018-12-05T10:11:25Z</time>
      </trkpt>
      <trkpt lat="47.72471" lon="6.02652">
        <ele>241</ele>
        <time>2018-12-05T10:11:26Z</time>
      </trkpt>
      <trkpt lat="47.72469" lon="6.02644">
        <ele>241</ele>
        <time>2018-12-05T10:11:27Z</time>
      </trkpt>
      <trkpt lat="47.72468" lon="6.02637">
        <ele>241</ele>
        <time>2018-12-05T10:11:28Z</time>
      </trkpt>
      <trkpt lat="47.72466" lon="6.02629">
        <ele>241</ele>
        <time>2018-12-05T10:11:29Z</time>
      </trkpt>
      <trkpt lat="47.72464" lon="6.02621">
        <ele>241</ele>
        <time>2018-12-05T10:11:30Z</time>
      </trkpt>
      <trkpt lat="47.72463" lon="6.02613">
        <ele>241</ele>
        <time>2018-12-05T10:11:31Z</time>
      </trkpt>
      <trkpt lat="47.72461" lon="6.02605">
        <ele>241</ele>
        <time>2018-12-05T10:11:32Z</time>
      </trkpt>
      <trkpt lat="47.72459" lon="6.02598">
        <ele>241</ele>
        <time>2018-12-05T10:11:33Z</time>
      </trkpt>
      <trkpt lat="47.72458" lon="6.0259">
        <ele>240</ele>
        <time>2018-12-05T10:11:34Z</time>
      </trkpt>
      <trkpt lat="47.72456" lon="6.02582">
        <ele>240</ele>
        <time>2018-12-05T10:11:35Z</time>
      </trkpt>
      <trkpt lat="47.72454" lon="6.02575">
        <ele>240</ele>
        <time>2018-12-05T10:11:36Z</time>
      </trkpt>
      <trkpt lat="47.72452" lon="6.02566">
        <ele>240</ele>
        <time>2018-12-05T10:11:37Z</time>
      </trkpt>
      <trkpt lat="47.7245" lon="6.02557">
        <ele>240</ele>
        <time>2018-12-05T10:11:38Z</time>
      </trkpt>
      <trkpt lat="47.72448" lon="6.02548">
        <ele>240</ele>
        <time>2018-12-05T10:11:39Z</time>
      </trkpt>
      <trkpt lat="47.72447" lon="6.02538">
        <ele>241</ele>
        <time>2018-12-05T10:11:40Z</time>
      </trkpt>
      <trkpt lat="47.72446" lon="6.02528">
        <ele>241</ele>
        <time>2018-12-05T10:11:41Z</time>
      </trkpt>
      <trkpt lat="47.72446" lon="6.02518">
        <ele>241</ele>
        <time>2018-12-05T10:11:42Z</time>
      </trkpt>
      <trkpt lat="47.72447" lon="6.02509">
        <ele>241</ele>
        <time>2018-12-05T10:11:43Z</time>
      </trkpt>
      <trkpt lat="47.72447" lon="6.02499">
        <ele>241</ele>
        <time>2018-12-05T10:11:44Z</time>
      </trkpt>
      <trkpt lat="47.72447" lon="6.0249">
        <ele>241</ele>
        <time>2018-12-05T10:11:45Z</time>
      </trkpt>
      <trkpt lat="47.72447" lon="6.02481">
        <ele>241</ele>
        <time>2018-12-05T10:11:46Z</time>
      </trkpt>
      <trkpt lat="47.72447" lon="6.02472">
        <ele>241</ele>
        <time>2018-12-05T10:11:47Z</time>
      </trkpt>
      <trkpt lat="47.72447" lon="6.02464">
        <ele>241</ele>
        <time>2018-12-05T10:11:48Z</time>
      </trkpt>
      <trkpt lat="47.72446" lon="6.02456">
        <ele>242</ele>
        <time>2018-12-05T10:11:49Z</time>
      </trkpt>
      <trkpt lat="47.72445" lon="6.02449">
        <ele>242</ele>
        <time>2018-12-05T10:11:50Z</time>
      </trkpt>
      <trkpt lat="47.72443" lon="6.02441">
        <ele>242</ele>
        <time>2018-12-05T10:11:51Z</time>
      </trkpt>
      <trkpt lat="47.7244" lon="6.02434">
        <ele>242</ele>
        <time>2018-12-05T10:11:52Z</time>
      </trkpt>
      <trkpt lat="47.72437" lon="6.02427">
        <ele>242</ele>
        <time>2018-12-05T10:11:53Z</time>
      </trkpt>
      <trkpt lat="47.72434" lon="6.0242">
        <ele>242</ele>
        <time>2018-12-05T10:11:54Z</time>
      </trkpt>
      <trkpt lat="47.7243" lon="6.02414">
        <ele>242</ele>
        <time>2018-12-05T10:11:55Z</time>
      </trkpt>
      <trkpt lat="47.72425" lon="6.0241">
        <ele>242</ele>
        <time>2018-12-05T10:11:56Z</time>
      </trkpt>
      <trkpt lat="47.72419" lon="6.02406">
        <ele>242</ele>
        <time>2018-12-05T10:11:57Z</time>
      </trkpt>
      <trkpt lat="47.72414" lon="6.02403">
        <ele>244</ele>
        <time>2018-12-05T10:11:58Z</time>
      </trkpt>
      <trkpt lat="47.72409" lon="6.02401">
        <ele>244</ele>
        <time>2018-12-05T10:11:59Z</time>
      </trkpt>
      <trkpt lat="47.72404" lon="6.02399">
        <ele>245</ele>
        <time>2018-12-05T10:12:00Z</time>
      </trkpt>
      <trkpt lat="47.72399" lon="6.02397">
        <ele>245</ele>
        <time>2018-12-05T10:12:01Z</time>
      </trkpt>
      <trkpt lat="47.72394" lon="6.02395">
        <ele>245</ele>
        <time>2018-12-05T10:12:03Z</time>
      </trkpt>
      <trkpt lat="47.72389" lon="6.02394">
        <ele>245</ele>
        <time>2018-12-05T10:12:05Z</time>
      </trkpt>
      <trkpt lat="47.72384" lon="6.02393">
        <ele>246</ele>
        <time>2018-12-05T10:12:07Z</time>
      </trkpt>
      <trkpt lat="47.72379" lon="6.02393">
        <ele>246</ele>
        <time>2018-12-05T10:12:09Z</time>
      </trkpt>
      <trkpt lat="47.72373" lon="6.02393">
        <ele>246</ele>
        <time>2018-12-05T10:12:11Z</time>
      </trkpt>
      <trkpt lat="47.72368" lon="6.02393">
        <ele>246</ele>
        <time>2018-12-05T10:12:13Z</time>
      </trkpt>
      <trkpt lat="47.72363" lon="6.02393">
        <ele>247</ele>
        <time>2018-12-05T10:12:15Z</time>
      </trkpt>
      <trkpt lat="47.72357" lon="6.02393">
        <ele>247</ele>
        <time>2018-12-05T10:12:17Z</time>
      </trkpt>
      <trkpt lat="47.72351" lon="6.02393">
        <ele>247</ele>
        <time>2018-12-05T10:12:19Z</time>
      </trkpt>
      <trkpt lat="47.72346" lon="6.02391">
        <ele>247</ele>
        <time>2018-12-05T10:12:21Z</time>
      </trkpt>
      <trkpt lat="47.72342" lon="6.0239">
        <ele>247</ele>
        <time>2018-12-05T10:12:23Z</time>
      </trkpt>
      <trkpt lat="47.72337" lon="6.02389">
        <ele>247</ele>
        <time>2018-12-05T10:12:25Z</time>
      </trkpt>
      <trkpt lat="47.72332" lon="6.02387">
        <ele>249</ele>
        <time>2018-12-05T10:12:27Z</time>
      </trkpt>
      <trkpt lat="47.72327" lon="6.02386">
        <ele>249</ele>
        <time>2018-12-05T10:12:29Z</time>
      </trkpt>
      <trkpt lat="47.72322" lon="6.02385">
        <ele>249</ele>
        <time>2018-12-05T10:12:31Z</time>
      </trkpt>
      <trkpt lat="47.72316" lon="6.02384">
        <ele>250</ele>
        <time>2018-12-05T10:12:34Z</time>
      </trkpt>
      <trkpt lat="47.7231" lon="6.02382">
        <ele>250</ele>
        <time>2018-12-05T10:12:37Z</time>
      </trkpt>
      <trkpt lat="47.72305" lon="6.02381">
        <ele>250</ele>
        <time>2018-12-05T10:12:39Z</time>
      </trkpt>
      <trkpt lat="47.723" lon="6.02381">
        <ele>250</ele>
        <time>2018-12-05T10:12:41Z</time>
      </trkpt>
      <trkpt lat="47.72293" lon="6.02379">
        <ele>250</ele>
        <time>2018-12-05T10:12:44Z</time>
      </trkpt>
      <trkpt lat="47.72288" lon="6.02376">
        <ele>250</ele>
        <time>2018-12-05T10:12:46Z</time>
      </trkpt>
      <trkpt lat="47.72284" lon="6.02373">
        <ele>250</ele>
        <time>2018-12-05T10:12:47Z</time>
      </trkpt>
      <trkpt lat="47.72278" lon="6.0237">
        <ele>250</ele>
        <time>2018-12-05T10:12:49Z</time>
      </trkpt>
      <trkpt lat="47.72272" lon="6.02368">
        <ele>250</ele>
        <time>2018-12-05T10:12:51Z</time>
      </trkpt>
      <trkpt lat="47.72267" lon="6.02366">
        <ele>250</ele>
        <time>2018-12-05T10:12:53Z</time>
      </trkpt>
      <trkpt lat="47.72262" lon="6.02362">
        <ele>250</ele>
        <time>2018-12-05T10:12:55Z</time>
      </trkpt>
      <trkpt lat="47.72258" lon="6.02359">
        <ele>251</ele>
        <time>2018-12-05T10:12:57Z</time>
      </trkpt>
      <trkpt lat="47.72252" lon="6.02354">
        <ele>251</ele>
        <time>2018-12-05T10:13:01Z</time>
      </trkpt>
      <trkpt lat="47.72247" lon="6.0235">
        <ele>250</ele>
        <time>2018-12-05T10:13:03Z</time>
      </trkpt>
      <trkpt lat="47.72242" lon="6.02346">
        <ele>250</ele>
        <time>2018-12-05T10:13:05Z</time>
      </trkpt>
      <trkpt lat="47.72237" lon="6.0234">
        <ele>250</ele>
        <time>2018-12-05T10:13:07Z</time>
      </trkpt>
      <trkpt lat="47.72232" lon="6.02334">
        <ele>250</ele>
        <time>2018-12-05T10:13:09Z</time>
      </trkpt>
      <trkpt lat="47.72227" lon="6.02329">
        <ele>249</ele>
        <time>2018-12-05T10:13:11Z</time>
      </trkpt>
      <trkpt lat="47.72222" lon="6.02324">
        <ele>249</ele>
        <time>2018-12-05T10:13:13Z</time>
      </trkpt>
      <trkpt lat="47.72216" lon="6.02318">
        <ele>249</ele>
        <time>2018-12-05T10:13:16Z</time>
      </trkpt>
      <trkpt lat="47.72212" lon="6.02314">
        <ele>248</ele>
        <time>2018-12-05T10:13:19Z</time>
      </trkpt>
      <trkpt lat="47.72208" lon="6.0231">
        <ele>248</ele>
        <time>2018-12-05T10:13:22Z</time>
      </trkpt>
      <trkpt lat="47.72203" lon="6.02307">
        <ele>248</ele>
        <time>2018-12-05T10:13:24Z</time>
      </trkpt>
      <trkpt lat="47.72199" lon="6.02304">
        <ele>248</ele>
        <time>2018-12-05T10:13:26Z</time>
      </trkpt>
      <trkpt lat="47.72194" lon="6.023">
        <ele>247</ele>
        <time>2018-12-05T10:13:28Z</time>
      </trkpt>
      <trkpt lat="47.72189" lon="6.02297">
        <ele>247</ele>
        <time>2018-12-05T10:13:30Z</time>
      </trkpt>
      <trkpt lat="47.72183" lon="6.02294">
        <ele>247</ele>
        <time>2018-12-05T10:13:32Z</time>
      </trkpt>
      <trkpt lat="47.72178" lon="6.02292">
        <ele>247</ele>
        <time>2018-12-05T10:13:34Z</time>
      </trkpt>
      <trkpt lat="47.72172" lon="6.0229">
        <ele>247</ele>
        <time>2018-12-05T10:13:36Z</time>
      </trkpt>
      <trkpt lat="47.72166" lon="6.02289">
        <ele>244</ele>
        <time>2018-12-05T10:13:38Z</time>
      </trkpt>
      <trkpt lat="47.72159" lon="6.02287">
        <ele>244</ele>
        <time>2018-12-05T10:13:40Z</time>
      </trkpt>
      <trkpt lat="47.72152" lon="6.02286">
        <ele>244</ele>
        <time>2018-12-05T10:13:42Z</time>
      </trkpt>
      <trkpt lat="47.72145" lon="6.02285">
        <ele>244</ele>
        <time>2018-12-05T10:13:44Z</time>
      </trkpt>
      <trkpt lat="47.72139" lon="6.02285">
        <ele>244</ele>
        <time>2018-12-05T10:13:46Z</time>
      </trkpt>
      <trkpt lat="47.72132" lon="6.02285">
        <ele>244</ele>
        <time>2018-12-05T10:13:48Z</time>
      </trkpt>
      <trkpt lat="47.72125" lon="6.02285">
        <ele>244</ele>
        <time>2018-12-05T10:13:50Z</time>
      </trkpt>
      <trkpt lat="47.72117" lon="6.02286">
        <ele>244</ele>
        <time>2018-12-05T10:13:52Z</time>
      </trkpt>
      <trkpt lat="47.7211" lon="6.02287">
        <ele>243</ele>
        <time>2018-12-05T10:13:54Z</time>
      </trkpt>
      <trkpt lat="47.72103" lon="6.02288">
        <ele>243</ele>
        <time>2018-12-05T10:13:56Z</time>
      </trkpt>
      <trkpt lat="47.72089" lon="6.02289">
        <ele>243</ele>
        <time>2018-12-05T10:13:58Z</time>
      </trkpt>
      <trkpt lat="47.72084" lon="6.0229">
        <ele>243</ele>
        <time>2018-12-05T10:13:59Z</time>
      </trkpt>
      <trkpt lat="47.72079" lon="6.02291">
        <ele>242</ele>
        <time>2018-12-05T10:14:00Z</time>
      </trkpt>
      <trkpt lat="47.72074" lon="6.02292">
        <ele>243</ele>
        <time>2018-12-05T10:14:01Z</time>
      </trkpt>
      <trkpt lat="47.72069" lon="6.02293">
        <ele>243</ele>
        <time>2018-12-05T10:14:02Z</time>
      </trkpt>
      <trkpt lat="47.72064" lon="6.02295">
        <ele>243</ele>
        <time>2018-12-05T10:14:03Z</time>
      </trkpt>
      <trkpt lat="47.7206" lon="6.02296">
        <ele>243</ele>
        <time>2018-12-05T10:14:04Z</time>
      </trkpt>
      <trkpt lat="47.72055" lon="6.02297">
        <ele>243</ele>
        <time>2018-12-05T10:14:05Z</time>
      </trkpt>
      <trkpt lat="47.7205" lon="6.02298">
        <ele>243</ele>
        <time>2018-12-05T10:14:06Z</time>
      </trkpt>
      <trkpt lat="47.72045" lon="6.02299">
        <ele>243</ele>
        <time>2018-12-05T10:14:07Z</time>
      </trkpt>
      <trkpt lat="47.72041" lon="6.023">
        <ele>243</ele>
        <time>2018-12-05T10:14:08Z</time>
      </trkpt>
      <trkpt lat="47.72032" lon="6.02302">
        <ele>243</ele>
        <time>2018-12-05T10:14:10Z</time>
      </trkpt>
      <trkpt lat="47.72027" lon="6.02302">
        <ele>243</ele>
        <time>2018-12-05T10:14:11Z</time>
      </trkpt>
      <trkpt lat="47.72022" lon="6.02303">
        <ele>243</ele>
        <time>2018-12-05T10:14:12Z</time>
      </trkpt>
      <trkpt lat="47.72017" lon="6.02303">
        <ele>243</ele>
        <time>2018-12-05T10:14:13Z</time>
      </trkpt>
      <trkpt lat="47.72013" lon="6.02303">
        <ele>243</ele>
        <time>2018-12-05T10:14:14Z</time>
      </trkpt>
      <trkpt lat="47.72008" lon="6.02302">
        <ele>243</ele>
        <time>2018-12-05T10:14:15Z</time>
      </trkpt>
      <trkpt lat="47.72002" lon="6.02302">
        <ele>243</ele>
        <time>2018-12-05T10:14:16Z</time>
      </trkpt>
      <trkpt lat="47.71997" lon="6.023">
        <ele>242</ele>
        <time>2018-12-05T10:14:17Z</time>
      </trkpt>
      <trkpt lat="47.71992" lon="6.02298">
        <ele>242</ele>
        <time>2018-12-05T10:14:18Z</time>
      </trkpt>
      <trkpt lat="47.71986" lon="6.02296">
        <ele>242</ele>
        <time>2018-12-05T10:14:19Z</time>
      </trkpt>
      <trkpt lat="47.71981" lon="6.02293">
        <ele>242</ele>
        <time>2018-12-05T10:14:20Z</time>
      </trkpt>
      <trkpt lat="47.71975" lon="6.02291">
        <ele>242</ele>
        <time>2018-12-05T10:14:21Z</time>
      </trkpt>
      <trkpt lat="47.7197" lon="6.02287">
        <ele>242</ele>
        <time>2018-12-05T10:14:22Z</time>
      </trkpt>
      <trkpt lat="47.71965" lon="6.02283">
        <ele>242</ele>
        <time>2018-12-05T10:14:23Z</time>
      </trkpt>
      <trkpt lat="47.71959" lon="6.02279">
        <ele>242</ele>
        <time>2018-12-05T10:14:24Z</time>
      </trkpt>
      <trkpt lat="47.71954" lon="6.02275">
        <ele>242</ele>
        <time>2018-12-05T10:14:25Z</time>
      </trkpt>
      <trkpt lat="47.71948" lon="6.0227">
        <ele>242</ele>
        <time>2018-12-05T10:14:26Z</time>
      </trkpt>
      <trkpt lat="47.71943" lon="6.02264">
        <ele>242</ele>
        <time>2018-12-05T10:14:27Z</time>
      </trkpt>
      <trkpt lat="47.71938" lon="6.02258">
        <ele>242</ele>
        <time>2018-12-05T10:14:28Z</time>
      </trkpt>
      <trkpt lat="47.71933" lon="6.02252">
        <ele>242</ele>
        <time>2018-12-05T10:14:29Z</time>
      </trkpt>
      <trkpt lat="47.71929" lon="6.02245">
        <ele>241</ele>
        <time>2018-12-05T10:14:30Z</time>
      </trkpt>
      <trkpt lat="47.71924" lon="6.02237">
        <ele>241</ele>
        <time>2018-12-05T10:14:31Z</time>
      </trkpt>
      <trkpt lat="47.7192" lon="6.02228">
        <ele>241</ele>
        <time>2018-12-05T10:14:32Z</time>
      </trkpt>
      <trkpt lat="47.71916" lon="6.02219">
        <ele>241</ele>
        <time>2018-12-05T10:14:33Z</time>
      </trkpt>
      <trkpt lat="47.71912" lon="6.0221">
        <ele>241</ele>
        <time>2018-12-05T10:14:34Z</time>
      </trkpt>
      <trkpt lat="47.71909" lon="6.02201">
        <ele>241</ele>
        <time>2018-12-05T10:14:35Z</time>
      </trkpt>
      <trkpt lat="47.71905" lon="6.02191">
        <ele>240</ele>
        <time>2018-12-05T10:14:36Z</time>
      </trkpt>
      <trkpt lat="47.71902" lon="6.0218">
        <ele>240</ele>
        <time>2018-12-05T10:14:37Z</time>
      </trkpt>
      <trkpt lat="47.71898" lon="6.02169">
        <ele>240</ele>
        <time>2018-12-05T10:14:38Z</time>
      </trkpt>
      <trkpt lat="47.71896" lon="6.02158">
        <ele>239</ele>
        <time>2018-12-05T10:14:39Z</time>
      </trkpt>
      <trkpt lat="47.71894" lon="6.02146">
        <ele>239</ele>
        <time>2018-12-05T10:14:40Z</time>
      </trkpt>
      <trkpt lat="47.71892" lon="6.02135">
        <ele>239</ele>
        <time>2018-12-05T10:14:41Z</time>
      </trkpt>
      <trkpt lat="47.71891" lon="6.02125">
        <ele>239</ele>
        <time>2018-12-05T10:14:42Z</time>
      </trkpt>
      <trkpt lat="47.7189" lon="6.02115">
        <ele>239</ele>
        <time>2018-12-05T10:14:43Z</time>
      </trkpt>
      <trkpt lat="47.7189" lon="6.02106">
        <ele>239</ele>
        <time>2018-12-05T10:14:44Z</time>
      </trkpt>
      <trkpt lat="47.7189" lon="6.02097">
        <ele>239</ele>
        <time>2018-12-05T10:14:45Z</time>
      </trkpt>
      <trkpt lat="47.71889" lon="6.02089">
        <ele>239</ele>
        <time>2018-12-05T10:14:46Z</time>
      </trkpt>
      <trkpt lat="47.71886" lon="6.02081">
        <ele>239</ele>
        <time>2018-12-05T10:14:47Z</time>
      </trkpt>
      <trkpt lat="47.71885" lon="6.02074">
        <ele>239</ele>
        <time>2018-12-05T10:14:48Z</time>
      </trkpt>
      <trkpt lat="47.71885" lon="6.02067">
        <ele>239</ele>
        <time>2018-12-05T10:14:49Z</time>
      </trkpt>
      <trkpt lat="47.71883" lon="6.0206">
        <ele>239</ele>
        <time>2018-12-05T10:14:50Z</time>
      </trkpt>
      <trkpt lat="47.71882" lon="6.02053">
        <ele>240</ele>
        <time>2018-12-05T10:14:51Z</time>
      </trkpt>
      <trkpt lat="47.71881" lon="6.02046">
        <ele>240</ele>
        <time>2018-12-05T10:14:52Z</time>
      </trkpt>
      <trkpt lat="47.71879" lon="6.02033">
        <ele>240</ele>
        <time>2018-12-05T10:14:54Z</time>
      </trkpt>
      <trkpt lat="47.71878" lon="6.02026">
        <ele>240</ele>
        <time>2018-12-05T10:14:55Z</time>
      </trkpt>
      <trkpt lat="47.71877" lon="6.02018">
        <ele>240</ele>
        <time>2018-12-05T10:14:56Z</time>
      </trkpt>
      <trkpt lat="47.71875" lon="6.0201">
        <ele>240</ele>
        <time>2018-12-05T10:14:57Z</time>
      </trkpt>
      <trkpt lat="47.71874" lon="6.02002">
        <ele>240</ele>
        <time>2018-12-05T10:14:58Z</time>
      </trkpt>
      <trkpt lat="47.71873" lon="6.01995">
        <ele>243</ele>
        <time>2018-12-05T10:14:59Z</time>
      </trkpt>
      <trkpt lat="47.71872" lon="6.01986">
        <ele>243</ele>
        <time>2018-12-05T10:15:00Z</time>
      </trkpt>
      <trkpt lat="47.71871" lon="6.01978">
        <ele>243</ele>
        <time>2018-12-05T10:15:01Z</time>
      </trkpt>
      <trkpt lat="47.7187" lon="6.01971">
        <ele>243</ele>
        <time>2018-12-05T10:15:02Z</time>
      </trkpt>
      <trkpt lat="47.71869" lon="6.01964">
        <ele>243</ele>
        <time>2018-12-05T10:15:03Z</time>
      </trkpt>
      <trkpt lat="47.71868" lon="6.01957">
        <ele>244</ele>
        <time>2018-12-05T10:15:04Z</time>
      </trkpt>
      <trkpt lat="47.71867" lon="6.0195">
        <ele>244</ele>
        <time>2018-12-05T10:15:05Z</time>
      </trkpt>
      <trkpt lat="47.71865" lon="6.01943">
        <ele>244</ele>
        <time>2018-12-05T10:15:06Z</time>
      </trkpt>
      <trkpt lat="47.71862" lon="6.01931">
        <ele>244</ele>
        <time>2018-12-05T10:15:08Z</time>
      </trkpt>
      <trkpt lat="47.7186" lon="6.01918">
        <ele>245</ele>
        <time>2018-12-05T10:15:10Z</time>
      </trkpt>
      <trkpt lat="47.71858" lon="6.01905">
        <ele>247</ele>
        <time>2018-12-05T10:15:12Z</time>
      </trkpt>
      <trkpt lat="47.71857" lon="6.01899">
        <ele>247</ele>
        <time>2018-12-05T10:15:13Z</time>
      </trkpt>
      <trkpt lat="47.71856" lon="6.01886">
        <ele>247</ele>
        <time>2018-12-05T10:15:15Z</time>
      </trkpt>
      <trkpt lat="47.71854" lon="6.01873">
        <ele>247</ele>
        <time>2018-12-05T10:15:17Z</time>
      </trkpt>
      <trkpt lat="47.71854" lon="6.01866">
        <ele>247</ele>
        <time>2018-12-05T10:15:18Z</time>
      </trkpt>
      <trkpt lat="47.71854" lon="6.01859">
        <ele>247</ele>
        <time>2018-12-05T10:15:19Z</time>
      </trkpt>
      <trkpt lat="47.71853" lon="6.01852">
        <ele>247</ele>
        <time>2018-12-05T10:15:20Z</time>
      </trkpt>
      <trkpt lat="47.71851" lon="6.01845">
        <ele>247</ele>
        <time>2018-12-05T10:15:21Z</time>
      </trkpt>
      <trkpt lat="47.7185" lon="6.01838">
        <ele>248</ele>
        <time>2018-12-05T10:15:22Z</time>
      </trkpt>
      <trkpt lat="47.71849" lon="6.01831">
        <ele>249</ele>
        <time>2018-12-05T10:15:23Z</time>
      </trkpt>
      <trkpt lat="47.71845" lon="6.01823">
        <ele>249</ele>
        <time>2018-12-05T10:15:24Z</time>
      </trkpt>
      <trkpt lat="47.71842" lon="6.01817">
        <ele>249</ele>
        <time>2018-12-05T10:15:25Z</time>
      </trkpt>
      <trkpt lat="47.71838" lon="6.01809">
        <ele>249</ele>
        <time>2018-12-05T10:15:26Z</time>
      </trkpt>
      <trkpt lat="47.71836" lon="6.01803">
        <ele>249</ele>
        <time>2018-12-05T10:15:27Z</time>
      </trkpt>
      <trkpt lat="47.71833" lon="6.01795">
        <ele>250</ele>
        <time>2018-12-05T10:15:28Z</time>
      </trkpt>
      <trkpt lat="47.7183" lon="6.01789">
        <ele>250</ele>
        <time>2018-12-05T10:15:29Z</time>
      </trkpt>
      <trkpt lat="47.71826" lon="6.01783">
        <ele>250</ele>
        <time>2018-12-05T10:15:30Z</time>
      </trkpt>
      <trkpt lat="47.71824" lon="6.01776">
        <ele>250</ele>
        <time>2018-12-05T10:15:31Z</time>
      </trkpt>
      <trkpt lat="47.71822" lon="6.01769">
        <ele>250</ele>
        <time>2018-12-05T10:15:32Z</time>
      </trkpt>
      <trkpt lat="47.71818" lon="6.01758">
        <ele>250</ele>
        <time>2018-12-05T10:15:34Z</time>
      </trkpt>
      <trkpt lat="47.71813" lon="6.01748">
        <ele>250</ele>
        <time>2018-12-05T10:15:36Z</time>
      </trkpt>
      <trkpt lat="47.7181" lon="6.01742">
        <ele>250</ele>
        <time>2018-12-05T10:15:37Z</time>
      </trkpt>
      <trkpt lat="47.71807" lon="6.01736">
        <ele>250</ele>
        <time>2018-12-05T10:15:38Z</time>
      </trkpt>
      <trkpt lat="47.71805" lon="6.0173">
        <ele>250</ele>
        <time>2018-12-05T10:15:39Z</time>
      </trkpt>
      <trkpt lat="47.71803" lon="6.01723">
        <ele>249</ele>
        <time>2018-12-05T10:15:40Z</time>
      </trkpt>
      <trkpt lat="47.71801" lon="6.01717">
        <ele>249</ele>
        <time>2018-12-05T10:15:41Z</time>
      </trkpt>
      <trkpt lat="47.71796" lon="6.01706">
        <ele>249</ele>
        <time>2018-12-05T10:15:43Z</time>
      </trkpt>
      <trkpt lat="47.71792" lon="6.01694">
        <ele>249</ele>
        <time>2018-12-05T10:15:45Z</time>
      </trkpt>
      <trkpt lat="47.71788" lon="6.01683">
        <ele>249</ele>
        <time>2018-12-05T10:15:47Z</time>
      </trkpt>
      <trkpt lat="47.71783" lon="6.01673">
        <ele>249</ele>
        <time>2018-12-05T10:15:49Z</time>
      </trkpt>
      <trkpt lat="47.71778" lon="6.01661">
        <ele>247</ele>
        <time>2018-12-05T10:15:51Z</time>
      </trkpt>
      <trkpt lat="47.71773" lon="6.0165">
        <ele>246</ele>
        <time>2018-12-05T10:15:53Z</time>
      </trkpt>
      <trkpt lat="47.71771" lon="6.01645">
        <ele>246</ele>
        <time>2018-12-05T10:15:54Z</time>
      </trkpt>
      <trkpt lat="47.71766" lon="6.01635">
        <ele>246</ele>
        <time>2018-12-05T10:15:56Z</time>
      </trkpt>
      <trkpt lat="47.7176" lon="6.01629">
        <ele>246</ele>
        <time>2018-12-05T10:15:58Z</time>
      </trkpt>
      <trkpt lat="47.71753" lon="6.01631">
        <ele>246</ele>
        <time>2018-12-05T10:16:00Z</time>
      </trkpt>
      <trkpt lat="47.71748" lon="6.01638">
        <ele>247</ele>
        <time>2018-12-05T10:16:02Z</time>
      </trkpt>
      <trkpt lat="47.7174" lon="6.01639">
        <ele>248</ele>
        <time>2018-12-05T10:16:05Z</time>
      </trkpt>
      <trkpt lat="47.71734" lon="6.01636">
        <ele>248</ele>
        <time>2018-12-05T10:16:07Z</time>
      </trkpt>
      <trkpt lat="47.71729" lon="6.0163">
        <ele>248</ele>
        <time>2018-12-05T10:16:09Z</time>
      </trkpt>
      <trkpt lat="47.71724" lon="6.01622">
        <ele>248</ele>
        <time>2018-12-05T10:16:11Z</time>
      </trkpt>
      <trkpt lat="47.7172" lon="6.01616">
        <ele>248</ele>
        <time>2018-12-05T10:16:13Z</time>
      </trkpt>
      <trkpt lat="47.71716" lon="6.01611">
        <ele>248</ele>
        <time>2018-12-05T10:16:20Z</time>
      </trkpt>
      <trkpt lat="47.71712" lon="6.01607">
        <ele>248</ele>
        <time>2018-12-05T10:16:23Z</time>
      </trkpt>
      <trkpt lat="47.71708" lon="6.01599">
        <ele>248</ele>
        <time>2018-12-05T10:16:25Z</time>
      </trkpt>
      <trkpt lat="47.71704" lon="6.01589">
        <ele>248</ele>
        <time>2018-12-05T10:16:27Z</time>
      </trkpt>
      <trkpt lat="47.717" lon="6.01579">
        <ele>247</ele>
        <time>2018-12-05T10:16:29Z</time>
      </trkpt>
      <trkpt lat="47.71695" lon="6.01569">
        <ele>247</ele>
        <time>2018-12-05T10:16:31Z</time>
      </trkpt>
      <trkpt lat="47.71691" lon="6.01561">
        <ele>247</ele>
        <time>2018-12-05T10:16:33Z</time>
      </trkpt>
      <trkpt lat="47.71687" lon="6.01553">
        <ele>247</ele>
        <time>2018-12-05T10:16:35Z</time>
      </trkpt>
      <trkpt lat="47.71683" lon="6.01546">
        <ele>247</ele>
        <time>2018-12-05T10:16:37Z</time>
      </trkpt>
      <trkpt lat="47.71679" lon="6.0154">
        <ele>248</ele>
        <time>2018-12-05T10:16:39Z</time>
      </trkpt>
      <trkpt lat="47.71675" lon="6.01535">
        <ele>248</ele>
        <time>2018-12-05T10:16:41Z</time>
      </trkpt>
      <trkpt lat="47.71671" lon="6.0153">
        <ele>248</ele>
        <time>2018-12-05T10:16:43Z</time>
      </trkpt>
      <trkpt lat="47.71667" lon="6.01525">
        <ele>248</ele>
        <time>2018-12-05T10:16:45Z</time>
      </trkpt>
      <trkpt lat="47.71663" lon="6.0152">
        <ele>253</ele>
        <time>2018-12-05T10:16:47Z</time>
      </trkpt>
      <trkpt lat="47.7166" lon="6.01513">
        <ele>252</ele>
        <time>2018-12-05T10:16:49Z</time>
      </trkpt>
      <trkpt lat="47.71655" lon="6.01506">
        <ele>252</ele>
        <time>2018-12-05T10:16:51Z</time>
      </trkpt>
      <trkpt lat="47.71652" lon="6.01498">
        <ele>253</ele>
        <time>2018-12-05T10:16:53Z</time>
      </trkpt>
      <trkpt lat="47.71648" lon="6.0149">
        <ele>253</ele>
        <time>2018-12-05T10:16:55Z</time>
      </trkpt>
      <trkpt lat="47.71646" lon="6.01481">
        <ele>254</ele>
        <time>2018-12-05T10:16:57Z</time>
      </trkpt>
      <trkpt lat="47.71644" lon="6.0147">
        <ele>254</ele>
        <time>2018-12-05T10:16:59Z</time>
      </trkpt>
      <trkpt lat="47.71642" lon="6.0146">
        <ele>254</ele>
        <time>2018-12-05T10:17:01Z</time>
      </trkpt>
      <trkpt lat="47.7164" lon="6.01448">
        <ele>254</ele>
        <time>2018-12-05T10:17:03Z</time>
      </trkpt>
      <trkpt lat="47.71638" lon="6.01437">
        <ele>254</ele>
        <time>2018-12-05T10:17:05Z</time>
      </trkpt>
      <trkpt lat="47.71637" lon="6.01426">
        <ele>254</ele>
        <time>2018-12-05T10:17:07Z</time>
      </trkpt>
      <trkpt lat="47.71636" lon="6.01416">
        <ele>254</ele>
        <time>2018-12-05T10:17:09Z</time>
      </trkpt>
      <trkpt lat="47.71634" lon="6.01404">
        <ele>255</ele>
        <time>2018-12-05T10:17:11Z</time>
      </trkpt>
      <trkpt lat="47.71631" lon="6.01394">
        <ele>255</ele>
        <time>2018-12-05T10:17:13Z</time>
      </trkpt>
      <trkpt lat="47.71628" lon="6.01384">
        <ele>255</ele>
        <time>2018-12-05T10:17:15Z</time>
      </trkpt>
      <trkpt lat="47.71625" lon="6.01376">
        <ele>255</ele>
        <time>2018-12-05T10:17:17Z</time>
      </trkpt>
      <trkpt lat="47.71621" lon="6.01368">
        <ele>255</ele>
        <time>2018-12-05T10:17:19Z</time>
      </trkpt>
      <trkpt lat="47.71618" lon="6.01361">
        <ele>256</ele>
        <time>2018-12-05T10:17:21Z</time>
      </trkpt>
      <trkpt lat="47.71614" lon="6.01355">
        <ele>256</ele>
        <time>2018-12-05T10:17:23Z</time>
      </trkpt>
      <trkpt lat="47.7161" lon="6.01348">
        <ele>256</ele>
        <time>2018-12-05T10:17:25Z</time>
      </trkpt>
      <trkpt lat="47.71607" lon="6.01342">
        <ele>256</ele>
        <time>2018-12-05T10:17:27Z</time>
      </trkpt>
      <trkpt lat="47.71604" lon="6.01336">
        <ele>256</ele>
        <time>2018-12-05T10:17:29Z</time>
      </trkpt>
      <trkpt lat="47.71601" lon="6.01329">
        <ele>256</ele>
        <time>2018-12-05T10:17:31Z</time>
      </trkpt>
      <trkpt lat="47.716" lon="6.01322">
        <ele>255</ele>
        <time>2018-12-05T10:17:33Z</time>
      </trkpt>
      <trkpt lat="47.71597" lon="6.01316">
        <ele>255</ele>
        <time>2018-12-05T10:17:35Z</time>
      </trkpt>
      <trkpt lat="47.71593" lon="6.01308">
        <ele>255</ele>
        <time>2018-12-05T10:17:38Z</time>
      </trkpt>
      <trkpt lat="47.7159" lon="6.01302">
        <ele>255</ele>
        <time>2018-12-05T10:17:41Z</time>
      </trkpt>
      <trkpt lat="47.71587" lon="6.01296">
        <ele>255</ele>
        <time>2018-12-05T10:17:44Z</time>
      </trkpt>
      <trkpt lat="47.71583" lon="6.01289">
        <ele>258</ele>
        <time>2018-12-05T10:17:47Z</time>
      </trkpt>
      <trkpt lat="47.7158" lon="6.01282">
        <ele>258</ele>
        <time>2018-12-05T10:17:50Z</time>
      </trkpt>
      <trkpt lat="47.71577" lon="6.01275">
        <ele>257</ele>
        <time>2018-12-05T10:17:53Z</time>
      </trkpt>
      <trkpt lat="47.71573" lon="6.01271">
        <ele>257</ele>
        <time>2018-12-05T10:17:56Z</time>
      </trkpt>
      <trkpt lat="47.71569" lon="6.01265">
        <ele>257</ele>
        <time>2018-12-05T10:17:59Z</time>
      </trkpt>
      <trkpt lat="47.71566" lon="6.01257">
        <ele>257</ele>
        <time>2018-12-05T10:18:02Z</time>
      </trkpt>
      <trkpt lat="47.71563" lon="6.01252">
        <ele>257</ele>
        <time>2018-12-05T10:18:04Z</time>
      </trkpt>
      <trkpt lat="47.7156" lon="6.01246">
        <ele>256</ele>
        <time>2018-12-05T10:18:06Z</time>
      </trkpt>
      <trkpt lat="47.71556" lon="6.0124">
        <ele>256</ele>
        <time>2018-12-05T10:18:09Z</time>
      </trkpt>
      <trkpt lat="47.71553" lon="6.01232">
        <ele>256</ele>
        <time>2018-12-05T10:18:12Z</time>
      </trkpt>
      <trkpt lat="47.7155" lon="6.01224">
        <ele>256</ele>
        <time>2018-12-05T10:18:14Z</time>
      </trkpt>
      <trkpt lat="47.71546" lon="6.01215">
        <ele>256</ele>
        <time>2018-12-05T10:18:17Z</time>
      </trkpt>
      <trkpt lat="47.71542" lon="6.01207">
        <ele>256</ele>
        <time>2018-12-05T10:18:19Z</time>
      </trkpt>
      <trkpt lat="47.71539" lon="6.01202">
        <ele>256</ele>
        <time>2018-12-05T10:18:21Z</time>
      </trkpt>
      <trkpt lat="47.71534" lon="6.01196">
        <ele>257</ele>
        <time>2018-12-05T10:18:23Z</time>
      </trkpt>
      <trkpt lat="47.71531" lon="6.01189">
        <ele>257</ele>
        <time>2018-12-05T10:18:25Z</time>
      </trkpt>
      <trkpt lat="47.71527" lon="6.01182">
        <ele>257</ele>
        <time>2018-12-05T10:18:27Z</time>
      </trkpt>
      <trkpt lat="47.71523" lon="6.01176">
        <ele>257</ele>
        <time>2018-12-05T10:18:29Z</time>
      </trkpt>
      <trkpt lat="47.71519" lon="6.01171">
        <ele>257</ele>
        <time>2018-12-05T10:18:31Z</time>
      </trkpt>
      <trkpt lat="47.71515" lon="6.01167">
        <ele>257</ele>
        <time>2018-12-05T10:18:33Z</time>
      </trkpt>
      <trkpt lat="47.71512" lon="6.01163">
        <ele>256</ele>
        <time>2018-12-05T10:18:35Z</time>
      </trkpt>
      <trkpt lat="47.71508" lon="6.01156">
        <ele>256</ele>
        <time>2018-12-05T10:18:38Z</time>
      </trkpt>
      <trkpt lat="47.71504" lon="6.0115">
        <ele>255</ele>
        <time>2018-12-05T10:18:41Z</time>
      </trkpt>
      <trkpt lat="47.715" lon="6.01145">
        <ele>256</ele>
        <time>2018-12-05T10:18:44Z</time>
      </trkpt>
      <trkpt lat="47.71496" lon="6.0114">
        <ele>256</ele>
        <time>2018-12-05T10:18:47Z</time>
      </trkpt>
      <trkpt lat="47.71491" lon="6.01134">
        <ele>255</ele>
        <time>2018-12-05T10:18:50Z</time>
      </trkpt>
      <trkpt lat="47.71487" lon="6.01129">
        <ele>255</ele>
        <time>2018-12-05T10:18:52Z</time>
      </trkpt>
      <trkpt lat="47.71482" lon="6.01124">
        <ele>255</ele>
        <time>2018-12-05T10:18:55Z</time>
      </trkpt>
      <trkpt lat="47.71479" lon="6.01117">
        <ele>255</ele>
        <time>2018-12-05T10:18:58Z</time>
      </trkpt>
      <trkpt lat="47.71476" lon="6.01111">
        <ele>254</ele>
        <time>2018-12-05T10:19:00Z</time>
      </trkpt>
      <trkpt lat="47.71474" lon="6.01104">
        <ele>254</ele>
        <time>2018-12-05T10:19:02Z</time>
      </trkpt>
      <trkpt lat="47.71471" lon="6.01094">
        <ele>254</ele>
        <time>2018-12-05T10:19:04Z</time>
      </trkpt>
      <trkpt lat="47.71468" lon="6.01082">
        <ele>251</ele>
        <time>2018-12-05T10:19:06Z</time>
      </trkpt>
      <trkpt lat="47.71466" lon="6.01075">
        <ele>251</ele>
        <time>2018-12-05T10:19:07Z</time>
      </trkpt>
      <trkpt lat="47.71464" lon="6.01067">
        <ele>250</ele>
        <time>2018-12-05T10:19:08Z</time>
      </trkpt>
      <trkpt lat="47.71462" lon="6.0106">
        <ele>250</ele>
        <time>2018-12-05T10:19:09Z</time>
      </trkpt>
      <trkpt lat="47.7146" lon="6.01053">
        <ele>250</ele>
        <time>2018-12-05T10:19:10Z</time>
      </trkpt>
      <trkpt lat="47.71458" lon="6.01046">
        <ele>250</ele>
        <time>2018-12-05T10:19:11Z</time>
      </trkpt>
      <trkpt lat="47.71454" lon="6.01033">
        <ele>250</ele>
        <time>2018-12-05T10:19:13Z</time>
      </trkpt>
      <trkpt lat="47.7145" lon="6.01021">
        <ele>250</ele>
        <time>2018-12-05T10:19:14Z</time>
      </trkpt>
      <trkpt lat="47.71448" lon="6.01014">
        <ele>250</ele>
        <time>2018-12-05T10:19:15Z</time>
      </trkpt>
      <trkpt lat="47.71446" lon="6.01006">
        <ele>250</ele>
        <time>2018-12-05T10:19:16Z</time>
      </trkpt>
      <trkpt lat="47.71444" lon="6.00999">
        <ele>249</ele>
        <time>2018-12-05T10:19:17Z</time>
      </trkpt>
      <trkpt lat="47.71442" lon="6.00992">
        <ele>249</ele>
        <time>2018-12-05T10:19:18Z</time>
      </trkpt>
      <trkpt lat="47.71439" lon="6.00985">
        <ele>249</ele>
        <time>2018-12-05T10:19:19Z</time>
      </trkpt>
      <trkpt lat="47.71437" lon="6.00978">
        <ele>249</ele>
        <time>2018-12-05T10:19:20Z</time>
      </trkpt>
      <trkpt lat="47.71436" lon="6.0097">
        <ele>249</ele>
        <time>2018-12-05T10:19:21Z</time>
      </trkpt>
      <trkpt lat="47.71434" lon="6.00963">
        <ele>249</ele>
        <time>2018-12-05T10:19:22Z</time>
      </trkpt>
      <trkpt lat="47.71432" lon="6.00957">
        <ele>249</ele>
        <time>2018-12-05T10:19:23Z</time>
      </trkpt>
      <trkpt lat="47.71429" lon="6.00946">
        <ele>250</ele>
        <time>2018-12-05T10:19:25Z</time>
      </trkpt>
      <trkpt lat="47.71428" lon="6.00934">
        <ele>250</ele>
        <time>2018-12-05T10:19:27Z</time>
      </trkpt>
      <trkpt lat="47.71425" lon="6.00922">
        <ele>251</ele>
        <time>2018-12-05T10:19:29Z</time>
      </trkpt>
      <trkpt lat="47.71425" lon="6.00911">
        <ele>251</ele>
        <time>2018-12-05T10:19:31Z</time>
      </trkpt>
      <trkpt lat="47.71424" lon="6.009">
        <ele>251</ele>
        <time>2018-12-05T10:19:33Z</time>
      </trkpt>
      <trkpt lat="47.71421" lon="6.00891">
        <ele>251</ele>
        <time>2018-12-05T10:19:35Z</time>
      </trkpt>
      <trkpt lat="47.71419" lon="6.00882">
        <ele>251</ele>
        <time>2018-12-05T10:19:37Z</time>
      </trkpt>
      <trkpt lat="47.71416" lon="6.00875">
        <ele>253</ele>
        <time>2018-12-05T10:19:39Z</time>
      </trkpt>
      <trkpt lat="47.71413" lon="6.00869">
        <ele>253</ele>
        <time>2018-12-05T10:19:41Z</time>
      </trkpt>
      <trkpt lat="47.71408" lon="6.00863">
        <ele>253</ele>
        <time>2018-12-05T10:19:43Z</time>
      </trkpt>
      <trkpt lat="47.71403" lon="6.00858">
        <ele>253</ele>
        <time>2018-12-05T10:19:45Z</time>
      </trkpt>
      <trkpt lat="47.71397" lon="6.00853">
        <ele>253</ele>
        <time>2018-12-05T10:19:47Z</time>
      </trkpt>
      <trkpt lat="47.7139" lon="6.00847">
        <ele>253</ele>
        <time>2018-12-05T10:19:49Z</time>
      </trkpt>
      <trkpt lat="47.71383" lon="6.00845">
        <ele>254</ele>
        <time>2018-12-05T10:19:51Z</time>
      </trkpt>
      <trkpt lat="47.71377" lon="6.00845">
        <ele>254</ele>
        <time>2018-12-05T10:19:53Z</time>
      </trkpt>
      <trkpt lat="47.71371" lon="6.00846">
        <ele>254</ele>
        <time>2018-12-05T10:19:55Z</time>
      </trkpt>
      <trkpt lat="47.71366" lon="6.00844">
        <ele>254</ele>
        <time>2018-12-05T10:19:57Z</time>
      </trkpt>
      <trkpt lat="47.7136" lon="6.00843">
        <ele>254</ele>
        <time>2018-12-05T10:19:59Z</time>
      </trkpt>
      <trkpt lat="47.71353" lon="6.00844">
        <ele>254</ele>
        <time>2018-12-05T10:20:01Z</time>
      </trkpt>
      <trkpt lat="47.71347" lon="6.00844">
        <ele>255</ele>
        <time>2018-12-05T10:20:03Z</time>
      </trkpt>
      <trkpt lat="47.71341" lon="6.00843">
        <ele>255</ele>
        <time>2018-12-05T10:20:05Z</time>
      </trkpt>
      <trkpt lat="47.71335" lon="6.00843">
        <ele>255</ele>
        <time>2018-12-05T10:20:07Z</time>
      </trkpt>
      <trkpt lat="47.71331" lon="6.00843">
        <ele>255</ele>
        <time>2018-12-05T10:20:09Z</time>
      </trkpt>
      <trkpt lat="47.71326" lon="6.00843">
        <ele>256</ele>
        <time>2018-12-05T10:20:11Z</time>
      </trkpt>
      <trkpt lat="47.71319" lon="6.00841">
        <ele>256</ele>
        <time>2018-12-05T10:20:14Z</time>
      </trkpt>
      <trkpt lat="47.71314" lon="6.0084">
        <ele>256</ele>
        <time>2018-12-05T10:20:16Z</time>
      </trkpt>
      <trkpt lat="47.71309" lon="6.00838">
        <ele>256</ele>
        <time>2018-12-05T10:20:18Z</time>
      </trkpt>
      <trkpt lat="47.71303" lon="6.00833">
        <ele>256</ele>
        <time>2018-12-05T10:20:20Z</time>
      </trkpt>
      <trkpt lat="47.71297" lon="6.0083">
        <ele>254</ele>
        <time>2018-12-05T10:20:22Z</time>
      </trkpt>
      <trkpt lat="47.7129" lon="6.00827">
        <ele>254</ele>
        <time>2018-12-05T10:20:24Z</time>
      </trkpt>
      <trkpt lat="47.71284" lon="6.00823">
        <ele>254</ele>
        <time>2018-12-05T10:20:26Z</time>
      </trkpt>
      <trkpt lat="47.71277" lon="6.00819">
        <ele>254</ele>
        <time>2018-12-05T10:20:28Z</time>
      </trkpt>
      <trkpt lat="47.71271" lon="6.00815">
        <ele>254</ele>
        <time>2018-12-05T10:20:30Z</time>
      </trkpt>
      <trkpt lat="47.71265" lon="6.0081">
        <ele>254</ele>
        <time>2018-12-05T10:20:32Z</time>
      </trkpt>
      <trkpt lat="47.71257" lon="6.00804">
        <ele>254</ele>
        <time>2018-12-05T10:20:34Z</time>
      </trkpt>
      <trkpt lat="47.71249" lon="6.00797">
        <ele>254</ele>
        <time>2018-12-05T10:20:36Z</time>
      </trkpt>
      <trkpt lat="47.71245" lon="6.00793">
        <ele>254</ele>
        <time>2018-12-05T10:20:37Z</time>
      </trkpt>
      <trkpt lat="47.71236" lon="6.00786">
        <ele>253</ele>
        <time>2018-12-05T10:20:38Z</time>
      </trkpt>
      <trkpt lat="47.71232" lon="6.00782">
        <ele>253</ele>
        <time>2018-12-05T10:20:39Z</time>
      </trkpt>
      <trkpt lat="47.71228" lon="6.00778">
        <ele>253</ele>
        <time>2018-12-05T10:20:40Z</time>
      </trkpt>
      <trkpt lat="47.71223" lon="6.00774">
        <ele>253</ele>
        <time>2018-12-05T10:20:41Z</time>
      </trkpt>
      <trkpt lat="47.71218" lon="6.00771">
        <ele>253</ele>
        <time>2018-12-05T10:20:42Z</time>
      </trkpt>
      <trkpt lat="47.71214" lon="6.00768">
        <ele>253</ele>
        <time>2018-12-05T10:20:43Z</time>
      </trkpt>
      <trkpt lat="47.71209" lon="6.00765">
        <ele>253</ele>
        <time>2018-12-05T10:20:44Z</time>
      </trkpt>
      <trkpt lat="47.71204" lon="6.00763">
        <ele>253</ele>
        <time>2018-12-05T10:20:45Z</time>
      </trkpt>
      <trkpt lat="47.71199" lon="6.00759">
        <ele>253</ele>
        <time>2018-12-05T10:20:46Z</time>
      </trkpt>
      <trkpt lat="47.71193" lon="6.00756">
        <ele>252</ele>
        <time>2018-12-05T10:20:47Z</time>
      </trkpt>
      <trkpt lat="47.71187" lon="6.00753">
        <ele>252</ele>
        <time>2018-12-05T10:20:48Z</time>
      </trkpt>
      <trkpt lat="47.71181" lon="6.0075">
        <ele>252</ele>
        <time>2018-12-05T10:20:49Z</time>
      </trkpt>
      <trkpt lat="47.71175" lon="6.00747">
        <ele>251</ele>
        <time>2018-12-05T10:20:50Z</time>
      </trkpt>
      <trkpt lat="47.71169" lon="6.00744">
        <ele>251</ele>
        <time>2018-12-05T10:20:51Z</time>
      </trkpt>
      <trkpt lat="47.71163" lon="6.00741">
        <ele>250</ele>
        <time>2018-12-05T10:20:52Z</time>
      </trkpt>
      <trkpt lat="47.71157" lon="6.00738">
        <ele>250</ele>
        <time>2018-12-05T10:20:53Z</time>
      </trkpt>
      <trkpt lat="47.71151" lon="6.00734">
        <ele>250</ele>
        <time>2018-12-05T10:20:54Z</time>
      </trkpt>
      <trkpt lat="47.71144" lon="6.0073">
        <ele>249</ele>
        <time>2018-12-05T10:20:55Z</time>
      </trkpt>
      <trkpt lat="47.71138" lon="6.00725">
        <ele>249</ele>
        <time>2018-12-05T10:20:56Z</time>
      </trkpt>
      <trkpt lat="47.71132" lon="6.00722">
        <ele>249</ele>
        <time>2018-12-05T10:20:57Z</time>
      </trkpt>
      <trkpt lat="47.71126" lon="6.00719">
        <ele>249</ele>
        <time>2018-12-05T10:20:58Z</time>
      </trkpt>
      <trkpt lat="47.7112" lon="6.00717">
        <ele>249</ele>
        <time>2018-12-05T10:20:59Z</time>
      </trkpt>
      <trkpt lat="47.71113" lon="6.00715">
        <ele>249</ele>
        <time>2018-12-05T10:21:00Z</time>
      </trkpt>
      <trkpt lat="47.71107" lon="6.00712">
        <ele>249</ele>
        <time>2018-12-05T10:21:01Z</time>
      </trkpt>
      <trkpt lat="47.711" lon="6.00709">
        <ele>249</ele>
        <time>2018-12-05T10:21:02Z</time>
      </trkpt>
      <trkpt lat="47.71093" lon="6.00705">
        <ele>248</ele>
        <time>2018-12-05T10:21:03Z</time>
      </trkpt>
      <trkpt lat="47.71087" lon="6.00701">
        <ele>248</ele>
        <time>2018-12-05T10:21:04Z</time>
      </trkpt>
      <trkpt lat="47.7108" lon="6.00698">
        <ele>250</ele>
        <time>2018-12-05T10:21:05Z</time>
      </trkpt>
      <trkpt lat="47.71074" lon="6.00695">
        <ele>250</ele>
        <time>2018-12-05T10:21:06Z</time>
      </trkpt>
      <trkpt lat="47.71068" lon="6.00693">
        <ele>250</ele>
        <time>2018-12-05T10:21:07Z</time>
      </trkpt>
      <trkpt lat="47.71063" lon="6.0069">
        <ele>250</ele>
        <time>2018-12-05T10:21:08Z</time>
      </trkpt>
      <trkpt lat="47.71058" lon="6.00688">
        <ele>250</ele>
        <time>2018-12-05T10:21:09Z</time>
      </trkpt>
      <trkpt lat="47.71052" lon="6.00685">
        <ele>250</ele>
        <time>2018-12-05T10:21:10Z</time>
      </trkpt>
      <trkpt lat="47.71047" lon="6.00683">
        <ele>250</ele>
        <time>2018-12-05T10:21:11Z</time>
      </trkpt>
      <trkpt lat="47.71043" lon="6.00681">
        <ele>251</ele>
        <time>2018-12-05T10:21:12Z</time>
      </trkpt>
      <trkpt lat="47.71035" lon="6.00677">
        <ele>251</ele>
        <time>2018-12-05T10:21:14Z</time>
      </trkpt>
      <trkpt lat="47.71031" lon="6.00674">
        <ele>251</ele>
        <time>2018-12-05T10:21:15Z</time>
      </trkpt>
      <trkpt lat="47.71027" lon="6.0067">
        <ele>251</ele>
        <time>2018-12-05T10:21:16Z</time>
      </trkpt>
      <trkpt lat="47.7102" lon="6.00663">
        <ele>249</ele>
        <time>2018-12-05T10:21:18Z</time>
      </trkpt>
      <trkpt lat="47.71014" lon="6.00659">
        <ele>249</ele>
        <time>2018-12-05T10:21:20Z</time>
      </trkpt>
      <trkpt lat="47.71008" lon="6.00653">
        <ele>249</ele>
        <time>2018-12-05T10:21:23Z</time>
      </trkpt>
      <trkpt lat="47.71001" lon="6.00646">
        <ele>249</ele>
        <time>2018-12-05T10:21:25Z</time>
      </trkpt>
      <trkpt lat="47.70996" lon="6.0064">
        <ele>252</ele>
        <time>2018-12-05T10:21:27Z</time>
      </trkpt>
      <trkpt lat="47.7099" lon="6.00634">
        <ele>252</ele>
        <time>2018-12-05T10:21:29Z</time>
      </trkpt>
      <trkpt lat="47.70985" lon="6.00628">
        <ele>252</ele>
        <time>2018-12-05T10:21:31Z</time>
      </trkpt>
      <trkpt lat="47.70981" lon="6.00623">
        <ele>252</ele>
        <time>2018-12-05T10:21:33Z</time>
      </trkpt>
      <trkpt lat="47.70977" lon="6.00618">
        <ele>251</ele>
        <time>2018-12-05T10:21:35Z</time>
      </trkpt>
      <trkpt lat="47.70971" lon="6.00612">
        <ele>251</ele>
        <time>2018-12-05T10:21:37Z</time>
      </trkpt>
      <trkpt lat="47.70965" lon="6.00608">
        <ele>252</ele>
        <time>2018-12-05T10:21:39Z</time>
      </trkpt>
      <trkpt lat="47.7096" lon="6.00604">
        <ele>252</ele>
        <time>2018-12-05T10:21:41Z</time>
      </trkpt>
      <trkpt lat="47.70954" lon="6.00602">
        <ele>252</ele>
        <time>2018-12-05T10:21:43Z</time>
      </trkpt>
      <trkpt lat="47.70949" lon="6.00599">
        <ele>252</ele>
        <time>2018-12-05T10:21:45Z</time>
      </trkpt>
      <trkpt lat="47.70944" lon="6.00597">
        <ele>253</ele>
        <time>2018-12-05T10:21:47Z</time>
      </trkpt>
      <trkpt lat="47.7094" lon="6.00595">
        <ele>253</ele>
        <time>2018-12-05T10:21:49Z</time>
      </trkpt>
      <trkpt lat="47.70935" lon="6.00591">
        <ele>253</ele>
        <time>2018-12-05T10:21:52Z</time>
      </trkpt>
      <trkpt lat="47.70931" lon="6.00587">
        <ele>253</ele>
        <time>2018-12-05T10:21:55Z</time>
      </trkpt>
      <trkpt lat="47.70926" lon="6.00586">
        <ele>253</ele>
        <time>2018-12-05T10:21:58Z</time>
      </trkpt>
      <trkpt lat="47.70922" lon="6.00589">
        <ele>254</ele>
        <time>2018-12-05T10:22:02Z</time>
      </trkpt>
      <trkpt lat="47.70919" lon="6.00595">
        <ele>253</ele>
        <time>2018-12-05T10:22:05Z</time>
      </trkpt>
      <trkpt lat="47.70917" lon="6.00602">
        <ele>253</ele>
        <time>2018-12-05T10:22:08Z</time>
      </trkpt>
      <trkpt lat="47.70915" lon="6.00609">
        <ele>255</ele>
        <time>2018-12-05T10:22:12Z</time>
      </trkpt>
      <trkpt lat="47.70914" lon="6.00616">
        <ele>255</ele>
        <time>2018-12-05T10:22:16Z</time>
      </trkpt>
      <trkpt lat="47.70912" lon="6.00623">
        <ele>256</ele>
        <time>2018-12-05T10:22:20Z</time>
      </trkpt>
      <trkpt lat="47.7091" lon="6.00633">
        <ele>256</ele>
        <time>2018-12-05T10:22:23Z</time>
      </trkpt>
      <trkpt lat="47.70908" lon="6.0064">
        <ele>256</ele>
        <time>2018-12-05T10:22:26Z</time>
      </trkpt>
      <trkpt lat="47.70907" lon="6.00649">
        <ele>257</ele>
        <time>2018-12-05T10:22:30Z</time>
      </trkpt>
      <trkpt lat="47.70906" lon="6.00656">
        <ele>257</ele>
        <time>2018-12-05T10:22:32Z</time>
      </trkpt>
      <trkpt lat="47.70904" lon="6.00664">
        <ele>257</ele>
        <time>2018-12-05T10:22:36Z</time>
      </trkpt>
      <trkpt lat="47.70903" lon="6.00671">
        <ele>257</ele>
        <time>2018-12-05T10:22:39Z</time>
      </trkpt>
      <trkpt lat="47.70902" lon="6.0068">
        <ele>257</ele>
        <time>2018-12-05T10:22:41Z</time>
      </trkpt>
      <trkpt lat="47.70901" lon="6.00692">
        <ele>257</ele>
        <time>2018-12-05T10:22:44Z</time>
      </trkpt>
      <trkpt lat="47.70902" lon="6.007">
        <ele>257</ele>
        <time>2018-12-05T10:22:45Z</time>
      </trkpt>
      <trkpt lat="47.70903" lon="6.00707">
        <ele>257</ele>
        <time>2018-12-05T10:22:46Z</time>
      </trkpt>
      <trkpt lat="47.70903" lon="6.00714">
        <ele>257</ele>
        <time>2018-12-05T10:22:47Z</time>
      </trkpt>
      <trkpt lat="47.70901" lon="6.00728">
        <ele>257</ele>
        <time>2018-12-05T10:22:49Z</time>
      </trkpt>
      <trkpt lat="47.70899" lon="6.00735">
        <ele>257</ele>
        <time>2018-12-05T10:22:50Z</time>
      </trkpt>
      <trkpt lat="47.70895" lon="6.00742">
        <ele>257</ele>
        <time>2018-12-05T10:22:51Z</time>
      </trkpt>
      <trkpt lat="47.70892" lon="6.0075">
        <ele>258</ele>
        <time>2018-12-05T10:22:52Z</time>
      </trkpt>
      <trkpt lat="47.70888" lon="6.00758">
        <ele>257</ele>
        <time>2018-12-05T10:22:53Z</time>
      </trkpt>
      <trkpt lat="47.70876" lon="6.00776">
        <ele>257</ele>
        <time>2018-12-05T10:22:54Z</time>
      </trkpt>
      <trkpt lat="47.70867" lon="6.00789">
        <ele>257</ele>
        <time>2018-12-05T10:22:55Z</time>
      </trkpt>
      <trkpt lat="47.7086" lon="6.00797">
        <ele>257</ele>
        <time>2018-12-05T10:22:56Z</time>
      </trkpt>
      <trkpt lat="47.70854" lon="6.00805">
        <ele>256</ele>
        <time>2018-12-05T10:22:57Z</time>
      </trkpt>
      <trkpt lat="47.70849" lon="6.00811">
        <ele>256</ele>
        <time>2018-12-05T10:22:58Z</time>
      </trkpt>
      <trkpt lat="47.70844" lon="6.00818">
        <ele>256</ele>
        <time>2018-12-05T10:22:59Z</time>
      </trkpt>
      <trkpt lat="47.70829" lon="6.00839">
        <ele>255</ele>
        <time>2018-12-05T10:23:00Z</time>
      </trkpt>
      <trkpt lat="47.70824" lon="6.00846">
        <ele>254</ele>
        <time>2018-12-05T10:23:01Z</time>
      </trkpt>
      <trkpt lat="47.7082" lon="6.00852">
        <ele>254</ele>
        <time>2018-12-05T10:23:02Z</time>
      </trkpt>
      <trkpt lat="47.70817" lon="6.00859">
        <ele>254</ele>
        <time>2018-12-05T10:23:03Z</time>
      </trkpt>
      <trkpt lat="47.70813" lon="6.00867">
        <ele>254</ele>
        <time>2018-12-05T10:23:04Z</time>
      </trkpt>
      <trkpt lat="47.70812" lon="6.00874">
        <ele>254</ele>
        <time>2018-12-05T10:23:05Z</time>
      </trkpt>
      <trkpt lat="47.70809" lon="6.00882">
        <ele>254</ele>
        <time>2018-12-05T10:23:06Z</time>
      </trkpt>
      <trkpt lat="47.70807" lon="6.00889">
        <ele>254</ele>
        <time>2018-12-05T10:23:07Z</time>
      </trkpt>
      <trkpt lat="47.70804" lon="6.00897">
        <ele>254</ele>
        <time>2018-12-05T10:23:08Z</time>
      </trkpt>
      <trkpt lat="47.70804" lon="6.00906">
        <ele>254</ele>
        <time>2018-12-05T10:23:09Z</time>
      </trkpt>
      <trkpt lat="47.70804" lon="6.00917">
        <ele>255</ele>
        <time>2018-12-05T10:23:10Z</time>
      </trkpt>
      <trkpt lat="47.70805" lon="6.00926">
        <ele>255</ele>
        <time>2018-12-05T10:23:11Z</time>
      </trkpt>
      <trkpt lat="47.70803" lon="6.00937">
        <ele>255</ele>
        <time>2018-12-05T10:23:12Z</time>
      </trkpt>
      <trkpt lat="47.70803" lon="6.00945">
        <ele>255</ele>
        <time>2018-12-05T10:23:13Z</time>
      </trkpt>
      <trkpt lat="47.70804" lon="6.00954">
        <ele>255</ele>
        <time>2018-12-05T10:23:14Z</time>
      </trkpt>
      <trkpt lat="47.70804" lon="6.00963">
        <ele>255</ele>
        <time>2018-12-05T10:23:15Z</time>
      </trkpt>
      <trkpt lat="47.70805" lon="6.00972">
        <ele>255</ele>
        <time>2018-12-05T10:23:16Z</time>
      </trkpt>
      <trkpt lat="47.70806" lon="6.00979">
        <ele>255</ele>
        <time>2018-12-05T10:23:17Z</time>
      </trkpt>
      <trkpt lat="47.70808" lon="6.00988">
        <ele>255</ele>
        <time>2018-12-05T10:23:18Z</time>
      </trkpt>
      <trkpt lat="47.70809" lon="6.00998">
        <ele>255</ele>
        <time>2018-12-05T10:23:19Z</time>
      </trkpt>
      <trkpt lat="47.7081" lon="6.01007">
        <ele>255</ele>
        <time>2018-12-05T10:23:20Z</time>
      </trkpt>
      <trkpt lat="47.70811" lon="6.01017">
        <ele>255</ele>
        <time>2018-12-05T10:23:21Z</time>
      </trkpt>
      <trkpt lat="47.70812" lon="6.01028">
        <ele>255</ele>
        <time>2018-12-05T10:23:22Z</time>
      </trkpt>
      <trkpt lat="47.70813" lon="6.01038">
        <ele>255</ele>
        <time>2018-12-05T10:23:23Z</time>
      </trkpt>
      <trkpt lat="47.70814" lon="6.01047">
        <ele>255</ele>
        <time>2018-12-05T10:23:24Z</time>
      </trkpt>
      <trkpt lat="47.70815" lon="6.01056">
        <ele>255</ele>
        <time>2018-12-05T10:23:25Z</time>
      </trkpt>
      <trkpt lat="47.70816" lon="6.01064">
        <ele>255</ele>
        <time>2018-12-05T10:23:26Z</time>
      </trkpt>
      <trkpt lat="47.70818" lon="6.01072">
        <ele>255</ele>
        <time>2018-12-05T10:23:27Z</time>
      </trkpt>
      <trkpt lat="47.7082" lon="6.0108">
        <ele>255</ele>
        <time>2018-12-05T10:23:28Z</time>
      </trkpt>
      <trkpt lat="47.70822" lon="6.01086">
        <ele>255</ele>
        <time>2018-12-05T10:23:29Z</time>
      </trkpt>
      <trkpt lat="47.70825" lon="6.01099">
        <ele>255</ele>
        <time>2018-12-05T10:23:31Z</time>
      </trkpt>
      <trkpt lat="47.70826" lon="6.01106">
        <ele>255</ele>
        <time>2018-12-05T10:23:32Z</time>
      </trkpt>
      <trkpt lat="47.70827" lon="6.01113">
        <ele>255</ele>
        <time>2018-12-05T10:23:33Z</time>
      </trkpt>
      <trkpt lat="47.7083" lon="6.01124">
        <ele>255</ele>
        <time>2018-12-05T10:23:35Z</time>
      </trkpt>
      <trkpt lat="47.70833" lon="6.01136">
        <ele>255</ele>
        <time>2018-12-05T10:23:37Z</time>
      </trkpt>
      <trkpt lat="47.70834" lon="6.01144">
        <ele>254</ele>
        <time>2018-12-05T10:23:39Z</time>
      </trkpt>
      <trkpt lat="47.70835" lon="6.01154">
        <ele>254</ele>
        <time>2018-12-05T10:23:41Z</time>
      </trkpt>
      <trkpt lat="47.70837" lon="6.01165">
        <ele>255</ele>
        <time>2018-12-05T10:23:43Z</time>
      </trkpt>
      <trkpt lat="47.70837" lon="6.01176">
        <ele>254</ele>
        <time>2018-12-05T10:23:45Z</time>
      </trkpt>
      <trkpt lat="47.70837" lon="6.01194">
        <ele>253</ele>
        <time>2018-12-05T10:23:47Z</time>
      </trkpt>
      <trkpt lat="47.70838" lon="6.01201">
        <ele>253</ele>
        <time>2018-12-05T10:23:48Z</time>
      </trkpt>
      <trkpt lat="47.70839" lon="6.01214">
        <ele>252</ele>
        <time>2018-12-05T10:23:50Z</time>
      </trkpt>
      <trkpt lat="47.7084" lon="6.01227">
        <ele>253</ele>
        <time>2018-12-05T10:23:52Z</time>
      </trkpt>
      <trkpt lat="47.7084" lon="6.01239">
        <ele>253</ele>
        <time>2018-12-05T10:23:54Z</time>
      </trkpt>
      <trkpt lat="47.7084" lon="6.01246">
        <ele>254</ele>
        <time>2018-12-05T10:23:55Z</time>
      </trkpt>
      <trkpt lat="47.70842" lon="6.0126">
        <ele>252</ele>
        <time>2018-12-05T10:23:57Z</time>
      </trkpt>
      <trkpt lat="47.70841" lon="6.01273">
        <ele>251</ele>
        <time>2018-12-05T10:23:59Z</time>
      </trkpt>
      <trkpt lat="47.70841" lon="6.01285">
        <ele>250</ele>
        <time>2018-12-05T10:24:01Z</time>
      </trkpt>
      <trkpt lat="47.70842" lon="6.01298">
        <ele>249</ele>
        <time>2018-12-05T10:24:03Z</time>
      </trkpt>
      <trkpt lat="47.70842" lon="6.01311">
        <ele>249</ele>
        <time>2018-12-05T10:24:05Z</time>
      </trkpt>
      <trkpt lat="47.70842" lon="6.01319">
        <ele>249</ele>
        <time>2018-12-05T10:24:06Z</time>
      </trkpt>
      <trkpt lat="47.70841" lon="6.01327">
        <ele>249</ele>
        <time>2018-12-05T10:24:07Z</time>
      </trkpt>
      <trkpt lat="47.70839" lon="6.01335">
        <ele>249</ele>
        <time>2018-12-05T10:24:08Z</time>
      </trkpt>
      <trkpt lat="47.70838" lon="6.01344">
        <ele>248</ele>
        <time>2018-12-05T10:24:09Z</time>
      </trkpt>
      <trkpt lat="47.70836" lon="6.01353">
        <ele>247</ele>
        <time>2018-12-05T10:24:10Z</time>
      </trkpt>
      <trkpt lat="47.70835" lon="6.01362">
        <ele>247</ele>
        <time>2018-12-05T10:24:11Z</time>
      </trkpt>
      <trkpt lat="47.70834" lon="6.01371">
        <ele>246</ele>
        <time>2018-12-05T10:24:12Z</time>
      </trkpt>
      <trkpt lat="47.70831" lon="6.0138">
        <ele>250</ele>
        <time>2018-12-05T10:24:13Z</time>
      </trkpt>
      <trkpt lat="47.70829" lon="6.0139">
        <ele>249</ele>
        <time>2018-12-05T10:24:14Z</time>
      </trkpt>
      <trkpt lat="47.70826" lon="6.014">
        <ele>249</ele>
        <time>2018-12-05T10:24:15Z</time>
      </trkpt>
      <trkpt lat="47.70822" lon="6.0141">
        <ele>248</ele>
        <time>2018-12-05T10:24:16Z</time>
      </trkpt>
      <trkpt lat="47.70819" lon="6.0142">
        <ele>247</ele>
        <time>2018-12-05T10:24:17Z</time>
      </trkpt>
      <trkpt lat="47.70816" lon="6.01427">
        <ele>248</ele>
        <time>2018-12-05T10:24:18Z</time>
      </trkpt>
      <trkpt lat="47.70814" lon="6.01434">
        <ele>248</ele>
        <time>2018-12-05T10:24:19Z</time>
      </trkpt>
      <trkpt lat="47.70811" lon="6.01441">
        <ele>248</ele>
        <time>2018-12-05T10:24:20Z</time>
      </trkpt>
      <trkpt lat="47.70808" lon="6.01448">
        <ele>248</ele>
        <time>2018-12-05T10:24:21Z</time>
      </trkpt>
      <trkpt lat="47.70804" lon="6.01455">
        <ele>248</ele>
        <time>2018-12-05T10:24:22Z</time>
      </trkpt>
      <trkpt lat="47.708" lon="6.01462">
        <ele>248</ele>
        <time>2018-12-05T10:24:23Z</time>
      </trkpt>
      <trkpt lat="47.70796" lon="6.0147">
        <ele>249</ele>
        <time>2018-12-05T10:24:24Z</time>
      </trkpt>
      <trkpt lat="47.70792" lon="6.01477">
        <ele>249</ele>
        <time>2018-12-05T10:24:25Z</time>
      </trkpt>
      <trkpt lat="47.70788" lon="6.01484">
        <ele>249</ele>
        <time>2018-12-05T10:24:26Z</time>
      </trkpt>
      <trkpt lat="47.70784" lon="6.01491">
        <ele>249</ele>
        <time>2018-12-05T10:24:27Z</time>
      </trkpt>
      <trkpt lat="47.7078" lon="6.01499">
        <ele>249</ele>
        <time>2018-12-05T10:24:28Z</time>
      </trkpt>
      <trkpt lat="47.70776" lon="6.01506">
        <ele>248</ele>
        <time>2018-12-05T10:24:29Z</time>
      </trkpt>
      <trkpt lat="47.70771" lon="6.01512">
        <ele>248</ele>
        <time>2018-12-05T10:24:30Z</time>
      </trkpt>
      <trkpt lat="47.70768" lon="6.01518">
        <ele>248</ele>
        <time>2018-12-05T10:24:31Z</time>
      </trkpt>
      <trkpt lat="47.70766" lon="6.01526">
        <ele>248</ele>
        <time>2018-12-05T10:24:32Z</time>
      </trkpt>
      <trkpt lat="47.70763" lon="6.01533">
        <ele>248</ele>
        <time>2018-12-05T10:24:33Z</time>
      </trkpt>
      <trkpt lat="47.7076" lon="6.01539">
        <ele>248</ele>
        <time>2018-12-05T10:24:34Z</time>
      </trkpt>
      <trkpt lat="47.70756" lon="6.01546">
        <ele>248</ele>
        <time>2018-12-05T10:24:35Z</time>
      </trkpt>
      <trkpt lat="47.70753" lon="6.01553">
        <ele>248</ele>
        <time>2018-12-05T10:24:36Z</time>
      </trkpt>
      <trkpt lat="47.7075" lon="6.01561">
        <ele>247</ele>
        <time>2018-12-05T10:24:37Z</time>
      </trkpt>
      <trkpt lat="47.70749" lon="6.0157">
        <ele>247</ele>
        <time>2018-12-05T10:24:38Z</time>
      </trkpt>
      <trkpt lat="47.70747" lon="6.01579">
        <ele>247</ele>
        <time>2018-12-05T10:24:39Z</time>
      </trkpt>
      <trkpt lat="47.70745" lon="6.01586">
        <ele>246</ele>
        <time>2018-12-05T10:24:40Z</time>
      </trkpt>
      <trkpt lat="47.70743" lon="6.01594">
        <ele>246</ele>
        <time>2018-12-05T10:24:41Z</time>
      </trkpt>
      <trkpt lat="47.70741" lon="6.01602">
        <ele>246</ele>
        <time>2018-12-05T10:24:42Z</time>
      </trkpt>
      <trkpt lat="47.7074" lon="6.0161">
        <ele>246</ele>
        <time>2018-12-05T10:24:43Z</time>
      </trkpt>
      <trkpt lat="47.70737" lon="6.01622">
        <ele>246</ele>
        <time>2018-12-05T10:24:45Z</time>
      </trkpt>
      <trkpt lat="47.70734" lon="6.01635">
        <ele>246</ele>
        <time>2018-12-05T10:24:47Z</time>
      </trkpt>
      <trkpt lat="47.70732" lon="6.01643">
        <ele>246</ele>
        <time>2018-12-05T10:24:49Z</time>
      </trkpt>
      <trkpt lat="47.70731" lon="6.01652">
        <ele>246</ele>
        <time>2018-12-05T10:24:51Z</time>
      </trkpt>
      <trkpt lat="47.70728" lon="6.01662">
        <ele>245</ele>
        <time>2018-12-05T10:24:53Z</time>
      </trkpt>
      <trkpt lat="47.70725" lon="6.01673">
        <ele>244</ele>
        <time>2018-12-05T10:24:55Z</time>
      </trkpt>
      <trkpt lat="47.70724" lon="6.01679">
        <ele>244</ele>
        <time>2018-12-05T10:24:56Z</time>
      </trkpt>
      <trkpt lat="47.70721" lon="6.01685">
        <ele>244</ele>
        <time>2018-12-05T10:24:57Z</time>
      </trkpt>
      <trkpt lat="47.70718" lon="6.01696">
        <ele>244</ele>
        <time>2018-12-05T10:24:59Z</time>
      </trkpt>
      <trkpt lat="47.70715" lon="6.01708">
        <ele>244</ele>
        <time>2018-12-05T10:25:01Z</time>
      </trkpt>
      <trkpt lat="47.70714" lon="6.01714">
        <ele>244</ele>
        <time>2018-12-05T10:25:02Z</time>
      </trkpt>
      <trkpt lat="47.70711" lon="6.01728">
        <ele>244</ele>
        <time>2018-12-05T10:25:03Z</time>
      </trkpt>
      <trkpt lat="47.7071" lon="6.01737">
        <ele>244</ele>
        <time>2018-12-05T10:25:05Z</time>
      </trkpt>
      <trkpt lat="47.70707" lon="6.0175">
        <ele>243</ele>
        <time>2018-12-05T10:25:07Z</time>
      </trkpt>
      <trkpt lat="47.70706" lon="6.01756">
        <ele>242</ele>
        <time>2018-12-05T10:25:08Z</time>
      </trkpt>
      <trkpt lat="47.70704" lon="6.01764">
        <ele>242</ele>
        <time>2018-12-05T10:25:09Z</time>
      </trkpt>
      <trkpt lat="47.70702" lon="6.0177">
        <ele>242</ele>
        <time>2018-12-05T10:25:10Z</time>
      </trkpt>
      <trkpt lat="47.707" lon="6.01777">
        <ele>242</ele>
        <time>2018-12-05T10:25:11Z</time>
      </trkpt>
      <trkpt lat="47.70699" lon="6.01783">
        <ele>242</ele>
        <time>2018-12-05T10:25:12Z</time>
      </trkpt>
      <trkpt lat="47.70697" lon="6.0179">
        <ele>242</ele>
        <time>2018-12-05T10:25:13Z</time>
      </trkpt>
      <trkpt lat="47.70696" lon="6.01797">
        <ele>242</ele>
        <time>2018-12-05T10:25:14Z</time>
      </trkpt>
      <trkpt lat="47.70694" lon="6.01803">
        <ele>242</ele>
        <time>2018-12-05T10:25:15Z</time>
      </trkpt>
      <trkpt lat="47.70693" lon="6.0181">
        <ele>242</ele>
        <time>2018-12-05T10:25:16Z</time>
      </trkpt>
      <trkpt lat="47.70691" lon="6.01816">
        <ele>242</ele>
        <time>2018-12-05T10:25:17Z</time>
      </trkpt>
      <trkpt lat="47.7069" lon="6.01823">
        <ele>241</ele>
        <time>2018-12-05T10:25:18Z</time>
      </trkpt>
      <trkpt lat="47.70688" lon="6.0183">
        <ele>241</ele>
        <time>2018-12-05T10:25:19Z</time>
      </trkpt>
      <trkpt lat="47.70687" lon="6.01837">
        <ele>241</ele>
        <time>2018-12-05T10:25:20Z</time>
      </trkpt>
      <trkpt lat="47.70686" lon="6.01845">
        <ele>241</ele>
        <time>2018-12-05T10:25:21Z</time>
      </trkpt>
      <trkpt lat="47.70685" lon="6.01853">
        <ele>241</ele>
        <time>2018-12-05T10:25:22Z</time>
      </trkpt>
      <trkpt lat="47.70684" lon="6.01861">
        <ele>241</ele>
        <time>2018-12-05T10:25:23Z</time>
      </trkpt>
      <trkpt lat="47.70683" lon="6.01867">
        <ele>241</ele>
        <time>2018-12-05T10:25:24Z</time>
      </trkpt>
      <trkpt lat="47.70683" lon="6.01875">
        <ele>241</ele>
        <time>2018-12-05T10:25:25Z</time>
      </trkpt>
      <trkpt lat="47.70682" lon="6.01883">
        <ele>241</ele>
        <time>2018-12-05T10:25:26Z</time>
      </trkpt>
      <trkpt lat="47.7068" lon="6.01891">
        <ele>241</ele>
        <time>2018-12-05T10:25:27Z</time>
      </trkpt>
      <trkpt lat="47.70679" lon="6.01899">
        <ele>241</ele>
        <time>2018-12-05T10:25:28Z</time>
      </trkpt>
      <trkpt lat="47.70677" lon="6.01908">
        <ele>241</ele>
        <time>2018-12-05T10:25:29Z</time>
      </trkpt>
      <trkpt lat="47.70678" lon="6.01916">
        <ele>241</ele>
        <time>2018-12-05T10:25:30Z</time>
      </trkpt>
      <trkpt lat="47.70678" lon="6.01926">
        <ele>241</ele>
        <time>2018-12-05T10:25:31Z</time>
      </trkpt>
      <trkpt lat="47.70677" lon="6.01937">
        <ele>241</ele>
        <time>2018-12-05T10:25:32Z</time>
      </trkpt>
      <trkpt lat="47.70676" lon="6.01947">
        <ele>241</ele>
        <time>2018-12-05T10:25:33Z</time>
      </trkpt>
      <trkpt lat="47.70674" lon="6.01957">
        <ele>241</ele>
        <time>2018-12-05T10:25:34Z</time>
      </trkpt>
      <trkpt lat="47.70673" lon="6.01965">
        <ele>241</ele>
        <time>2018-12-05T10:25:35Z</time>
      </trkpt>
      <trkpt lat="47.70672" lon="6.01974">
        <ele>241</ele>
        <time>2018-12-05T10:25:36Z</time>
      </trkpt>
      <trkpt lat="47.70671" lon="6.01984">
        <ele>241</ele>
        <time>2018-12-05T10:25:37Z</time>
      </trkpt>
      <trkpt lat="47.7067" lon="6.01992">
        <ele>241</ele>
        <time>2018-12-05T10:25:38Z</time>
      </trkpt>
      <trkpt lat="47.70669" lon="6.02">
        <ele>240</ele>
        <time>2018-12-05T10:25:39Z</time>
      </trkpt>
      <trkpt lat="47.70667" lon="6.02008">
        <ele>241</ele>
        <time>2018-12-05T10:25:40Z</time>
      </trkpt>
      <trkpt lat="47.70665" lon="6.02015">
        <ele>241</ele>
        <time>2018-12-05T10:25:41Z</time>
      </trkpt>
      <trkpt lat="47.70665" lon="6.02022">
        <ele>241</ele>
        <time>2018-12-05T10:25:42Z</time>
      </trkpt>
      <trkpt lat="47.70663" lon="6.02035">
        <ele>241</ele>
        <time>2018-12-05T10:25:44Z</time>
      </trkpt>
      <trkpt lat="47.70662" lon="6.02047">
        <ele>242</ele>
        <time>2018-12-05T10:25:46Z</time>
      </trkpt>
      <trkpt lat="47.7066" lon="6.02059">
        <ele>242</ele>
        <time>2018-12-05T10:25:48Z</time>
      </trkpt>
      <trkpt lat="47.70659" lon="6.0207">
        <ele>242</ele>
        <time>2018-12-05T10:25:50Z</time>
      </trkpt>
      <trkpt lat="47.70656" lon="6.02081">
        <ele>242</ele>
        <time>2018-12-05T10:25:52Z</time>
      </trkpt>
      <trkpt lat="47.70654" lon="6.02089">
        <ele>242</ele>
        <time>2018-12-05T10:25:54Z</time>
      </trkpt>
      <trkpt lat="47.70652" lon="6.02096">
        <ele>242</ele>
        <time>2018-12-05T10:25:57Z</time>
      </trkpt>
      <trkpt lat="47.7065" lon="6.02103">
        <ele>242</ele>
        <time>2018-12-05T10:26:00Z</time>
      </trkpt>
      <trkpt lat="47.70647" lon="6.02109">
        <ele>242</ele>
        <time>2018-12-05T10:26:02Z</time>
      </trkpt>
      <trkpt lat="47.70644" lon="6.02116">
        <ele>242</ele>
        <time>2018-12-05T10:26:04Z</time>
      </trkpt>
      <trkpt lat="47.7064" lon="6.02124">
        <ele>242</ele>
        <time>2018-12-05T10:26:06Z</time>
      </trkpt>
      <trkpt lat="47.70636" lon="6.0213">
        <ele>242</ele>
        <time>2018-12-05T10:26:07Z</time>
      </trkpt>
      <trkpt lat="47.70632" lon="6.02136">
        <ele>242</ele>
        <time>2018-12-05T10:26:09Z</time>
      </trkpt>
      <trkpt lat="47.70629" lon="6.02142">
        <ele>242</ele>
        <time>2018-12-05T10:26:11Z</time>
      </trkpt>
      <trkpt lat="47.70626" lon="6.02148">
        <ele>242</ele>
        <time>2018-12-05T10:26:13Z</time>
      </trkpt>
      <trkpt lat="47.70623" lon="6.02155">
        <ele>242</ele>
        <time>2018-12-05T10:26:15Z</time>
      </trkpt>
      <trkpt lat="47.70619" lon="6.0216">
        <ele>242</ele>
        <time>2018-12-05T10:26:17Z</time>
      </trkpt>
      <trkpt lat="47.70615" lon="6.02166">
        <ele>242</ele>
        <time>2018-12-05T10:26:19Z</time>
      </trkpt>
      <trkpt lat="47.7061" lon="6.02172">
        <ele>242</ele>
        <time>2018-12-05T10:26:21Z</time>
      </trkpt>
      <trkpt lat="47.70605" lon="6.02178">
        <ele>242</ele>
        <time>2018-12-05T10:26:23Z</time>
      </trkpt>
      <trkpt lat="47.706" lon="6.02184">
        <ele>242</ele>
        <time>2018-12-05T10:26:25Z</time>
      </trkpt>
      <trkpt lat="47.70593" lon="6.0219">
        <ele>242</ele>
        <time>2018-12-05T10:26:27Z</time>
      </trkpt>
      <trkpt lat="47.70588" lon="6.02194">
        <ele>242</ele>
        <time>2018-12-05T10:26:28Z</time>
      </trkpt>
      <trkpt lat="47.70584" lon="6.02198">
        <ele>242</ele>
        <time>2018-12-05T10:26:29Z</time>
      </trkpt>
      <trkpt lat="47.7058" lon="6.02202">
        <ele>240</ele>
        <time>2018-12-05T10:26:30Z</time>
      </trkpt>
      <trkpt lat="47.70574" lon="6.02208">
        <ele>240</ele>
        <time>2018-12-05T10:26:31Z</time>
      </trkpt>
      <trkpt lat="47.7057" lon="6.02211">
        <ele>240</ele>
        <time>2018-12-05T10:26:32Z</time>
      </trkpt>
      <trkpt lat="47.70566" lon="6.02215">
        <ele>240</ele>
        <time>2018-12-05T10:26:33Z</time>
      </trkpt>
      <trkpt lat="47.7056" lon="6.02224">
        <ele>240</ele>
        <time>2018-12-05T10:26:35Z</time>
      </trkpt>
      <trkpt lat="47.70557" lon="6.02228">
        <ele>240</ele>
        <time>2018-12-05T10:26:36Z</time>
      </trkpt>
      <trkpt lat="47.7055" lon="6.02238">
        <ele>240</ele>
        <time>2018-12-05T10:26:38Z</time>
      </trkpt>
      <trkpt lat="47.70547" lon="6.02243">
        <ele>240</ele>
        <time>2018-12-05T10:26:39Z</time>
      </trkpt>
      <trkpt lat="47.70541" lon="6.02253">
        <ele>239</ele>
        <time>2018-12-05T10:26:40Z</time>
      </trkpt>
      <trkpt lat="47.70536" lon="6.0226">
        <ele>239</ele>
        <time>2018-12-05T10:26:42Z</time>
      </trkpt>
      <trkpt lat="47.70531" lon="6.02271">
        <ele>239</ele>
        <time>2018-12-05T10:26:44Z</time>
      </trkpt>
      <trkpt lat="47.70526" lon="6.02281">
        <ele>239</ele>
        <time>2018-12-05T10:26:46Z</time>
      </trkpt>
      <trkpt lat="47.70522" lon="6.02291">
        <ele>238</ele>
        <time>2018-12-05T10:26:48Z</time>
      </trkpt>
      <trkpt lat="47.7052" lon="6.02297">
        <ele>238</ele>
        <time>2018-12-05T10:26:49Z</time>
      </trkpt>
      <trkpt lat="47.70517" lon="6.02304">
        <ele>238</ele>
        <time>2018-12-05T10:26:50Z</time>
      </trkpt>
      <trkpt lat="47.70515" lon="6.0231">
        <ele>238</ele>
        <time>2018-12-05T10:26:51Z</time>
      </trkpt>
      <trkpt lat="47.70512" lon="6.02317">
        <ele>237</ele>
        <time>2018-12-05T10:26:52Z</time>
      </trkpt>
      <trkpt lat="47.7051" lon="6.02325">
        <ele>237</ele>
        <time>2018-12-05T10:26:53Z</time>
      </trkpt>
      <trkpt lat="47.70508" lon="6.02331">
        <ele>236</ele>
        <time>2018-12-05T10:26:54Z</time>
      </trkpt>
      <trkpt lat="47.70506" lon="6.02338">
        <ele>236</ele>
        <time>2018-12-05T10:26:55Z</time>
      </trkpt>
      <trkpt lat="47.70503" lon="6.02344">
        <ele>237</ele>
        <time>2018-12-05T10:26:56Z</time>
      </trkpt>
      <trkpt lat="47.70501" lon="6.02353">
        <ele>238</ele>
        <time>2018-12-05T10:26:58Z</time>
      </trkpt>
      <trkpt lat="47.705" lon="6.02363">
        <ele>235</ele>
        <time>2018-12-05T10:27:00Z</time>
      </trkpt>
      <trkpt lat="47.70497" lon="6.02368">
        <ele>235</ele>
        <time>2018-12-05T10:27:01Z</time>
      </trkpt>
      <trkpt lat="47.70493" lon="6.02381">
        <ele>235</ele>
        <time>2018-12-05T10:27:02Z</time>
      </trkpt>
      <trkpt lat="47.70489" lon="6.02392">
        <ele>235</ele>
        <time>2018-12-05T10:27:03Z</time>
      </trkpt>
      <trkpt lat="47.70483" lon="6.02405">
        <ele>235</ele>
        <time>2018-12-05T10:27:04Z</time>
      </trkpt>
      <trkpt lat="47.70477" lon="6.02412">
        <ele>235</ele>
        <time>2018-12-05T10:27:05Z</time>
      </trkpt>
      <trkpt lat="47.7047" lon="6.02419">
        <ele>236</ele>
        <time>2018-12-05T10:27:06Z</time>
      </trkpt>
      <trkpt lat="47.70463" lon="6.02426">
        <ele>235</ele>
        <time>2018-12-05T10:27:07Z</time>
      </trkpt>
      <trkpt lat="47.70457" lon="6.02431">
        <ele>235</ele>
        <time>2018-12-05T10:27:08Z</time>
      </trkpt>
      <trkpt lat="47.70453" lon="6.02438">
        <ele>235</ele>
        <time>2018-12-05T10:27:09Z</time>
      </trkpt>
      <trkpt lat="47.70447" lon="6.02442">
        <ele>235</ele>
        <time>2018-12-05T10:27:10Z</time>
      </trkpt>
      <trkpt lat="47.70442" lon="6.02446">
        <ele>235</ele>
        <time>2018-12-05T10:27:11Z</time>
      </trkpt>
      <trkpt lat="47.70438" lon="6.0245">
        <ele>235</ele>
        <time>2018-12-05T10:27:12Z</time>
      </trkpt>
      <trkpt lat="47.70433" lon="6.02454">
        <ele>235</ele>
        <time>2018-12-05T10:27:13Z</time>
      </trkpt>
      <trkpt lat="47.70426" lon="6.02459">
        <ele>235</ele>
        <time>2018-12-05T10:27:15Z</time>
      </trkpt>
      <trkpt lat="47.70419" lon="6.02466">
        <ele>235</ele>
        <time>2018-12-05T10:27:17Z</time>
      </trkpt>
      <trkpt lat="47.70412" lon="6.02473">
        <ele>232</ele>
        <time>2018-12-05T10:27:19Z</time>
      </trkpt>
      <trkpt lat="47.70406" lon="6.0248">
        <ele>232</ele>
        <time>2018-12-05T10:27:21Z</time>
      </trkpt>
      <trkpt lat="47.70403" lon="6.02488">
        <ele>233</ele>
        <time>2018-12-05T10:27:23Z</time>
      </trkpt>
      <trkpt lat="47.70401" lon="6.02494">
        <ele>233</ele>
        <time>2018-12-05T10:27:26Z</time>
      </trkpt>
      <trkpt lat="47.70399" lon="6.02502">
        <ele>233</ele>
        <time>2018-12-05T10:27:48Z</time>
      </trkpt>
      <trkpt lat="47.70396" lon="6.02507">
        <ele>232</ele>
        <time>2018-12-05T10:27:51Z</time>
      </trkpt>
      <trkpt lat="47.7039" lon="6.0251">
        <ele>232</ele>
        <time>2018-12-05T10:27:53Z</time>
      </trkpt>
      <trkpt lat="47.70382" lon="6.02515">
        <ele>232</ele>
        <time>2018-12-05T10:27:55Z</time>
      </trkpt>
      <trkpt lat="47.70375" lon="6.0252">
        <ele>231</ele>
        <time>2018-12-05T10:27:57Z</time>
      </trkpt>
      <trkpt lat="47.7037" lon="6.02523">
        <ele>231</ele>
        <time>2018-12-05T10:27:58Z</time>
      </trkpt>
      <trkpt lat="47.70362" lon="6.02529">
        <ele>231</ele>
        <time>2018-12-05T10:28:00Z</time>
      </trkpt>
      <trkpt lat="47.70353" lon="6.02536">
        <ele>231</ele>
        <time>2018-12-05T10:28:01Z</time>
      </trkpt>
      <trkpt lat="47.70349" lon="6.02541">
        <ele>231</ele>
        <time>2018-12-05T10:28:02Z</time>
      </trkpt>
      <trkpt lat="47.70344" lon="6.02546">
        <ele>230</ele>
        <time>2018-12-05T10:28:03Z</time>
      </trkpt>
      <trkpt lat="47.70339" lon="6.02552">
        <ele>230</ele>
        <time>2018-12-05T10:28:04Z</time>
      </trkpt>
      <trkpt lat="47.70334" lon="6.02557">
        <ele>230</ele>
        <time>2018-12-05T10:28:05Z</time>
      </trkpt>
      <trkpt lat="47.7033" lon="6.02563">
        <ele>227</ele>
        <time>2018-12-05T10:28:06Z</time>
      </trkpt>
      <trkpt lat="47.70324" lon="6.02569">
        <ele>227</ele>
        <time>2018-12-05T10:28:07Z</time>
      </trkpt>
      <trkpt lat="47.7032" lon="6.02574">
        <ele>227</ele>
        <time>2018-12-05T10:28:08Z</time>
      </trkpt>
      <trkpt lat="47.70316" lon="6.0258">
        <ele>227</ele>
        <time>2018-12-05T10:28:09Z</time>
      </trkpt>
      <trkpt lat="47.70312" lon="6.02585">
        <ele>226</ele>
        <time>2018-12-05T10:28:10Z</time>
      </trkpt>
      <trkpt lat="47.70308" lon="6.0259">
        <ele>226</ele>
        <time>2018-12-05T10:28:11Z</time>
      </trkpt>
      <trkpt lat="47.70303" lon="6.02596">
        <ele>226</ele>
        <time>2018-12-05T10:28:12Z</time>
      </trkpt>
      <trkpt lat="47.70299" lon="6.02601">
        <ele>226</ele>
        <time>2018-12-05T10:28:13Z</time>
      </trkpt>
      <trkpt lat="47.70294" lon="6.02606">
        <ele>225</ele>
        <time>2018-12-05T10:28:14Z</time>
      </trkpt>
      <trkpt lat="47.7029" lon="6.02611">
        <ele>225</ele>
        <time>2018-12-05T10:28:15Z</time>
      </trkpt>
      <trkpt lat="47.70285" lon="6.02617">
        <ele>225</ele>
        <time>2018-12-05T10:28:16Z</time>
      </trkpt>
      <trkpt lat="47.70281" lon="6.02622">
        <ele>225</ele>
        <time>2018-12-05T10:28:17Z</time>
      </trkpt>
      <trkpt lat="47.70276" lon="6.02627">
        <ele>225</ele>
        <time>2018-12-05T10:28:18Z</time>
      </trkpt>
      <trkpt lat="47.70271" lon="6.02633">
        <ele>224</ele>
        <time>2018-12-05T10:28:19Z</time>
      </trkpt>
      <trkpt lat="47.70265" lon="6.02639">
        <ele>224</ele>
        <time>2018-12-05T10:28:20Z</time>
      </trkpt>
      <trkpt lat="47.7026" lon="6.02645">
        <ele>224</ele>
        <time>2018-12-05T10:28:21Z</time>
      </trkpt>
      <trkpt lat="47.70255" lon="6.02651">
        <ele>223</ele>
        <time>2018-12-05T10:28:22Z</time>
      </trkpt>
      <trkpt lat="47.70251" lon="6.02658">
        <ele>223</ele>
        <time>2018-12-05T10:28:23Z</time>
      </trkpt>
      <trkpt lat="47.70248" lon="6.02665">
        <ele>222</ele>
        <time>2018-12-05T10:28:24Z</time>
      </trkpt>
      <trkpt lat="47.70244" lon="6.02671">
        <ele>222</ele>
        <time>2018-12-05T10:28:25Z</time>
      </trkpt>
      <trkpt lat="47.70241" lon="6.02677">
        <ele>222</ele>
        <time>2018-12-05T10:28:26Z</time>
      </trkpt>
      <trkpt lat="47.70237" lon="6.02683">
        <ele>222</ele>
        <time>2018-12-05T10:28:27Z</time>
      </trkpt>
      <trkpt lat="47.70234" lon="6.02689">
        <ele>222</ele>
        <time>2018-12-05T10:28:28Z</time>
      </trkpt>
      <trkpt lat="47.7023" lon="6.02695">
        <ele>222</ele>
        <time>2018-12-05T10:28:29Z</time>
      </trkpt>
      <trkpt lat="47.70227" lon="6.027">
        <ele>222</ele>
        <time>2018-12-05T10:28:30Z</time>
      </trkpt>
      <trkpt lat="47.70224" lon="6.02706">
        <ele>222</ele>
        <time>2018-12-05T10:28:31Z</time>
      </trkpt>
      <trkpt lat="47.70222" lon="6.02712">
        <ele>222</ele>
        <time>2018-12-05T10:28:32Z</time>
      </trkpt>
      <trkpt lat="47.70219" lon="6.02718">
        <ele>222</ele>
        <time>2018-12-05T10:28:33Z</time>
      </trkpt>
      <trkpt lat="47.70217" lon="6.02724">
        <ele>222</ele>
        <time>2018-12-05T10:28:34Z</time>
      </trkpt>
      <trkpt lat="47.70214" lon="6.0273">
        <ele>222</ele>
        <time>2018-12-05T10:28:35Z</time>
      </trkpt>
      <trkpt lat="47.70212" lon="6.02736">
        <ele>221</ele>
        <time>2018-12-05T10:28:36Z</time>
      </trkpt>
      <trkpt lat="47.70209" lon="6.02743">
        <ele>221</ele>
        <time>2018-12-05T10:28:37Z</time>
      </trkpt>
      <trkpt lat="47.70206" lon="6.02751">
        <ele>222</ele>
        <time>2018-12-05T10:28:38Z</time>
      </trkpt>
      <trkpt lat="47.70203" lon="6.02759">
        <ele>222</ele>
        <time>2018-12-05T10:28:39Z</time>
      </trkpt>
      <trkpt lat="47.702" lon="6.02766">
        <ele>221</ele>
        <time>2018-12-05T10:28:40Z</time>
      </trkpt>
      <trkpt lat="47.70198" lon="6.02774">
        <ele>222</ele>
        <time>2018-12-05T10:28:41Z</time>
      </trkpt>
      <trkpt lat="47.70196" lon="6.02781">
        <ele>222</ele>
        <time>2018-12-05T10:28:42Z</time>
      </trkpt>
      <trkpt lat="47.70193" lon="6.02789">
        <ele>222</ele>
        <time>2018-12-05T10:28:43Z</time>
      </trkpt>
      <trkpt lat="47.7019" lon="6.02797">
        <ele>222</ele>
        <time>2018-12-05T10:28:44Z</time>
      </trkpt>
      <trkpt lat="47.70187" lon="6.02805">
        <ele>222</ele>
        <time>2018-12-05T10:28:45Z</time>
      </trkpt>
      <trkpt lat="47.70185" lon="6.02813">
        <ele>222</ele>
        <time>2018-12-05T10:28:46Z</time>
      </trkpt>
      <trkpt lat="47.70182" lon="6.02821">
        <ele>221</ele>
        <time>2018-12-05T10:28:47Z</time>
      </trkpt>
      <trkpt lat="47.70179" lon="6.02828">
        <ele>221</ele>
        <time>2018-12-05T10:28:48Z</time>
      </trkpt>
      <trkpt lat="47.70176" lon="6.02835">
        <ele>222</ele>
        <time>2018-12-05T10:28:49Z</time>
      </trkpt>
      <trkpt lat="47.70174" lon="6.02842">
        <ele>222</ele>
        <time>2018-12-05T10:28:50Z</time>
      </trkpt>
      <trkpt lat="47.7017" lon="6.0285">
        <ele>222</ele>
        <time>2018-12-05T10:28:51Z</time>
      </trkpt>
      <trkpt lat="47.70167" lon="6.02857">
        <ele>223</ele>
        <time>2018-12-05T10:28:52Z</time>
      </trkpt>
      <trkpt lat="47.70163" lon="6.02865">
        <ele>220</ele>
        <time>2018-12-05T10:28:53Z</time>
      </trkpt>
      <trkpt lat="47.70159" lon="6.02872">
        <ele>220</ele>
        <time>2018-12-05T10:28:54Z</time>
      </trkpt>
      <trkpt lat="47.70156" lon="6.02879">
        <ele>220</ele>
        <time>2018-12-05T10:28:55Z</time>
      </trkpt>
      <trkpt lat="47.70152" lon="6.02887">
        <ele>220</ele>
        <time>2018-12-05T10:28:56Z</time>
      </trkpt>
      <trkpt lat="47.70148" lon="6.02893">
        <ele>220</ele>
        <time>2018-12-05T10:28:57Z</time>
      </trkpt>
      <trkpt lat="47.70144" lon="6.029">
        <ele>220</ele>
        <time>2018-12-05T10:28:58Z</time>
      </trkpt>
      <trkpt lat="47.7014" lon="6.02907">
        <ele>220</ele>
        <time>2018-12-05T10:28:59Z</time>
      </trkpt>
      <trkpt lat="47.70135" lon="6.02913">
        <ele>220</ele>
        <time>2018-12-05T10:29:00Z</time>
      </trkpt>
      <trkpt lat="47.70131" lon="6.0292">
        <ele>222</ele>
        <time>2018-12-05T10:29:01Z</time>
      </trkpt>
      <trkpt lat="47.70128" lon="6.02926">
        <ele>221</ele>
        <time>2018-12-05T10:29:02Z</time>
      </trkpt>
      <trkpt lat="47.70125" lon="6.02933">
        <ele>221</ele>
        <time>2018-12-05T10:29:03Z</time>
      </trkpt>
      <trkpt lat="47.70122" lon="6.0294">
        <ele>221</ele>
        <time>2018-12-05T10:29:04Z</time>
      </trkpt>
      <trkpt lat="47.70118" lon="6.02948">
        <ele>221</ele>
        <time>2018-12-05T10:29:05Z</time>
      </trkpt>
      <trkpt lat="47.70115" lon="6.02954">
        <ele>221</ele>
        <time>2018-12-05T10:29:06Z</time>
      </trkpt>
      <trkpt lat="47.70113" lon="6.02961">
        <ele>221</ele>
        <time>2018-12-05T10:29:07Z</time>
      </trkpt>
      <trkpt lat="47.7011" lon="6.02967">
        <ele>221</ele>
        <time>2018-12-05T10:29:08Z</time>
      </trkpt>
      <trkpt lat="47.70108" lon="6.02975">
        <ele>221</ele>
        <time>2018-12-05T10:29:09Z</time>
      </trkpt>
      <trkpt lat="47.70106" lon="6.02983">
        <ele>221</ele>
        <time>2018-12-05T10:29:10Z</time>
      </trkpt>
      <trkpt lat="47.70104" lon="6.0299">
        <ele>221</ele>
        <time>2018-12-05T10:29:11Z</time>
      </trkpt>
      <trkpt lat="47.70103" lon="6.02997">
        <ele>221</ele>
        <time>2018-12-05T10:29:12Z</time>
      </trkpt>
      <trkpt lat="47.70101" lon="6.03005">
        <ele>223</ele>
        <time>2018-12-05T10:29:13Z</time>
      </trkpt>
      <trkpt lat="47.70099" lon="6.03012">
        <ele>223</ele>
        <time>2018-12-05T10:29:14Z</time>
      </trkpt>
      <trkpt lat="47.70097" lon="6.0302">
        <ele>223</ele>
        <time>2018-12-05T10:29:15Z</time>
      </trkpt>
      <trkpt lat="47.70096" lon="6.03027">
        <ele>224</ele>
        <time>2018-12-05T10:29:16Z</time>
      </trkpt>
      <trkpt lat="47.70095" lon="6.03034">
        <ele>224</ele>
        <time>2018-12-05T10:29:17Z</time>
      </trkpt>
      <trkpt lat="47.70093" lon="6.03041">
        <ele>224</ele>
        <time>2018-12-05T10:29:18Z</time>
      </trkpt>
      <trkpt lat="47.70092" lon="6.03048">
        <ele>224</ele>
        <time>2018-12-05T10:29:19Z</time>
      </trkpt>
      <trkpt lat="47.70091" lon="6.03055">
        <ele>224</ele>
        <time>2018-12-05T10:29:20Z</time>
      </trkpt>
      <trkpt lat="47.70089" lon="6.03067">
        <ele>224</ele>
        <time>2018-12-05T10:29:22Z</time>
      </trkpt>
      <trkpt lat="47.70088" lon="6.03074">
        <ele>223</ele>
        <time>2018-12-05T10:29:23Z</time>
      </trkpt>
      <trkpt lat="47.70087" lon="6.03081">
        <ele>223</ele>
        <time>2018-12-05T10:29:24Z</time>
      </trkpt>
      <trkpt lat="47.70086" lon="6.03088">
        <ele>223</ele>
        <time>2018-12-05T10:29:25Z</time>
      </trkpt>
      <trkpt lat="47.70085" lon="6.03096">
        <ele>224</ele>
        <time>2018-12-05T10:29:26Z</time>
      </trkpt>
      <trkpt lat="47.70083" lon="6.03104">
        <ele>225</ele>
        <time>2018-12-05T10:29:27Z</time>
      </trkpt>
      <trkpt lat="47.70082" lon="6.03112">
        <ele>220</ele>
        <time>2018-12-05T10:29:28Z</time>
      </trkpt>
      <trkpt lat="47.70081" lon="6.03119">
        <ele>220</ele>
        <time>2018-12-05T10:29:29Z</time>
      </trkpt>
      <trkpt lat="47.7008" lon="6.03127">
        <ele>220</ele>
        <time>2018-12-05T10:29:30Z</time>
      </trkpt>
      <trkpt lat="47.70079" lon="6.03135">
        <ele>220</ele>
        <time>2018-12-05T10:29:31Z</time>
      </trkpt>
      <trkpt lat="47.70078" lon="6.03144">
        <ele>220</ele>
        <time>2018-12-05T10:29:32Z</time>
      </trkpt>
      <trkpt lat="47.70077" lon="6.03152">
        <ele>220</ele>
        <time>2018-12-05T10:29:33Z</time>
      </trkpt>
      <trkpt lat="47.70076" lon="6.0316">
        <ele>221</ele>
        <time>2018-12-05T10:29:34Z</time>
      </trkpt>
      <trkpt lat="47.70076" lon="6.0317">
        <ele>221</ele>
        <time>2018-12-05T10:29:35Z</time>
      </trkpt>
      <trkpt lat="47.70075" lon="6.03178">
        <ele>220</ele>
        <time>2018-12-05T10:29:36Z</time>
      </trkpt>
      <trkpt lat="47.70075" lon="6.03188">
        <ele>219</ele>
        <time>2018-12-05T10:29:37Z</time>
      </trkpt>
      <trkpt lat="47.70075" lon="6.03198">
        <ele>219</ele>
        <time>2018-12-05T10:29:38Z</time>
      </trkpt>
      <trkpt lat="47.70075" lon="6.03206">
        <ele>219</ele>
        <time>2018-12-05T10:29:39Z</time>
      </trkpt>
      <trkpt lat="47.70075" lon="6.03215">
        <ele>218</ele>
        <time>2018-12-05T10:29:40Z</time>
      </trkpt>
      <trkpt lat="47.70075" lon="6.03224">
        <ele>218</ele>
        <time>2018-12-05T10:29:41Z</time>
      </trkpt>
      <trkpt lat="47.70075" lon="6.03234">
        <ele>219</ele>
        <time>2018-12-05T10:29:42Z</time>
      </trkpt>
      <trkpt lat="47.70075" lon="6.03243">
        <ele>219</ele>
        <time>2018-12-05T10:29:43Z</time>
      </trkpt>
      <trkpt lat="47.70075" lon="6.03253">
        <ele>219</ele>
        <time>2018-12-05T10:29:44Z</time>
      </trkpt>
      <trkpt lat="47.70075" lon="6.03263">
        <ele>218</ele>
        <time>2018-12-05T10:29:45Z</time>
      </trkpt>
      <trkpt lat="47.70076" lon="6.03273">
        <ele>218</ele>
        <time>2018-12-05T10:29:46Z</time>
      </trkpt>
      <trkpt lat="47.70076" lon="6.03282">
        <ele>218</ele>
        <time>2018-12-05T10:29:47Z</time>
      </trkpt>
      <trkpt lat="47.70077" lon="6.03291">
        <ele>218</ele>
        <time>2018-12-05T10:29:48Z</time>
      </trkpt>
      <trkpt lat="47.70077" lon="6.03301">
        <ele>218</ele>
        <time>2018-12-05T10:29:49Z</time>
      </trkpt>
      <trkpt lat="47.70077" lon="6.03311">
        <ele>218</ele>
        <time>2018-12-05T10:29:50Z</time>
      </trkpt>
      <trkpt lat="47.70078" lon="6.03321">
        <ele>218</ele>
        <time>2018-12-05T10:29:51Z</time>
      </trkpt>
      <trkpt lat="47.70079" lon="6.03331">
        <ele>219</ele>
        <time>2018-12-05T10:29:52Z</time>
      </trkpt>
      <trkpt lat="47.70081" lon="6.03341">
        <ele>218</ele>
        <time>2018-12-05T10:29:53Z</time>
      </trkpt>
      <trkpt lat="47.70082" lon="6.03353">
        <ele>218</ele>
        <time>2018-12-05T10:29:54Z</time>
      </trkpt>
      <trkpt lat="47.70082" lon="6.03364">
        <ele>217</ele>
        <time>2018-12-05T10:29:55Z</time>
      </trkpt>
      <trkpt lat="47.70083" lon="6.03374">
        <ele>217</ele>
        <time>2018-12-05T10:29:56Z</time>
      </trkpt>
      <trkpt lat="47.70083" lon="6.03385">
        <ele>217</ele>
        <time>2018-12-05T10:29:57Z</time>
      </trkpt>
      <trkpt lat="47.70083" lon="6.03396">
        <ele>219</ele>
        <time>2018-12-05T10:29:58Z</time>
      </trkpt>
      <trkpt lat="47.70084" lon="6.03407">
        <ele>218</ele>
        <time>2018-12-05T10:29:59Z</time>
      </trkpt>
      <trkpt lat="47.70084" lon="6.03417">
        <ele>216</ele>
        <time>2018-12-05T10:30:00Z</time>
      </trkpt>
      <trkpt lat="47.70084" lon="6.03427">
        <ele>217</ele>
        <time>2018-12-05T10:30:01Z</time>
      </trkpt>
      <trkpt lat="47.70084" lon="6.03437">
        <ele>218</ele>
        <time>2018-12-05T10:30:02Z</time>
      </trkpt>
      <trkpt lat="47.70083" lon="6.03447">
        <ele>217</ele>
        <time>2018-12-05T10:30:03Z</time>
      </trkpt>
      <trkpt lat="47.70082" lon="6.03456">
        <ele>217</ele>
        <time>2018-12-05T10:30:04Z</time>
      </trkpt>
      <trkpt lat="47.70081" lon="6.03467">
        <ele>217</ele>
        <time>2018-12-05T10:30:05Z</time>
      </trkpt>
      <trkpt lat="47.70081" lon="6.03477">
        <ele>216</ele>
        <time>2018-12-05T10:30:06Z</time>
      </trkpt>
      <trkpt lat="47.7008" lon="6.03488">
        <ele>216</ele>
        <time>2018-12-05T10:30:07Z</time>
      </trkpt>
      <trkpt lat="47.70078" lon="6.03498">
        <ele>216</ele>
        <time>2018-12-05T10:30:08Z</time>
      </trkpt>
      <trkpt lat="47.70077" lon="6.03508">
        <ele>216</ele>
        <time>2018-12-05T10:30:09Z</time>
      </trkpt>
      <trkpt lat="47.70075" lon="6.03518">
        <ele>217</ele>
        <time>2018-12-05T10:30:10Z</time>
      </trkpt>
      <trkpt lat="47.70073" lon="6.03528">
        <ele>217</ele>
        <time>2018-12-05T10:30:11Z</time>
      </trkpt>
      <trkpt lat="47.7007" lon="6.03537">
        <ele>217</ele>
        <time>2018-12-05T10:30:12Z</time>
      </trkpt>
      <trkpt lat="47.70067" lon="6.03546">
        <ele>217</ele>
        <time>2018-12-05T10:30:13Z</time>
      </trkpt>
      <trkpt lat="47.70064" lon="6.03555">
        <ele>217</ele>
        <time>2018-12-05T10:30:14Z</time>
      </trkpt>
      <trkpt lat="47.70061" lon="6.03563">
        <ele>217</ele>
        <time>2018-12-05T10:30:15Z</time>
      </trkpt>
      <trkpt lat="47.70058" lon="6.03572">
        <ele>217</ele>
        <time>2018-12-05T10:30:16Z</time>
      </trkpt>
      <trkpt lat="47.70055" lon="6.0358">
        <ele>217</ele>
        <time>2018-12-05T10:30:17Z</time>
      </trkpt>
      <trkpt lat="47.70052" lon="6.03588">
        <ele>217</ele>
        <time>2018-12-05T10:30:18Z</time>
      </trkpt>
      <trkpt lat="47.70049" lon="6.03596">
        <ele>217</ele>
        <time>2018-12-05T10:30:19Z</time>
      </trkpt>
      <trkpt lat="47.70045" lon="6.03604">
        <ele>217</ele>
        <time>2018-12-05T10:30:20Z</time>
      </trkpt>
      <trkpt lat="47.70042" lon="6.03612">
        <ele>217</ele>
        <time>2018-12-05T10:30:21Z</time>
      </trkpt>
      <trkpt lat="47.70038" lon="6.0362">
        <ele>217</ele>
        <time>2018-12-05T10:30:22Z</time>
      </trkpt>
      <trkpt lat="47.70034" lon="6.03626">
        <ele>217</ele>
        <time>2018-12-05T10:30:23Z</time>
      </trkpt>
      <trkpt lat="47.7003" lon="6.03633">
        <ele>217</ele>
        <time>2018-12-05T10:30:24Z</time>
      </trkpt>
      <trkpt lat="47.70027" lon="6.0364">
        <ele>217</ele>
        <time>2018-12-05T10:30:25Z</time>
      </trkpt>
      <trkpt lat="47.70022" lon="6.03647">
        <ele>217</ele>
        <time>2018-12-05T10:30:26Z</time>
      </trkpt>
      <trkpt lat="47.70017" lon="6.03655">
        <ele>217</ele>
        <time>2018-12-05T10:30:27Z</time>
      </trkpt>
      <trkpt lat="47.70012" lon="6.03661">
        <ele>216</ele>
        <time>2018-12-05T10:30:28Z</time>
      </trkpt>
      <trkpt lat="47.70007" lon="6.03669">
        <ele>216</ele>
        <time>2018-12-05T10:30:29Z</time>
      </trkpt>
      <trkpt lat="47.70001" lon="6.03676">
        <ele>215</ele>
        <time>2018-12-05T10:30:30Z</time>
      </trkpt>
      <trkpt lat="47.69996" lon="6.03682">
        <ele>216</ele>
        <time>2018-12-05T10:30:31Z</time>
      </trkpt>
      <trkpt lat="47.69991" lon="6.03688">
        <ele>216</ele>
        <time>2018-12-05T10:30:32Z</time>
      </trkpt>
      <trkpt lat="47.69986" lon="6.03694">
        <ele>216</ele>
        <time>2018-12-05T10:30:33Z</time>
      </trkpt>
      <trkpt lat="47.6998" lon="6.03699">
        <ele>216</ele>
        <time>2018-12-05T10:30:34Z</time>
      </trkpt>
      <trkpt lat="47.69975" lon="6.03703">
        <ele>216</ele>
        <time>2018-12-05T10:30:35Z</time>
      </trkpt>
      <trkpt lat="47.6997" lon="6.03708">
        <ele>216</ele>
        <time>2018-12-05T10:30:36Z</time>
      </trkpt>
      <trkpt lat="47.69966" lon="6.03712">
        <ele>216</ele>
        <time>2018-12-05T10:30:37Z</time>
      </trkpt>
      <trkpt lat="47.69961" lon="6.03716">
        <ele>216</ele>
        <time>2018-12-05T10:30:38Z</time>
      </trkpt>
      <trkpt lat="47.69956" lon="6.03719">
        <ele>216</ele>
        <time>2018-12-05T10:30:39Z</time>
      </trkpt>
      <trkpt lat="47.69951" lon="6.03723">
        <ele>216</ele>
        <time>2018-12-05T10:30:40Z</time>
      </trkpt>
      <trkpt lat="47.69947" lon="6.03726">
        <ele>216</ele>
        <time>2018-12-05T10:30:41Z</time>
      </trkpt>
      <trkpt lat="47.69942" lon="6.03729">
        <ele>215</ele>
        <time>2018-12-05T10:30:42Z</time>
      </trkpt>
      <trkpt lat="47.69936" lon="6.03732">
        <ele>215</ele>
        <time>2018-12-05T10:30:43Z</time>
      </trkpt>
      <trkpt lat="47.69931" lon="6.03734">
        <ele>215</ele>
        <time>2018-12-05T10:30:44Z</time>
      </trkpt>
      <trkpt lat="47.69926" lon="6.03737">
        <ele>215</ele>
        <time>2018-12-05T10:30:45Z</time>
      </trkpt>
      <trkpt lat="47.69921" lon="6.03739">
        <ele>214</ele>
        <time>2018-12-05T10:30:46Z</time>
      </trkpt>
      <trkpt lat="47.69916" lon="6.03741">
        <ele>215</ele>
        <time>2018-12-05T10:30:47Z</time>
      </trkpt>
      <trkpt lat="47.69911" lon="6.03743">
        <ele>215</ele>
        <time>2018-12-05T10:30:48Z</time>
      </trkpt>
      <trkpt lat="47.69906" lon="6.03745">
        <ele>215</ele>
        <time>2018-12-05T10:30:49Z</time>
      </trkpt>
      <trkpt lat="47.69901" lon="6.03747">
        <ele>216</ele>
        <time>2018-12-05T10:30:50Z</time>
      </trkpt>
      <trkpt lat="47.69896" lon="6.03749">
        <ele>216</ele>
        <time>2018-12-05T10:30:51Z</time>
      </trkpt>
      <trkpt lat="47.69891" lon="6.0375">
        <ele>217</ele>
        <time>2018-12-05T10:30:52Z</time>
      </trkpt>
      <trkpt lat="47.69887" lon="6.03751">
        <ele>213</ele>
        <time>2018-12-05T10:30:53Z</time>
      </trkpt>
      <trkpt lat="47.69882" lon="6.03752">
        <ele>213</ele>
        <time>2018-12-05T10:30:54Z</time>
      </trkpt>
      <trkpt lat="47.69877" lon="6.03754">
        <ele>213</ele>
        <time>2018-12-05T10:30:55Z</time>
      </trkpt>
      <trkpt lat="47.69869" lon="6.03757">
        <ele>213</ele>
        <time>2018-12-05T10:30:57Z</time>
      </trkpt>
      <trkpt lat="47.69861" lon="6.03759">
        <ele>214</ele>
        <time>2018-12-05T10:30:59Z</time>
      </trkpt>
      <trkpt lat="47.69853" lon="6.03763">
        <ele>214</ele>
        <time>2018-12-05T10:31:01Z</time>
      </trkpt>
      <trkpt lat="47.69845" lon="6.03766">
        <ele>214</ele>
        <time>2018-12-05T10:31:03Z</time>
      </trkpt>
      <trkpt lat="47.69836" lon="6.0377">
        <ele>214</ele>
        <time>2018-12-05T10:31:05Z</time>
      </trkpt>
      <trkpt lat="47.69831" lon="6.03772">
        <ele>215</ele>
        <time>2018-12-05T10:31:06Z</time>
      </trkpt>
      <trkpt lat="47.69826" lon="6.03774">
        <ele>215</ele>
        <time>2018-12-05T10:31:07Z</time>
      </trkpt>
      <trkpt lat="47.69821" lon="6.03776">
        <ele>215</ele>
        <time>2018-12-05T10:31:08Z</time>
      </trkpt>
      <trkpt lat="47.69815" lon="6.03779">
        <ele>214</ele>
        <time>2018-12-05T10:31:09Z</time>
      </trkpt>
      <trkpt lat="47.69809" lon="6.03782">
        <ele>214</ele>
        <time>2018-12-05T10:31:10Z</time>
      </trkpt>
      <trkpt lat="47.69804" lon="6.03784">
        <ele>214</ele>
        <time>2018-12-05T10:31:11Z</time>
      </trkpt>
      <trkpt lat="47.69799" lon="6.03787">
        <ele>214</ele>
        <time>2018-12-05T10:31:12Z</time>
      </trkpt>
      <trkpt lat="47.69794" lon="6.03789">
        <ele>214</ele>
        <time>2018-12-05T10:31:13Z</time>
      </trkpt>
      <trkpt lat="47.69789" lon="6.03791">
        <ele>214</ele>
        <time>2018-12-05T10:31:14Z</time>
      </trkpt>
      <trkpt lat="47.69784" lon="6.03793">
        <ele>214</ele>
        <time>2018-12-05T10:31:15Z</time>
      </trkpt>
      <trkpt lat="47.69778" lon="6.03795">
        <ele>214</ele>
        <time>2018-12-05T10:31:16Z</time>
      </trkpt>
      <trkpt lat="47.69773" lon="6.03796">
        <ele>214</ele>
        <time>2018-12-05T10:31:17Z</time>
      </trkpt>
      <trkpt lat="47.69768" lon="6.03798">
        <ele>214</ele>
        <time>2018-12-05T10:31:18Z</time>
      </trkpt>
      <trkpt lat="47.69763" lon="6.03799">
        <ele>213</ele>
        <time>2018-12-05T10:31:19Z</time>
      </trkpt>
      <trkpt lat="47.69758" lon="6.038">
        <ele>213</ele>
        <time>2018-12-05T10:31:20Z</time>
      </trkpt>
      <trkpt lat="47.69753" lon="6.03801">
        <ele>213</ele>
        <time>2018-12-05T10:31:21Z</time>
      </trkpt>
      <trkpt lat="47.69745" lon="6.03804">
        <ele>214</ele>
        <time>2018-12-05T10:31:23Z</time>
      </trkpt>
      <trkpt lat="47.69738" lon="6.03806">
        <ele>214</ele>
        <time>2018-12-05T10:31:25Z</time>
      </trkpt>
      <trkpt lat="47.69733" lon="6.03807">
        <ele>214</ele>
        <time>2018-12-05T10:31:27Z</time>
      </trkpt>
      <trkpt lat="47.69726" lon="6.03808">
        <ele>214</ele>
        <time>2018-12-05T10:31:30Z</time>
      </trkpt>
      <trkpt lat="47.69719" lon="6.0381">
        <ele>214</ele>
        <time>2018-12-05T10:31:33Z</time>
      </trkpt>
      <trkpt lat="47.69714" lon="6.0381">
        <ele>214</ele>
        <time>2018-12-05T10:31:35Z</time>
      </trkpt>
      <trkpt lat="47.69707" lon="6.03811">
        <ele>214</ele>
        <time>2018-12-05T10:31:37Z</time>
      </trkpt>
      <trkpt lat="47.697" lon="6.03813">
        <ele>214</ele>
        <time>2018-12-05T10:31:39Z</time>
      </trkpt>
      <trkpt lat="47.69693" lon="6.03814">
        <ele>214</ele>
        <time>2018-12-05T10:31:41Z</time>
      </trkpt>
      <trkpt lat="47.69685" lon="6.03815">
        <ele>214</ele>
        <time>2018-12-05T10:31:43Z</time>
      </trkpt>
      <trkpt lat="47.69677" lon="6.03817">
        <ele>213</ele>
        <time>2018-12-05T10:31:45Z</time>
      </trkpt>
      <trkpt lat="47.69669" lon="6.03819">
        <ele>213</ele>
        <time>2018-12-05T10:31:47Z</time>
      </trkpt>
      <trkpt lat="47.69659" lon="6.03821">
        <ele>214</ele>
        <time>2018-12-05T10:31:48Z</time>
      </trkpt>
      <trkpt lat="47.69655" lon="6.03822">
        <ele>214</ele>
        <time>2018-12-05T10:31:49Z</time>
      </trkpt>
      <trkpt lat="47.6965" lon="6.03823">
        <ele>215</ele>
        <time>2018-12-05T10:31:50Z</time>
      </trkpt>
      <trkpt lat="47.69642" lon="6.03825">
        <ele>215</ele>
        <time>2018-12-05T10:31:52Z</time>
      </trkpt>
      <trkpt lat="47.69634" lon="6.03825">
        <ele>216</ele>
        <time>2018-12-05T10:31:54Z</time>
      </trkpt>
      <trkpt lat="47.69626" lon="6.03826">
        <ele>216</ele>
        <time>2018-12-05T10:31:56Z</time>
      </trkpt>
      <trkpt lat="47.6962" lon="6.03827">
        <ele>216</ele>
        <time>2018-12-05T10:31:58Z</time>
      </trkpt>
      <trkpt lat="47.69613" lon="6.03827">
        <ele>216</ele>
        <time>2018-12-05T10:32:00Z</time>
      </trkpt>
      <trkpt lat="47.69607" lon="6.03826">
        <ele>216</ele>
        <time>2018-12-05T10:32:02Z</time>
      </trkpt>
      <trkpt lat="47.69602" lon="6.03826">
        <ele>216</ele>
        <time>2018-12-05T10:32:04Z</time>
      </trkpt>
      <trkpt lat="47.69596" lon="6.03826">
        <ele>216</ele>
        <time>2018-12-05T10:32:06Z</time>
      </trkpt>
      <trkpt lat="47.6959" lon="6.03825">
        <ele>215</ele>
        <time>2018-12-05T10:32:08Z</time>
      </trkpt>
      <trkpt lat="47.69585" lon="6.03824">
        <ele>215</ele>
        <time>2018-12-05T10:32:10Z</time>
      </trkpt>
      <trkpt lat="47.69579" lon="6.03823">
        <ele>216</ele>
        <time>2018-12-05T10:32:12Z</time>
      </trkpt>
      <trkpt lat="47.69573" lon="6.03822">
        <ele>216</ele>
        <time>2018-12-05T10:32:14Z</time>
      </trkpt>
      <trkpt lat="47.69565" lon="6.0382">
        <ele>216</ele>
        <time>2018-12-05T10:32:16Z</time>
      </trkpt>
      <trkpt lat="47.69553" lon="6.03818">
        <ele>217</ele>
        <time>2018-12-05T10:32:18Z</time>
      </trkpt>
      <trkpt lat="47.69548" lon="6.03817">
        <ele>217</ele>
        <time>2018-12-05T10:32:19Z</time>
      </trkpt>
      <trkpt lat="47.6954" lon="6.03816">
        <ele>217</ele>
        <time>2018-12-05T10:32:21Z</time>
      </trkpt>
      <trkpt lat="47.69531" lon="6.03815">
        <ele>216</ele>
        <time>2018-12-05T10:32:23Z</time>
      </trkpt>
      <trkpt lat="47.69522" lon="6.03813">
        <ele>216</ele>
        <time>2018-12-05T10:32:25Z</time>
      </trkpt>
      <trkpt lat="47.69517" lon="6.03812">
        <ele>216</ele>
        <time>2018-12-05T10:32:26Z</time>
      </trkpt>
      <trkpt lat="47.69512" lon="6.03811">
        <ele>216</ele>
        <time>2018-12-05T10:32:27Z</time>
      </trkpt>
      <trkpt lat="47.69507" lon="6.03811">
        <ele>215</ele>
        <time>2018-12-05T10:32:28Z</time>
      </trkpt>
      <trkpt lat="47.69503" lon="6.0381">
        <ele>215</ele>
        <time>2018-12-05T10:32:29Z</time>
      </trkpt>
      <trkpt lat="47.69498" lon="6.0381">
        <ele>215</ele>
        <time>2018-12-05T10:32:30Z</time>
      </trkpt>
      <trkpt lat="47.69492" lon="6.03809">
        <ele>215</ele>
        <time>2018-12-05T10:32:31Z</time>
      </trkpt>
      <trkpt lat="47.69487" lon="6.03808">
        <ele>215</ele>
        <time>2018-12-05T10:32:32Z</time>
      </trkpt>
      <trkpt lat="47.69482" lon="6.03807">
        <ele>215</ele>
        <time>2018-12-05T10:32:33Z</time>
      </trkpt>
      <trkpt lat="47.69477" lon="6.03807">
        <ele>216</ele>
        <time>2018-12-05T10:32:34Z</time>
      </trkpt>
      <trkpt lat="47.69472" lon="6.03807">
        <ele>216</ele>
        <time>2018-12-05T10:32:35Z</time>
      </trkpt>
      <trkpt lat="47.69467" lon="6.03806">
        <ele>216</ele>
        <time>2018-12-05T10:32:36Z</time>
      </trkpt>
      <trkpt lat="47.69462" lon="6.03806">
        <ele>216</ele>
        <time>2018-12-05T10:32:37Z</time>
      </trkpt>
      <trkpt lat="47.69457" lon="6.03806">
        <ele>216</ele>
        <time>2018-12-05T10:32:38Z</time>
      </trkpt>
      <trkpt lat="47.69448" lon="6.03806">
        <ele>216</ele>
        <time>2018-12-05T10:32:40Z</time>
      </trkpt>
      <trkpt lat="47.69443" lon="6.03806">
        <ele>216</ele>
        <time>2018-12-05T10:32:41Z</time>
      </trkpt>
      <trkpt lat="47.69438" lon="6.03805">
        <ele>216</ele>
        <time>2018-12-05T10:32:42Z</time>
      </trkpt>
      <trkpt lat="47.69434" lon="6.03805">
        <ele>216</ele>
        <time>2018-12-05T10:32:43Z</time>
      </trkpt>
      <trkpt lat="47.69425" lon="6.03805">
        <ele>216</ele>
        <time>2018-12-05T10:32:45Z</time>
      </trkpt>
      <trkpt lat="47.69416" lon="6.03805">
        <ele>214</ele>
        <time>2018-12-05T10:32:47Z</time>
      </trkpt>
      <trkpt lat="47.69408" lon="6.03805">
        <ele>214</ele>
        <time>2018-12-05T10:32:49Z</time>
      </trkpt>
      <trkpt lat="47.69403" lon="6.03805">
        <ele>214</ele>
        <time>2018-12-05T10:32:50Z</time>
      </trkpt>
      <trkpt lat="47.69394" lon="6.03805">
        <ele>214</ele>
        <time>2018-12-05T10:32:52Z</time>
      </trkpt>
      <trkpt lat="47.69389" lon="6.03805">
        <ele>214</ele>
        <time>2018-12-05T10:32:53Z</time>
      </trkpt>
      <trkpt lat="47.69384" lon="6.03805">
        <ele>214</ele>
        <time>2018-12-05T10:32:54Z</time>
      </trkpt>
      <trkpt lat="47.69375" lon="6.03803">
        <ele>214</ele>
        <time>2018-12-05T10:32:56Z</time>
      </trkpt>
      <trkpt lat="47.6937" lon="6.03802">
        <ele>214</ele>
        <time>2018-12-05T10:32:57Z</time>
      </trkpt>
      <trkpt lat="47.69365" lon="6.03803">
        <ele>214</ele>
        <time>2018-12-05T10:32:58Z</time>
      </trkpt>
      <trkpt lat="47.69361" lon="6.03803">
        <ele>214</ele>
        <time>2018-12-05T10:32:59Z</time>
      </trkpt>
      <trkpt lat="47.69352" lon="6.03801">
        <ele>214</ele>
        <time>2018-12-05T10:33:01Z</time>
      </trkpt>
      <trkpt lat="47.69344" lon="6.038">
        <ele>214</ele>
        <time>2018-12-05T10:33:03Z</time>
      </trkpt>
      <trkpt lat="47.69337" lon="6.03798">
        <ele>214</ele>
        <time>2018-12-05T10:33:05Z</time>
      </trkpt>
      <trkpt lat="47.69328" lon="6.03796">
        <ele>211</ele>
        <time>2018-12-05T10:33:07Z</time>
      </trkpt>
      <trkpt lat="47.69324" lon="6.03795">
        <ele>211</ele>
        <time>2018-12-05T10:33:08Z</time>
      </trkpt>
      <trkpt lat="47.69314" lon="6.03794">
        <ele>211</ele>
        <time>2018-12-05T10:33:10Z</time>
      </trkpt>
      <trkpt lat="47.69305" lon="6.03792">
        <ele>211</ele>
        <time>2018-12-05T10:33:12Z</time>
      </trkpt>
      <trkpt lat="47.693" lon="6.03791">
        <ele>211</ele>
        <time>2018-12-05T10:33:13Z</time>
      </trkpt>
      <trkpt lat="47.69292" lon="6.0379">
        <ele>211</ele>
        <time>2018-12-05T10:33:15Z</time>
      </trkpt>
      <trkpt lat="47.69287" lon="6.0379">
        <ele>211</ele>
        <time>2018-12-05T10:33:16Z</time>
      </trkpt>
      <trkpt lat="47.69283" lon="6.03789">
        <ele>211</ele>
        <time>2018-12-05T10:33:17Z</time>
      </trkpt>
      <trkpt lat="47.69274" lon="6.03788">
        <ele>211</ele>
        <time>2018-12-05T10:33:19Z</time>
      </trkpt>
      <trkpt lat="47.69269" lon="6.03787">
        <ele>211</ele>
        <time>2018-12-05T10:33:20Z</time>
      </trkpt>
      <trkpt lat="47.6926" lon="6.03786">
        <ele>211</ele>
        <time>2018-12-05T10:33:22Z</time>
      </trkpt>
      <trkpt lat="47.69256" lon="6.03785">
        <ele>211</ele>
        <time>2018-12-05T10:33:23Z</time>
      </trkpt>
      <trkpt lat="47.69251" lon="6.03784">
        <ele>211</ele>
        <time>2018-12-05T10:33:24Z</time>
      </trkpt>
      <trkpt lat="47.69246" lon="6.03783">
        <ele>209</ele>
        <time>2018-12-05T10:33:25Z</time>
      </trkpt>
      <trkpt lat="47.69241" lon="6.03782">
        <ele>209</ele>
        <time>2018-12-05T10:33:26Z</time>
      </trkpt>
      <trkpt lat="47.69237" lon="6.03781">
        <ele>209</ele>
        <time>2018-12-05T10:33:27Z</time>
      </trkpt>
      <trkpt lat="47.69227" lon="6.0378">
        <ele>209</ele>
        <time>2018-12-05T10:33:29Z</time>
      </trkpt>
      <trkpt lat="47.69223" lon="6.0378">
        <ele>209</ele>
        <time>2018-12-05T10:33:30Z</time>
      </trkpt>
      <trkpt lat="47.69214" lon="6.0378">
        <ele>209</ele>
        <time>2018-12-05T10:33:32Z</time>
      </trkpt>
      <trkpt lat="47.69207" lon="6.03781">
        <ele>209</ele>
        <time>2018-12-05T10:33:34Z</time>
      </trkpt>
      <trkpt lat="47.69198" lon="6.03783">
        <ele>209</ele>
        <time>2018-12-05T10:33:36Z</time>
      </trkpt>
      <trkpt lat="47.69189" lon="6.03785">
        <ele>209</ele>
        <time>2018-12-05T10:33:38Z</time>
      </trkpt>
      <trkpt lat="47.69183" lon="6.03786">
        <ele>208</ele>
        <time>2018-12-05T10:33:39Z</time>
      </trkpt>
      <trkpt lat="47.69178" lon="6.03787">
        <ele>208</ele>
        <time>2018-12-05T10:33:40Z</time>
      </trkpt>
      <trkpt lat="47.69173" lon="6.03787">
        <ele>208</ele>
        <time>2018-12-05T10:33:41Z</time>
      </trkpt>
      <trkpt lat="47.69168" lon="6.03788">
        <ele>208</ele>
        <time>2018-12-05T10:33:42Z</time>
      </trkpt>
      <trkpt lat="47.69163" lon="6.03792">
        <ele>208</ele>
        <time>2018-12-05T10:33:43Z</time>
      </trkpt>
      <trkpt lat="47.69153" lon="6.03795">
        <ele>208</ele>
        <time>2018-12-05T10:33:45Z</time>
      </trkpt>
      <trkpt lat="47.69148" lon="6.03797">
        <ele>208</ele>
        <time>2018-12-05T10:33:46Z</time>
      </trkpt>
      <trkpt lat="47.69143" lon="6.03798">
        <ele>208</ele>
        <time>2018-12-05T10:33:47Z</time>
      </trkpt>
      <trkpt lat="47.69139" lon="6.03799">
        <ele>208</ele>
        <time>2018-12-05T10:33:48Z</time>
      </trkpt>
      <trkpt lat="47.69131" lon="6.038">
        <ele>208</ele>
        <time>2018-12-05T10:33:50Z</time>
      </trkpt>
      <trkpt lat="47.69125" lon="6.03797">
        <ele>208</ele>
        <time>2018-12-05T10:33:52Z</time>
      </trkpt>
      <trkpt lat="47.69121" lon="6.03795">
        <ele>208</ele>
        <time>2018-12-05T10:33:54Z</time>
      </trkpt>
      <trkpt lat="47.69116" lon="6.03792">
        <ele>208</ele>
        <time>2018-12-05T10:34:36Z</time>
      </trkpt>
      <trkpt lat="47.69111" lon="6.03791">
        <ele>208</ele>
        <time>2018-12-05T10:34:38Z</time>
      </trkpt>
      <trkpt lat="47.69105" lon="6.03795">
        <ele>208</ele>
        <time>2018-12-05T10:34:40Z</time>
      </trkpt>
      <trkpt lat="47.691" lon="6.03803">
        <ele>208</ele>
        <time>2018-12-05T10:34:42Z</time>
      </trkpt>
      <trkpt lat="47.69097" lon="6.0381">
        <ele>207</ele>
        <time>2018-12-05T10:34:43Z</time>
      </trkpt>
      <trkpt lat="47.69092" lon="6.03824">
        <ele>207</ele>
        <time>2018-12-05T10:34:44Z</time>
      </trkpt>
      <trkpt lat="47.69089" lon="6.0383">
        <ele>206</ele>
        <time>2018-12-05T10:34:45Z</time>
      </trkpt>
      <trkpt lat="47.69086" lon="6.03837">
        <ele>206</ele>
        <time>2018-12-05T10:34:46Z</time>
      </trkpt>
      <trkpt lat="47.69083" lon="6.03844">
        <ele>206</ele>
        <time>2018-12-05T10:34:47Z</time>
      </trkpt>
      <trkpt lat="47.69079" lon="6.03852">
        <ele>206</ele>
        <time>2018-12-05T10:34:48Z</time>
      </trkpt>
      <trkpt lat="47.69076" lon="6.03859">
        <ele>206</ele>
        <time>2018-12-05T10:34:49Z</time>
      </trkpt>
      <trkpt lat="47.69073" lon="6.03867">
        <ele>206</ele>
        <time>2018-12-05T10:34:50Z</time>
      </trkpt>
      <trkpt lat="47.69069" lon="6.03875">
        <ele>206</ele>
        <time>2018-12-05T10:34:51Z</time>
      </trkpt>
      <trkpt lat="47.69066" lon="6.03882">
        <ele>205</ele>
        <time>2018-12-05T10:34:52Z</time>
      </trkpt>
      <trkpt lat="47.69064" lon="6.03888">
        <ele>205</ele>
        <time>2018-12-05T10:34:53Z</time>
      </trkpt>
      <trkpt lat="47.69061" lon="6.03894">
        <ele>205</ele>
        <time>2018-12-05T10:34:54Z</time>
      </trkpt>
      <trkpt lat="47.69059" lon="6.03901">
        <ele>205</ele>
        <time>2018-12-05T10:34:55Z</time>
      </trkpt>
      <trkpt lat="47.69056" lon="6.03907">
        <ele>205</ele>
        <time>2018-12-05T10:34:56Z</time>
      </trkpt>
      <trkpt lat="47.69054" lon="6.03913">
        <ele>205</ele>
        <time>2018-12-05T10:34:57Z</time>
      </trkpt>
      <trkpt lat="47.69052" lon="6.03919">
        <ele>206</ele>
        <time>2018-12-05T10:34:58Z</time>
      </trkpt>
      <trkpt lat="47.69049" lon="6.03925">
        <ele>206</ele>
        <time>2018-12-05T10:34:59Z</time>
      </trkpt>
      <trkpt lat="47.69046" lon="6.03933">
        <ele>206</ele>
        <time>2018-12-05T10:35:00Z</time>
      </trkpt>
      <trkpt lat="47.69042" lon="6.0394">
        <ele>206</ele>
        <time>2018-12-05T10:35:01Z</time>
      </trkpt>
      <trkpt lat="47.69039" lon="6.03947">
        <ele>207</ele>
        <time>2018-12-05T10:35:02Z</time>
      </trkpt>
      <trkpt lat="47.69036" lon="6.03954">
        <ele>207</ele>
        <time>2018-12-05T10:35:03Z</time>
      </trkpt>
      <trkpt lat="47.69033" lon="6.03961">
        <ele>207</ele>
        <time>2018-12-05T10:35:04Z</time>
      </trkpt>
      <trkpt lat="47.6903" lon="6.03968">
        <ele>207</ele>
        <time>2018-12-05T10:35:05Z</time>
      </trkpt>
      <trkpt lat="47.69027" lon="6.03974">
        <ele>207</ele>
        <time>2018-12-05T10:35:06Z</time>
      </trkpt>
      <trkpt lat="47.69025" lon="6.03981">
        <ele>207</ele>
        <time>2018-12-05T10:35:07Z</time>
      </trkpt>
      <trkpt lat="47.69022" lon="6.03987">
        <ele>208</ele>
        <time>2018-12-05T10:35:08Z</time>
      </trkpt>
      <trkpt lat="47.69019" lon="6.03993">
        <ele>208</ele>
        <time>2018-12-05T10:35:09Z</time>
      </trkpt>
      <trkpt lat="47.69017" lon="6.04">
        <ele>208</ele>
        <time>2018-12-05T10:35:10Z</time>
      </trkpt>
      <trkpt lat="47.69014" lon="6.04005">
        <ele>209</ele>
        <time>2018-12-05T10:35:11Z</time>
      </trkpt>
      <trkpt lat="47.69009" lon="6.04016">
        <ele>209</ele>
        <time>2018-12-05T10:35:13Z</time>
      </trkpt>
      <trkpt lat="47.69004" lon="6.04028">
        <ele>209</ele>
        <time>2018-12-05T10:35:15Z</time>
      </trkpt>
      <trkpt lat="47.69003" lon="6.04034">
        <ele>209</ele>
        <time>2018-12-05T10:35:16Z</time>
      </trkpt>
      <trkpt lat="47.68998" lon="6.04046">
        <ele>209</ele>
        <time>2018-12-05T10:35:18Z</time>
      </trkpt>
      <trkpt lat="47.68996" lon="6.04051">
        <ele>209</ele>
        <time>2018-12-05T10:35:19Z</time>
      </trkpt>
      <trkpt lat="47.68994" lon="6.04057">
        <ele>209</ele>
        <time>2018-12-05T10:35:20Z</time>
      </trkpt>
      <trkpt lat="47.68992" lon="6.04064">
        <ele>209</ele>
        <time>2018-12-05T10:35:21Z</time>
      </trkpt>
      <trkpt lat="47.68989" lon="6.0407">
        <ele>209</ele>
        <time>2018-12-05T10:35:22Z</time>
      </trkpt>
      <trkpt lat="47.68986" lon="6.04077">
        <ele>209</ele>
        <time>2018-12-05T10:35:23Z</time>
      </trkpt>
      <trkpt lat="47.68984" lon="6.04083">
        <ele>210</ele>
        <time>2018-12-05T10:35:24Z</time>
      </trkpt>
      <trkpt lat="47.68981" lon="6.0409">
        <ele>210</ele>
        <time>2018-12-05T10:35:25Z</time>
      </trkpt>
      <trkpt lat="47.68979" lon="6.04097">
        <ele>210</ele>
        <time>2018-12-05T10:35:26Z</time>
      </trkpt>
      <trkpt lat="47.68976" lon="6.04104">
        <ele>210</ele>
        <time>2018-12-05T10:35:27Z</time>
      </trkpt>
      <trkpt lat="47.68973" lon="6.04111">
        <ele>209</ele>
        <time>2018-12-05T10:35:28Z</time>
      </trkpt>
      <trkpt lat="47.68971" lon="6.04118">
        <ele>209</ele>
        <time>2018-12-05T10:35:29Z</time>
      </trkpt>
      <trkpt lat="47.68968" lon="6.04124">
        <ele>209</ele>
        <time>2018-12-05T10:35:30Z</time>
      </trkpt>
      <trkpt lat="47.68966" lon="6.0413">
        <ele>210</ele>
        <time>2018-12-05T10:35:31Z</time>
      </trkpt>
      <trkpt lat="47.68963" lon="6.04137">
        <ele>210</ele>
        <time>2018-12-05T10:35:32Z</time>
      </trkpt>
      <trkpt lat="47.6896" lon="6.04144">
        <ele>210</ele>
        <time>2018-12-05T10:35:33Z</time>
      </trkpt>
      <trkpt lat="47.68957" lon="6.04151">
        <ele>210</ele>
        <time>2018-12-05T10:35:34Z</time>
      </trkpt>
      <trkpt lat="47.68954" lon="6.04158">
        <ele>210</ele>
        <time>2018-12-05T10:35:35Z</time>
      </trkpt>
      <trkpt lat="47.68951" lon="6.04165">
        <ele>210</ele>
        <time>2018-12-05T10:35:36Z</time>
      </trkpt>
      <trkpt lat="47.68948" lon="6.04172">
        <ele>210</ele>
        <time>2018-12-05T10:35:37Z</time>
      </trkpt>
      <trkpt lat="47.68946" lon="6.04179">
        <ele>211</ele>
        <time>2018-12-05T10:35:38Z</time>
      </trkpt>
      <trkpt lat="47.68943" lon="6.04185">
        <ele>211</ele>
        <time>2018-12-05T10:35:39Z</time>
      </trkpt>
      <trkpt lat="47.6894" lon="6.04191">
        <ele>211</ele>
        <time>2018-12-05T10:35:40Z</time>
      </trkpt>
      <trkpt lat="47.68937" lon="6.04198">
        <ele>211</ele>
        <time>2018-12-05T10:35:41Z</time>
      </trkpt>
      <trkpt lat="47.68935" lon="6.04205">
        <ele>211</ele>
        <time>2018-12-05T10:35:42Z</time>
      </trkpt>
      <trkpt lat="47.68932" lon="6.04212">
        <ele>211</ele>
        <time>2018-12-05T10:35:43Z</time>
      </trkpt>
      <trkpt lat="47.68929" lon="6.04219">
        <ele>211</ele>
        <time>2018-12-05T10:35:44Z</time>
      </trkpt>
      <trkpt lat="47.68927" lon="6.04225">
        <ele>211</ele>
        <time>2018-12-05T10:35:45Z</time>
      </trkpt>
      <trkpt lat="47.68924" lon="6.04231">
        <ele>211</ele>
        <time>2018-12-05T10:35:46Z</time>
      </trkpt>
      <trkpt lat="47.68921" lon="6.04237">
        <ele>211</ele>
        <time>2018-12-05T10:35:47Z</time>
      </trkpt>
      <trkpt lat="47.68918" lon="6.04243">
        <ele>212</ele>
        <time>2018-12-05T10:35:48Z</time>
      </trkpt>
      <trkpt lat="47.68913" lon="6.04251">
        <ele>212</ele>
        <time>2018-12-05T10:35:50Z</time>
      </trkpt>
      <trkpt lat="47.68907" lon="6.04248">
        <ele>212</ele>
        <time>2018-12-05T10:35:52Z</time>
      </trkpt>
      <trkpt lat="47.68903" lon="6.04244">
        <ele>211</ele>
        <time>2018-12-05T10:35:54Z</time>
      </trkpt>
      <trkpt lat="47.68897" lon="6.04242">
        <ele>211</ele>
        <time>2018-12-05T10:35:56Z</time>
      </trkpt>
      <trkpt lat="47.68892" lon="6.0424">
        <ele>211</ele>
        <time>2018-12-05T10:35:58Z</time>
      </trkpt>
      <trkpt lat="47.68884" lon="6.04237">
        <ele>211</ele>
        <time>2018-12-05T10:36:01Z</time>
      </trkpt>
      <trkpt lat="47.68876" lon="6.04235">
        <ele>211</ele>
        <time>2018-12-05T10:36:03Z</time>
      </trkpt>
      <trkpt lat="47.6887" lon="6.04235">
        <ele>211</ele>
        <time>2018-12-05T10:36:05Z</time>
      </trkpt>
      <trkpt lat="47.68862" lon="6.04236">
        <ele>211</ele>
        <time>2018-12-05T10:36:06Z</time>
      </trkpt>
      <trkpt lat="47.68857" lon="6.04237">
        <ele>211</ele>
        <time>2018-12-05T10:36:07Z</time>
      </trkpt>
      <trkpt lat="47.68853" lon="6.04236">
        <ele>211</ele>
        <time>2018-12-05T10:36:08Z</time>
      </trkpt>
      <trkpt lat="47.68844" lon="6.04235">
        <ele>211</ele>
        <time>2018-12-05T10:36:10Z</time>
      </trkpt>
      <trkpt lat="47.68835" lon="6.04236">
        <ele>211</ele>
        <time>2018-12-05T10:36:12Z</time>
      </trkpt>
      <trkpt lat="47.68831" lon="6.04237">
        <ele>211</ele>
        <time>2018-12-05T10:36:13Z</time>
      </trkpt>
      <trkpt lat="47.68823" lon="6.04237">
        <ele>211</ele>
        <time>2018-12-05T10:36:15Z</time>
      </trkpt>
      <trkpt lat="47.68813" lon="6.04237">
        <ele>211</ele>
        <time>2018-12-05T10:36:17Z</time>
      </trkpt>
      <trkpt lat="47.68807" lon="6.04236">
        <ele>211</ele>
        <time>2018-12-05T10:36:18Z</time>
      </trkpt>
      <trkpt lat="47.68802" lon="6.04234">
        <ele>211</ele>
        <time>2018-12-05T10:36:19Z</time>
      </trkpt>
      <trkpt lat="47.68797" lon="6.04234">
        <ele>211</ele>
        <time>2018-12-05T10:36:20Z</time>
      </trkpt>
      <trkpt lat="47.68788" lon="6.04233">
        <ele>211</ele>
        <time>2018-12-05T10:36:22Z</time>
      </trkpt>
      <trkpt lat="47.68782" lon="6.04231">
        <ele>211</ele>
        <time>2018-12-05T10:36:23Z</time>
      </trkpt>
      <trkpt lat="47.68778" lon="6.0423">
        <ele>211</ele>
        <time>2018-12-05T10:36:24Z</time>
      </trkpt>
      <trkpt lat="47.68769" lon="6.04229">
        <ele>211</ele>
        <time>2018-12-05T10:36:26Z</time>
      </trkpt>
      <trkpt lat="47.68764" lon="6.04228">
        <ele>211</ele>
        <time>2018-12-05T10:36:27Z</time>
      </trkpt>
      <trkpt lat="47.68757" lon="6.04227">
        <ele>211</ele>
        <time>2018-12-05T10:36:29Z</time>
      </trkpt>
      <trkpt lat="47.68752" lon="6.04227">
        <ele>211</ele>
        <time>2018-12-05T10:36:30Z</time>
      </trkpt>
      <trkpt lat="47.68747" lon="6.04227">
        <ele>212</ele>
        <time>2018-12-05T10:36:31Z</time>
      </trkpt>
      <trkpt lat="47.68739" lon="6.04226">
        <ele>212</ele>
        <time>2018-12-05T10:36:33Z</time>
      </trkpt>
      <trkpt lat="47.6873" lon="6.04224">
        <ele>211</ele>
        <time>2018-12-05T10:36:35Z</time>
      </trkpt>
      <trkpt lat="47.6872" lon="6.04221">
        <ele>211</ele>
        <time>2018-12-05T10:36:37Z</time>
      </trkpt>
      <trkpt lat="47.68716" lon="6.0422">
        <ele>211</ele>
        <time>2018-12-05T10:36:38Z</time>
      </trkpt>
      <trkpt lat="47.68708" lon="6.04217">
        <ele>211</ele>
        <time>2018-12-05T10:36:40Z</time>
      </trkpt>
      <trkpt lat="47.68699" lon="6.04213">
        <ele>211</ele>
        <time>2018-12-05T10:36:42Z</time>
      </trkpt>
      <trkpt lat="47.68694" lon="6.04207">
        <ele>211</ele>
        <time>2018-12-05T10:36:43Z</time>
      </trkpt>
      <trkpt lat="47.6869" lon="6.04204">
        <ele>211</ele>
        <time>2018-12-05T10:36:44Z</time>
      </trkpt>
      <trkpt lat="47.68682" lon="6.04202">
        <ele>211</ele>
        <time>2018-12-05T10:36:46Z</time>
      </trkpt>
      <trkpt lat="47.68675" lon="6.04199">
        <ele>211</ele>
        <time>2018-12-05T10:36:48Z</time>
      </trkpt>
      <trkpt lat="47.6867" lon="6.04198">
        <ele>211</ele>
        <time>2018-12-05T10:36:49Z</time>
      </trkpt>
      <trkpt lat="47.68665" lon="6.04198">
        <ele>211</ele>
        <time>2018-12-05T10:36:50Z</time>
      </trkpt>
      <trkpt lat="47.6866" lon="6.04198">
        <ele>211</ele>
        <time>2018-12-05T10:36:51Z</time>
      </trkpt>
      <trkpt lat="47.68655" lon="6.04196">
        <ele>211</ele>
        <time>2018-12-05T10:36:52Z</time>
      </trkpt>
      <trkpt lat="47.68651" lon="6.04195">
        <ele>211</ele>
        <time>2018-12-05T10:36:53Z</time>
      </trkpt>
      <trkpt lat="47.68646" lon="6.04193">
        <ele>211</ele>
        <time>2018-12-05T10:36:54Z</time>
      </trkpt>
      <trkpt lat="47.68641" lon="6.04192">
        <ele>211</ele>
        <time>2018-12-05T10:36:55Z</time>
      </trkpt>
      <trkpt lat="47.68632" lon="6.04191">
        <ele>211</ele>
        <time>2018-12-05T10:36:57Z</time>
      </trkpt>
      <trkpt lat="47.68628" lon="6.0419">
        <ele>211</ele>
        <time>2018-12-05T10:36:58Z</time>
      </trkpt>
      <trkpt lat="47.68619" lon="6.04188">
        <ele>211</ele>
        <time>2018-12-05T10:37:00Z</time>
      </trkpt>
      <trkpt lat="47.68612" lon="6.04186">
        <ele>210</ele>
        <time>2018-12-05T10:37:02Z</time>
      </trkpt>
      <trkpt lat="47.68604" lon="6.04185">
        <ele>210</ele>
        <time>2018-12-05T10:37:04Z</time>
      </trkpt>
      <trkpt lat="47.68597" lon="6.04184">
        <ele>210</ele>
        <time>2018-12-05T10:37:06Z</time>
      </trkpt>
      <trkpt lat="47.6859" lon="6.04183">
        <ele>210</ele>
        <time>2018-12-05T10:37:08Z</time>
      </trkpt>
      <trkpt lat="47.68582" lon="6.04181">
        <ele>209</ele>
        <time>2018-12-05T10:37:10Z</time>
      </trkpt>
      <trkpt lat="47.68575" lon="6.0418">
        <ele>209</ele>
        <time>2018-12-05T10:37:12Z</time>
      </trkpt>
      <trkpt lat="47.68566" lon="6.04179">
        <ele>209</ele>
        <time>2018-12-05T10:37:14Z</time>
      </trkpt>
      <trkpt lat="47.68559" lon="6.04178">
        <ele>209</ele>
        <time>2018-12-05T10:37:16Z</time>
      </trkpt>
      <trkpt lat="47.68553" lon="6.04177">
        <ele>209</ele>
        <time>2018-12-05T10:37:18Z</time>
      </trkpt>
      <trkpt lat="47.68547" lon="6.04175">
        <ele>209</ele>
        <time>2018-12-05T10:37:21Z</time>
      </trkpt>
      <trkpt lat="47.68541" lon="6.04173">
        <ele>209</ele>
        <time>2018-12-05T10:37:23Z</time>
      </trkpt>
      <trkpt lat="47.68535" lon="6.04171">
        <ele>209</ele>
        <time>2018-12-05T10:37:25Z</time>
      </trkpt>
      <trkpt lat="47.68527" lon="6.04169">
        <ele>209</ele>
        <time>2018-12-05T10:37:27Z</time>
      </trkpt>
      <trkpt lat="47.68519" lon="6.04167">
        <ele>208</ele>
        <time>2018-12-05T10:37:29Z</time>
      </trkpt>
      <trkpt lat="47.68515" lon="6.04165">
        <ele>208</ele>
        <time>2018-12-05T10:37:30Z</time>
      </trkpt>
      <trkpt lat="47.68506" lon="6.04162">
        <ele>208</ele>
        <time>2018-12-05T10:37:31Z</time>
      </trkpt>
      <trkpt lat="47.68501" lon="6.04161">
        <ele>208</ele>
        <time>2018-12-05T10:37:32Z</time>
      </trkpt>
      <trkpt lat="47.68496" lon="6.04161">
        <ele>208</ele>
        <time>2018-12-05T10:37:33Z</time>
      </trkpt>
      <trkpt lat="47.68491" lon="6.0416">
        <ele>208</ele>
        <time>2018-12-05T10:37:34Z</time>
      </trkpt>
      <trkpt lat="47.68483" lon="6.04159">
        <ele>207</ele>
        <time>2018-12-05T10:37:36Z</time>
      </trkpt>
      <trkpt lat="47.68475" lon="6.04157">
        <ele>207</ele>
        <time>2018-12-05T10:37:38Z</time>
      </trkpt>
      <trkpt lat="47.6847" lon="6.04156">
        <ele>207</ele>
        <time>2018-12-05T10:37:39Z</time>
      </trkpt>
      <trkpt lat="47.68464" lon="6.04157">
        <ele>207</ele>
        <time>2018-12-05T10:37:40Z</time>
      </trkpt>
      <trkpt lat="47.68459" lon="6.04158">
        <ele>207</ele>
        <time>2018-12-05T10:37:41Z</time>
      </trkpt>
      <trkpt lat="47.68451" lon="6.04158">
        <ele>207</ele>
        <time>2018-12-05T10:37:43Z</time>
      </trkpt>
      <trkpt lat="47.68443" lon="6.04155">
        <ele>207</ele>
        <time>2018-12-05T10:37:45Z</time>
      </trkpt>
      <trkpt lat="47.68438" lon="6.04153">
        <ele>207</ele>
        <time>2018-12-05T10:37:46Z</time>
      </trkpt>
      <trkpt lat="47.6843" lon="6.04152">
        <ele>206</ele>
        <time>2018-12-05T10:37:48Z</time>
      </trkpt>
      <trkpt lat="47.68425" lon="6.04151">
        <ele>206</ele>
        <time>2018-12-05T10:37:49Z</time>
      </trkpt>
      <trkpt lat="47.68416" lon="6.04151">
        <ele>206</ele>
        <time>2018-12-05T10:37:51Z</time>
      </trkpt>
      <trkpt lat="47.68409" lon="6.0415">
        <ele>206</ele>
        <time>2018-12-05T10:37:53Z</time>
      </trkpt>
      <trkpt lat="47.684" lon="6.04147">
        <ele>206</ele>
        <time>2018-12-05T10:37:55Z</time>
      </trkpt>
      <trkpt lat="47.68392" lon="6.04146">
        <ele>206</ele>
        <time>2018-12-05T10:37:57Z</time>
      </trkpt>
      <trkpt lat="47.68384" lon="6.04147">
        <ele>206</ele>
        <time>2018-12-05T10:37:59Z</time>
      </trkpt>
      <trkpt lat="47.68376" lon="6.04147">
        <ele>206</ele>
        <time>2018-12-05T10:38:01Z</time>
      </trkpt>
      <trkpt lat="47.68371" lon="6.04156">
        <ele>206</ele>
        <time>2018-12-05T10:38:03Z</time>
      </trkpt>
      <trkpt lat="47.68369" lon="6.04162">
        <ele>206</ele>
        <time>2018-12-05T10:38:04Z</time>
      </trkpt>
      <trkpt lat="47.68368" lon="6.0417">
        <ele>207</ele>
        <time>2018-12-05T10:38:05Z</time>
      </trkpt>
      <trkpt lat="47.68368" lon="6.04176">
        <ele>207</ele>
        <time>2018-12-05T10:38:06Z</time>
      </trkpt>
      <trkpt lat="47.68369" lon="6.04188">
        <ele>207</ele>
        <time>2018-12-05T10:38:08Z</time>
      </trkpt>
      <trkpt lat="47.6837" lon="6.04201">
        <ele>207</ele>
        <time>2018-12-05T10:38:10Z</time>
      </trkpt>
      <trkpt lat="47.68371" lon="6.04213">
        <ele>208</ele>
        <time>2018-12-05T10:38:12Z</time>
      </trkpt>
      <trkpt lat="47.68373" lon="6.04224">
        <ele>208</ele>
        <time>2018-12-05T10:38:14Z</time>
      </trkpt>
      <trkpt lat="47.68376" lon="6.04234">
        <ele>208</ele>
        <time>2018-12-05T10:38:16Z</time>
      </trkpt>
      <trkpt lat="47.6838" lon="6.04243">
        <ele>208</ele>
        <time>2018-12-05T10:38:18Z</time>
      </trkpt>
      <trkpt lat="47.68384" lon="6.04246">
        <ele>208</ele>
        <time>2018-12-05T10:38:20Z</time>
      </trkpt>
      <trkpt lat="47.68388" lon="6.04249">
        <ele>208</ele>
        <time>2018-12-05T10:38:22Z</time>
      </trkpt>
      <trkpt lat="47.68393" lon="6.04253">
        <ele>209</ele>
        <time>2018-12-05T10:38:24Z</time>
      </trkpt>
      <trkpt lat="47.68396" lon="6.0426">
        <ele>209</ele>
        <time>2018-12-05T10:38:26Z</time>
      </trkpt>
      <trkpt lat="47.68399" lon="6.04269">
        <ele>209</ele>
        <time>2018-12-05T10:38:28Z</time>
      </trkpt>
      <trkpt lat="47.684" lon="6.04277">
        <ele>209</ele>
        <time>2018-12-05T10:38:30Z</time>
      </trkpt>
      <trkpt lat="47.684" lon="6.04286">
        <ele>210</ele>
        <time>2018-12-05T10:38:32Z</time>
      </trkpt>
      <trkpt lat="47.68401" lon="6.04294">
        <ele>210</ele>
        <time>2018-12-05T10:38:34Z</time>
      </trkpt>
      <trkpt lat="47.68401" lon="6.04303">
        <ele>210</ele>
        <time>2018-12-05T10:38:36Z</time>
      </trkpt>
      <trkpt lat="47.68401" lon="6.04313">
        <ele>210</ele>
        <time>2018-12-05T10:38:38Z</time>
      </trkpt>
      <trkpt lat="47.684" lon="6.04324">
        <ele>210</ele>
        <time>2018-12-05T10:38:40Z</time>
      </trkpt>
      <trkpt lat="47.68399" lon="6.04337">
        <ele>211</ele>
        <time>2018-12-05T10:38:42Z</time>
      </trkpt>
      <trkpt lat="47.68398" lon="6.04347">
        <ele>211</ele>
        <time>2018-12-05T10:38:44Z</time>
      </trkpt>
      <trkpt lat="47.68398" lon="6.04357">
        <ele>211</ele>
        <time>2018-12-05T10:38:46Z</time>
      </trkpt>
      <trkpt lat="47.68397" lon="6.04369">
        <ele>211</ele>
        <time>2018-12-05T10:38:48Z</time>
      </trkpt>
      <trkpt lat="47.68397" lon="6.0438">
        <ele>212</ele>
        <time>2018-12-05T10:38:50Z</time>
      </trkpt>
      <trkpt lat="47.68397" lon="6.04389">
        <ele>212</ele>
        <time>2018-12-05T10:38:52Z</time>
      </trkpt>
      <trkpt lat="47.68397" lon="6.04399">
        <ele>212</ele>
        <time>2018-12-05T10:38:54Z</time>
      </trkpt>
      <trkpt lat="47.68397" lon="6.04408">
        <ele>212</ele>
        <time>2018-12-05T10:38:56Z</time>
      </trkpt>
      <trkpt lat="47.68397" lon="6.04416">
        <ele>212</ele>
        <time>2018-12-05T10:38:58Z</time>
      </trkpt>
      <trkpt lat="47.68397" lon="6.04424">
        <ele>213</ele>
        <time>2018-12-05T10:39:00Z</time>
      </trkpt>
      <trkpt lat="47.68397" lon="6.04432">
        <ele>213</ele>
        <time>2018-12-05T10:39:03Z</time>
      </trkpt>
      <trkpt lat="47.68401" lon="6.04437">
        <ele>213</ele>
        <time>2018-12-05T10:39:06Z</time>
      </trkpt>
      <trkpt lat="47.68405" lon="6.04437">
        <ele>213</ele>
        <time>2018-12-05T10:39:08Z</time>
      </trkpt>
      <trkpt lat="47.68412" lon="6.04436">
        <ele>213</ele>
        <time>2018-12-05T10:39:10Z</time>
      </trkpt>
      <trkpt lat="47.68418" lon="6.04437">
        <ele>215</ele>
        <time>2018-12-05T10:39:12Z</time>
      </trkpt>
      <trkpt lat="47.68423" lon="6.04436">
        <ele>215</ele>
        <time>2018-12-05T10:39:14Z</time>
      </trkpt>
      <trkpt lat="47.68428" lon="6.04436">
        <ele>215</ele>
        <time>2018-12-05T10:39:16Z</time>
      </trkpt>
      <trkpt lat="47.68434" lon="6.04436">
        <ele>215</ele>
        <time>2018-12-05T10:39:18Z</time>
      </trkpt>
      <trkpt lat="47.6844" lon="6.04436">
        <ele>215</ele>
        <time>2018-12-05T10:39:20Z</time>
      </trkpt>
      <trkpt lat="47.68445" lon="6.04436">
        <ele>216</ele>
        <time>2018-12-05T10:39:22Z</time>
      </trkpt>
      <trkpt lat="47.68451" lon="6.04436">
        <ele>216</ele>
        <time>2018-12-05T10:39:25Z</time>
      </trkpt>
      <trkpt lat="47.68457" lon="6.04436">
        <ele>216</ele>
        <time>2018-12-05T10:39:28Z</time>
      </trkpt>
      <trkpt lat="47.68463" lon="6.04436">
        <ele>216</ele>
        <time>2018-12-05T10:39:31Z</time>
      </trkpt>
      <trkpt lat="47.68469" lon="6.04437">
        <ele>216</ele>
        <time>2018-12-05T10:39:34Z</time>
      </trkpt>
      <trkpt lat="47.68475" lon="6.04437">
        <ele>216</ele>
        <time>2018-12-05T10:39:37Z</time>
      </trkpt>
      <trkpt lat="47.6848" lon="6.04437">
        <ele>216</ele>
        <time>2018-12-05T10:39:39Z</time>
      </trkpt>
      <trkpt lat="47.68486" lon="6.04436">
        <ele>217</ele>
        <time>2018-12-05T10:39:41Z</time>
      </trkpt>
      <trkpt lat="47.68492" lon="6.04438">
        <ele>217</ele>
        <time>2018-12-05T10:39:43Z</time>
      </trkpt>
      <trkpt lat="47.685" lon="6.04441">
        <ele>217</ele>
        <time>2018-12-05T10:39:45Z</time>
      </trkpt>
      <trkpt lat="47.68507" lon="6.04446">
        <ele>219</ele>
        <time>2018-12-05T10:39:47Z</time>
      </trkpt>
      <trkpt lat="47.68513" lon="6.04448">
        <ele>219</ele>
        <time>2018-12-05T10:39:48Z</time>
      </trkpt>
      <trkpt lat="47.68517" lon="6.04451">
        <ele>219</ele>
        <time>2018-12-05T10:39:49Z</time>
      </trkpt>
      <trkpt lat="47.68522" lon="6.04454">
        <ele>219</ele>
        <time>2018-12-05T10:39:50Z</time>
      </trkpt>
      <trkpt lat="47.68526" lon="6.04457">
        <ele>220</ele>
        <time>2018-12-05T10:39:51Z</time>
      </trkpt>
      <trkpt lat="47.68536" lon="6.04462">
        <ele>220</ele>
        <time>2018-12-05T10:39:52Z</time>
      </trkpt>
      <trkpt lat="47.6854" lon="6.04465">
        <ele>220</ele>
        <time>2018-12-05T10:39:53Z</time>
      </trkpt>
      <trkpt lat="47.68548" lon="6.04471">
        <ele>220</ele>
        <time>2018-12-05T10:39:55Z</time>
      </trkpt>
      <trkpt lat="47.68552" lon="6.04475">
        <ele>221</ele>
        <time>2018-12-05T10:39:56Z</time>
      </trkpt>
      <trkpt lat="47.68557" lon="6.04478">
        <ele>221</ele>
        <time>2018-12-05T10:39:57Z</time>
      </trkpt>
      <trkpt lat="47.68561" lon="6.04482">
        <ele>221</ele>
        <time>2018-12-05T10:39:58Z</time>
      </trkpt>
      <trkpt lat="47.68566" lon="6.04485">
        <ele>222</ele>
        <time>2018-12-05T10:39:59Z</time>
      </trkpt>
      <trkpt lat="47.68571" lon="6.04489">
        <ele>222</ele>
        <time>2018-12-05T10:40:00Z</time>
      </trkpt>
      <trkpt lat="47.68576" lon="6.04493">
        <ele>223</ele>
        <time>2018-12-05T10:40:01Z</time>
      </trkpt>
      <trkpt lat="47.6858" lon="6.04496">
        <ele>223</ele>
        <time>2018-12-05T10:40:02Z</time>
      </trkpt>
      <trkpt lat="47.68585" lon="6.04499">
        <ele>224</ele>
        <time>2018-12-05T10:40:03Z</time>
      </trkpt>
      <trkpt lat="47.6859" lon="6.04502">
        <ele>225</ele>
        <time>2018-12-05T10:40:04Z</time>
      </trkpt>
      <trkpt lat="47.68594" lon="6.04505">
        <ele>226</ele>
        <time>2018-12-05T10:40:05Z</time>
      </trkpt>
      <trkpt lat="47.68599" lon="6.04509">
        <ele>227</ele>
        <time>2018-12-05T10:40:06Z</time>
      </trkpt>
      <trkpt lat="47.68603" lon="6.04513">
        <ele>227</ele>
        <time>2018-12-05T10:40:07Z</time>
      </trkpt>
      <trkpt lat="47.68608" lon="6.04516">
        <ele>228</ele>
        <time>2018-12-05T10:40:08Z</time>
      </trkpt>
      <trkpt lat="47.68615" lon="6.04522">
        <ele>228</ele>
        <time>2018-12-05T10:40:10Z</time>
      </trkpt>
      <trkpt lat="47.68621" lon="6.04527">
        <ele>229</ele>
        <time>2018-12-05T10:40:12Z</time>
      </trkpt>
      <trkpt lat="47.68626" lon="6.04537">
        <ele>229</ele>
        <time>2018-12-05T10:40:14Z</time>
      </trkpt>
      <trkpt lat="47.68626" lon="6.04547">
        <ele>229</ele>
        <time>2018-12-05T10:40:16Z</time>
      </trkpt>
      <trkpt lat="47.68625" lon="6.04554">
        <ele>230</ele>
        <time>2018-12-05T10:40:18Z</time>
      </trkpt>
      <trkpt lat="47.68627" lon="6.0456">
        <ele>230</ele>
        <time>2018-12-05T10:41:06Z</time>
      </trkpt>
      <trkpt lat="47.68629" lon="6.04569">
        <ele>230</ele>
        <time>2018-12-05T10:41:33Z</time>
      </trkpt>
    </trkseg>
  </trk>
</gpx>